<?xml version="1.0"?>
<gpx creator="GPS Visualizer http://www.gpsvisualizer.com/" version="1.1" xmlns="http://www.topografix.com/GPX/1/1" xmlns:xsi="http://www.w3.org/2001/XMLSchema-instance" xsi:schemaLocation="http://www.topografix.com/GPX/1/1 http://www.topografix.com/GPX/1/1/gpx.xsd">
<trk>
  <name>2014-03-30-01</name>
  <trkseg>
    <trkpt lat="48.49333" lon="2.638604">
      <ele>98.0</ele>
      <time>2014-03-30T08:02:58Z</time>
    </trkpt>
    <trkpt lat="48.493332" lon="2.638611">
      <ele>98.0</ele>
      <time>2014-03-30T08:03:00Z</time>
    </trkpt>
    <trkpt lat="48.493336" lon="2.638761">
      <ele>98.0</ele>
      <time>2014-03-30T08:03:07Z</time>
    </trkpt>
    <trkpt lat="48.493268" lon="2.638868">
      <ele>98.2</ele>
      <time>2014-03-30T08:03:11Z</time>
    </trkpt>
    <trkpt lat="48.493204" lon="2.63898">
      <ele>98.5</ele>
      <time>2014-03-30T08:03:14Z</time>
    </trkpt>
    <trkpt lat="48.493141" lon="2.639105">
      <ele>98.7</ele>
      <time>2014-03-30T08:03:17Z</time>
    </trkpt>
    <trkpt lat="48.493053" lon="2.639271">
      <ele>98.9</ele>
      <time>2014-03-30T08:03:20Z</time>
    </trkpt>
    <trkpt lat="48.492949" lon="2.639366">
      <ele>99.1</ele>
      <time>2014-03-30T08:03:23Z</time>
    </trkpt>
    <trkpt lat="48.492866" lon="2.63944">
      <ele>99.4</ele>
      <time>2014-03-30T08:03:26Z</time>
    </trkpt>
    <trkpt lat="48.492778" lon="2.639589">
      <ele>99.5</ele>
      <time>2014-03-30T08:03:29Z</time>
    </trkpt>
    <trkpt lat="48.492687" lon="2.639729">
      <ele>99.7</ele>
      <time>2014-03-30T08:03:32Z</time>
    </trkpt>
    <trkpt lat="48.492549" lon="2.639789">
      <ele>100.1</ele>
      <time>2014-03-30T08:03:34Z</time>
    </trkpt>
    <trkpt lat="48.492467" lon="2.639878">
      <ele>100.2</ele>
      <time>2014-03-30T08:03:36Z</time>
    </trkpt>
    <trkpt lat="48.49239" lon="2.639969">
      <ele>100.3</ele>
      <time>2014-03-30T08:03:38Z</time>
    </trkpt>
    <trkpt lat="48.492328" lon="2.640091">
      <ele>100.5</ele>
      <time>2014-03-30T08:03:41Z</time>
    </trkpt>
    <trkpt lat="48.492248" lon="2.640207">
      <ele>100.8</ele>
      <time>2014-03-30T08:03:44Z</time>
    </trkpt>
    <trkpt lat="48.492197" lon="2.640337">
      <ele>101.0</ele>
      <time>2014-03-30T08:03:46Z</time>
    </trkpt>
    <trkpt lat="48.49213" lon="2.640437">
      <ele>101.2</ele>
      <time>2014-03-30T08:03:48Z</time>
    </trkpt>
    <trkpt lat="48.492037" lon="2.640532">
      <ele>101.4</ele>
      <time>2014-03-30T08:03:50Z</time>
    </trkpt>
    <trkpt lat="48.49196" lon="2.640616">
      <ele>101.6</ele>
      <time>2014-03-30T08:03:52Z</time>
    </trkpt>
    <trkpt lat="48.491821" lon="2.640674">
      <ele>101.8</ele>
      <time>2014-03-30T08:03:54Z</time>
    </trkpt>
    <trkpt lat="48.491722" lon="2.640776">
      <ele>101.9</ele>
      <time>2014-03-30T08:03:57Z</time>
    </trkpt>
    <trkpt lat="48.49165" lon="2.640918">
      <ele>101.9</ele>
      <time>2014-03-30T08:04:00Z</time>
    </trkpt>
    <trkpt lat="48.491595" lon="2.641026">
      <ele>101.7</ele>
      <time>2014-03-30T08:04:02Z</time>
    </trkpt>
    <trkpt lat="48.49152" lon="2.641115">
      <ele>101.5</ele>
      <time>2014-03-30T08:04:04Z</time>
    </trkpt>
    <trkpt lat="48.491462" lon="2.641229">
      <ele>101.4</ele>
      <time>2014-03-30T08:04:06Z</time>
    </trkpt>
    <trkpt lat="48.491343" lon="2.641326">
      <ele>101.3</ele>
      <time>2014-03-30T08:04:09Z</time>
    </trkpt>
    <trkpt lat="48.491257" lon="2.64141">
      <ele>101.2</ele>
      <time>2014-03-30T08:04:11Z</time>
    </trkpt>
    <trkpt lat="48.49118" lon="2.64152">
      <ele>101.1</ele>
      <time>2014-03-30T08:04:14Z</time>
    </trkpt>
    <trkpt lat="48.491086" lon="2.641625">
      <ele>101.0</ele>
      <time>2014-03-30T08:04:17Z</time>
    </trkpt>
    <trkpt lat="48.49099" lon="2.641736">
      <ele>101.1</ele>
      <time>2014-03-30T08:04:20Z</time>
    </trkpt>
    <trkpt lat="48.490916" lon="2.641885">
      <ele>101.2</ele>
      <time>2014-03-30T08:04:23Z</time>
    </trkpt>
    <trkpt lat="48.490842" lon="2.642002">
      <ele>101.4</ele>
      <time>2014-03-30T08:04:25Z</time>
    </trkpt>
    <trkpt lat="48.490752" lon="2.642067">
      <ele>101.3</ele>
      <time>2014-03-30T08:04:27Z</time>
    </trkpt>
    <trkpt lat="48.490651" lon="2.642194">
      <ele>101.3</ele>
      <time>2014-03-30T08:04:30Z</time>
    </trkpt>
    <trkpt lat="48.490564" lon="2.64234">
      <ele>101.4</ele>
      <time>2014-03-30T08:04:33Z</time>
    </trkpt>
    <trkpt lat="48.490461" lon="2.642472">
      <ele>101.5</ele>
      <time>2014-03-30T08:04:36Z</time>
    </trkpt>
    <trkpt lat="48.490369" lon="2.642544">
      <ele>101.5</ele>
      <time>2014-03-30T08:04:38Z</time>
    </trkpt>
    <trkpt lat="48.490297" lon="2.642641">
      <ele>101.5</ele>
      <time>2014-03-30T08:04:40Z</time>
    </trkpt>
    <trkpt lat="48.490204" lon="2.64279">
      <ele>101.5</ele>
      <time>2014-03-30T08:04:43Z</time>
    </trkpt>
    <trkpt lat="48.490087" lon="2.642928">
      <ele>101.6</ele>
      <time>2014-03-30T08:04:46Z</time>
    </trkpt>
    <trkpt lat="48.49" lon="2.642994">
      <ele>101.6</ele>
      <time>2014-03-30T08:04:48Z</time>
    </trkpt>
    <trkpt lat="48.489901" lon="2.643149">
      <ele>101.3</ele>
      <time>2014-03-30T08:04:51Z</time>
    </trkpt>
    <trkpt lat="48.489834" lon="2.643258">
      <ele>101.1</ele>
      <time>2014-03-30T08:04:53Z</time>
    </trkpt>
    <trkpt lat="48.489761" lon="2.643342">
      <ele>100.8</ele>
      <time>2014-03-30T08:04:55Z</time>
    </trkpt>
    <trkpt lat="48.489688" lon="2.643422">
      <ele>100.4</ele>
      <time>2014-03-30T08:04:57Z</time>
    </trkpt>
    <trkpt lat="48.489601" lon="2.643489">
      <ele>99.9</ele>
      <time>2014-03-30T08:04:59Z</time>
    </trkpt>
    <trkpt lat="48.489554" lon="2.643614">
      <ele>99.5</ele>
      <time>2014-03-30T08:05:01Z</time>
    </trkpt>
    <trkpt lat="48.489485" lon="2.643935">
      <ele>98.8</ele>
      <time>2014-03-30T08:05:06Z</time>
    </trkpt>
    <trkpt lat="48.489475" lon="2.64409">
      <ele>98.6</ele>
      <time>2014-03-30T08:05:08Z</time>
    </trkpt>
    <trkpt lat="48.489448" lon="2.644287">
      <ele>98.2</ele>
      <time>2014-03-30T08:05:11Z</time>
    </trkpt>
    <trkpt lat="48.489413" lon="2.644426">
      <ele>97.9</ele>
      <time>2014-03-30T08:05:13Z</time>
    </trkpt>
    <trkpt lat="48.489355" lon="2.64455">
      <ele>97.4</ele>
      <time>2014-03-30T08:05:15Z</time>
    </trkpt>
    <trkpt lat="48.489322" lon="2.644685">
      <ele>97.1</ele>
      <time>2014-03-30T08:05:17Z</time>
    </trkpt>
    <trkpt lat="48.489292" lon="2.644833">
      <ele>96.8</ele>
      <time>2014-03-30T08:05:19Z</time>
    </trkpt>
    <trkpt lat="48.489243" lon="2.645011">
      <ele>96.4</ele>
      <time>2014-03-30T08:05:22Z</time>
    </trkpt>
    <trkpt lat="48.48919" lon="2.645146">
      <ele>96.6</ele>
      <time>2014-03-30T08:05:24Z</time>
    </trkpt>
    <trkpt lat="48.489158" lon="2.645288">
      <ele>97.0</ele>
      <time>2014-03-30T08:05:26Z</time>
    </trkpt>
    <trkpt lat="48.489134" lon="2.645491">
      <ele>97.7</ele>
      <time>2014-03-30T08:05:29Z</time>
    </trkpt>
    <trkpt lat="48.489082" lon="2.645623">
      <ele>98.0</ele>
      <time>2014-03-30T08:05:31Z</time>
    </trkpt>
    <trkpt lat="48.489048" lon="2.645749">
      <ele>98.3</ele>
      <time>2014-03-30T08:05:33Z</time>
    </trkpt>
    <trkpt lat="48.488981" lon="2.645931">
      <ele>98.4</ele>
      <time>2014-03-30T08:05:36Z</time>
    </trkpt>
    <trkpt lat="48.488962" lon="2.646074">
      <ele>98.5</ele>
      <time>2014-03-30T08:05:38Z</time>
    </trkpt>
    <trkpt lat="48.488958" lon="2.646222">
      <ele>98.6</ele>
      <time>2014-03-30T08:05:40Z</time>
    </trkpt>
    <trkpt lat="48.488887" lon="2.646346">
      <ele>98.4</ele>
      <time>2014-03-30T08:05:42Z</time>
    </trkpt>
    <trkpt lat="48.488839" lon="2.646485">
      <ele>98.3</ele>
      <time>2014-03-30T08:05:44Z</time>
    </trkpt>
    <trkpt lat="48.488794" lon="2.646608">
      <ele>98.2</ele>
      <time>2014-03-30T08:05:46Z</time>
    </trkpt>
    <trkpt lat="48.488736" lon="2.646727">
      <ele>98.1</ele>
      <time>2014-03-30T08:05:48Z</time>
    </trkpt>
    <trkpt lat="48.488659" lon="2.646847">
      <ele>98.0</ele>
      <time>2014-03-30T08:05:50Z</time>
    </trkpt>
    <trkpt lat="48.488592" lon="2.646959">
      <ele>97.9</ele>
      <time>2014-03-30T08:05:52Z</time>
    </trkpt>
    <trkpt lat="48.488488" lon="2.647073">
      <ele>97.7</ele>
      <time>2014-03-30T08:05:55Z</time>
    </trkpt>
    <trkpt lat="48.488446" lon="2.64721">
      <ele>97.8</ele>
      <time>2014-03-30T08:05:57Z</time>
    </trkpt>
    <trkpt lat="48.488382" lon="2.647345">
      <ele>97.9</ele>
      <time>2014-03-30T08:05:59Z</time>
    </trkpt>
    <trkpt lat="48.488342" lon="2.647486">
      <ele>98.0</ele>
      <time>2014-03-30T08:06:01Z</time>
    </trkpt>
    <trkpt lat="48.488222" lon="2.647718">
      <ele>97.9</ele>
      <time>2014-03-30T08:06:05Z</time>
    </trkpt>
    <trkpt lat="48.488167" lon="2.647842">
      <ele>97.9</ele>
      <time>2014-03-30T08:06:07Z</time>
    </trkpt>
    <trkpt lat="48.488109" lon="2.64796">
      <ele>97.7</ele>
      <time>2014-03-30T08:06:09Z</time>
    </trkpt>
    <trkpt lat="48.488026" lon="2.64809">
      <ele>97.4</ele>
      <time>2014-03-30T08:06:12Z</time>
    </trkpt>
    <trkpt lat="48.488045" lon="2.648248">
      <ele>97.8</ele>
      <time>2014-03-30T08:06:14Z</time>
    </trkpt>
    <trkpt lat="48.488012" lon="2.648377">
      <ele>97.7</ele>
      <time>2014-03-30T08:06:16Z</time>
    </trkpt>
    <trkpt lat="48.487957" lon="2.648491">
      <ele>97.5</ele>
      <time>2014-03-30T08:06:18Z</time>
    </trkpt>
    <trkpt lat="48.487843" lon="2.648633">
      <ele>97.1</ele>
      <time>2014-03-30T08:06:21Z</time>
    </trkpt>
    <trkpt lat="48.487786" lon="2.648779">
      <ele>97.1</ele>
      <time>2014-03-30T08:06:23Z</time>
    </trkpt>
    <trkpt lat="48.487723" lon="2.648886">
      <ele>97.1</ele>
      <time>2014-03-30T08:06:25Z</time>
    </trkpt>
    <trkpt lat="48.487645" lon="2.648992">
      <ele>97.0</ele>
      <time>2014-03-30T08:06:27Z</time>
    </trkpt>
    <trkpt lat="48.48758" lon="2.649113">
      <ele>97.1</ele>
      <time>2014-03-30T08:06:29Z</time>
    </trkpt>
    <trkpt lat="48.487511" lon="2.649228">
      <ele>97.2</ele>
      <time>2014-03-30T08:06:31Z</time>
    </trkpt>
    <trkpt lat="48.487442" lon="2.649355">
      <ele>97.4</ele>
      <time>2014-03-30T08:06:33Z</time>
    </trkpt>
    <trkpt lat="48.487377" lon="2.649457">
      <ele>97.4</ele>
      <time>2014-03-30T08:06:35Z</time>
    </trkpt>
    <trkpt lat="48.487315" lon="2.649577">
      <ele>97.5</ele>
      <time>2014-03-30T08:06:37Z</time>
    </trkpt>
    <trkpt lat="48.487263" lon="2.649702">
      <ele>97.6</ele>
      <time>2014-03-30T08:06:39Z</time>
    </trkpt>
    <trkpt lat="48.487214" lon="2.649826">
      <ele>97.7</ele>
      <time>2014-03-30T08:06:41Z</time>
    </trkpt>
    <trkpt lat="48.48713" lon="2.649963">
      <ele>97.6</ele>
      <time>2014-03-30T08:06:44Z</time>
    </trkpt>
    <trkpt lat="48.487067" lon="2.650104">
      <ele>97.7</ele>
      <time>2014-03-30T08:06:47Z</time>
    </trkpt>
    <trkpt lat="48.487007" lon="2.650215">
      <ele>97.7</ele>
      <time>2014-03-30T08:06:50Z</time>
    </trkpt>
    <trkpt lat="48.48695" lon="2.650327">
      <ele>97.8</ele>
      <time>2014-03-30T08:06:52Z</time>
    </trkpt>
    <trkpt lat="48.486893" lon="2.650471">
      <ele>97.9</ele>
      <time>2014-03-30T08:06:55Z</time>
    </trkpt>
    <trkpt lat="48.486807" lon="2.650605">
      <ele>98.0</ele>
      <time>2014-03-30T08:06:58Z</time>
    </trkpt>
    <trkpt lat="48.486742" lon="2.650757">
      <ele>98.1</ele>
      <time>2014-03-30T08:07:01Z</time>
    </trkpt>
    <trkpt lat="48.486655" lon="2.650907">
      <ele>98.2</ele>
      <time>2014-03-30T08:07:04Z</time>
    </trkpt>
    <trkpt lat="48.486504" lon="2.651172">
      <ele>98.7</ele>
      <time>2014-03-30T08:07:10Z</time>
    </trkpt>
    <trkpt lat="48.486437" lon="2.651332">
      <ele>99.0</ele>
      <time>2014-03-30T08:07:13Z</time>
    </trkpt>
    <trkpt lat="48.486369" lon="2.651486">
      <ele>99.3</ele>
      <time>2014-03-30T08:07:16Z</time>
    </trkpt>
    <trkpt lat="48.486297" lon="2.651654">
      <ele>99.5</ele>
      <time>2014-03-30T08:07:19Z</time>
    </trkpt>
    <trkpt lat="48.486235" lon="2.65177">
      <ele>99.7</ele>
      <time>2014-03-30T08:07:21Z</time>
    </trkpt>
    <trkpt lat="48.486187" lon="2.651902">
      <ele>99.9</ele>
      <time>2014-03-30T08:07:23Z</time>
    </trkpt>
    <trkpt lat="48.486134" lon="2.652018">
      <ele>100.1</ele>
      <time>2014-03-30T08:07:25Z</time>
    </trkpt>
    <trkpt lat="48.486042" lon="2.652155">
      <ele>100.1</ele>
      <time>2014-03-30T08:07:28Z</time>
    </trkpt>
    <trkpt lat="48.485969" lon="2.652235">
      <ele>100.1</ele>
      <time>2014-03-30T08:07:30Z</time>
    </trkpt>
    <trkpt lat="48.48594" lon="2.652402">
      <ele>100.2</ele>
      <time>2014-03-30T08:07:32Z</time>
    </trkpt>
    <trkpt lat="48.485885" lon="2.652545">
      <ele>100.3</ele>
      <time>2014-03-30T08:07:35Z</time>
    </trkpt>
    <trkpt lat="48.48581" lon="2.652675">
      <ele>100.6</ele>
      <time>2014-03-30T08:07:38Z</time>
    </trkpt>
    <trkpt lat="48.485738" lon="2.652764">
      <ele>100.8</ele>
      <time>2014-03-30T08:07:40Z</time>
    </trkpt>
    <trkpt lat="48.485665" lon="2.652851">
      <ele>101.0</ele>
      <time>2014-03-30T08:07:42Z</time>
    </trkpt>
    <trkpt lat="48.485583" lon="2.652958">
      <ele>101.2</ele>
      <time>2014-03-30T08:07:44Z</time>
    </trkpt>
    <trkpt lat="48.485547" lon="2.653123">
      <ele>101.5</ele>
      <time>2014-03-30T08:07:46Z</time>
    </trkpt>
    <trkpt lat="48.485484" lon="2.65324">
      <ele>101.5</ele>
      <time>2014-03-30T08:07:48Z</time>
    </trkpt>
    <trkpt lat="48.485436" lon="2.653357">
      <ele>101.6</ele>
      <time>2014-03-30T08:07:50Z</time>
    </trkpt>
    <trkpt lat="48.485413" lon="2.653489">
      <ele>101.5</ele>
      <time>2014-03-30T08:07:52Z</time>
    </trkpt>
    <trkpt lat="48.485406" lon="2.653631">
      <ele>101.5</ele>
      <time>2014-03-30T08:07:54Z</time>
    </trkpt>
    <trkpt lat="48.48539" lon="2.65378">
      <ele>101.4</ele>
      <time>2014-03-30T08:07:56Z</time>
    </trkpt>
    <trkpt lat="48.485413" lon="2.653937">
      <ele>101.5</ele>
      <time>2014-03-30T08:07:58Z</time>
    </trkpt>
    <trkpt lat="48.485426" lon="2.654124">
      <ele>101.5</ele>
      <time>2014-03-30T08:08:00Z</time>
    </trkpt>
    <trkpt lat="48.485425" lon="2.654318">
      <ele>101.5</ele>
      <time>2014-03-30T08:08:02Z</time>
    </trkpt>
    <trkpt lat="48.485415" lon="2.65447">
      <ele>101.5</ele>
      <time>2014-03-30T08:08:04Z</time>
    </trkpt>
    <trkpt lat="48.485391" lon="2.654632">
      <ele>101.5</ele>
      <time>2014-03-30T08:08:06Z</time>
    </trkpt>
    <trkpt lat="48.485329" lon="2.654918">
      <ele>101.4</ele>
      <time>2014-03-30T08:08:10Z</time>
    </trkpt>
    <trkpt lat="48.485313" lon="2.655063">
      <ele>101.4</ele>
      <time>2014-03-30T08:08:12Z</time>
    </trkpt>
    <trkpt lat="48.485296" lon="2.655209">
      <ele>101.4</ele>
      <time>2014-03-30T08:08:14Z</time>
    </trkpt>
    <trkpt lat="48.48526" lon="2.655336">
      <ele>101.5</ele>
      <time>2014-03-30T08:08:16Z</time>
    </trkpt>
    <trkpt lat="48.485235" lon="2.655499">
      <ele>101.5</ele>
      <time>2014-03-30T08:08:18Z</time>
    </trkpt>
    <trkpt lat="48.48521" lon="2.655684">
      <ele>101.7</ele>
      <time>2014-03-30T08:08:21Z</time>
    </trkpt>
    <trkpt lat="48.485187" lon="2.655902">
      <ele>101.8</ele>
      <time>2014-03-30T08:08:24Z</time>
    </trkpt>
    <trkpt lat="48.485166" lon="2.656093">
      <ele>101.9</ele>
      <time>2014-03-30T08:08:27Z</time>
    </trkpt>
    <trkpt lat="48.485175" lon="2.656271">
      <ele>102.0</ele>
      <time>2014-03-30T08:08:29Z</time>
    </trkpt>
    <trkpt lat="48.48517" lon="2.656469">
      <ele>102.1</ele>
      <time>2014-03-30T08:08:32Z</time>
    </trkpt>
    <trkpt lat="48.485152" lon="2.656629">
      <ele>102.2</ele>
      <time>2014-03-30T08:08:34Z</time>
    </trkpt>
    <trkpt lat="48.48513" lon="2.656771">
      <ele>102.1</ele>
      <time>2014-03-30T08:08:36Z</time>
    </trkpt>
    <trkpt lat="48.485067" lon="2.656945">
      <ele>101.8</ele>
      <time>2014-03-30T08:08:39Z</time>
    </trkpt>
    <trkpt lat="48.48504" lon="2.657089">
      <ele>101.6</ele>
      <time>2014-03-30T08:08:41Z</time>
    </trkpt>
    <trkpt lat="48.485019" lon="2.657238">
      <ele>101.4</ele>
      <time>2014-03-30T08:08:43Z</time>
    </trkpt>
    <trkpt lat="48.484997" lon="2.657374">
      <ele>101.1</ele>
      <time>2014-03-30T08:08:45Z</time>
    </trkpt>
    <trkpt lat="48.48499" lon="2.657518">
      <ele>101.0</ele>
      <time>2014-03-30T08:08:47Z</time>
    </trkpt>
    <trkpt lat="48.484931" lon="2.657655">
      <ele>100.8</ele>
      <time>2014-03-30T08:08:49Z</time>
    </trkpt>
    <trkpt lat="48.484902" lon="2.657853">
      <ele>100.6</ele>
      <time>2014-03-30T08:08:52Z</time>
    </trkpt>
    <trkpt lat="48.484872" lon="2.657993">
      <ele>100.4</ele>
      <time>2014-03-30T08:08:54Z</time>
    </trkpt>
    <trkpt lat="48.484859" lon="2.658137">
      <ele>100.2</ele>
      <time>2014-03-30T08:08:56Z</time>
    </trkpt>
    <trkpt lat="48.484835" lon="2.658269">
      <ele>100.1</ele>
      <time>2014-03-30T08:08:58Z</time>
    </trkpt>
    <trkpt lat="48.484833" lon="2.658413">
      <ele>100.0</ele>
      <time>2014-03-30T08:09:00Z</time>
    </trkpt>
    <trkpt lat="48.484788" lon="2.658546">
      <ele>99.9</ele>
      <time>2014-03-30T08:09:02Z</time>
    </trkpt>
    <trkpt lat="48.484776" lon="2.658741">
      <ele>99.7</ele>
      <time>2014-03-30T08:09:05Z</time>
    </trkpt>
    <trkpt lat="48.484749" lon="2.658898">
      <ele>99.6</ele>
      <time>2014-03-30T08:09:07Z</time>
    </trkpt>
    <trkpt lat="48.484712" lon="2.659185">
      <ele>99.4</ele>
      <time>2014-03-30T08:09:11Z</time>
    </trkpt>
    <trkpt lat="48.484703" lon="2.659338">
      <ele>99.7</ele>
      <time>2014-03-30T08:09:13Z</time>
    </trkpt>
    <trkpt lat="48.484692" lon="2.659474">
      <ele>100.0</ele>
      <time>2014-03-30T08:09:15Z</time>
    </trkpt>
    <trkpt lat="48.484681" lon="2.659619">
      <ele>100.4</ele>
      <time>2014-03-30T08:09:17Z</time>
    </trkpt>
    <trkpt lat="48.484655" lon="2.65975">
      <ele>100.7</ele>
      <time>2014-03-30T08:09:19Z</time>
    </trkpt>
    <trkpt lat="48.484651" lon="2.659901">
      <ele>101.2</ele>
      <time>2014-03-30T08:09:21Z</time>
    </trkpt>
    <trkpt lat="48.484607" lon="2.660076">
      <ele>101.7</ele>
      <time>2014-03-30T08:09:24Z</time>
    </trkpt>
    <trkpt lat="48.484566" lon="2.660206">
      <ele>102.1</ele>
      <time>2014-03-30T08:09:26Z</time>
    </trkpt>
    <trkpt lat="48.484541" lon="2.660343">
      <ele>102.6</ele>
      <time>2014-03-30T08:09:28Z</time>
    </trkpt>
    <trkpt lat="48.484513" lon="2.66055">
      <ele>103.3</ele>
      <time>2014-03-30T08:09:31Z</time>
    </trkpt>
    <trkpt lat="48.484455" lon="2.660684">
      <ele>103.8</ele>
      <time>2014-03-30T08:09:33Z</time>
    </trkpt>
    <trkpt lat="48.484403" lon="2.660852">
      <ele>104.5</ele>
      <time>2014-03-30T08:09:36Z</time>
    </trkpt>
    <trkpt lat="48.484375" lon="2.661033">
      <ele>105.0</ele>
      <time>2014-03-30T08:09:39Z</time>
    </trkpt>
    <trkpt lat="48.484332" lon="2.661165">
      <ele>105.4</ele>
      <time>2014-03-30T08:09:42Z</time>
    </trkpt>
    <trkpt lat="48.484278" lon="2.661279">
      <ele>105.8</ele>
      <time>2014-03-30T08:09:45Z</time>
    </trkpt>
    <trkpt lat="48.484213" lon="2.661381">
      <ele>106.2</ele>
      <time>2014-03-30T08:09:48Z</time>
    </trkpt>
    <trkpt lat="48.484184" lon="2.661531">
      <ele>106.6</ele>
      <time>2014-03-30T08:09:51Z</time>
    </trkpt>
    <trkpt lat="48.484153" lon="2.661702">
      <ele>107.1</ele>
      <time>2014-03-30T08:09:55Z</time>
    </trkpt>
    <trkpt lat="48.48413" lon="2.661862">
      <ele>107.9</ele>
      <time>2014-03-30T08:09:59Z</time>
    </trkpt>
    <trkpt lat="48.484059" lon="2.661979">
      <ele>108.3</ele>
      <time>2014-03-30T08:10:03Z</time>
    </trkpt>
    <trkpt lat="48.484038" lon="2.662121">
      <ele>109.0</ele>
      <time>2014-03-30T08:10:06Z</time>
    </trkpt>
    <trkpt lat="48.484028" lon="2.662257">
      <ele>109.6</ele>
      <time>2014-03-30T08:10:11Z</time>
    </trkpt>
    <trkpt lat="48.483945" lon="2.662534">
      <ele>110.9</ele>
      <time>2014-03-30T08:10:22Z</time>
    </trkpt>
    <trkpt lat="48.483933" lon="2.662671">
      <ele>111.5</ele>
      <time>2014-03-30T08:10:29Z</time>
    </trkpt>
    <trkpt lat="48.483881" lon="2.662785">
      <ele>112.0</ele>
      <time>2014-03-30T08:10:38Z</time>
    </trkpt>
    <trkpt lat="48.483844" lon="2.662938">
      <ele>112.8</ele>
      <time>2014-03-30T08:10:46Z</time>
    </trkpt>
    <trkpt lat="48.483813" lon="2.663103">
      <ele>113.7</ele>
      <time>2014-03-30T08:10:50Z</time>
    </trkpt>
    <trkpt lat="48.483785" lon="2.663271">
      <ele>114.6</ele>
      <time>2014-03-30T08:10:53Z</time>
    </trkpt>
    <trkpt lat="48.483784" lon="2.663477">
      <ele>114.7</ele>
      <time>2014-03-30T08:10:56Z</time>
    </trkpt>
    <trkpt lat="48.483754" lon="2.663655">
      <ele>114.4</ele>
      <time>2014-03-30T08:10:59Z</time>
    </trkpt>
    <trkpt lat="48.48376" lon="2.663814">
      <ele>114.1</ele>
      <time>2014-03-30T08:11:01Z</time>
    </trkpt>
    <trkpt lat="48.483728" lon="2.664017">
      <ele>113.8</ele>
      <time>2014-03-30T08:11:04Z</time>
    </trkpt>
    <trkpt lat="48.483629" lon="2.664139">
      <ele>113.7</ele>
      <time>2014-03-30T08:11:06Z</time>
    </trkpt>
    <trkpt lat="48.4836" lon="2.664277">
      <ele>113.2</ele>
      <time>2014-03-30T08:11:08Z</time>
    </trkpt>
    <trkpt lat="48.483568" lon="2.664419">
      <ele>112.7</ele>
      <time>2014-03-30T08:11:10Z</time>
    </trkpt>
    <trkpt lat="48.483537" lon="2.664556">
      <ele>112.2</ele>
      <time>2014-03-30T08:11:12Z</time>
    </trkpt>
    <trkpt lat="48.483463" lon="2.664871">
      <ele>111.2</ele>
      <time>2014-03-30T08:11:16Z</time>
    </trkpt>
    <trkpt lat="48.483429" lon="2.665025">
      <ele>110.7</ele>
      <time>2014-03-30T08:11:18Z</time>
    </trkpt>
    <trkpt lat="48.483293" lon="2.665034">
      <ele>111.0</ele>
      <time>2014-03-30T08:11:20Z</time>
    </trkpt>
    <trkpt lat="48.483174" lon="2.66499">
      <ele>111.0</ele>
      <time>2014-03-30T08:11:22Z</time>
    </trkpt>
    <trkpt lat="48.483073" lon="2.664963">
      <ele>111.1</ele>
      <time>2014-03-30T08:11:24Z</time>
    </trkpt>
    <trkpt lat="48.482947" lon="2.664945">
      <ele>111.1</ele>
      <time>2014-03-30T08:11:27Z</time>
    </trkpt>
    <trkpt lat="48.482827" lon="2.664892">
      <ele>111.1</ele>
      <time>2014-03-30T08:11:31Z</time>
    </trkpt>
    <trkpt lat="48.482736" lon="2.664804">
      <ele>111.0</ele>
      <time>2014-03-30T08:11:35Z</time>
    </trkpt>
    <trkpt lat="48.482709" lon="2.664646">
      <ele>111.0</ele>
      <time>2014-03-30T08:11:38Z</time>
    </trkpt>
    <trkpt lat="48.482686" lon="2.664492">
      <ele>110.9</ele>
      <time>2014-03-30T08:11:42Z</time>
    </trkpt>
    <trkpt lat="48.482672" lon="2.664332">
      <ele>110.9</ele>
      <time>2014-03-30T08:11:46Z</time>
    </trkpt>
    <trkpt lat="48.482653" lon="2.664189">
      <ele>110.7</ele>
      <time>2014-03-30T08:11:49Z</time>
    </trkpt>
    <trkpt lat="48.48261" lon="2.663976">
      <ele>110.2</ele>
      <time>2014-03-30T08:11:52Z</time>
    </trkpt>
    <trkpt lat="48.482556" lon="2.663838">
      <ele>109.6</ele>
      <time>2014-03-30T08:11:54Z</time>
    </trkpt>
    <trkpt lat="48.48253" lon="2.663693">
      <ele>109.1</ele>
      <time>2014-03-30T08:11:56Z</time>
    </trkpt>
    <trkpt lat="48.482477" lon="2.663523">
      <ele>108.2</ele>
      <time>2014-03-30T08:11:58Z</time>
    </trkpt>
    <trkpt lat="48.482437" lon="2.663361">
      <ele>107.5</ele>
      <time>2014-03-30T08:12:00Z</time>
    </trkpt>
    <trkpt lat="48.482429" lon="2.663203">
      <ele>106.9</ele>
      <time>2014-03-30T08:12:02Z</time>
    </trkpt>
    <trkpt lat="48.482381" lon="2.663003">
      <ele>105.8</ele>
      <time>2014-03-30T08:12:04Z</time>
    </trkpt>
    <trkpt lat="48.482379" lon="2.662839">
      <ele>105.2</ele>
      <time>2014-03-30T08:12:06Z</time>
    </trkpt>
    <trkpt lat="48.482345" lon="2.662632">
      <ele>104.3</ele>
      <time>2014-03-30T08:12:08Z</time>
    </trkpt>
    <trkpt lat="48.482272" lon="2.662418">
      <ele>103.3</ele>
      <time>2014-03-30T08:12:10Z</time>
    </trkpt>
    <trkpt lat="48.48225" lon="2.662261">
      <ele>102.9</ele>
      <time>2014-03-30T08:12:12Z</time>
    </trkpt>
    <trkpt lat="48.48219" lon="2.662051">
      <ele>102.2</ele>
      <time>2014-03-30T08:12:14Z</time>
    </trkpt>
    <trkpt lat="48.482065" lon="2.661676">
      <ele>100.9</ele>
      <time>2014-03-30T08:12:18Z</time>
    </trkpt>
    <trkpt lat="48.482008" lon="2.661491">
      <ele>99.9</ele>
      <time>2014-03-30T08:12:20Z</time>
    </trkpt>
    <trkpt lat="48.481927" lon="2.661299">
      <ele>98.9</ele>
      <time>2014-03-30T08:12:22Z</time>
    </trkpt>
    <trkpt lat="48.481872" lon="2.661097">
      <ele>97.9</ele>
      <time>2014-03-30T08:12:24Z</time>
    </trkpt>
    <trkpt lat="48.481781" lon="2.660879">
      <ele>96.8</ele>
      <time>2014-03-30T08:12:26Z</time>
    </trkpt>
    <trkpt lat="48.481732" lon="2.660683">
      <ele>96.2</ele>
      <time>2014-03-30T08:12:28Z</time>
    </trkpt>
    <trkpt lat="48.481664" lon="2.660473">
      <ele>95.6</ele>
      <time>2014-03-30T08:12:30Z</time>
    </trkpt>
    <trkpt lat="48.481574" lon="2.660274">
      <ele>95.3</ele>
      <time>2014-03-30T08:12:32Z</time>
    </trkpt>
    <trkpt lat="48.48151" lon="2.66006">
      <ele>94.9</ele>
      <time>2014-03-30T08:12:34Z</time>
    </trkpt>
    <trkpt lat="48.48143" lon="2.659877">
      <ele>94.7</ele>
      <time>2014-03-30T08:12:36Z</time>
    </trkpt>
    <trkpt lat="48.481359" lon="2.659686">
      <ele>94.5</ele>
      <time>2014-03-30T08:12:38Z</time>
    </trkpt>
    <trkpt lat="48.481306" lon="2.659546">
      <ele>94.3</ele>
      <time>2014-03-30T08:12:40Z</time>
    </trkpt>
    <trkpt lat="48.481271" lon="2.659398">
      <ele>94.2</ele>
      <time>2014-03-30T08:12:42Z</time>
    </trkpt>
    <trkpt lat="48.48124" lon="2.65926">
      <ele>94.0</ele>
      <time>2014-03-30T08:12:44Z</time>
    </trkpt>
    <trkpt lat="48.481183" lon="2.659127">
      <ele>93.9</ele>
      <time>2014-03-30T08:12:46Z</time>
    </trkpt>
    <trkpt lat="48.481132" lon="2.658971">
      <ele>93.9</ele>
      <time>2014-03-30T08:12:48Z</time>
    </trkpt>
    <trkpt lat="48.481092" lon="2.65881">
      <ele>93.9</ele>
      <time>2014-03-30T08:12:50Z</time>
    </trkpt>
    <trkpt lat="48.481058" lon="2.658679">
      <ele>93.9</ele>
      <time>2014-03-30T08:12:52Z</time>
    </trkpt>
    <trkpt lat="48.481019" lon="2.658553">
      <ele>93.8</ele>
      <time>2014-03-30T08:12:54Z</time>
    </trkpt>
    <trkpt lat="48.480983" lon="2.658405">
      <ele>93.7</ele>
      <time>2014-03-30T08:12:56Z</time>
    </trkpt>
    <trkpt lat="48.480946" lon="2.65827">
      <ele>93.6</ele>
      <time>2014-03-30T08:12:58Z</time>
    </trkpt>
    <trkpt lat="48.480903" lon="2.658133">
      <ele>93.6</ele>
      <time>2014-03-30T08:13:00Z</time>
    </trkpt>
    <trkpt lat="48.480853" lon="2.657985">
      <ele>93.5</ele>
      <time>2014-03-30T08:13:02Z</time>
    </trkpt>
    <trkpt lat="48.480818" lon="2.65784">
      <ele>93.6</ele>
      <time>2014-03-30T08:13:04Z</time>
    </trkpt>
    <trkpt lat="48.480763" lon="2.657714">
      <ele>93.7</ele>
      <time>2014-03-30T08:13:06Z</time>
    </trkpt>
    <trkpt lat="48.480671" lon="2.65754">
      <ele>94.0</ele>
      <time>2014-03-30T08:13:08Z</time>
    </trkpt>
    <trkpt lat="48.480628" lon="2.657415">
      <ele>93.8</ele>
      <time>2014-03-30T08:13:10Z</time>
    </trkpt>
    <trkpt lat="48.480567" lon="2.657266">
      <ele>93.4</ele>
      <time>2014-03-30T08:13:12Z</time>
    </trkpt>
    <trkpt lat="48.480525" lon="2.657135">
      <ele>93.1</ele>
      <time>2014-03-30T08:13:14Z</time>
    </trkpt>
    <trkpt lat="48.480432" lon="2.656845">
      <ele>92.4</ele>
      <time>2014-03-30T08:13:20Z</time>
    </trkpt>
    <trkpt lat="48.480402" lon="2.656695">
      <ele>92.1</ele>
      <time>2014-03-30T08:13:24Z</time>
    </trkpt>
    <trkpt lat="48.48033" lon="2.656554">
      <ele>91.8</ele>
      <time>2014-03-30T08:13:27Z</time>
    </trkpt>
    <trkpt lat="48.48028" lon="2.656393">
      <ele>91.5</ele>
      <time>2014-03-30T08:13:31Z</time>
    </trkpt>
    <trkpt lat="48.480254" lon="2.656243">
      <ele>91.1</ele>
      <time>2014-03-30T08:13:34Z</time>
    </trkpt>
    <trkpt lat="48.480191" lon="2.656122">
      <ele>90.8</ele>
      <time>2014-03-30T08:13:36Z</time>
    </trkpt>
    <trkpt lat="48.480144" lon="2.655976">
      <ele>90.5</ele>
      <time>2014-03-30T08:13:39Z</time>
    </trkpt>
    <trkpt lat="48.480099" lon="2.655849">
      <ele>90.2</ele>
      <time>2014-03-30T08:13:41Z</time>
    </trkpt>
    <trkpt lat="48.48004" lon="2.655683">
      <ele>90.2</ele>
      <time>2014-03-30T08:13:44Z</time>
    </trkpt>
    <trkpt lat="48.479984" lon="2.655555">
      <ele>90.3</ele>
      <time>2014-03-30T08:13:46Z</time>
    </trkpt>
    <trkpt lat="48.479938" lon="2.65541">
      <ele>90.5</ele>
      <time>2014-03-30T08:13:48Z</time>
    </trkpt>
    <trkpt lat="48.479865" lon="2.655252">
      <ele>90.7</ele>
      <time>2014-03-30T08:13:51Z</time>
    </trkpt>
    <trkpt lat="48.47981" lon="2.655107">
      <ele>90.9</ele>
      <time>2014-03-30T08:13:54Z</time>
    </trkpt>
    <trkpt lat="48.479775" lon="2.654946">
      <ele>91.0</ele>
      <time>2014-03-30T08:13:58Z</time>
    </trkpt>
    <trkpt lat="48.479748" lon="2.654811">
      <ele>90.9</ele>
      <time>2014-03-30T08:14:01Z</time>
    </trkpt>
    <trkpt lat="48.479712" lon="2.654659">
      <ele>90.9</ele>
      <time>2014-03-30T08:14:04Z</time>
    </trkpt>
    <trkpt lat="48.479654" lon="2.65455">
      <ele>90.9</ele>
      <time>2014-03-30T08:14:06Z</time>
    </trkpt>
    <trkpt lat="48.479637" lon="2.654411">
      <ele>90.9</ele>
      <time>2014-03-30T08:14:09Z</time>
    </trkpt>
    <trkpt lat="48.479607" lon="2.654272">
      <ele>91.0</ele>
      <time>2014-03-30T08:14:11Z</time>
    </trkpt>
    <trkpt lat="48.479513" lon="2.654091">
      <ele>91.0</ele>
      <time>2014-03-30T08:14:13Z</time>
    </trkpt>
    <trkpt lat="48.479466" lon="2.653966">
      <ele>90.9</ele>
      <time>2014-03-30T08:14:15Z</time>
    </trkpt>
    <trkpt lat="48.479384" lon="2.653689">
      <ele>90.6</ele>
      <time>2014-03-30T08:14:21Z</time>
    </trkpt>
    <trkpt lat="48.479353" lon="2.653549">
      <ele>90.5</ele>
      <time>2014-03-30T08:14:24Z</time>
    </trkpt>
    <trkpt lat="48.479326" lon="2.65341">
      <ele>90.4</ele>
      <time>2014-03-30T08:14:29Z</time>
    </trkpt>
    <trkpt lat="48.479296" lon="2.65326">
      <ele>90.4</ele>
      <time>2014-03-30T08:14:31Z</time>
    </trkpt>
    <trkpt lat="48.479253" lon="2.653118">
      <ele>90.5</ele>
      <time>2014-03-30T08:14:34Z</time>
    </trkpt>
    <trkpt lat="48.479215" lon="2.652966">
      <ele>90.5</ele>
      <time>2014-03-30T08:14:37Z</time>
    </trkpt>
    <trkpt lat="48.479144" lon="2.652825">
      <ele>90.4</ele>
      <time>2014-03-30T08:14:39Z</time>
    </trkpt>
    <trkpt lat="48.479069" lon="2.652705">
      <ele>90.4</ele>
      <time>2014-03-30T08:14:42Z</time>
    </trkpt>
    <trkpt lat="48.478988" lon="2.652579">
      <ele>90.3</ele>
      <time>2014-03-30T08:14:46Z</time>
    </trkpt>
    <trkpt lat="48.478909" lon="2.652465">
      <ele>90.3</ele>
      <time>2014-03-30T08:14:47Z</time>
    </trkpt>
    <trkpt lat="48.478824" lon="2.652332">
      <ele>90.4</ele>
      <time>2014-03-30T08:14:50Z</time>
    </trkpt>
    <trkpt lat="48.4787" lon="2.652322">
      <ele>90.4</ele>
      <time>2014-03-30T08:14:53Z</time>
    </trkpt>
    <trkpt lat="48.478604" lon="2.652319">
      <ele>90.5</ele>
      <time>2014-03-30T08:14:55Z</time>
    </trkpt>
    <trkpt lat="48.478561" lon="2.652495">
      <ele>90.7</ele>
      <time>2014-03-30T08:14:58Z</time>
    </trkpt>
    <trkpt lat="48.478466" lon="2.652591">
      <ele>91.1</ele>
      <time>2014-03-30T08:15:01Z</time>
    </trkpt>
    <trkpt lat="48.478382" lon="2.652667">
      <ele>91.5</ele>
      <time>2014-03-30T08:15:04Z</time>
    </trkpt>
    <trkpt lat="48.478316" lon="2.652766">
      <ele>92.0</ele>
      <time>2014-03-30T08:15:06Z</time>
    </trkpt>
    <trkpt lat="48.478191" lon="2.652822">
      <ele>92.2</ele>
      <time>2014-03-30T08:15:08Z</time>
    </trkpt>
    <trkpt lat="48.4781" lon="2.652898">
      <ele>92.4</ele>
      <time>2014-03-30T08:15:10Z</time>
    </trkpt>
    <trkpt lat="48.478016" lon="2.652963">
      <ele>92.6</ele>
      <time>2014-03-30T08:15:12Z</time>
    </trkpt>
    <trkpt lat="48.477899" lon="2.65306">
      <ele>92.8</ele>
      <time>2014-03-30T08:15:15Z</time>
    </trkpt>
    <trkpt lat="48.477821" lon="2.65313">
      <ele>93.0</ele>
      <time>2014-03-30T08:15:17Z</time>
    </trkpt>
    <trkpt lat="48.477632" lon="2.653282">
      <ele>93.1</ele>
      <time>2014-03-30T08:15:22Z</time>
    </trkpt>
    <trkpt lat="48.477549" lon="2.653345">
      <ele>93.0</ele>
      <time>2014-03-30T08:15:25Z</time>
    </trkpt>
    <trkpt lat="48.477461" lon="2.653428">
      <ele>92.7</ele>
      <time>2014-03-30T08:15:27Z</time>
    </trkpt>
    <trkpt lat="48.477377" lon="2.653489">
      <ele>92.3</ele>
      <time>2014-03-30T08:15:29Z</time>
    </trkpt>
    <trkpt lat="48.477286" lon="2.653576">
      <ele>91.9</ele>
      <time>2014-03-30T08:15:32Z</time>
    </trkpt>
    <trkpt lat="48.477191" lon="2.653671">
      <ele>91.6</ele>
      <time>2014-03-30T08:15:35Z</time>
    </trkpt>
    <trkpt lat="48.477111" lon="2.653748">
      <ele>91.3</ele>
      <time>2014-03-30T08:15:37Z</time>
    </trkpt>
    <trkpt lat="48.477" lon="2.653818">
      <ele>91.1</ele>
      <time>2014-03-30T08:15:39Z</time>
    </trkpt>
    <trkpt lat="48.476917" lon="2.653962">
      <ele>91.0</ele>
      <time>2014-03-30T08:15:41Z</time>
    </trkpt>
    <trkpt lat="48.476806" lon="2.65404">
      <ele>90.9</ele>
      <time>2014-03-30T08:15:43Z</time>
    </trkpt>
    <trkpt lat="48.476682" lon="2.65413">
      <ele>90.9</ele>
      <time>2014-03-30T08:15:46Z</time>
    </trkpt>
    <trkpt lat="48.47656" lon="2.654222">
      <ele>90.8</ele>
      <time>2014-03-30T08:15:49Z</time>
    </trkpt>
    <trkpt lat="48.476449" lon="2.654326">
      <ele>90.7</ele>
      <time>2014-03-30T08:15:52Z</time>
    </trkpt>
    <trkpt lat="48.476361" lon="2.654427">
      <ele>90.7</ele>
      <time>2014-03-30T08:15:54Z</time>
    </trkpt>
    <trkpt lat="48.476256" lon="2.654487">
      <ele>90.6</ele>
      <time>2014-03-30T08:15:56Z</time>
    </trkpt>
    <trkpt lat="48.476168" lon="2.654555">
      <ele>90.5</ele>
      <time>2014-03-30T08:15:58Z</time>
    </trkpt>
    <trkpt lat="48.476073" lon="2.654638">
      <ele>90.5</ele>
      <time>2014-03-30T08:16:01Z</time>
    </trkpt>
    <trkpt lat="48.475983" lon="2.654719">
      <ele>90.6</ele>
      <time>2014-03-30T08:16:03Z</time>
    </trkpt>
    <trkpt lat="48.47586" lon="2.654788">
      <ele>90.5</ele>
      <time>2014-03-30T08:16:06Z</time>
    </trkpt>
    <trkpt lat="48.475759" lon="2.654889">
      <ele>90.5</ele>
      <time>2014-03-30T08:16:09Z</time>
    </trkpt>
    <trkpt lat="48.475644" lon="2.654994">
      <ele>90.5</ele>
      <time>2014-03-30T08:16:12Z</time>
    </trkpt>
    <trkpt lat="48.475544" lon="2.655055">
      <ele>90.4</ele>
      <time>2014-03-30T08:16:14Z</time>
    </trkpt>
    <trkpt lat="48.475445" lon="2.655175">
      <ele>90.4</ele>
      <time>2014-03-30T08:16:16Z</time>
    </trkpt>
    <trkpt lat="48.475368" lon="2.65526">
      <ele>90.4</ele>
      <time>2014-03-30T08:16:18Z</time>
    </trkpt>
    <trkpt lat="48.475167" lon="2.655431">
      <ele>90.3</ele>
      <time>2014-03-30T08:16:24Z</time>
    </trkpt>
    <trkpt lat="48.47508" lon="2.655463">
      <ele>90.2</ele>
      <time>2014-03-30T08:16:26Z</time>
    </trkpt>
    <trkpt lat="48.474971" lon="2.655554">
      <ele>90.3</ele>
      <time>2014-03-30T08:16:29Z</time>
    </trkpt>
    <trkpt lat="48.474875" lon="2.655643">
      <ele>90.4</ele>
      <time>2014-03-30T08:16:31Z</time>
    </trkpt>
    <trkpt lat="48.474769" lon="2.655716">
      <ele>90.4</ele>
      <time>2014-03-30T08:16:33Z</time>
    </trkpt>
    <trkpt lat="48.474642" lon="2.655805">
      <ele>90.5</ele>
      <time>2014-03-30T08:16:36Z</time>
    </trkpt>
    <trkpt lat="48.474542" lon="2.655894">
      <ele>90.4</ele>
      <time>2014-03-30T08:16:39Z</time>
    </trkpt>
    <trkpt lat="48.474431" lon="2.655984">
      <ele>90.2</ele>
      <time>2014-03-30T08:16:41Z</time>
    </trkpt>
    <trkpt lat="48.474349" lon="2.656048">
      <ele>90.0</ele>
      <time>2014-03-30T08:16:43Z</time>
    </trkpt>
    <trkpt lat="48.474226" lon="2.656142">
      <ele>89.7</ele>
      <time>2014-03-30T08:16:46Z</time>
    </trkpt>
    <trkpt lat="48.474128" lon="2.656222">
      <ele>89.3</ele>
      <time>2014-03-30T08:16:48Z</time>
    </trkpt>
    <trkpt lat="48.474045" lon="2.656313">
      <ele>88.6</ele>
      <time>2014-03-30T08:16:50Z</time>
    </trkpt>
    <trkpt lat="48.473971" lon="2.656396">
      <ele>88.0</ele>
      <time>2014-03-30T08:16:52Z</time>
    </trkpt>
    <trkpt lat="48.473863" lon="2.656433">
      <ele>87.3</ele>
      <time>2014-03-30T08:16:55Z</time>
    </trkpt>
    <trkpt lat="48.473757" lon="2.656553">
      <ele>86.5</ele>
      <time>2014-03-30T08:16:57Z</time>
    </trkpt>
    <trkpt lat="48.473662" lon="2.656646">
      <ele>86.0</ele>
      <time>2014-03-30T08:16:59Z</time>
    </trkpt>
    <trkpt lat="48.473562" lon="2.656743">
      <ele>85.4</ele>
      <time>2014-03-30T08:17:01Z</time>
    </trkpt>
    <trkpt lat="48.473474" lon="2.656824">
      <ele>84.9</ele>
      <time>2014-03-30T08:17:03Z</time>
    </trkpt>
    <trkpt lat="48.473396" lon="2.656916">
      <ele>84.6</ele>
      <time>2014-03-30T08:17:05Z</time>
    </trkpt>
    <trkpt lat="48.473281" lon="2.65697">
      <ele>84.2</ele>
      <time>2014-03-30T08:17:07Z</time>
    </trkpt>
    <trkpt lat="48.473181" lon="2.657061">
      <ele>84.1</ele>
      <time>2014-03-30T08:17:09Z</time>
    </trkpt>
    <trkpt lat="48.473089" lon="2.657148">
      <ele>84.0</ele>
      <time>2014-03-30T08:17:11Z</time>
    </trkpt>
    <trkpt lat="48.472995" lon="2.657228">
      <ele>83.9</ele>
      <time>2014-03-30T08:17:13Z</time>
    </trkpt>
    <trkpt lat="48.472907" lon="2.657318">
      <ele>83.8</ele>
      <time>2014-03-30T08:17:15Z</time>
    </trkpt>
    <trkpt lat="48.472804" lon="2.657396">
      <ele>83.6</ele>
      <time>2014-03-30T08:17:17Z</time>
    </trkpt>
    <trkpt lat="48.472697" lon="2.657473">
      <ele>83.4</ele>
      <time>2014-03-30T08:17:19Z</time>
    </trkpt>
    <trkpt lat="48.472515" lon="2.657616">
      <ele>83.2</ele>
      <time>2014-03-30T08:17:23Z</time>
    </trkpt>
    <trkpt lat="48.472429" lon="2.657694">
      <ele>83.1</ele>
      <time>2014-03-30T08:17:25Z</time>
    </trkpt>
    <trkpt lat="48.472315" lon="2.657778">
      <ele>83.0</ele>
      <time>2014-03-30T08:17:27Z</time>
    </trkpt>
    <trkpt lat="48.472214" lon="2.657875">
      <ele>83.0</ele>
      <time>2014-03-30T08:17:29Z</time>
    </trkpt>
    <trkpt lat="48.472135" lon="2.657963">
      <ele>82.9</ele>
      <time>2014-03-30T08:17:31Z</time>
    </trkpt>
    <trkpt lat="48.472036" lon="2.658044">
      <ele>82.7</ele>
      <time>2014-03-30T08:17:33Z</time>
    </trkpt>
    <trkpt lat="48.471949" lon="2.658126">
      <ele>82.6</ele>
      <time>2014-03-30T08:17:35Z</time>
    </trkpt>
    <trkpt lat="48.471849" lon="2.658205">
      <ele>82.4</ele>
      <time>2014-03-30T08:17:37Z</time>
    </trkpt>
    <trkpt lat="48.471764" lon="2.65827">
      <ele>82.2</ele>
      <time>2014-03-30T08:17:39Z</time>
    </trkpt>
    <trkpt lat="48.471662" lon="2.658334">
      <ele>82.0</ele>
      <time>2014-03-30T08:17:42Z</time>
    </trkpt>
    <trkpt lat="48.47156" lon="2.658414">
      <ele>82.4</ele>
      <time>2014-03-30T08:17:45Z</time>
    </trkpt>
    <trkpt lat="48.471445" lon="2.658519">
      <ele>83.1</ele>
      <time>2014-03-30T08:17:48Z</time>
    </trkpt>
    <trkpt lat="48.47135" lon="2.658581">
      <ele>83.7</ele>
      <time>2014-03-30T08:17:50Z</time>
    </trkpt>
    <trkpt lat="48.471268" lon="2.658658">
      <ele>84.5</ele>
      <time>2014-03-30T08:17:52Z</time>
    </trkpt>
    <trkpt lat="48.471179" lon="2.658723">
      <ele>85.3</ele>
      <time>2014-03-30T08:17:54Z</time>
    </trkpt>
    <trkpt lat="48.471063" lon="2.65883">
      <ele>86.6</ele>
      <time>2014-03-30T08:17:57Z</time>
    </trkpt>
    <trkpt lat="48.470973" lon="2.658778">
      <ele>86.9</ele>
      <time>2014-03-30T08:19:22Z</time>
    </trkpt>
    <trkpt lat="48.470777" lon="2.658803">
      <ele>88.1</ele>
      <time>2014-03-30T08:19:28Z</time>
    </trkpt>
    <trkpt lat="48.470667" lon="2.658788">
      <ele>88.4</ele>
      <time>2014-03-30T08:19:31Z</time>
    </trkpt>
    <trkpt lat="48.470545" lon="2.658775">
      <ele>88.7</ele>
      <time>2014-03-30T08:19:34Z</time>
    </trkpt>
    <trkpt lat="48.470436" lon="2.658771">
      <ele>89.1</ele>
      <time>2014-03-30T08:19:36Z</time>
    </trkpt>
    <trkpt lat="48.47034" lon="2.658754">
      <ele>89.3</ele>
      <time>2014-03-30T08:19:38Z</time>
    </trkpt>
    <trkpt lat="48.470246" lon="2.658751">
      <ele>89.6</ele>
      <time>2014-03-30T08:19:40Z</time>
    </trkpt>
    <trkpt lat="48.470108" lon="2.658748">
      <ele>90.1</ele>
      <time>2014-03-30T08:19:43Z</time>
    </trkpt>
    <trkpt lat="48.469994" lon="2.658732">
      <ele>90.5</ele>
      <time>2014-03-30T08:19:45Z</time>
    </trkpt>
    <trkpt lat="48.469901" lon="2.658726">
      <ele>90.8</ele>
      <time>2014-03-30T08:19:47Z</time>
    </trkpt>
    <trkpt lat="48.46978" lon="2.658708">
      <ele>91.2</ele>
      <time>2014-03-30T08:19:50Z</time>
    </trkpt>
    <trkpt lat="48.46969" lon="2.658694">
      <ele>91.5</ele>
      <time>2014-03-30T08:19:52Z</time>
    </trkpt>
    <trkpt lat="48.469574" lon="2.658672">
      <ele>91.8</ele>
      <time>2014-03-30T08:19:54Z</time>
    </trkpt>
    <trkpt lat="48.469468" lon="2.658656">
      <ele>92.2</ele>
      <time>2014-03-30T08:19:56Z</time>
    </trkpt>
    <trkpt lat="48.469348" lon="2.658662">
      <ele>92.7</ele>
      <time>2014-03-30T08:19:58Z</time>
    </trkpt>
    <trkpt lat="48.469252" lon="2.65867">
      <ele>93.1</ele>
      <time>2014-03-30T08:20:00Z</time>
    </trkpt>
    <trkpt lat="48.46916" lon="2.658658">
      <ele>93.4</ele>
      <time>2014-03-30T08:20:02Z</time>
    </trkpt>
    <trkpt lat="48.469059" lon="2.658636">
      <ele>93.5</ele>
      <time>2014-03-30T08:20:05Z</time>
    </trkpt>
    <trkpt lat="48.468953" lon="2.658619">
      <ele>93.6</ele>
      <time>2014-03-30T08:20:08Z</time>
    </trkpt>
    <trkpt lat="48.468831" lon="2.658605">
      <ele>93.7</ele>
      <time>2014-03-30T08:20:11Z</time>
    </trkpt>
    <trkpt lat="48.468736" lon="2.658596">
      <ele>93.8</ele>
      <time>2014-03-30T08:20:13Z</time>
    </trkpt>
    <trkpt lat="48.468635" lon="2.65858">
      <ele>93.9</ele>
      <time>2014-03-30T08:20:15Z</time>
    </trkpt>
    <trkpt lat="48.468528" lon="2.658561">
      <ele>94.0</ele>
      <time>2014-03-30T08:20:18Z</time>
    </trkpt>
    <trkpt lat="48.468436" lon="2.658545">
      <ele>94.1</ele>
      <time>2014-03-30T08:20:21Z</time>
    </trkpt>
    <trkpt lat="48.468329" lon="2.658537">
      <ele>94.3</ele>
      <time>2014-03-30T08:20:23Z</time>
    </trkpt>
    <trkpt lat="48.468096" lon="2.658486">
      <ele>94.7</ele>
      <time>2014-03-30T08:20:28Z</time>
    </trkpt>
    <trkpt lat="48.467965" lon="2.658495">
      <ele>95.0</ele>
      <time>2014-03-30T08:20:30Z</time>
    </trkpt>
    <trkpt lat="48.467849" lon="2.658483">
      <ele>95.2</ele>
      <time>2014-03-30T08:20:32Z</time>
    </trkpt>
    <trkpt lat="48.467745" lon="2.658459">
      <ele>95.5</ele>
      <time>2014-03-30T08:20:35Z</time>
    </trkpt>
    <trkpt lat="48.467634" lon="2.658447">
      <ele>95.7</ele>
      <time>2014-03-30T08:20:38Z</time>
    </trkpt>
    <trkpt lat="48.467527" lon="2.658432">
      <ele>95.9</ele>
      <time>2014-03-30T08:20:40Z</time>
    </trkpt>
    <trkpt lat="48.467411" lon="2.658429">
      <ele>96.2</ele>
      <time>2014-03-30T08:20:42Z</time>
    </trkpt>
    <trkpt lat="48.467314" lon="2.658411">
      <ele>96.4</ele>
      <time>2014-03-30T08:20:44Z</time>
    </trkpt>
    <trkpt lat="48.467195" lon="2.658413">
      <ele>96.7</ele>
      <time>2014-03-30T08:20:47Z</time>
    </trkpt>
    <trkpt lat="48.467075" lon="2.658361">
      <ele>97.0</ele>
      <time>2014-03-30T08:20:51Z</time>
    </trkpt>
    <trkpt lat="48.46696" lon="2.658355">
      <ele>97.3</ele>
      <time>2014-03-30T08:20:53Z</time>
    </trkpt>
    <trkpt lat="48.46683" lon="2.658355">
      <ele>97.6</ele>
      <time>2014-03-30T08:20:55Z</time>
    </trkpt>
    <trkpt lat="48.46674" lon="2.658325">
      <ele>97.8</ele>
      <time>2014-03-30T08:20:57Z</time>
    </trkpt>
    <trkpt lat="48.466649" lon="2.658314">
      <ele>98.0</ele>
      <time>2014-03-30T08:20:59Z</time>
    </trkpt>
    <trkpt lat="48.466555" lon="2.658294">
      <ele>98.0</ele>
      <time>2014-03-30T08:21:01Z</time>
    </trkpt>
    <trkpt lat="48.466429" lon="2.658258">
      <ele>98.1</ele>
      <time>2014-03-30T08:21:04Z</time>
    </trkpt>
    <trkpt lat="48.466279" lon="2.658244">
      <ele>98.1</ele>
      <time>2014-03-30T08:21:07Z</time>
    </trkpt>
    <trkpt lat="48.466156" lon="2.658264">
      <ele>98.1</ele>
      <time>2014-03-30T08:21:09Z</time>
    </trkpt>
    <trkpt lat="48.466054" lon="2.658281">
      <ele>98.1</ele>
      <time>2014-03-30T08:21:11Z</time>
    </trkpt>
    <trkpt lat="48.465966" lon="2.65833">
      <ele>98.0</ele>
      <time>2014-03-30T08:21:13Z</time>
    </trkpt>
    <trkpt lat="48.465853" lon="2.658404">
      <ele>98.0</ele>
      <time>2014-03-30T08:21:15Z</time>
    </trkpt>
    <trkpt lat="48.465751" lon="2.658449">
      <ele>98.2</ele>
      <time>2014-03-30T08:21:17Z</time>
    </trkpt>
    <trkpt lat="48.465659" lon="2.658393">
      <ele>98.4</ele>
      <time>2014-03-30T08:21:20Z</time>
    </trkpt>
    <trkpt lat="48.465502" lon="2.658365">
      <ele>98.8</ele>
      <time>2014-03-30T08:21:22Z</time>
    </trkpt>
    <trkpt lat="48.4654" lon="2.658379">
      <ele>99.0</ele>
      <time>2014-03-30T08:21:24Z</time>
    </trkpt>
    <trkpt lat="48.465188" lon="2.658413">
      <ele>99.5</ele>
      <time>2014-03-30T08:21:28Z</time>
    </trkpt>
    <trkpt lat="48.465089" lon="2.658437">
      <ele>99.7</ele>
      <time>2014-03-30T08:21:30Z</time>
    </trkpt>
    <trkpt lat="48.464987" lon="2.658457">
      <ele>99.9</ele>
      <time>2014-03-30T08:21:32Z</time>
    </trkpt>
    <trkpt lat="48.464895" lon="2.658461">
      <ele>100.0</ele>
      <time>2014-03-30T08:21:34Z</time>
    </trkpt>
    <trkpt lat="48.464797" lon="2.658433">
      <ele>100.2</ele>
      <time>2014-03-30T08:21:37Z</time>
    </trkpt>
    <trkpt lat="48.464677" lon="2.658425">
      <ele>100.3</ele>
      <time>2014-03-30T08:21:40Z</time>
    </trkpt>
    <trkpt lat="48.464576" lon="2.65845">
      <ele>100.4</ele>
      <time>2014-03-30T08:21:42Z</time>
    </trkpt>
    <trkpt lat="48.464442" lon="2.658518">
      <ele>100.6</ele>
      <time>2014-03-30T08:21:44Z</time>
    </trkpt>
    <trkpt lat="48.464331" lon="2.658591">
      <ele>100.7</ele>
      <time>2014-03-30T08:21:47Z</time>
    </trkpt>
    <trkpt lat="48.464235" lon="2.658684">
      <ele>100.9</ele>
      <time>2014-03-30T08:21:49Z</time>
    </trkpt>
    <trkpt lat="48.464155" lon="2.658778">
      <ele>101.0</ele>
      <time>2014-03-30T08:21:51Z</time>
    </trkpt>
    <trkpt lat="48.464042" lon="2.658892">
      <ele>101.1</ele>
      <time>2014-03-30T08:21:54Z</time>
    </trkpt>
    <trkpt lat="48.46393" lon="2.658956">
      <ele>101.2</ele>
      <time>2014-03-30T08:21:57Z</time>
    </trkpt>
    <trkpt lat="48.463836" lon="2.658999">
      <ele>101.3</ele>
      <time>2014-03-30T08:21:59Z</time>
    </trkpt>
    <trkpt lat="48.463713" lon="2.659027">
      <ele>101.5</ele>
      <time>2014-03-30T08:22:01Z</time>
    </trkpt>
    <trkpt lat="48.463628" lon="2.659162">
      <ele>101.6</ele>
      <time>2014-03-30T08:22:04Z</time>
    </trkpt>
    <trkpt lat="48.463556" lon="2.659246">
      <ele>101.7</ele>
      <time>2014-03-30T08:22:06Z</time>
    </trkpt>
    <trkpt lat="48.463441" lon="2.659328">
      <ele>101.8</ele>
      <time>2014-03-30T08:22:09Z</time>
    </trkpt>
    <trkpt lat="48.463328" lon="2.659394">
      <ele>102.0</ele>
      <time>2014-03-30T08:22:12Z</time>
    </trkpt>
    <trkpt lat="48.463224" lon="2.659488">
      <ele>101.7</ele>
      <time>2014-03-30T08:22:15Z</time>
    </trkpt>
    <trkpt lat="48.463139" lon="2.659542">
      <ele>101.4</ele>
      <time>2014-03-30T08:22:17Z</time>
    </trkpt>
    <trkpt lat="48.463032" lon="2.659623">
      <ele>101.1</ele>
      <time>2014-03-30T08:22:20Z</time>
    </trkpt>
    <trkpt lat="48.462949" lon="2.659703">
      <ele>100.9</ele>
      <time>2014-03-30T08:22:23Z</time>
    </trkpt>
    <trkpt lat="48.462842" lon="2.659805">
      <ele>100.7</ele>
      <time>2014-03-30T08:22:26Z</time>
    </trkpt>
    <trkpt lat="48.462664" lon="2.659955">
      <ele>100.4</ele>
      <time>2014-03-30T08:22:33Z</time>
    </trkpt>
    <trkpt lat="48.462588" lon="2.660041">
      <ele>100.2</ele>
      <time>2014-03-30T08:22:36Z</time>
    </trkpt>
    <trkpt lat="48.462499" lon="2.660099">
      <ele>99.9</ele>
      <time>2014-03-30T08:22:39Z</time>
    </trkpt>
    <trkpt lat="48.462387" lon="2.660149">
      <ele>100.0</ele>
      <time>2014-03-30T08:22:42Z</time>
    </trkpt>
    <trkpt lat="48.462278" lon="2.660257">
      <ele>100.0</ele>
      <time>2014-03-30T08:22:46Z</time>
    </trkpt>
    <trkpt lat="48.462177" lon="2.660299">
      <ele>100.2</ele>
      <time>2014-03-30T08:22:50Z</time>
    </trkpt>
    <trkpt lat="48.462081" lon="2.660314">
      <ele>100.3</ele>
      <time>2014-03-30T08:22:54Z</time>
    </trkpt>
    <trkpt lat="48.461971" lon="2.660363">
      <ele>100.5</ele>
      <time>2014-03-30T08:22:59Z</time>
    </trkpt>
    <trkpt lat="48.461875" lon="2.660395">
      <ele>100.6</ele>
      <time>2014-03-30T08:23:04Z</time>
    </trkpt>
    <trkpt lat="48.461765" lon="2.660433">
      <ele>100.8</ele>
      <time>2014-03-30T08:23:09Z</time>
    </trkpt>
    <trkpt lat="48.46167" lon="2.660461">
      <ele>101.0</ele>
      <time>2014-03-30T08:23:15Z</time>
    </trkpt>
    <trkpt lat="48.461578" lon="2.660416">
      <ele>101.6</ele>
      <time>2014-03-30T08:23:23Z</time>
    </trkpt>
    <trkpt lat="48.461491" lon="2.660357">
      <ele>102.2</ele>
      <time>2014-03-30T08:23:31Z</time>
    </trkpt>
    <trkpt lat="48.461294" lon="2.660345">
      <ele>103.5</ele>
      <time>2014-03-30T08:23:40Z</time>
    </trkpt>
    <trkpt lat="48.461193" lon="2.66038">
      <ele>104.2</ele>
      <time>2014-03-30T08:23:47Z</time>
    </trkpt>
    <trkpt lat="48.461097" lon="2.66044">
      <ele>104.7</ele>
      <time>2014-03-30T08:23:55Z</time>
    </trkpt>
    <trkpt lat="48.460976" lon="2.660501">
      <ele>105.5</ele>
      <time>2014-03-30T08:23:59Z</time>
    </trkpt>
    <trkpt lat="48.460879" lon="2.66057">
      <ele>106.0</ele>
      <time>2014-03-30T08:24:02Z</time>
    </trkpt>
    <trkpt lat="48.460778" lon="2.660639">
      <ele>106.0</ele>
      <time>2014-03-30T08:24:05Z</time>
    </trkpt>
    <trkpt lat="48.460712" lon="2.660756">
      <ele>105.7</ele>
      <time>2014-03-30T08:24:08Z</time>
    </trkpt>
    <trkpt lat="48.460654" lon="2.660866">
      <ele>105.4</ele>
      <time>2014-03-30T08:24:11Z</time>
    </trkpt>
    <trkpt lat="48.460608" lon="2.661017">
      <ele>105.5</ele>
      <time>2014-03-30T08:24:14Z</time>
    </trkpt>
    <trkpt lat="48.460509" lon="2.661069">
      <ele>105.1</ele>
      <time>2014-03-30T08:24:16Z</time>
    </trkpt>
    <trkpt lat="48.460381" lon="2.661137">
      <ele>104.5</ele>
      <time>2014-03-30T08:24:19Z</time>
    </trkpt>
    <trkpt lat="48.460272" lon="2.66119">
      <ele>104.0</ele>
      <time>2014-03-30T08:24:22Z</time>
    </trkpt>
    <trkpt lat="48.460172" lon="2.661242">
      <ele>103.4</ele>
      <time>2014-03-30T08:24:25Z</time>
    </trkpt>
    <trkpt lat="48.460052" lon="2.661321">
      <ele>102.7</ele>
      <time>2014-03-30T08:24:28Z</time>
    </trkpt>
    <trkpt lat="48.459957" lon="2.66138">
      <ele>102.2</ele>
      <time>2014-03-30T08:24:31Z</time>
    </trkpt>
    <trkpt lat="48.459827" lon="2.661366">
      <ele>101.9</ele>
      <time>2014-03-30T08:24:34Z</time>
    </trkpt>
    <trkpt lat="48.459609" lon="2.66126">
      <ele>101.3</ele>
      <time>2014-03-30T08:24:40Z</time>
    </trkpt>
    <trkpt lat="48.459525" lon="2.661202">
      <ele>101.0</ele>
      <time>2014-03-30T08:24:43Z</time>
    </trkpt>
    <trkpt lat="48.459399" lon="2.66112">
      <ele>100.5</ele>
      <time>2014-03-30T08:24:46Z</time>
    </trkpt>
    <trkpt lat="48.459313" lon="2.661043">
      <ele>100.1</ele>
      <time>2014-03-30T08:24:49Z</time>
    </trkpt>
    <trkpt lat="48.459201" lon="2.660996">
      <ele>99.5</ele>
      <time>2014-03-30T08:24:52Z</time>
    </trkpt>
    <trkpt lat="48.459114" lon="2.66093">
      <ele>99.5</ele>
      <time>2014-03-30T08:24:55Z</time>
    </trkpt>
    <trkpt lat="48.459021" lon="2.66087">
      <ele>99.8</ele>
      <time>2014-03-30T08:24:59Z</time>
    </trkpt>
    <trkpt lat="48.458917" lon="2.660816">
      <ele>100.2</ele>
      <time>2014-03-30T08:25:03Z</time>
    </trkpt>
    <trkpt lat="48.458851" lon="2.660723">
      <ele>100.7</ele>
      <time>2014-03-30T08:25:06Z</time>
    </trkpt>
    <trkpt lat="48.458765" lon="2.660678">
      <ele>101.2</ele>
      <time>2014-03-30T08:25:10Z</time>
    </trkpt>
    <trkpt lat="48.458674" lon="2.660618">
      <ele>101.8</ele>
      <time>2014-03-30T08:25:13Z</time>
    </trkpt>
    <trkpt lat="48.458592" lon="2.660519">
      <ele>102.4</ele>
      <time>2014-03-30T08:25:18Z</time>
    </trkpt>
    <trkpt lat="48.458558" lon="2.660372">
      <ele>102.9</ele>
      <time>2014-03-30T08:25:26Z</time>
    </trkpt>
    <trkpt lat="48.458542" lon="2.660217">
      <ele>103.3</ele>
      <time>2014-03-30T08:25:32Z</time>
    </trkpt>
    <trkpt lat="48.458553" lon="2.660061">
      <ele>103.6</ele>
      <time>2014-03-30T08:25:39Z</time>
    </trkpt>
    <trkpt lat="48.458559" lon="2.659775">
      <ele>105.2</ele>
      <time>2014-03-30T08:25:52Z</time>
    </trkpt>
    <trkpt lat="48.458559" lon="2.659626">
      <ele>106.2</ele>
      <time>2014-03-30T08:25:57Z</time>
    </trkpt>
    <trkpt lat="48.458541" lon="2.659489">
      <ele>107.3</ele>
      <time>2014-03-30T08:26:02Z</time>
    </trkpt>
    <trkpt lat="48.458515" lon="2.65935">
      <ele>108.5</ele>
      <time>2014-03-30T08:26:10Z</time>
    </trkpt>
    <trkpt lat="48.458464" lon="2.65921">
      <ele>110.1</ele>
      <time>2014-03-30T08:26:17Z</time>
    </trkpt>
    <trkpt lat="48.458406" lon="2.659096">
      <ele>112.0</ele>
      <time>2014-03-30T08:26:22Z</time>
    </trkpt>
    <trkpt lat="48.458346" lon="2.658991">
      <ele>113.9</ele>
      <time>2014-03-30T08:26:28Z</time>
    </trkpt>
    <trkpt lat="48.458264" lon="2.658897">
      <ele>115.7</ele>
      <time>2014-03-30T08:26:36Z</time>
    </trkpt>
    <trkpt lat="48.458219" lon="2.658778">
      <ele>117.4</ele>
      <time>2014-03-30T08:26:41Z</time>
    </trkpt>
    <trkpt lat="48.458115" lon="2.658527">
      <ele>120.9</ele>
      <time>2014-03-30T08:26:55Z</time>
    </trkpt>
    <trkpt lat="48.458079" lon="2.658395">
      <ele>122.5</ele>
      <time>2014-03-30T08:27:03Z</time>
    </trkpt>
    <trkpt lat="48.458026" lon="2.658273">
      <ele>123.9</ele>
      <time>2014-03-30T08:27:14Z</time>
    </trkpt>
    <trkpt lat="48.457933" lon="2.658217">
      <ele>124.6</ele>
      <time>2014-03-30T08:27:21Z</time>
    </trkpt>
    <trkpt lat="48.457848" lon="2.658166">
      <ele>125.3</ele>
      <time>2014-03-30T08:27:27Z</time>
    </trkpt>
    <trkpt lat="48.457752" lon="2.658146">
      <ele>125.7</ele>
      <time>2014-03-30T08:27:34Z</time>
    </trkpt>
    <trkpt lat="48.457675" lon="2.658064">
      <ele>126.4</ele>
      <time>2014-03-30T08:27:42Z</time>
    </trkpt>
    <trkpt lat="48.457558" lon="2.657833">
      <ele>127.7</ele>
      <time>2014-03-30T08:27:59Z</time>
    </trkpt>
    <trkpt lat="48.457546" lon="2.657684">
      <ele>128.3</ele>
      <time>2014-03-30T08:28:08Z</time>
    </trkpt>
    <trkpt lat="48.4576" lon="2.657572">
      <ele>128.7</ele>
      <time>2014-03-30T08:28:20Z</time>
    </trkpt>
    <trkpt lat="48.457693" lon="2.65751">
      <ele>129.0</ele>
      <time>2014-03-30T08:28:25Z</time>
    </trkpt>
    <trkpt lat="48.457783" lon="2.657482">
      <ele>129.1</ele>
      <time>2014-03-30T08:28:30Z</time>
    </trkpt>
    <trkpt lat="48.457891" lon="2.657463">
      <ele>129.1</ele>
      <time>2014-03-30T08:28:34Z</time>
    </trkpt>
    <trkpt lat="48.458011" lon="2.657438">
      <ele>129.2</ele>
      <time>2014-03-30T08:28:38Z</time>
    </trkpt>
    <trkpt lat="48.458107" lon="2.657423">
      <ele>129.3</ele>
      <time>2014-03-30T08:28:41Z</time>
    </trkpt>
    <trkpt lat="48.458214" lon="2.657394">
      <ele>129.4</ele>
      <time>2014-03-30T08:28:45Z</time>
    </trkpt>
    <trkpt lat="48.458382" lon="2.65728">
      <ele>129.2</ele>
      <time>2014-03-30T08:28:54Z</time>
    </trkpt>
    <trkpt lat="48.458455" lon="2.657151">
      <ele>129.0</ele>
      <time>2014-03-30T08:28:58Z</time>
    </trkpt>
    <trkpt lat="48.458529" lon="2.657027">
      <ele>128.8</ele>
      <time>2014-03-30T08:29:01Z</time>
    </trkpt>
    <trkpt lat="48.458591" lon="2.656899">
      <ele>128.9</ele>
      <time>2014-03-30T08:29:04Z</time>
    </trkpt>
    <trkpt lat="48.458656" lon="2.656778">
      <ele>129.0</ele>
      <time>2014-03-30T08:29:07Z</time>
    </trkpt>
    <trkpt lat="48.458721" lon="2.656642">
      <ele>129.3</ele>
      <time>2014-03-30T08:29:10Z</time>
    </trkpt>
    <trkpt lat="48.458779" lon="2.656514">
      <ele>129.3</ele>
      <time>2014-03-30T08:29:13Z</time>
    </trkpt>
    <trkpt lat="48.458849" lon="2.656399">
      <ele>129.2</ele>
      <time>2014-03-30T08:29:16Z</time>
    </trkpt>
    <trkpt lat="48.458915" lon="2.656256">
      <ele>129.3</ele>
      <time>2014-03-30T08:29:19Z</time>
    </trkpt>
    <trkpt lat="48.458972" lon="2.656147">
      <ele>129.5</ele>
      <time>2014-03-30T08:29:21Z</time>
    </trkpt>
    <trkpt lat="48.459042" lon="2.656037">
      <ele>129.6</ele>
      <time>2014-03-30T08:29:23Z</time>
    </trkpt>
    <trkpt lat="48.459096" lon="2.655927">
      <ele>129.8</ele>
      <time>2014-03-30T08:29:25Z</time>
    </trkpt>
    <trkpt lat="48.459169" lon="2.655782">
      <ele>130.1</ele>
      <time>2014-03-30T08:29:28Z</time>
    </trkpt>
    <trkpt lat="48.459238" lon="2.655677">
      <ele>129.2</ele>
      <time>2014-03-30T08:29:30Z</time>
    </trkpt>
    <trkpt lat="48.459287" lon="2.65555">
      <ele>128.9</ele>
      <time>2014-03-30T08:29:32Z</time>
    </trkpt>
    <trkpt lat="48.459336" lon="2.655431">
      <ele>128.5</ele>
      <time>2014-03-30T08:29:34Z</time>
    </trkpt>
    <trkpt lat="48.459413" lon="2.655263">
      <ele>128.0</ele>
      <time>2014-03-30T08:29:37Z</time>
    </trkpt>
    <trkpt lat="48.459448" lon="2.655123">
      <ele>128.1</ele>
      <time>2014-03-30T08:29:39Z</time>
    </trkpt>
    <trkpt lat="48.459488" lon="2.654998">
      <ele>128.1</ele>
      <time>2014-03-30T08:29:41Z</time>
    </trkpt>
    <trkpt lat="48.45953" lon="2.654869">
      <ele>127.7</ele>
      <time>2014-03-30T08:29:43Z</time>
    </trkpt>
    <trkpt lat="48.459568" lon="2.65474">
      <ele>127.3</ele>
      <time>2014-03-30T08:29:45Z</time>
    </trkpt>
    <trkpt lat="48.459621" lon="2.65443">
      <ele>127.0</ele>
      <time>2014-03-30T08:29:49Z</time>
    </trkpt>
    <trkpt lat="48.45964" lon="2.654291">
      <ele>126.9</ele>
      <time>2014-03-30T08:29:51Z</time>
    </trkpt>
    <trkpt lat="48.459658" lon="2.654156">
      <ele>126.8</ele>
      <time>2014-03-30T08:29:53Z</time>
    </trkpt>
    <trkpt lat="48.459673" lon="2.653994">
      <ele>126.1</ele>
      <time>2014-03-30T08:29:55Z</time>
    </trkpt>
    <trkpt lat="48.459641" lon="2.653848">
      <ele>125.8</ele>
      <time>2014-03-30T08:29:57Z</time>
    </trkpt>
    <trkpt lat="48.459575" lon="2.653739">
      <ele>126.0</ele>
      <time>2014-03-30T08:29:59Z</time>
    </trkpt>
    <trkpt lat="48.459507" lon="2.6536">
      <ele>126.2</ele>
      <time>2014-03-30T08:30:01Z</time>
    </trkpt>
    <trkpt lat="48.459429" lon="2.65349">
      <ele>126.7</ele>
      <time>2014-03-30T08:30:03Z</time>
    </trkpt>
    <trkpt lat="48.459294" lon="2.653398">
      <ele>127.8</ele>
      <time>2014-03-30T08:30:05Z</time>
    </trkpt>
    <trkpt lat="48.459186" lon="2.653325">
      <ele>128.7</ele>
      <time>2014-03-30T08:30:07Z</time>
    </trkpt>
    <trkpt lat="48.459071" lon="2.653327">
      <ele>129.2</ele>
      <time>2014-03-30T08:30:09Z</time>
    </trkpt>
    <trkpt lat="48.458954" lon="2.653334">
      <ele>129.5</ele>
      <time>2014-03-30T08:30:11Z</time>
    </trkpt>
    <trkpt lat="48.458821" lon="2.653355">
      <ele>129.9</ele>
      <time>2014-03-30T08:30:13Z</time>
    </trkpt>
    <trkpt lat="48.458674" lon="2.653375">
      <ele>130.2</ele>
      <time>2014-03-30T08:30:15Z</time>
    </trkpt>
    <trkpt lat="48.458547" lon="2.653402">
      <ele>130.5</ele>
      <time>2014-03-30T08:30:17Z</time>
    </trkpt>
    <trkpt lat="48.458436" lon="2.653412">
      <ele>130.8</ele>
      <time>2014-03-30T08:30:19Z</time>
    </trkpt>
    <trkpt lat="48.458319" lon="2.653417">
      <ele>131.0</ele>
      <time>2014-03-30T08:30:21Z</time>
    </trkpt>
    <trkpt lat="48.458188" lon="2.653416">
      <ele>131.0</ele>
      <time>2014-03-30T08:30:23Z</time>
    </trkpt>
    <trkpt lat="48.458062" lon="2.653373">
      <ele>131.0</ele>
      <time>2014-03-30T08:30:25Z</time>
    </trkpt>
    <trkpt lat="48.457951" lon="2.653295">
      <ele>130.9</ele>
      <time>2014-03-30T08:30:27Z</time>
    </trkpt>
    <trkpt lat="48.457871" lon="2.653201">
      <ele>130.9</ele>
      <time>2014-03-30T08:30:29Z</time>
    </trkpt>
    <trkpt lat="48.457797" lon="2.653073">
      <ele>130.9</ele>
      <time>2014-03-30T08:30:31Z</time>
    </trkpt>
    <trkpt lat="48.457737" lon="2.652957">
      <ele>130.9</ele>
      <time>2014-03-30T08:30:33Z</time>
    </trkpt>
    <trkpt lat="48.457682" lon="2.652845">
      <ele>131.1</ele>
      <time>2014-03-30T08:30:35Z</time>
    </trkpt>
    <trkpt lat="48.457616" lon="2.652673">
      <ele>131.4</ele>
      <time>2014-03-30T08:30:38Z</time>
    </trkpt>
    <trkpt lat="48.457611" lon="2.652534">
      <ele>131.4</ele>
      <time>2014-03-30T08:30:40Z</time>
    </trkpt>
    <trkpt lat="48.457634" lon="2.652368">
      <ele>131.4</ele>
      <time>2014-03-30T08:30:42Z</time>
    </trkpt>
    <trkpt lat="48.457659" lon="2.65218">
      <ele>131.4</ele>
      <time>2014-03-30T08:30:44Z</time>
    </trkpt>
    <trkpt lat="48.457724" lon="2.652027">
      <ele>131.2</ele>
      <time>2014-03-30T08:30:46Z</time>
    </trkpt>
    <trkpt lat="48.457879" lon="2.651741">
      <ele>131.0</ele>
      <time>2014-03-30T08:30:50Z</time>
    </trkpt>
    <trkpt lat="48.458" lon="2.651626">
      <ele>130.8</ele>
      <time>2014-03-30T08:30:52Z</time>
    </trkpt>
    <trkpt lat="48.458103" lon="2.651543">
      <ele>130.7</ele>
      <time>2014-03-30T08:30:54Z</time>
    </trkpt>
    <trkpt lat="48.458197" lon="2.651497">
      <ele>130.5</ele>
      <time>2014-03-30T08:30:56Z</time>
    </trkpt>
    <trkpt lat="48.458325" lon="2.651422">
      <ele>130.3</ele>
      <time>2014-03-30T08:30:59Z</time>
    </trkpt>
    <trkpt lat="48.458422" lon="2.65136">
      <ele>129.4</ele>
      <time>2014-03-30T08:31:01Z</time>
    </trkpt>
    <trkpt lat="48.458532" lon="2.651268">
      <ele>128.3</ele>
      <time>2014-03-30T08:31:03Z</time>
    </trkpt>
    <trkpt lat="48.458613" lon="2.651135">
      <ele>127.7</ele>
      <time>2014-03-30T08:31:05Z</time>
    </trkpt>
    <trkpt lat="48.458659" lon="2.651005">
      <ele>127.5</ele>
      <time>2014-03-30T08:31:07Z</time>
    </trkpt>
    <trkpt lat="48.458629" lon="2.650873">
      <ele>128.1</ele>
      <time>2014-03-30T08:31:09Z</time>
    </trkpt>
    <trkpt lat="48.458615" lon="2.650732">
      <ele>128.2</ele>
      <time>2014-03-30T08:31:11Z</time>
    </trkpt>
    <trkpt lat="48.458597" lon="2.650592">
      <ele>128.3</ele>
      <time>2014-03-30T08:31:13Z</time>
    </trkpt>
    <trkpt lat="48.458542" lon="2.650436">
      <ele>128.8</ele>
      <time>2014-03-30T08:31:15Z</time>
    </trkpt>
    <trkpt lat="48.458501" lon="2.650286">
      <ele>129.1</ele>
      <time>2014-03-30T08:31:17Z</time>
    </trkpt>
    <trkpt lat="48.458435" lon="2.650108">
      <ele>129.8</ele>
      <time>2014-03-30T08:31:20Z</time>
    </trkpt>
    <trkpt lat="48.458346" lon="2.649987">
      <ele>130.8</ele>
      <time>2014-03-30T08:31:22Z</time>
    </trkpt>
    <trkpt lat="48.458282" lon="2.649877">
      <ele>131.1</ele>
      <time>2014-03-30T08:31:24Z</time>
    </trkpt>
    <trkpt lat="48.458229" lon="2.649727">
      <ele>131.3</ele>
      <time>2014-03-30T08:31:26Z</time>
    </trkpt>
    <trkpt lat="48.458175" lon="2.649596">
      <ele>131.4</ele>
      <time>2014-03-30T08:31:28Z</time>
    </trkpt>
    <trkpt lat="48.458121" lon="2.649473">
      <ele>131.5</ele>
      <time>2014-03-30T08:31:30Z</time>
    </trkpt>
    <trkpt lat="48.45807" lon="2.649282">
      <ele>131.6</ele>
      <time>2014-03-30T08:31:33Z</time>
    </trkpt>
    <trkpt lat="48.458047" lon="2.649111">
      <ele>131.7</ele>
      <time>2014-03-30T08:31:35Z</time>
    </trkpt>
    <trkpt lat="48.458048" lon="2.648959">
      <ele>131.7</ele>
      <time>2014-03-30T08:31:37Z</time>
    </trkpt>
    <trkpt lat="48.458083" lon="2.648814">
      <ele>131.6</ele>
      <time>2014-03-30T08:31:39Z</time>
    </trkpt>
    <trkpt lat="48.458111" lon="2.648676">
      <ele>131.5</ele>
      <time>2014-03-30T08:31:41Z</time>
    </trkpt>
    <trkpt lat="48.458224" lon="2.648573">
      <ele>131.3</ele>
      <time>2014-03-30T08:31:43Z</time>
    </trkpt>
    <trkpt lat="48.458327" lon="2.648495">
      <ele>131.0</ele>
      <time>2014-03-30T08:31:45Z</time>
    </trkpt>
    <trkpt lat="48.458429" lon="2.648398">
      <ele>130.4</ele>
      <time>2014-03-30T08:31:47Z</time>
    </trkpt>
    <trkpt lat="48.458663" lon="2.648267">
      <ele>129.2</ele>
      <time>2014-03-30T08:31:51Z</time>
    </trkpt>
    <trkpt lat="48.458768" lon="2.648209">
      <ele>128.9</ele>
      <time>2014-03-30T08:31:53Z</time>
    </trkpt>
    <trkpt lat="48.458872" lon="2.648165">
      <ele>128.5</ele>
      <time>2014-03-30T08:31:55Z</time>
    </trkpt>
    <trkpt lat="48.458972" lon="2.648138">
      <ele>128.1</ele>
      <time>2014-03-30T08:31:57Z</time>
    </trkpt>
    <trkpt lat="48.459077" lon="2.648112">
      <ele>127.8</ele>
      <time>2014-03-30T08:31:59Z</time>
    </trkpt>
    <trkpt lat="48.459198" lon="2.648052">
      <ele>127.2</ele>
      <time>2014-03-30T08:32:01Z</time>
    </trkpt>
    <trkpt lat="48.459304" lon="2.647939">
      <ele>126.0</ele>
      <time>2014-03-30T08:32:03Z</time>
    </trkpt>
    <trkpt lat="48.459386" lon="2.647815">
      <ele>125.2</ele>
      <time>2014-03-30T08:32:05Z</time>
    </trkpt>
    <trkpt lat="48.459438" lon="2.647668">
      <ele>125.0</ele>
      <time>2014-03-30T08:32:07Z</time>
    </trkpt>
    <trkpt lat="48.459476" lon="2.647506">
      <ele>125.0</ele>
      <time>2014-03-30T08:32:09Z</time>
    </trkpt>
    <trkpt lat="48.459496" lon="2.647334">
      <ele>124.9</ele>
      <time>2014-03-30T08:32:11Z</time>
    </trkpt>
    <trkpt lat="48.459503" lon="2.64717">
      <ele>125.0</ele>
      <time>2014-03-30T08:32:13Z</time>
    </trkpt>
    <trkpt lat="48.45951" lon="2.647004">
      <ele>125.1</ele>
      <time>2014-03-30T08:32:15Z</time>
    </trkpt>
    <trkpt lat="48.459506" lon="2.646816">
      <ele>125.5</ele>
      <time>2014-03-30T08:32:18Z</time>
    </trkpt>
    <trkpt lat="48.459501" lon="2.646661">
      <ele>125.8</ele>
      <time>2014-03-30T08:32:21Z</time>
    </trkpt>
    <trkpt lat="48.459495" lon="2.646483">
      <ele>125.9</ele>
      <time>2014-03-30T08:32:24Z</time>
    </trkpt>
    <trkpt lat="48.459476" lon="2.646337">
      <ele>126.2</ele>
      <time>2014-03-30T08:32:26Z</time>
    </trkpt>
    <trkpt lat="48.459457" lon="2.646203">
      <ele>126.5</ele>
      <time>2014-03-30T08:32:28Z</time>
    </trkpt>
    <trkpt lat="48.459418" lon="2.646002">
      <ele>127.0</ele>
      <time>2014-03-30T08:32:32Z</time>
    </trkpt>
    <trkpt lat="48.459337" lon="2.645821">
      <ele>128.0</ele>
      <time>2014-03-30T08:32:34Z</time>
    </trkpt>
    <trkpt lat="48.459282" lon="2.645703">
      <ele>128.6</ele>
      <time>2014-03-30T08:32:36Z</time>
    </trkpt>
    <trkpt lat="48.459229" lon="2.645582">
      <ele>129.2</ele>
      <time>2014-03-30T08:32:38Z</time>
    </trkpt>
    <trkpt lat="48.459156" lon="2.645426">
      <ele>130.0</ele>
      <time>2014-03-30T08:32:41Z</time>
    </trkpt>
    <trkpt lat="48.459113" lon="2.645304">
      <ele>130.2</ele>
      <time>2014-03-30T08:32:43Z</time>
    </trkpt>
    <trkpt lat="48.459083" lon="2.645077">
      <ele>130.3</ele>
      <time>2014-03-30T08:32:46Z</time>
    </trkpt>
    <trkpt lat="48.459034" lon="2.644885">
      <ele>130.3</ele>
      <time>2014-03-30T08:32:48Z</time>
    </trkpt>
    <trkpt lat="48.459015" lon="2.644548">
      <ele>130.0</ele>
      <time>2014-03-30T08:32:52Z</time>
    </trkpt>
    <trkpt lat="48.45902" lon="2.644381">
      <ele>129.8</ele>
      <time>2014-03-30T08:32:54Z</time>
    </trkpt>
    <trkpt lat="48.459023" lon="2.644193">
      <ele>129.5</ele>
      <time>2014-03-30T08:32:56Z</time>
    </trkpt>
    <trkpt lat="48.459039" lon="2.644037">
      <ele>129.6</ele>
      <time>2014-03-30T08:32:58Z</time>
    </trkpt>
    <trkpt lat="48.45905" lon="2.643851">
      <ele>129.8</ele>
      <time>2014-03-30T08:33:00Z</time>
    </trkpt>
    <trkpt lat="48.459072" lon="2.64369">
      <ele>129.9</ele>
      <time>2014-03-30T08:33:02Z</time>
    </trkpt>
    <trkpt lat="48.459105" lon="2.643543">
      <ele>130.0</ele>
      <time>2014-03-30T08:33:04Z</time>
    </trkpt>
    <trkpt lat="48.459149" lon="2.64339">
      <ele>130.0</ele>
      <time>2014-03-30T08:33:06Z</time>
    </trkpt>
    <trkpt lat="48.459211" lon="2.643251">
      <ele>129.3</ele>
      <time>2014-03-30T08:33:08Z</time>
    </trkpt>
    <trkpt lat="48.459265" lon="2.643128">
      <ele>128.3</ele>
      <time>2014-03-30T08:33:10Z</time>
    </trkpt>
    <trkpt lat="48.459308" lon="2.642954">
      <ele>127.5</ele>
      <time>2014-03-30T08:33:12Z</time>
    </trkpt>
    <trkpt lat="48.459342" lon="2.642756">
      <ele>126.8</ele>
      <time>2014-03-30T08:33:14Z</time>
    </trkpt>
    <trkpt lat="48.459381" lon="2.642581">
      <ele>126.0</ele>
      <time>2014-03-30T08:33:16Z</time>
    </trkpt>
    <trkpt lat="48.459385" lon="2.642315">
      <ele>125.9</ele>
      <time>2014-03-30T08:33:19Z</time>
    </trkpt>
    <trkpt lat="48.459393" lon="2.642117">
      <ele>125.9</ele>
      <time>2014-03-30T08:33:21Z</time>
    </trkpt>
    <trkpt lat="48.459412" lon="2.641962">
      <ele>125.7</ele>
      <time>2014-03-30T08:33:23Z</time>
    </trkpt>
    <trkpt lat="48.459426" lon="2.641775">
      <ele>125.5</ele>
      <time>2014-03-30T08:33:25Z</time>
    </trkpt>
    <trkpt lat="48.459438" lon="2.641587">
      <ele>125.2</ele>
      <time>2014-03-30T08:33:27Z</time>
    </trkpt>
    <trkpt lat="48.459438" lon="2.641438">
      <ele>124.8</ele>
      <time>2014-03-30T08:33:29Z</time>
    </trkpt>
    <trkpt lat="48.459375" lon="2.64131">
      <ele>125.2</ele>
      <time>2014-03-30T08:33:32Z</time>
    </trkpt>
    <trkpt lat="48.459248" lon="2.64127">
      <ele>126.6</ele>
      <time>2014-03-30T08:33:34Z</time>
    </trkpt>
    <trkpt lat="48.459137" lon="2.641236">
      <ele>127.6</ele>
      <time>2014-03-30T08:33:37Z</time>
    </trkpt>
    <trkpt lat="48.459038" lon="2.641181">
      <ele>128.1</ele>
      <time>2014-03-30T08:33:42Z</time>
    </trkpt>
    <trkpt lat="48.458925" lon="2.641154">
      <ele>128.7</ele>
      <time>2014-03-30T08:33:46Z</time>
    </trkpt>
    <trkpt lat="48.458827" lon="2.641141">
      <ele>129.3</ele>
      <time>2014-03-30T08:33:50Z</time>
    </trkpt>
    <trkpt lat="48.458638" lon="2.641128">
      <ele>130.5</ele>
      <time>2014-03-30T08:33:56Z</time>
    </trkpt>
    <trkpt lat="48.458532" lon="2.641133">
      <ele>131.2</ele>
      <time>2014-03-30T08:33:59Z</time>
    </trkpt>
    <trkpt lat="48.458419" lon="2.641133">
      <ele>131.9</ele>
      <time>2014-03-30T08:34:02Z</time>
    </trkpt>
    <trkpt lat="48.458306" lon="2.641142">
      <ele>132.6</ele>
      <time>2014-03-30T08:34:05Z</time>
    </trkpt>
    <trkpt lat="48.458187" lon="2.641127">
      <ele>133.2</ele>
      <time>2014-03-30T08:34:09Z</time>
    </trkpt>
    <trkpt lat="48.458089" lon="2.641092">
      <ele>133.6</ele>
      <time>2014-03-30T08:34:12Z</time>
    </trkpt>
    <trkpt lat="48.458002" lon="2.641027">
      <ele>133.9</ele>
      <time>2014-03-30T08:34:15Z</time>
    </trkpt>
    <trkpt lat="48.457931" lon="2.64092">
      <ele>134.1</ele>
      <time>2014-03-30T08:34:18Z</time>
    </trkpt>
    <trkpt lat="48.457878" lon="2.640763">
      <ele>133.9</ele>
      <time>2014-03-30T08:34:22Z</time>
    </trkpt>
    <trkpt lat="48.457823" lon="2.640624">
      <ele>133.7</ele>
      <time>2014-03-30T08:34:25Z</time>
    </trkpt>
    <trkpt lat="48.457764" lon="2.640508">
      <ele>133.8</ele>
      <time>2014-03-30T08:34:28Z</time>
    </trkpt>
    <trkpt lat="48.457709" lon="2.640358">
      <ele>133.9</ele>
      <time>2014-03-30T08:34:32Z</time>
    </trkpt>
    <trkpt lat="48.45766" lon="2.640237">
      <ele>134.2</ele>
      <time>2014-03-30T08:34:35Z</time>
    </trkpt>
    <trkpt lat="48.457613" lon="2.640093">
      <ele>134.5</ele>
      <time>2014-03-30T08:34:38Z</time>
    </trkpt>
    <trkpt lat="48.457578" lon="2.639927">
      <ele>134.6</ele>
      <time>2014-03-30T08:34:41Z</time>
    </trkpt>
    <trkpt lat="48.457561" lon="2.639749">
      <ele>134.4</ele>
      <time>2014-03-30T08:34:44Z</time>
    </trkpt>
    <trkpt lat="48.45756" lon="2.63961">
      <ele>134.1</ele>
      <time>2014-03-30T08:34:46Z</time>
    </trkpt>
    <trkpt lat="48.457557" lon="2.639471">
      <ele>133.8</ele>
      <time>2014-03-30T08:34:48Z</time>
    </trkpt>
    <trkpt lat="48.457579" lon="2.63928">
      <ele>132.9</ele>
      <time>2014-03-30T08:34:51Z</time>
    </trkpt>
    <trkpt lat="48.457608" lon="2.63889">
      <ele>130.2</ele>
      <time>2014-03-30T08:34:57Z</time>
    </trkpt>
    <trkpt lat="48.457633" lon="2.638753">
      <ele>128.9</ele>
      <time>2014-03-30T08:34:59Z</time>
    </trkpt>
    <trkpt lat="48.457649" lon="2.63861">
      <ele>127.7</ele>
      <time>2014-03-30T08:35:01Z</time>
    </trkpt>
    <trkpt lat="48.45763" lon="2.638457">
      <ele>126.9</ele>
      <time>2014-03-30T08:35:03Z</time>
    </trkpt>
    <trkpt lat="48.457593" lon="2.638329">
      <ele>126.6</ele>
      <time>2014-03-30T08:35:05Z</time>
    </trkpt>
    <trkpt lat="48.457508" lon="2.638272">
      <ele>127.1</ele>
      <time>2014-03-30T08:35:07Z</time>
    </trkpt>
    <trkpt lat="48.457404" lon="2.63827">
      <ele>127.3</ele>
      <time>2014-03-30T08:35:09Z</time>
    </trkpt>
    <trkpt lat="48.457332" lon="2.638381">
      <ele>128.6</ele>
      <time>2014-03-30T08:35:11Z</time>
    </trkpt>
    <trkpt lat="48.457264" lon="2.638492">
      <ele>129.5</ele>
      <time>2014-03-30T08:35:13Z</time>
    </trkpt>
    <trkpt lat="48.45721" lon="2.638649">
      <ele>130.8</ele>
      <time>2014-03-30T08:35:16Z</time>
    </trkpt>
    <trkpt lat="48.457161" lon="2.638811">
      <ele>132.1</ele>
      <time>2014-03-30T08:35:19Z</time>
    </trkpt>
    <trkpt lat="48.457115" lon="2.638969">
      <ele>133.4</ele>
      <time>2014-03-30T08:35:22Z</time>
    </trkpt>
    <trkpt lat="48.457026" lon="2.63906">
      <ele>134.3</ele>
      <time>2014-03-30T08:35:25Z</time>
    </trkpt>
    <trkpt lat="48.456931" lon="2.639134">
      <ele>135.1</ele>
      <time>2014-03-30T08:35:28Z</time>
    </trkpt>
    <trkpt lat="48.45683" lon="2.6392">
      <ele>135.7</ele>
      <time>2014-03-30T08:35:31Z</time>
    </trkpt>
    <trkpt lat="48.456698" lon="2.639249">
      <ele>136.2</ele>
      <time>2014-03-30T08:35:34Z</time>
    </trkpt>
    <trkpt lat="48.456601" lon="2.639282">
      <ele>136.3</ele>
      <time>2014-03-30T08:35:36Z</time>
    </trkpt>
    <trkpt lat="48.456505" lon="2.639283">
      <ele>136.2</ele>
      <time>2014-03-30T08:35:38Z</time>
    </trkpt>
    <trkpt lat="48.456374" lon="2.639245">
      <ele>135.9</ele>
      <time>2014-03-30T08:35:41Z</time>
    </trkpt>
    <trkpt lat="48.456284" lon="2.639089">
      <ele>135.0</ele>
      <time>2014-03-30T08:35:44Z</time>
    </trkpt>
    <trkpt lat="48.456231" lon="2.638961">
      <ele>134.0</ele>
      <time>2014-03-30T08:35:46Z</time>
    </trkpt>
    <trkpt lat="48.456168" lon="2.638815">
      <ele>133.0</ele>
      <time>2014-03-30T08:35:48Z</time>
    </trkpt>
    <trkpt lat="48.456073" lon="2.638729">
      <ele>132.4</ele>
      <time>2014-03-30T08:35:50Z</time>
    </trkpt>
    <trkpt lat="48.455945" lon="2.638679">
      <ele>132.1</ele>
      <time>2014-03-30T08:35:52Z</time>
    </trkpt>
    <trkpt lat="48.455749" lon="2.638767">
      <ele>133.0</ele>
      <time>2014-03-30T08:35:56Z</time>
    </trkpt>
    <trkpt lat="48.455646" lon="2.638744">
      <ele>133.3</ele>
      <time>2014-03-30T08:35:58Z</time>
    </trkpt>
    <trkpt lat="48.455557" lon="2.638683">
      <ele>133.3</ele>
      <time>2014-03-30T08:36:00Z</time>
    </trkpt>
    <trkpt lat="48.455459" lon="2.638593">
      <ele>133.4</ele>
      <time>2014-03-30T08:36:02Z</time>
    </trkpt>
    <trkpt lat="48.455372" lon="2.638512">
      <ele>133.5</ele>
      <time>2014-03-30T08:36:04Z</time>
    </trkpt>
    <trkpt lat="48.455255" lon="2.638498">
      <ele>134.0</ele>
      <time>2014-03-30T08:36:06Z</time>
    </trkpt>
    <trkpt lat="48.45514" lon="2.638488">
      <ele>134.6</ele>
      <time>2014-03-30T08:36:08Z</time>
    </trkpt>
    <trkpt lat="48.455021" lon="2.63849">
      <ele>135.3</ele>
      <time>2014-03-30T08:36:10Z</time>
    </trkpt>
    <trkpt lat="48.454915" lon="2.63849">
      <ele>135.8</ele>
      <time>2014-03-30T08:36:12Z</time>
    </trkpt>
    <trkpt lat="48.454822" lon="2.638426">
      <ele>136.1</ele>
      <time>2014-03-30T08:36:14Z</time>
    </trkpt>
    <trkpt lat="48.45477" lon="2.638303">
      <ele>136.0</ele>
      <time>2014-03-30T08:36:16Z</time>
    </trkpt>
    <trkpt lat="48.454693" lon="2.638196">
      <ele>135.8</ele>
      <time>2014-03-30T08:36:18Z</time>
    </trkpt>
    <trkpt lat="48.454622" lon="2.638071">
      <ele>135.7</ele>
      <time>2014-03-30T08:36:20Z</time>
    </trkpt>
    <trkpt lat="48.454556" lon="2.637957">
      <ele>135.6</ele>
      <time>2014-03-30T08:36:22Z</time>
    </trkpt>
    <trkpt lat="48.454484" lon="2.637851">
      <ele>135.7</ele>
      <time>2014-03-30T08:36:24Z</time>
    </trkpt>
    <trkpt lat="48.454427" lon="2.637737">
      <ele>135.6</ele>
      <time>2014-03-30T08:36:26Z</time>
    </trkpt>
    <trkpt lat="48.454384" lon="2.637596">
      <ele>135.5</ele>
      <time>2014-03-30T08:36:28Z</time>
    </trkpt>
    <trkpt lat="48.45438" lon="2.637457">
      <ele>135.0</ele>
      <time>2014-03-30T08:36:30Z</time>
    </trkpt>
    <trkpt lat="48.454376" lon="2.637314">
      <ele>134.3</ele>
      <time>2014-03-30T08:36:32Z</time>
    </trkpt>
    <trkpt lat="48.454346" lon="2.637139">
      <ele>133.7</ele>
      <time>2014-03-30T08:36:34Z</time>
    </trkpt>
    <trkpt lat="48.454311" lon="2.636939">
      <ele>133.2</ele>
      <time>2014-03-30T08:36:36Z</time>
    </trkpt>
    <trkpt lat="48.454276" lon="2.636777">
      <ele>132.9</ele>
      <time>2014-03-30T08:36:38Z</time>
    </trkpt>
    <trkpt lat="48.45421" lon="2.636643">
      <ele>133.1</ele>
      <time>2014-03-30T08:36:40Z</time>
    </trkpt>
    <trkpt lat="48.454124" lon="2.636507">
      <ele>132.6</ele>
      <time>2014-03-30T08:36:42Z</time>
    </trkpt>
    <trkpt lat="48.454042" lon="2.636416">
      <ele>131.8</ele>
      <time>2014-03-30T08:36:44Z</time>
    </trkpt>
    <trkpt lat="48.453933" lon="2.636349">
      <ele>131.4</ele>
      <time>2014-03-30T08:36:46Z</time>
    </trkpt>
    <trkpt lat="48.453801" lon="2.636322">
      <ele>131.4</ele>
      <time>2014-03-30T08:36:48Z</time>
    </trkpt>
    <trkpt lat="48.453681" lon="2.636346">
      <ele>131.9</ele>
      <time>2014-03-30T08:36:50Z</time>
    </trkpt>
    <trkpt lat="48.453576" lon="2.63638">
      <ele>132.4</ele>
      <time>2014-03-30T08:36:52Z</time>
    </trkpt>
    <trkpt lat="48.453354" lon="2.636465">
      <ele>133.8</ele>
      <time>2014-03-30T08:36:56Z</time>
    </trkpt>
    <trkpt lat="48.453251" lon="2.63652">
      <ele>134.5</ele>
      <time>2014-03-30T08:36:58Z</time>
    </trkpt>
    <trkpt lat="48.453154" lon="2.636576">
      <ele>135.1</ele>
      <time>2014-03-30T08:37:00Z</time>
    </trkpt>
    <trkpt lat="48.453056" lon="2.636614">
      <ele>135.5</ele>
      <time>2014-03-30T08:37:02Z</time>
    </trkpt>
    <trkpt lat="48.452954" lon="2.636605">
      <ele>135.5</ele>
      <time>2014-03-30T08:37:04Z</time>
    </trkpt>
    <trkpt lat="48.45287" lon="2.636455">
      <ele>134.4</ele>
      <time>2014-03-30T08:37:07Z</time>
    </trkpt>
    <trkpt lat="48.452785" lon="2.636331">
      <ele>133.7</ele>
      <time>2014-03-30T08:37:09Z</time>
    </trkpt>
    <trkpt lat="48.452703" lon="2.636188">
      <ele>133.0</ele>
      <time>2014-03-30T08:37:11Z</time>
    </trkpt>
    <trkpt lat="48.452624" lon="2.636064">
      <ele>132.6</ele>
      <time>2014-03-30T08:37:13Z</time>
    </trkpt>
    <trkpt lat="48.452532" lon="2.635987">
      <ele>132.6</ele>
      <time>2014-03-30T08:37:15Z</time>
    </trkpt>
    <trkpt lat="48.452415" lon="2.636023">
      <ele>133.3</ele>
      <time>2014-03-30T08:37:17Z</time>
    </trkpt>
    <trkpt lat="48.452323" lon="2.636035">
      <ele>133.8</ele>
      <time>2014-03-30T08:37:19Z</time>
    </trkpt>
    <trkpt lat="48.452222" lon="2.636053">
      <ele>134.4</ele>
      <time>2014-03-30T08:37:21Z</time>
    </trkpt>
    <trkpt lat="48.452121" lon="2.63599">
      <ele>134.6</ele>
      <time>2014-03-30T08:37:24Z</time>
    </trkpt>
    <trkpt lat="48.452032" lon="2.635854">
      <ele>134.3</ele>
      <time>2014-03-30T08:37:26Z</time>
    </trkpt>
    <trkpt lat="48.451988" lon="2.6357">
      <ele>133.3</ele>
      <time>2014-03-30T08:37:28Z</time>
    </trkpt>
    <trkpt lat="48.451969" lon="2.635545">
      <ele>132.0</ele>
      <time>2014-03-30T08:37:30Z</time>
    </trkpt>
    <trkpt lat="48.451972" lon="2.63539">
      <ele>130.7</ele>
      <time>2014-03-30T08:37:32Z</time>
    </trkpt>
    <trkpt lat="48.451962" lon="2.635213">
      <ele>129.2</ele>
      <time>2014-03-30T08:37:34Z</time>
    </trkpt>
    <trkpt lat="48.451962" lon="2.635051">
      <ele>127.7</ele>
      <time>2014-03-30T08:37:36Z</time>
    </trkpt>
    <trkpt lat="48.451971" lon="2.634905">
      <ele>126.8</ele>
      <time>2014-03-30T08:37:38Z</time>
    </trkpt>
    <trkpt lat="48.451993" lon="2.634742">
      <ele>125.9</ele>
      <time>2014-03-30T08:37:40Z</time>
    </trkpt>
    <trkpt lat="48.452004" lon="2.634584">
      <ele>125.1</ele>
      <time>2014-03-30T08:37:42Z</time>
    </trkpt>
    <trkpt lat="48.451996" lon="2.634387">
      <ele>124.1</ele>
      <time>2014-03-30T08:37:45Z</time>
    </trkpt>
    <trkpt lat="48.451999" lon="2.634246">
      <ele>123.4</ele>
      <time>2014-03-30T08:37:47Z</time>
    </trkpt>
    <trkpt lat="48.451996" lon="2.6341">
      <ele>122.4</ele>
      <time>2014-03-30T08:37:49Z</time>
    </trkpt>
    <trkpt lat="48.452028" lon="2.633943">
      <ele>121.1</ele>
      <time>2014-03-30T08:37:52Z</time>
    </trkpt>
    <trkpt lat="48.452081" lon="2.633632">
      <ele>118.5</ele>
      <time>2014-03-30T08:38:07Z</time>
    </trkpt>
    <trkpt lat="48.452019" lon="2.633772">
      <ele>119.6</ele>
      <time>2014-03-30T08:39:00Z</time>
    </trkpt>
    <trkpt lat="48.451997" lon="2.634059">
      <ele>122.1</ele>
      <time>2014-03-30T08:39:07Z</time>
    </trkpt>
    <trkpt lat="48.451994" lon="2.634221">
      <ele>123.3</ele>
      <time>2014-03-30T08:39:10Z</time>
    </trkpt>
    <trkpt lat="48.451986" lon="2.634383">
      <ele>124.1</ele>
      <time>2014-03-30T08:39:14Z</time>
    </trkpt>
    <trkpt lat="48.451987" lon="2.634539">
      <ele>124.9</ele>
      <time>2014-03-30T08:39:23Z</time>
    </trkpt>
    <trkpt lat="48.451981" lon="2.634687">
      <ele>125.7</ele>
      <time>2014-03-30T08:39:26Z</time>
    </trkpt>
    <trkpt lat="48.451961" lon="2.634822">
      <ele>126.4</ele>
      <time>2014-03-30T08:39:28Z</time>
    </trkpt>
    <trkpt lat="48.451921" lon="2.635012">
      <ele>127.5</ele>
      <time>2014-03-30T08:39:31Z</time>
    </trkpt>
    <trkpt lat="48.451896" lon="2.635142">
      <ele>128.7</ele>
      <time>2014-03-30T08:39:33Z</time>
    </trkpt>
    <trkpt lat="48.451834" lon="2.635253">
      <ele>129.9</ele>
      <time>2014-03-30T08:39:35Z</time>
    </trkpt>
    <trkpt lat="48.451754" lon="2.635397">
      <ele>131.5</ele>
      <time>2014-03-30T08:39:38Z</time>
    </trkpt>
    <trkpt lat="48.451712" lon="2.635518">
      <ele>132.8</ele>
      <time>2014-03-30T08:39:40Z</time>
    </trkpt>
    <trkpt lat="48.45169" lon="2.635655">
      <ele>134.2</ele>
      <time>2014-03-30T08:39:43Z</time>
    </trkpt>
    <trkpt lat="48.451719" lon="2.635792">
      <ele>135.4</ele>
      <time>2014-03-30T08:39:46Z</time>
    </trkpt>
    <trkpt lat="48.451752" lon="2.635952">
      <ele>136.2</ele>
      <time>2014-03-30T08:39:49Z</time>
    </trkpt>
    <trkpt lat="48.451758" lon="2.636115">
      <ele>136.9</ele>
      <time>2014-03-30T08:39:52Z</time>
    </trkpt>
    <trkpt lat="48.451686" lon="2.636242">
      <ele>137.9</ele>
      <time>2014-03-30T08:39:55Z</time>
    </trkpt>
    <trkpt lat="48.451566" lon="2.636307">
      <ele>137.0</ele>
      <time>2014-03-30T08:39:58Z</time>
    </trkpt>
    <trkpt lat="48.451477" lon="2.63637">
      <ele>136.2</ele>
      <time>2014-03-30T08:40:00Z</time>
    </trkpt>
    <trkpt lat="48.451385" lon="2.636421">
      <ele>135.4</ele>
      <time>2014-03-30T08:40:02Z</time>
    </trkpt>
    <trkpt lat="48.451235" lon="2.636717">
      <ele>135.5</ele>
      <time>2014-03-30T08:40:09Z</time>
    </trkpt>
    <trkpt lat="48.451173" lon="2.636878">
      <ele>135.3</ele>
      <time>2014-03-30T08:40:12Z</time>
    </trkpt>
    <trkpt lat="48.451098" lon="2.636999">
      <ele>134.9</ele>
      <time>2014-03-30T08:40:14Z</time>
    </trkpt>
    <trkpt lat="48.451017" lon="2.637152">
      <ele>134.8</ele>
      <time>2014-03-30T08:40:17Z</time>
    </trkpt>
    <trkpt lat="48.45096" lon="2.63732">
      <ele>135.0</ele>
      <time>2014-03-30T08:40:20Z</time>
    </trkpt>
    <trkpt lat="48.450948" lon="2.637476">
      <ele>135.6</ele>
      <time>2014-03-30T08:40:22Z</time>
    </trkpt>
    <trkpt lat="48.450929" lon="2.637622">
      <ele>135.7</ele>
      <time>2014-03-30T08:40:24Z</time>
    </trkpt>
    <trkpt lat="48.450899" lon="2.637764">
      <ele>135.7</ele>
      <time>2014-03-30T08:40:26Z</time>
    </trkpt>
    <trkpt lat="48.450877" lon="2.637911">
      <ele>135.8</ele>
      <time>2014-03-30T08:40:28Z</time>
    </trkpt>
    <trkpt lat="48.450854" lon="2.638055">
      <ele>135.8</ele>
      <time>2014-03-30T08:40:30Z</time>
    </trkpt>
    <trkpt lat="48.450849" lon="2.63821">
      <ele>135.9</ele>
      <time>2014-03-30T08:40:32Z</time>
    </trkpt>
    <trkpt lat="48.450855" lon="2.638358">
      <ele>136.1</ele>
      <time>2014-03-30T08:40:34Z</time>
    </trkpt>
    <trkpt lat="48.450867" lon="2.638504">
      <ele>135.8</ele>
      <time>2014-03-30T08:40:36Z</time>
    </trkpt>
    <trkpt lat="48.450877" lon="2.638652">
      <ele>135.6</ele>
      <time>2014-03-30T08:40:38Z</time>
    </trkpt>
    <trkpt lat="48.450888" lon="2.63885">
      <ele>135.2</ele>
      <time>2014-03-30T08:40:41Z</time>
    </trkpt>
    <trkpt lat="48.450893" lon="2.639">
      <ele>134.9</ele>
      <time>2014-03-30T08:40:43Z</time>
    </trkpt>
    <trkpt lat="48.450898" lon="2.639147">
      <ele>134.7</ele>
      <time>2014-03-30T08:40:45Z</time>
    </trkpt>
    <trkpt lat="48.450912" lon="2.639311">
      <ele>135.1</ele>
      <time>2014-03-30T08:40:47Z</time>
    </trkpt>
    <trkpt lat="48.450934" lon="2.639504">
      <ele>135.7</ele>
      <time>2014-03-30T08:40:50Z</time>
    </trkpt>
    <trkpt lat="48.450993" lon="2.639642">
      <ele>136.5</ele>
      <time>2014-03-30T08:40:52Z</time>
    </trkpt>
    <trkpt lat="48.451037" lon="2.639834">
      <ele>137.2</ele>
      <time>2014-03-30T08:40:55Z</time>
    </trkpt>
    <trkpt lat="48.451059" lon="2.63999">
      <ele>137.6</ele>
      <time>2014-03-30T08:40:57Z</time>
    </trkpt>
    <trkpt lat="48.451041" lon="2.640186">
      <ele>138.0</ele>
      <time>2014-03-30T08:40:59Z</time>
    </trkpt>
    <trkpt lat="48.450956" lon="2.640374">
      <ele>138.0</ele>
      <time>2014-03-30T08:41:01Z</time>
    </trkpt>
    <trkpt lat="48.450891" lon="2.640572">
      <ele>138.3</ele>
      <time>2014-03-30T08:41:03Z</time>
    </trkpt>
    <trkpt lat="48.450778" lon="2.640898">
      <ele>139.2</ele>
      <time>2014-03-30T08:41:08Z</time>
    </trkpt>
    <trkpt lat="48.450703" lon="2.641022">
      <ele>139.7</ele>
      <time>2014-03-30T08:41:11Z</time>
    </trkpt>
    <trkpt lat="48.450638" lon="2.641137">
      <ele>140.1</ele>
      <time>2014-03-30T08:41:14Z</time>
    </trkpt>
    <trkpt lat="48.450543" lon="2.641249">
      <ele>140.4</ele>
      <time>2014-03-30T08:41:17Z</time>
    </trkpt>
    <trkpt lat="48.450432" lon="2.641352">
      <ele>140.7</ele>
      <time>2014-03-30T08:41:19Z</time>
    </trkpt>
    <trkpt lat="48.450337" lon="2.64143">
      <ele>140.8</ele>
      <time>2014-03-30T08:41:21Z</time>
    </trkpt>
    <trkpt lat="48.450249" lon="2.641527">
      <ele>141.1</ele>
      <time>2014-03-30T08:41:24Z</time>
    </trkpt>
    <trkpt lat="48.450183" lon="2.641635">
      <ele>141.5</ele>
      <time>2014-03-30T08:41:26Z</time>
    </trkpt>
    <trkpt lat="48.450107" lon="2.641745">
      <ele>141.6</ele>
      <time>2014-03-30T08:41:30Z</time>
    </trkpt>
    <trkpt lat="48.450052" lon="2.641858">
      <ele>141.7</ele>
      <time>2014-03-30T08:41:33Z</time>
    </trkpt>
    <trkpt lat="48.449988" lon="2.641982">
      <ele>141.7</ele>
      <time>2014-03-30T08:41:36Z</time>
    </trkpt>
    <trkpt lat="48.449907" lon="2.642099">
      <ele>141.6</ele>
      <time>2014-03-30T08:41:39Z</time>
    </trkpt>
    <trkpt lat="48.449823" lon="2.642234">
      <ele>141.6</ele>
      <time>2014-03-30T08:41:42Z</time>
    </trkpt>
    <trkpt lat="48.449734" lon="2.642373">
      <ele>141.6</ele>
      <time>2014-03-30T08:41:45Z</time>
    </trkpt>
    <trkpt lat="48.449661" lon="2.642509">
      <ele>141.8</ele>
      <time>2014-03-30T08:41:48Z</time>
    </trkpt>
    <trkpt lat="48.449568" lon="2.642652">
      <ele>141.5</ele>
      <time>2014-03-30T08:41:51Z</time>
    </trkpt>
    <trkpt lat="48.449497" lon="2.642746">
      <ele>141.2</ele>
      <time>2014-03-30T08:41:53Z</time>
    </trkpt>
    <trkpt lat="48.449416" lon="2.642853">
      <ele>140.9</ele>
      <time>2014-03-30T08:41:56Z</time>
    </trkpt>
    <trkpt lat="48.449341" lon="2.643034">
      <ele>140.4</ele>
      <time>2014-03-30T08:41:59Z</time>
    </trkpt>
    <trkpt lat="48.449292" lon="2.643157">
      <ele>140.0</ele>
      <time>2014-03-30T08:42:01Z</time>
    </trkpt>
    <trkpt lat="48.449295" lon="2.643359">
      <ele>139.9</ele>
      <time>2014-03-30T08:42:04Z</time>
    </trkpt>
    <trkpt lat="48.449396" lon="2.643658">
      <ele>140.7</ele>
      <time>2014-03-30T08:42:09Z</time>
    </trkpt>
    <trkpt lat="48.449454" lon="2.643763">
      <ele>141.3</ele>
      <time>2014-03-30T08:42:11Z</time>
    </trkpt>
    <trkpt lat="48.449511" lon="2.643868">
      <ele>141.9</ele>
      <time>2014-03-30T08:42:13Z</time>
    </trkpt>
    <trkpt lat="48.44958" lon="2.644028">
      <ele>142.8</ele>
      <time>2014-03-30T08:42:16Z</time>
    </trkpt>
    <trkpt lat="48.44959" lon="2.644171">
      <ele>143.1</ele>
      <time>2014-03-30T08:42:18Z</time>
    </trkpt>
    <trkpt lat="48.449571" lon="2.644378">
      <ele>142.3</ele>
      <time>2014-03-30T08:42:21Z</time>
    </trkpt>
    <trkpt lat="48.449564" lon="2.644587">
      <ele>141.8</ele>
      <time>2014-03-30T08:42:24Z</time>
    </trkpt>
    <trkpt lat="48.449556" lon="2.644734">
      <ele>141.3</ele>
      <time>2014-03-30T08:42:26Z</time>
    </trkpt>
    <trkpt lat="48.449564" lon="2.644942">
      <ele>140.9</ele>
      <time>2014-03-30T08:42:29Z</time>
    </trkpt>
    <trkpt lat="48.44958" lon="2.645136">
      <ele>140.7</ele>
      <time>2014-03-30T08:42:32Z</time>
    </trkpt>
    <trkpt lat="48.449587" lon="2.645282">
      <ele>140.5</ele>
      <time>2014-03-30T08:42:34Z</time>
    </trkpt>
    <trkpt lat="48.449606" lon="2.645453">
      <ele>140.5</ele>
      <time>2014-03-30T08:42:36Z</time>
    </trkpt>
    <trkpt lat="48.449604" lon="2.645599">
      <ele>140.2</ele>
      <time>2014-03-30T08:42:38Z</time>
    </trkpt>
    <trkpt lat="48.449586" lon="2.645795">
      <ele>139.6</ele>
      <time>2014-03-30T08:42:41Z</time>
    </trkpt>
    <trkpt lat="48.449575" lon="2.64593">
      <ele>139.8</ele>
      <time>2014-03-30T08:42:43Z</time>
    </trkpt>
    <trkpt lat="48.449562" lon="2.646084">
      <ele>140.3</ele>
      <time>2014-03-30T08:42:45Z</time>
    </trkpt>
    <trkpt lat="48.449546" lon="2.64629">
      <ele>141.0</ele>
      <time>2014-03-30T08:42:48Z</time>
    </trkpt>
    <trkpt lat="48.449554" lon="2.646432">
      <ele>141.8</ele>
      <time>2014-03-30T08:42:50Z</time>
    </trkpt>
    <trkpt lat="48.449566" lon="2.646589">
      <ele>142.5</ele>
      <time>2014-03-30T08:42:52Z</time>
    </trkpt>
    <trkpt lat="48.449575" lon="2.646784">
      <ele>143.3</ele>
      <time>2014-03-30T08:42:55Z</time>
    </trkpt>
    <trkpt lat="48.449585" lon="2.646954">
      <ele>143.9</ele>
      <time>2014-03-30T08:42:58Z</time>
    </trkpt>
    <trkpt lat="48.4496" lon="2.647116">
      <ele>144.5</ele>
      <time>2014-03-30T08:43:01Z</time>
    </trkpt>
    <trkpt lat="48.449617" lon="2.647256">
      <ele>145.0</ele>
      <time>2014-03-30T08:43:04Z</time>
    </trkpt>
    <trkpt lat="48.449656" lon="2.647573">
      <ele>146.1</ele>
      <time>2014-03-30T08:43:11Z</time>
    </trkpt>
    <trkpt lat="48.449712" lon="2.647893">
      <ele>147.4</ele>
      <time>2014-03-30T08:43:18Z</time>
    </trkpt>
    <trkpt lat="48.449725" lon="2.648035">
      <ele>147.8</ele>
      <time>2014-03-30T08:43:21Z</time>
    </trkpt>
    <trkpt lat="48.449751" lon="2.648179">
      <ele>148.4</ele>
      <time>2014-03-30T08:43:24Z</time>
    </trkpt>
    <trkpt lat="48.449782" lon="2.648343">
      <ele>149.0</ele>
      <time>2014-03-30T08:43:27Z</time>
    </trkpt>
    <trkpt lat="48.449839" lon="2.648503">
      <ele>149.5</ele>
      <time>2014-03-30T08:43:30Z</time>
    </trkpt>
    <trkpt lat="48.449879" lon="2.64865">
      <ele>149.9</ele>
      <time>2014-03-30T08:43:33Z</time>
    </trkpt>
    <trkpt lat="48.449914" lon="2.648875">
      <ele>150.3</ele>
      <time>2014-03-30T08:43:36Z</time>
    </trkpt>
    <trkpt lat="48.44996" lon="2.649026">
      <ele>150.7</ele>
      <time>2014-03-30T08:43:38Z</time>
    </trkpt>
    <trkpt lat="48.449994" lon="2.6492">
      <ele>150.9</ele>
      <time>2014-03-30T08:43:41Z</time>
    </trkpt>
    <trkpt lat="48.450019" lon="2.64934">
      <ele>150.8</ele>
      <time>2014-03-30T08:43:45Z</time>
    </trkpt>
    <trkpt lat="48.450073" lon="2.649521">
      <ele>150.7</ele>
      <time>2014-03-30T08:43:48Z</time>
    </trkpt>
    <trkpt lat="48.450106" lon="2.649664">
      <ele>150.7</ele>
      <time>2014-03-30T08:43:50Z</time>
    </trkpt>
    <trkpt lat="48.45014" lon="2.649833">
      <ele>150.6</ele>
      <time>2014-03-30T08:43:53Z</time>
    </trkpt>
    <trkpt lat="48.450182" lon="2.650005">
      <ele>150.6</ele>
      <time>2014-03-30T08:43:56Z</time>
    </trkpt>
    <trkpt lat="48.450228" lon="2.650171">
      <ele>150.6</ele>
      <time>2014-03-30T08:43:59Z</time>
    </trkpt>
    <trkpt lat="48.450197" lon="2.650313">
      <ele>150.3</ele>
      <time>2014-03-30T08:44:03Z</time>
    </trkpt>
    <trkpt lat="48.45023" lon="2.650476">
      <ele>150.3</ele>
      <time>2014-03-30T08:44:06Z</time>
    </trkpt>
    <trkpt lat="48.450246" lon="2.650649">
      <ele>150.1</ele>
      <time>2014-03-30T08:44:09Z</time>
    </trkpt>
    <trkpt lat="48.450298" lon="2.650854">
      <ele>150.0</ele>
      <time>2014-03-30T08:44:11Z</time>
    </trkpt>
    <trkpt lat="48.450346" lon="2.651223">
      <ele>149.7</ele>
      <time>2014-03-30T08:44:16Z</time>
    </trkpt>
    <trkpt lat="48.450374" lon="2.651377">
      <ele>149.5</ele>
      <time>2014-03-30T08:44:18Z</time>
    </trkpt>
    <trkpt lat="48.450405" lon="2.651577">
      <ele>149.2</ele>
      <time>2014-03-30T08:44:21Z</time>
    </trkpt>
    <trkpt lat="48.450448" lon="2.651774">
      <ele>148.9</ele>
      <time>2014-03-30T08:44:23Z</time>
    </trkpt>
    <trkpt lat="48.450512" lon="2.651948">
      <ele>148.8</ele>
      <time>2014-03-30T08:44:25Z</time>
    </trkpt>
    <trkpt lat="48.450542" lon="2.65208">
      <ele>148.7</ele>
      <time>2014-03-30T08:44:27Z</time>
    </trkpt>
    <trkpt lat="48.45058" lon="2.652238">
      <ele>148.5</ele>
      <time>2014-03-30T08:44:29Z</time>
    </trkpt>
    <trkpt lat="48.450594" lon="2.652384">
      <ele>148.4</ele>
      <time>2014-03-30T08:44:31Z</time>
    </trkpt>
    <trkpt lat="48.450616" lon="2.652517">
      <ele>148.2</ele>
      <time>2014-03-30T08:44:33Z</time>
    </trkpt>
    <trkpt lat="48.450646" lon="2.652711">
      <ele>148.0</ele>
      <time>2014-03-30T08:44:36Z</time>
    </trkpt>
    <trkpt lat="48.450685" lon="2.652903">
      <ele>147.7</ele>
      <time>2014-03-30T08:44:39Z</time>
    </trkpt>
    <trkpt lat="48.450714" lon="2.653037">
      <ele>147.5</ele>
      <time>2014-03-30T08:44:41Z</time>
    </trkpt>
    <trkpt lat="48.450745" lon="2.653209">
      <ele>147.3</ele>
      <time>2014-03-30T08:44:44Z</time>
    </trkpt>
    <trkpt lat="48.450781" lon="2.653336">
      <ele>147.1</ele>
      <time>2014-03-30T08:44:46Z</time>
    </trkpt>
    <trkpt lat="48.450817" lon="2.653472">
      <ele>147.2</ele>
      <time>2014-03-30T08:44:48Z</time>
    </trkpt>
    <trkpt lat="48.450848" lon="2.653607">
      <ele>147.3</ele>
      <time>2014-03-30T08:44:50Z</time>
    </trkpt>
    <trkpt lat="48.450882" lon="2.6538">
      <ele>147.5</ele>
      <time>2014-03-30T08:44:53Z</time>
    </trkpt>
    <trkpt lat="48.450919" lon="2.653986">
      <ele>147.6</ele>
      <time>2014-03-30T08:44:56Z</time>
    </trkpt>
    <trkpt lat="48.450946" lon="2.654119">
      <ele>147.7</ele>
      <time>2014-03-30T08:44:58Z</time>
    </trkpt>
    <trkpt lat="48.450958" lon="2.65428">
      <ele>147.8</ele>
      <time>2014-03-30T08:45:01Z</time>
    </trkpt>
    <trkpt lat="48.450977" lon="2.654433">
      <ele>147.9</ele>
      <time>2014-03-30T08:45:04Z</time>
    </trkpt>
    <trkpt lat="48.451008" lon="2.65457">
      <ele>147.9</ele>
      <time>2014-03-30T08:45:06Z</time>
    </trkpt>
    <trkpt lat="48.45105" lon="2.654723">
      <ele>147.8</ele>
      <time>2014-03-30T08:45:08Z</time>
    </trkpt>
    <trkpt lat="48.451082" lon="2.654855">
      <ele>147.7</ele>
      <time>2014-03-30T08:45:10Z</time>
    </trkpt>
    <trkpt lat="48.451099" lon="2.655015">
      <ele>147.7</ele>
      <time>2014-03-30T08:45:12Z</time>
    </trkpt>
    <trkpt lat="48.451157" lon="2.65531">
      <ele>148.0</ele>
      <time>2014-03-30T08:45:20Z</time>
    </trkpt>
    <trkpt lat="48.451182" lon="2.655455">
      <ele>148.1</ele>
      <time>2014-03-30T08:45:23Z</time>
    </trkpt>
    <trkpt lat="48.451219" lon="2.655618">
      <ele>148.2</ele>
      <time>2014-03-30T08:45:26Z</time>
    </trkpt>
    <trkpt lat="48.451258" lon="2.655748">
      <ele>148.3</ele>
      <time>2014-03-30T08:45:29Z</time>
    </trkpt>
    <trkpt lat="48.451295" lon="2.655927">
      <ele>148.3</ele>
      <time>2014-03-30T08:45:32Z</time>
    </trkpt>
    <trkpt lat="48.451304" lon="2.656095">
      <ele>148.3</ele>
      <time>2014-03-30T08:45:37Z</time>
    </trkpt>
    <trkpt lat="48.451337" lon="2.656248">
      <ele>148.2</ele>
      <time>2014-03-30T08:45:39Z</time>
    </trkpt>
    <trkpt lat="48.451363" lon="2.656408">
      <ele>148.1</ele>
      <time>2014-03-30T08:45:41Z</time>
    </trkpt>
    <trkpt lat="48.451403" lon="2.65655">
      <ele>147.9</ele>
      <time>2014-03-30T08:45:43Z</time>
    </trkpt>
    <trkpt lat="48.451433" lon="2.65669">
      <ele>147.8</ele>
      <time>2014-03-30T08:45:45Z</time>
    </trkpt>
    <trkpt lat="48.451461" lon="2.656889">
      <ele>147.8</ele>
      <time>2014-03-30T08:45:48Z</time>
    </trkpt>
    <trkpt lat="48.451491" lon="2.657078">
      <ele>147.7</ele>
      <time>2014-03-30T08:45:51Z</time>
    </trkpt>
    <trkpt lat="48.451523" lon="2.657258">
      <ele>147.6</ele>
      <time>2014-03-30T08:45:54Z</time>
    </trkpt>
    <trkpt lat="48.451547" lon="2.657424">
      <ele>147.6</ele>
      <time>2014-03-30T08:45:58Z</time>
    </trkpt>
    <trkpt lat="48.451576" lon="2.657563">
      <ele>147.5</ele>
      <time>2014-03-30T08:46:01Z</time>
    </trkpt>
    <trkpt lat="48.451596" lon="2.657711">
      <ele>147.6</ele>
      <time>2014-03-30T08:46:04Z</time>
    </trkpt>
    <trkpt lat="48.451644" lon="2.657877">
      <ele>147.6</ele>
      <time>2014-03-30T08:46:07Z</time>
    </trkpt>
    <trkpt lat="48.451689" lon="2.65807">
      <ele>147.6</ele>
      <time>2014-03-30T08:46:10Z</time>
    </trkpt>
    <trkpt lat="48.451734" lon="2.65823">
      <ele>147.7</ele>
      <time>2014-03-30T08:46:12Z</time>
    </trkpt>
    <trkpt lat="48.451772" lon="2.658377">
      <ele>147.6</ele>
      <time>2014-03-30T08:46:14Z</time>
    </trkpt>
    <trkpt lat="48.451798" lon="2.658515">
      <ele>147.4</ele>
      <time>2014-03-30T08:46:16Z</time>
    </trkpt>
    <trkpt lat="48.451825" lon="2.658688">
      <ele>147.1</ele>
      <time>2014-03-30T08:46:19Z</time>
    </trkpt>
    <trkpt lat="48.45185" lon="2.658856">
      <ele>146.8</ele>
      <time>2014-03-30T08:46:22Z</time>
    </trkpt>
    <trkpt lat="48.451873" lon="2.659001">
      <ele>146.5</ele>
      <time>2014-03-30T08:46:25Z</time>
    </trkpt>
    <trkpt lat="48.451904" lon="2.659168">
      <ele>146.0</ele>
      <time>2014-03-30T08:46:27Z</time>
    </trkpt>
    <trkpt lat="48.451943" lon="2.659297">
      <ele>145.5</ele>
      <time>2014-03-30T08:46:30Z</time>
    </trkpt>
    <trkpt lat="48.451918" lon="2.65943">
      <ele>145.5</ele>
      <time>2014-03-30T08:46:55Z</time>
    </trkpt>
    <trkpt lat="48.451808" lon="2.659486">
      <ele>146.4</ele>
      <time>2014-03-30T08:47:00Z</time>
    </trkpt>
    <trkpt lat="48.451754" lon="2.659637">
      <ele>146.6</ele>
      <time>2014-03-30T08:47:05Z</time>
    </trkpt>
    <trkpt lat="48.451672" lon="2.659718">
      <ele>147.3</ele>
      <time>2014-03-30T08:47:08Z</time>
    </trkpt>
    <trkpt lat="48.451601" lon="2.659837">
      <ele>147.4</ele>
      <time>2014-03-30T08:47:11Z</time>
    </trkpt>
    <trkpt lat="48.451517" lon="2.65994">
      <ele>147.4</ele>
      <time>2014-03-30T08:47:14Z</time>
    </trkpt>
    <trkpt lat="48.451411" lon="2.660022">
      <ele>147.6</ele>
      <time>2014-03-30T08:47:17Z</time>
    </trkpt>
    <trkpt lat="48.451259" lon="2.660208">
      <ele>147.6</ele>
      <time>2014-03-30T08:47:23Z</time>
    </trkpt>
    <trkpt lat="48.451158" lon="2.660306">
      <ele>147.7</ele>
      <time>2014-03-30T08:47:26Z</time>
    </trkpt>
    <trkpt lat="48.451064" lon="2.660408">
      <ele>147.8</ele>
      <time>2014-03-30T08:47:29Z</time>
    </trkpt>
    <trkpt lat="48.450999" lon="2.660507">
      <ele>147.9</ele>
      <time>2014-03-30T08:47:32Z</time>
    </trkpt>
    <trkpt lat="48.450907" lon="2.660609">
      <ele>148.0</ele>
      <time>2014-03-30T08:47:35Z</time>
    </trkpt>
    <trkpt lat="48.450831" lon="2.660719">
      <ele>148.1</ele>
      <time>2014-03-30T08:47:38Z</time>
    </trkpt>
    <trkpt lat="48.450765" lon="2.660815">
      <ele>148.2</ele>
      <time>2014-03-30T08:47:40Z</time>
    </trkpt>
    <trkpt lat="48.450661" lon="2.660937">
      <ele>148.3</ele>
      <time>2014-03-30T08:47:43Z</time>
    </trkpt>
    <trkpt lat="48.450577" lon="2.661048">
      <ele>148.3</ele>
      <time>2014-03-30T08:47:46Z</time>
    </trkpt>
    <trkpt lat="48.450484" lon="2.661151">
      <ele>148.3</ele>
      <time>2014-03-30T08:47:49Z</time>
    </trkpt>
    <trkpt lat="48.45041" lon="2.661254">
      <ele>148.3</ele>
      <time>2014-03-30T08:47:52Z</time>
    </trkpt>
    <trkpt lat="48.450321" lon="2.66136">
      <ele>148.2</ele>
      <time>2014-03-30T08:47:55Z</time>
    </trkpt>
    <trkpt lat="48.450217" lon="2.661484">
      <ele>148.1</ele>
      <time>2014-03-30T08:47:59Z</time>
    </trkpt>
    <trkpt lat="48.450141" lon="2.661579">
      <ele>148.0</ele>
      <time>2014-03-30T08:48:01Z</time>
    </trkpt>
    <trkpt lat="48.450053" lon="2.661653">
      <ele>148.0</ele>
      <time>2014-03-30T08:48:04Z</time>
    </trkpt>
    <trkpt lat="48.449967" lon="2.661741">
      <ele>147.6</ele>
      <time>2014-03-30T08:48:07Z</time>
    </trkpt>
    <trkpt lat="48.449886" lon="2.661852">
      <ele>146.9</ele>
      <time>2014-03-30T08:48:10Z</time>
    </trkpt>
    <trkpt lat="48.4498" lon="2.661961">
      <ele>146.2</ele>
      <time>2014-03-30T08:48:13Z</time>
    </trkpt>
    <trkpt lat="48.449721" lon="2.662077">
      <ele>145.5</ele>
      <time>2014-03-30T08:48:16Z</time>
    </trkpt>
    <trkpt lat="48.449649" lon="2.662165">
      <ele>144.9</ele>
      <time>2014-03-30T08:48:19Z</time>
    </trkpt>
    <trkpt lat="48.449461" lon="2.662366">
      <ele>143.6</ele>
      <time>2014-03-30T08:48:25Z</time>
    </trkpt>
    <trkpt lat="48.449375" lon="2.662508">
      <ele>143.0</ele>
      <time>2014-03-30T08:48:28Z</time>
    </trkpt>
    <trkpt lat="48.449275" lon="2.662605">
      <ele>142.4</ele>
      <time>2014-03-30T08:48:31Z</time>
    </trkpt>
    <trkpt lat="48.44918" lon="2.662715">
      <ele>141.8</ele>
      <time>2014-03-30T08:48:34Z</time>
    </trkpt>
    <trkpt lat="48.449055" lon="2.662865">
      <ele>141.4</ele>
      <time>2014-03-30T08:48:38Z</time>
    </trkpt>
    <trkpt lat="48.448989" lon="2.662989">
      <ele>141.1</ele>
      <time>2014-03-30T08:48:41Z</time>
    </trkpt>
    <trkpt lat="48.448912" lon="2.663082">
      <ele>140.9</ele>
      <time>2014-03-30T08:48:44Z</time>
    </trkpt>
    <trkpt lat="48.448839" lon="2.663167">
      <ele>140.7</ele>
      <time>2014-03-30T08:48:47Z</time>
    </trkpt>
    <trkpt lat="48.44871" lon="2.663299">
      <ele>140.5</ele>
      <time>2014-03-30T08:48:52Z</time>
    </trkpt>
    <trkpt lat="48.448638" lon="2.663396">
      <ele>140.4</ele>
      <time>2014-03-30T08:48:55Z</time>
    </trkpt>
    <trkpt lat="48.448533" lon="2.663536">
      <ele>140.3</ele>
      <time>2014-03-30T08:49:00Z</time>
    </trkpt>
    <trkpt lat="48.448435" lon="2.663639">
      <ele>140.4</ele>
      <time>2014-03-30T08:49:04Z</time>
    </trkpt>
    <trkpt lat="48.448345" lon="2.663721">
      <ele>140.5</ele>
      <time>2014-03-30T08:49:07Z</time>
    </trkpt>
    <trkpt lat="48.448273" lon="2.663828">
      <ele>141.1</ele>
      <time>2014-03-30T08:49:10Z</time>
    </trkpt>
    <trkpt lat="48.448177" lon="2.663907">
      <ele>141.9</ele>
      <time>2014-03-30T08:49:14Z</time>
    </trkpt>
    <trkpt lat="48.44811" lon="2.663999">
      <ele>142.5</ele>
      <time>2014-03-30T08:49:17Z</time>
    </trkpt>
    <trkpt lat="48.448031" lon="2.664114">
      <ele>143.1</ele>
      <time>2014-03-30T08:49:20Z</time>
    </trkpt>
    <trkpt lat="48.447892" lon="2.664339">
      <ele>144.7</ele>
      <time>2014-03-30T08:49:50Z</time>
    </trkpt>
    <trkpt lat="48.447793" lon="2.664414">
      <ele>145.4</ele>
      <time>2014-03-30T08:49:54Z</time>
    </trkpt>
    <trkpt lat="48.447712" lon="2.664488">
      <ele>146.0</ele>
      <time>2014-03-30T08:49:57Z</time>
    </trkpt>
    <trkpt lat="48.447632" lon="2.664554">
      <ele>146.4</ele>
      <time>2014-03-30T08:50:00Z</time>
    </trkpt>
    <trkpt lat="48.447557" lon="2.664652">
      <ele>146.8</ele>
      <time>2014-03-30T08:50:03Z</time>
    </trkpt>
    <trkpt lat="48.44748" lon="2.664752">
      <ele>147.0</ele>
      <time>2014-03-30T08:50:06Z</time>
    </trkpt>
    <trkpt lat="48.447392" lon="2.664828">
      <ele>146.9</ele>
      <time>2014-03-30T08:50:08Z</time>
    </trkpt>
    <trkpt lat="48.447297" lon="2.664918">
      <ele>146.8</ele>
      <time>2014-03-30T08:50:11Z</time>
    </trkpt>
    <trkpt lat="48.447212" lon="2.665029">
      <ele>146.7</ele>
      <time>2014-03-30T08:50:14Z</time>
    </trkpt>
    <trkpt lat="48.447152" lon="2.66516">
      <ele>146.8</ele>
      <time>2014-03-30T08:50:17Z</time>
    </trkpt>
    <trkpt lat="48.44706" lon="2.665278">
      <ele>146.8</ele>
      <time>2014-03-30T08:50:20Z</time>
    </trkpt>
    <trkpt lat="48.446891" lon="2.665504">
      <ele>146.9</ele>
      <time>2014-03-30T08:50:26Z</time>
    </trkpt>
    <trkpt lat="48.446805" lon="2.665619">
      <ele>146.9</ele>
      <time>2014-03-30T08:50:29Z</time>
    </trkpt>
    <trkpt lat="48.446715" lon="2.665738">
      <ele>146.9</ele>
      <time>2014-03-30T08:50:32Z</time>
    </trkpt>
    <trkpt lat="48.446634" lon="2.665836">
      <ele>147.0</ele>
      <time>2014-03-30T08:50:35Z</time>
    </trkpt>
    <trkpt lat="48.446559" lon="2.665926">
      <ele>147.0</ele>
      <time>2014-03-30T08:50:37Z</time>
    </trkpt>
    <trkpt lat="48.446461" lon="2.666018">
      <ele>147.0</ele>
      <time>2014-03-30T08:50:40Z</time>
    </trkpt>
    <trkpt lat="48.44637" lon="2.666132">
      <ele>147.0</ele>
      <time>2014-03-30T08:50:43Z</time>
    </trkpt>
    <trkpt lat="48.446275" lon="2.666251">
      <ele>147.0</ele>
      <time>2014-03-30T08:50:46Z</time>
    </trkpt>
    <trkpt lat="48.446181" lon="2.666347">
      <ele>147.0</ele>
      <time>2014-03-30T08:50:49Z</time>
    </trkpt>
    <trkpt lat="48.446087" lon="2.666455">
      <ele>147.0</ele>
      <time>2014-03-30T08:50:52Z</time>
    </trkpt>
    <trkpt lat="48.445988" lon="2.666569">
      <ele>147.0</ele>
      <time>2014-03-30T08:50:55Z</time>
    </trkpt>
    <trkpt lat="48.445895" lon="2.666682">
      <ele>147.0</ele>
      <time>2014-03-30T08:50:58Z</time>
    </trkpt>
    <trkpt lat="48.445799" lon="2.666807">
      <ele>147.2</ele>
      <time>2014-03-30T08:51:01Z</time>
    </trkpt>
    <trkpt lat="48.445704" lon="2.666923">
      <ele>147.3</ele>
      <time>2014-03-30T08:51:04Z</time>
    </trkpt>
    <trkpt lat="48.445632" lon="2.667049">
      <ele>147.5</ele>
      <time>2014-03-30T08:51:07Z</time>
    </trkpt>
    <trkpt lat="48.445531" lon="2.667154">
      <ele>147.6</ele>
      <time>2014-03-30T08:51:10Z</time>
    </trkpt>
    <trkpt lat="48.445426" lon="2.667276">
      <ele>147.7</ele>
      <time>2014-03-30T08:51:13Z</time>
    </trkpt>
    <trkpt lat="48.445329" lon="2.667385">
      <ele>147.9</ele>
      <time>2014-03-30T08:51:16Z</time>
    </trkpt>
    <trkpt lat="48.445234" lon="2.667509">
      <ele>148.0</ele>
      <time>2014-03-30T08:51:19Z</time>
    </trkpt>
    <trkpt lat="48.445132" lon="2.66763">
      <ele>148.2</ele>
      <time>2014-03-30T08:51:22Z</time>
    </trkpt>
    <trkpt lat="48.44494" lon="2.667847">
      <ele>148.3</ele>
      <time>2014-03-30T08:51:28Z</time>
    </trkpt>
    <trkpt lat="48.444844" lon="2.667965">
      <ele>148.2</ele>
      <time>2014-03-30T08:51:31Z</time>
    </trkpt>
    <trkpt lat="48.444743" lon="2.668088">
      <ele>148.1</ele>
      <time>2014-03-30T08:51:34Z</time>
    </trkpt>
    <trkpt lat="48.444616" lon="2.668235">
      <ele>148.0</ele>
      <time>2014-03-30T08:51:38Z</time>
    </trkpt>
    <trkpt lat="48.444531" lon="2.66833">
      <ele>147.9</ele>
      <time>2014-03-30T08:51:41Z</time>
    </trkpt>
    <trkpt lat="48.444427" lon="2.668479">
      <ele>147.6</ele>
      <time>2014-03-30T08:51:45Z</time>
    </trkpt>
    <trkpt lat="48.444315" lon="2.668574">
      <ele>147.4</ele>
      <time>2014-03-30T08:51:48Z</time>
    </trkpt>
    <trkpt lat="48.444232" lon="2.668641">
      <ele>147.2</ele>
      <time>2014-03-30T08:51:51Z</time>
    </trkpt>
    <trkpt lat="48.444134" lon="2.668766">
      <ele>146.9</ele>
      <time>2014-03-30T08:51:54Z</time>
    </trkpt>
    <trkpt lat="48.44401" lon="2.668964">
      <ele>146.4</ele>
      <time>2014-03-30T08:51:58Z</time>
    </trkpt>
    <trkpt lat="48.443919" lon="2.669006">
      <ele>146.1</ele>
      <time>2014-03-30T08:52:01Z</time>
    </trkpt>
    <trkpt lat="48.443813" lon="2.66913">
      <ele>145.7</ele>
      <time>2014-03-30T08:52:05Z</time>
    </trkpt>
    <trkpt lat="48.443753" lon="2.669245">
      <ele>145.5</ele>
      <time>2014-03-30T08:52:10Z</time>
    </trkpt>
    <trkpt lat="48.44374" lon="2.66939">
      <ele>145.3</ele>
      <time>2014-03-30T08:52:13Z</time>
    </trkpt>
    <trkpt lat="48.443751" lon="2.669569">
      <ele>145.3</ele>
      <time>2014-03-30T08:52:17Z</time>
    </trkpt>
    <trkpt lat="48.443764" lon="2.669744">
      <ele>145.2</ele>
      <time>2014-03-30T08:52:21Z</time>
    </trkpt>
    <trkpt lat="48.443782" lon="2.669913">
      <ele>145.1</ele>
      <time>2014-03-30T08:52:24Z</time>
    </trkpt>
    <trkpt lat="48.443798" lon="2.670312">
      <ele>145.0</ele>
      <time>2014-03-30T08:52:32Z</time>
    </trkpt>
    <trkpt lat="48.443798" lon="2.670496">
      <ele>145.0</ele>
      <time>2014-03-30T08:52:35Z</time>
    </trkpt>
    <trkpt lat="48.443804" lon="2.670669">
      <ele>145.0</ele>
      <time>2014-03-30T08:52:38Z</time>
    </trkpt>
    <trkpt lat="48.443835" lon="2.670917">
      <ele>145.1</ele>
      <time>2014-03-30T08:52:42Z</time>
    </trkpt>
    <trkpt lat="48.44384" lon="2.671061">
      <ele>145.3</ele>
      <time>2014-03-30T08:52:44Z</time>
    </trkpt>
    <trkpt lat="48.443843" lon="2.671241">
      <ele>145.6</ele>
      <time>2014-03-30T08:52:47Z</time>
    </trkpt>
    <trkpt lat="48.443854" lon="2.671395">
      <ele>145.8</ele>
      <time>2014-03-30T08:52:49Z</time>
    </trkpt>
    <trkpt lat="48.443889" lon="2.671545">
      <ele>146.1</ele>
      <time>2014-03-30T08:52:51Z</time>
    </trkpt>
    <trkpt lat="48.443896" lon="2.671697">
      <ele>146.4</ele>
      <time>2014-03-30T08:52:53Z</time>
    </trkpt>
    <trkpt lat="48.443898" lon="2.671836">
      <ele>146.8</ele>
      <time>2014-03-30T08:52:55Z</time>
    </trkpt>
    <trkpt lat="48.443912" lon="2.67198">
      <ele>147.1</ele>
      <time>2014-03-30T08:52:57Z</time>
    </trkpt>
    <trkpt lat="48.44391" lon="2.672147">
      <ele>147.5</ele>
      <time>2014-03-30T08:52:59Z</time>
    </trkpt>
    <trkpt lat="48.443915" lon="2.672358">
      <ele>148.1</ele>
      <time>2014-03-30T08:53:02Z</time>
    </trkpt>
    <trkpt lat="48.443944" lon="2.672513">
      <ele>148.5</ele>
      <time>2014-03-30T08:53:04Z</time>
    </trkpt>
    <trkpt lat="48.443947" lon="2.672667">
      <ele>148.5</ele>
      <time>2014-03-30T08:53:06Z</time>
    </trkpt>
    <trkpt lat="48.443938" lon="2.672827">
      <ele>148.5</ele>
      <time>2014-03-30T08:53:08Z</time>
    </trkpt>
    <trkpt lat="48.443948" lon="2.673027">
      <ele>148.5</ele>
      <time>2014-03-30T08:53:11Z</time>
    </trkpt>
    <trkpt lat="48.443944" lon="2.673178">
      <ele>148.5</ele>
      <time>2014-03-30T08:53:13Z</time>
    </trkpt>
    <trkpt lat="48.443933" lon="2.673313">
      <ele>148.4</ele>
      <time>2014-03-30T08:53:15Z</time>
    </trkpt>
    <trkpt lat="48.443924" lon="2.673453">
      <ele>148.0</ele>
      <time>2014-03-30T08:53:17Z</time>
    </trkpt>
    <trkpt lat="48.443885" lon="2.673708">
      <ele>147.1</ele>
      <time>2014-03-30T08:53:21Z</time>
    </trkpt>
    <trkpt lat="48.443867" lon="2.673922">
      <ele>146.4</ele>
      <time>2014-03-30T08:53:24Z</time>
    </trkpt>
    <trkpt lat="48.443847" lon="2.674061">
      <ele>145.9</ele>
      <time>2014-03-30T08:53:26Z</time>
    </trkpt>
    <trkpt lat="48.443782" lon="2.674432">
      <ele>145.6</ele>
      <time>2014-03-30T08:53:31Z</time>
    </trkpt>
    <trkpt lat="48.443757" lon="2.674578">
      <ele>145.5</ele>
      <time>2014-03-30T08:53:33Z</time>
    </trkpt>
    <trkpt lat="48.443743" lon="2.674736">
      <ele>145.5</ele>
      <time>2014-03-30T08:53:35Z</time>
    </trkpt>
    <trkpt lat="48.443701" lon="2.674926">
      <ele>145.3</ele>
      <time>2014-03-30T08:53:38Z</time>
    </trkpt>
    <trkpt lat="48.443664" lon="2.675134">
      <ele>145.2</ele>
      <time>2014-03-30T08:53:41Z</time>
    </trkpt>
    <trkpt lat="48.443685" lon="2.675268">
      <ele>145.2</ele>
      <time>2014-03-30T08:53:43Z</time>
    </trkpt>
    <trkpt lat="48.443662" lon="2.675404">
      <ele>145.1</ele>
      <time>2014-03-30T08:53:45Z</time>
    </trkpt>
    <trkpt lat="48.443643" lon="2.675564">
      <ele>144.9</ele>
      <time>2014-03-30T08:53:47Z</time>
    </trkpt>
    <trkpt lat="48.443619" lon="2.675789">
      <ele>144.7</ele>
      <time>2014-03-30T08:53:50Z</time>
    </trkpt>
    <trkpt lat="48.443608" lon="2.675941">
      <ele>144.8</ele>
      <time>2014-03-30T08:53:52Z</time>
    </trkpt>
    <trkpt lat="48.44359" lon="2.676098">
      <ele>144.9</ele>
      <time>2014-03-30T08:53:54Z</time>
    </trkpt>
    <trkpt lat="48.44355" lon="2.676325">
      <ele>144.9</ele>
      <time>2014-03-30T08:53:57Z</time>
    </trkpt>
    <trkpt lat="48.443505" lon="2.676483">
      <ele>144.8</ele>
      <time>2014-03-30T08:53:59Z</time>
    </trkpt>
    <trkpt lat="48.443455" lon="2.67662">
      <ele>144.7</ele>
      <time>2014-03-30T08:54:01Z</time>
    </trkpt>
    <trkpt lat="48.443392" lon="2.676784">
      <ele>144.3</ele>
      <time>2014-03-30T08:54:04Z</time>
    </trkpt>
    <trkpt lat="48.443363" lon="2.676913">
      <ele>144.2</ele>
      <time>2014-03-30T08:54:05Z</time>
    </trkpt>
    <trkpt lat="48.443333" lon="2.677102">
      <ele>144.0</ele>
      <time>2014-03-30T08:54:09Z</time>
    </trkpt>
    <trkpt lat="48.443301" lon="2.677247">
      <ele>143.6</ele>
      <time>2014-03-30T08:54:12Z</time>
    </trkpt>
    <trkpt lat="48.44328" lon="2.677418">
      <ele>143.4</ele>
      <time>2014-03-30T08:54:15Z</time>
    </trkpt>
    <trkpt lat="48.443255" lon="2.677595">
      <ele>143.2</ele>
      <time>2014-03-30T08:54:18Z</time>
    </trkpt>
    <trkpt lat="48.443235" lon="2.677738">
      <ele>143.1</ele>
      <time>2014-03-30T08:54:20Z</time>
    </trkpt>
    <trkpt lat="48.443224" lon="2.677876">
      <ele>143.2</ele>
      <time>2014-03-30T08:54:22Z</time>
    </trkpt>
    <trkpt lat="48.443222" lon="2.678015">
      <ele>143.4</ele>
      <time>2014-03-30T08:54:24Z</time>
    </trkpt>
    <trkpt lat="48.443205" lon="2.678235">
      <ele>143.5</ele>
      <time>2014-03-30T08:54:28Z</time>
    </trkpt>
    <trkpt lat="48.443215" lon="2.678599">
      <ele>144.4</ele>
      <time>2014-03-30T08:54:33Z</time>
    </trkpt>
    <trkpt lat="48.443243" lon="2.678847">
      <ele>145.3</ele>
      <time>2014-03-30T08:54:36Z</time>
    </trkpt>
    <trkpt lat="48.443228" lon="2.678993">
      <ele>145.5</ele>
      <time>2014-03-30T08:54:38Z</time>
    </trkpt>
    <trkpt lat="48.443216" lon="2.679134">
      <ele>145.8</ele>
      <time>2014-03-30T08:54:40Z</time>
    </trkpt>
    <trkpt lat="48.443128" lon="2.679304">
      <ele>144.7</ele>
      <time>2014-03-30T08:54:43Z</time>
    </trkpt>
    <trkpt lat="48.443063" lon="2.67943">
      <ele>143.8</ele>
      <time>2014-03-30T08:54:45Z</time>
    </trkpt>
    <trkpt lat="48.442985" lon="2.679549">
      <ele>142.7</ele>
      <time>2014-03-30T08:54:47Z</time>
    </trkpt>
    <trkpt lat="48.44292" lon="2.679706">
      <ele>141.7</ele>
      <time>2014-03-30T08:54:50Z</time>
    </trkpt>
    <trkpt lat="48.442868" lon="2.679857">
      <ele>140.9</ele>
      <time>2014-03-30T08:54:54Z</time>
    </trkpt>
    <trkpt lat="48.442806" lon="2.680054">
      <ele>139.8</ele>
      <time>2014-03-30T08:54:58Z</time>
    </trkpt>
    <trkpt lat="48.44278" lon="2.680206">
      <ele>139.4</ele>
      <time>2014-03-30T08:55:00Z</time>
    </trkpt>
    <trkpt lat="48.442768" lon="2.680368">
      <ele>139.0</ele>
      <time>2014-03-30T08:55:02Z</time>
    </trkpt>
    <trkpt lat="48.442779" lon="2.680573">
      <ele>138.8</ele>
      <time>2014-03-30T08:55:05Z</time>
    </trkpt>
    <trkpt lat="48.442763" lon="2.680751">
      <ele>138.3</ele>
      <time>2014-03-30T08:55:07Z</time>
    </trkpt>
    <trkpt lat="48.442774" lon="2.680969">
      <ele>137.7</ele>
      <time>2014-03-30T08:55:09Z</time>
    </trkpt>
    <trkpt lat="48.442786" lon="2.681145">
      <ele>136.9</ele>
      <time>2014-03-30T08:55:11Z</time>
    </trkpt>
    <trkpt lat="48.44276" lon="2.681309">
      <ele>135.9</ele>
      <time>2014-03-30T08:55:13Z</time>
    </trkpt>
    <trkpt lat="48.442741" lon="2.681481">
      <ele>135.0</ele>
      <time>2014-03-30T08:55:15Z</time>
    </trkpt>
    <trkpt lat="48.442716" lon="2.681644">
      <ele>134.1</ele>
      <time>2014-03-30T08:55:17Z</time>
    </trkpt>
    <trkpt lat="48.442725" lon="2.681861">
      <ele>131.3</ele>
      <time>2014-03-30T08:55:19Z</time>
    </trkpt>
    <trkpt lat="48.442742" lon="2.682096">
      <ele>128.1</ele>
      <time>2014-03-30T08:55:21Z</time>
    </trkpt>
    <trkpt lat="48.442704" lon="2.682289">
      <ele>125.2</ele>
      <time>2014-03-30T08:55:23Z</time>
    </trkpt>
    <trkpt lat="48.442667" lon="2.682707">
      <ele>119.2</ele>
      <time>2014-03-30T08:55:26Z</time>
    </trkpt>
    <trkpt lat="48.442614" lon="2.683089">
      <ele>113.8</ele>
      <time>2014-03-30T08:55:29Z</time>
    </trkpt>
    <trkpt lat="48.442537" lon="2.683594">
      <ele>108.8</ele>
      <time>2014-03-30T08:55:33Z</time>
    </trkpt>
    <trkpt lat="48.442525" lon="2.683802">
      <ele>107.8</ele>
      <time>2014-03-30T08:55:35Z</time>
    </trkpt>
    <trkpt lat="48.44251" lon="2.684006">
      <ele>106.8</ele>
      <time>2014-03-30T08:55:37Z</time>
    </trkpt>
    <trkpt lat="48.442512" lon="2.684239">
      <ele>105.7</ele>
      <time>2014-03-30T08:55:39Z</time>
    </trkpt>
    <trkpt lat="48.442525" lon="2.684396">
      <ele>105.1</ele>
      <time>2014-03-30T08:55:41Z</time>
    </trkpt>
    <trkpt lat="48.442536" lon="2.68458">
      <ele>104.4</ele>
      <time>2014-03-30T08:55:44Z</time>
    </trkpt>
    <trkpt lat="48.442551" lon="2.684837">
      <ele>103.4</ele>
      <time>2014-03-30T08:55:48Z</time>
    </trkpt>
    <trkpt lat="48.442568" lon="2.68498">
      <ele>102.7</ele>
      <time>2014-03-30T08:55:50Z</time>
    </trkpt>
    <trkpt lat="48.442567" lon="2.685129">
      <ele>102.0</ele>
      <time>2014-03-30T08:55:52Z</time>
    </trkpt>
    <trkpt lat="48.442578" lon="2.685279">
      <ele>101.2</ele>
      <time>2014-03-30T08:55:54Z</time>
    </trkpt>
    <trkpt lat="48.442544" lon="2.685492">
      <ele>100.4</ele>
      <time>2014-03-30T08:55:57Z</time>
    </trkpt>
    <trkpt lat="48.442486" lon="2.685684">
      <ele>99.8</ele>
      <time>2014-03-30T08:56:00Z</time>
    </trkpt>
    <trkpt lat="48.442398" lon="2.685783">
      <ele>100.1</ele>
      <time>2014-03-30T08:56:03Z</time>
    </trkpt>
    <trkpt lat="48.442239" lon="2.685933">
      <ele>100.9</ele>
      <time>2014-03-30T08:56:07Z</time>
    </trkpt>
    <trkpt lat="48.442172" lon="2.68603">
      <ele>101.1</ele>
      <time>2014-03-30T08:56:09Z</time>
    </trkpt>
    <trkpt lat="48.442131" lon="2.686215">
      <ele>100.9</ele>
      <time>2014-03-30T08:56:12Z</time>
    </trkpt>
    <trkpt lat="48.442108" lon="2.686401">
      <ele>100.6</ele>
      <time>2014-03-30T08:56:15Z</time>
    </trkpt>
    <trkpt lat="48.442094" lon="2.686591">
      <ele>100.1</ele>
      <time>2014-03-30T08:56:18Z</time>
    </trkpt>
    <trkpt lat="48.442104" lon="2.686748">
      <ele>99.3</ele>
      <time>2014-03-30T08:56:20Z</time>
    </trkpt>
    <trkpt lat="48.442062" lon="2.686869">
      <ele>99.0</ele>
      <time>2014-03-30T08:56:22Z</time>
    </trkpt>
    <trkpt lat="48.442049" lon="2.687029">
      <ele>98.1</ele>
      <time>2014-03-30T08:56:24Z</time>
    </trkpt>
    <trkpt lat="48.442003" lon="2.687176">
      <ele>97.6</ele>
      <time>2014-03-30T08:56:26Z</time>
    </trkpt>
    <trkpt lat="48.44194" lon="2.687339">
      <ele>97.1</ele>
      <time>2014-03-30T08:56:29Z</time>
    </trkpt>
    <trkpt lat="48.44188" lon="2.687501">
      <ele>96.5</ele>
      <time>2014-03-30T08:56:33Z</time>
    </trkpt>
    <trkpt lat="48.441841" lon="2.68785">
      <ele>94.9</ele>
      <time>2014-03-30T08:56:38Z</time>
    </trkpt>
    <trkpt lat="48.441825" lon="2.688046">
      <ele>94.0</ele>
      <time>2014-03-30T08:56:41Z</time>
    </trkpt>
    <trkpt lat="48.441819" lon="2.68819">
      <ele>93.2</ele>
      <time>2014-03-30T08:56:43Z</time>
    </trkpt>
    <trkpt lat="48.441748" lon="2.688341">
      <ele>92.7</ele>
      <time>2014-03-30T08:56:46Z</time>
    </trkpt>
    <trkpt lat="48.441667" lon="2.688449">
      <ele>92.3</ele>
      <time>2014-03-30T08:56:49Z</time>
    </trkpt>
    <trkpt lat="48.441565" lon="2.688478">
      <ele>92.1</ele>
      <time>2014-03-30T08:56:52Z</time>
    </trkpt>
    <trkpt lat="48.441426" lon="2.688602">
      <ele>91.4</ele>
      <time>2014-03-30T08:56:55Z</time>
    </trkpt>
    <trkpt lat="48.441337" lon="2.688657">
      <ele>91.1</ele>
      <time>2014-03-30T08:56:57Z</time>
    </trkpt>
    <trkpt lat="48.441214" lon="2.688689">
      <ele>90.9</ele>
      <time>2014-03-30T08:57:00Z</time>
    </trkpt>
    <trkpt lat="48.441118" lon="2.688681">
      <ele>90.9</ele>
      <time>2014-03-30T08:57:02Z</time>
    </trkpt>
    <trkpt lat="48.440981" lon="2.688691">
      <ele>90.9</ele>
      <time>2014-03-30T08:57:05Z</time>
    </trkpt>
    <trkpt lat="48.440891" lon="2.68868">
      <ele>90.9</ele>
      <time>2014-03-30T08:57:07Z</time>
    </trkpt>
    <trkpt lat="48.440769" lon="2.688657">
      <ele>91.0</ele>
      <time>2014-03-30T08:57:10Z</time>
    </trkpt>
    <trkpt lat="48.440657" lon="2.688609">
      <ele>91.2</ele>
      <time>2014-03-30T08:57:13Z</time>
    </trkpt>
    <trkpt lat="48.440561" lon="2.688571">
      <ele>91.3</ele>
      <time>2014-03-30T08:57:16Z</time>
    </trkpt>
    <trkpt lat="48.440446" lon="2.688564">
      <ele>91.2</ele>
      <time>2014-03-30T08:57:19Z</time>
    </trkpt>
    <trkpt lat="48.440326" lon="2.688525">
      <ele>91.2</ele>
      <time>2014-03-30T08:57:22Z</time>
    </trkpt>
    <trkpt lat="48.440219" lon="2.68847">
      <ele>91.2</ele>
      <time>2014-03-30T08:57:25Z</time>
    </trkpt>
    <trkpt lat="48.440122" lon="2.688398">
      <ele>91.2</ele>
      <time>2014-03-30T08:57:28Z</time>
    </trkpt>
    <trkpt lat="48.440035" lon="2.688291">
      <ele>91.1</ele>
      <time>2014-03-30T08:57:32Z</time>
    </trkpt>
    <trkpt lat="48.439942" lon="2.688206">
      <ele>90.8</ele>
      <time>2014-03-30T08:57:35Z</time>
    </trkpt>
    <trkpt lat="48.439819" lon="2.687967">
      <ele>90.3</ele>
      <time>2014-03-30T08:57:42Z</time>
    </trkpt>
    <trkpt lat="48.439803" lon="2.687791">
      <ele>90.1</ele>
      <time>2014-03-30T08:57:46Z</time>
    </trkpt>
    <trkpt lat="48.439814" lon="2.687654">
      <ele>90.1</ele>
      <time>2014-03-30T08:57:49Z</time>
    </trkpt>
    <trkpt lat="48.439822" lon="2.687505">
      <ele>90.1</ele>
      <time>2014-03-30T08:57:53Z</time>
    </trkpt>
    <trkpt lat="48.439805" lon="2.687335">
      <ele>90.9</ele>
      <time>2014-03-30T08:57:57Z</time>
    </trkpt>
    <trkpt lat="48.439797" lon="2.687194">
      <ele>91.5</ele>
      <time>2014-03-30T08:58:01Z</time>
    </trkpt>
    <trkpt lat="48.439781" lon="2.68703">
      <ele>92.2</ele>
      <time>2014-03-30T08:58:06Z</time>
    </trkpt>
    <trkpt lat="48.439778" lon="2.686886">
      <ele>92.9</ele>
      <time>2014-03-30T08:58:10Z</time>
    </trkpt>
    <trkpt lat="48.439775" lon="2.687024">
      <ele>92.2</ele>
      <time>2014-03-30T08:59:03Z</time>
    </trkpt>
    <trkpt lat="48.439816" lon="2.687322">
      <ele>91.0</ele>
      <time>2014-03-30T08:59:11Z</time>
    </trkpt>
    <trkpt lat="48.439831" lon="2.687483">
      <ele>90.3</ele>
      <time>2014-03-30T08:59:14Z</time>
    </trkpt>
    <trkpt lat="48.439813" lon="2.687636">
      <ele>90.1</ele>
      <time>2014-03-30T08:59:17Z</time>
    </trkpt>
    <trkpt lat="48.439786" lon="2.687808">
      <ele>90.1</ele>
      <time>2014-03-30T08:59:20Z</time>
    </trkpt>
    <trkpt lat="48.439823" lon="2.687972">
      <ele>90.3</ele>
      <time>2014-03-30T08:59:24Z</time>
    </trkpt>
    <trkpt lat="48.439875" lon="2.688126">
      <ele>90.5</ele>
      <time>2014-03-30T08:59:28Z</time>
    </trkpt>
    <trkpt lat="48.439942" lon="2.688233">
      <ele>90.8</ele>
      <time>2014-03-30T08:59:31Z</time>
    </trkpt>
    <trkpt lat="48.440016" lon="2.688327">
      <ele>91.0</ele>
      <time>2014-03-30T08:59:34Z</time>
    </trkpt>
    <trkpt lat="48.440101" lon="2.688413">
      <ele>91.1</ele>
      <time>2014-03-30T08:59:37Z</time>
    </trkpt>
    <trkpt lat="48.440176" lon="2.688507">
      <ele>91.0</ele>
      <time>2014-03-30T08:59:40Z</time>
    </trkpt>
    <trkpt lat="48.440245" lon="2.688627">
      <ele>90.8</ele>
      <time>2014-03-30T08:59:43Z</time>
    </trkpt>
    <trkpt lat="48.440334" lon="2.688717">
      <ele>90.6</ele>
      <time>2014-03-30T08:59:46Z</time>
    </trkpt>
    <trkpt lat="48.440418" lon="2.688817">
      <ele>90.3</ele>
      <time>2014-03-30T08:59:49Z</time>
    </trkpt>
    <trkpt lat="48.440518" lon="2.688898">
      <ele>89.9</ele>
      <time>2014-03-30T08:59:52Z</time>
    </trkpt>
    <trkpt lat="48.440617" lon="2.688984">
      <ele>89.4</ele>
      <time>2014-03-30T08:59:55Z</time>
    </trkpt>
    <trkpt lat="48.440699" lon="2.689101">
      <ele>88.7</ele>
      <time>2014-03-30T08:59:59Z</time>
    </trkpt>
    <trkpt lat="48.440767" lon="2.689211">
      <ele>88.0</ele>
      <time>2014-03-30T09:00:05Z</time>
    </trkpt>
    <trkpt lat="48.440605" lon="2.689341">
      <ele>88.1</ele>
      <time>2014-03-30T09:00:14Z</time>
    </trkpt>
    <trkpt lat="48.440481" lon="2.689352">
      <ele>88.3</ele>
      <time>2014-03-30T09:00:18Z</time>
    </trkpt>
    <trkpt lat="48.440379" lon="2.689361">
      <ele>88.5</ele>
      <time>2014-03-30T09:00:21Z</time>
    </trkpt>
    <trkpt lat="48.44027" lon="2.689376">
      <ele>88.7</ele>
      <time>2014-03-30T09:00:24Z</time>
    </trkpt>
    <trkpt lat="48.440204" lon="2.689502">
      <ele>88.4</ele>
      <time>2014-03-30T09:00:27Z</time>
    </trkpt>
    <trkpt lat="48.440171" lon="2.689644">
      <ele>88.0</ele>
      <time>2014-03-30T09:00:31Z</time>
    </trkpt>
    <trkpt lat="48.440083" lon="2.689705">
      <ele>87.9</ele>
      <time>2014-03-30T09:00:34Z</time>
    </trkpt>
    <trkpt lat="48.439977" lon="2.689723">
      <ele>88.0</ele>
      <time>2014-03-30T09:00:37Z</time>
    </trkpt>
    <trkpt lat="48.439874" lon="2.689766">
      <ele>87.8</ele>
      <time>2014-03-30T09:00:40Z</time>
    </trkpt>
    <trkpt lat="48.439762" lon="2.689773">
      <ele>87.7</ele>
      <time>2014-03-30T09:00:43Z</time>
    </trkpt>
    <trkpt lat="48.439649" lon="2.689755">
      <ele>87.8</ele>
      <time>2014-03-30T09:00:46Z</time>
    </trkpt>
    <trkpt lat="48.439543" lon="2.689736">
      <ele>87.8</ele>
      <time>2014-03-30T09:00:49Z</time>
    </trkpt>
    <trkpt lat="48.439442" lon="2.689787">
      <ele>87.6</ele>
      <time>2014-03-30T09:00:52Z</time>
    </trkpt>
    <trkpt lat="48.439428" lon="2.689947">
      <ele>87.1</ele>
      <time>2014-03-30T09:00:56Z</time>
    </trkpt>
    <trkpt lat="48.439477" lon="2.690083">
      <ele>87.0</ele>
      <time>2014-03-30T09:00:59Z</time>
    </trkpt>
    <trkpt lat="48.439573" lon="2.690142">
      <ele>86.9</ele>
      <time>2014-03-30T09:01:02Z</time>
    </trkpt>
    <trkpt lat="48.439634" lon="2.690245">
      <ele>86.8</ele>
      <time>2014-03-30T09:01:07Z</time>
    </trkpt>
    <trkpt lat="48.439721" lon="2.690577">
      <ele>86.3</ele>
      <time>2014-03-30T09:01:23Z</time>
    </trkpt>
    <trkpt lat="48.439767" lon="2.690765">
      <ele>85.9</ele>
      <time>2014-03-30T09:01:26Z</time>
    </trkpt>
    <trkpt lat="48.439814" lon="2.690893">
      <ele>85.9</ele>
      <time>2014-03-30T09:01:28Z</time>
    </trkpt>
    <trkpt lat="48.439858" lon="2.691026">
      <ele>86.1</ele>
      <time>2014-03-30T09:01:30Z</time>
    </trkpt>
    <trkpt lat="48.439898" lon="2.691162">
      <ele>86.3</ele>
      <time>2014-03-30T09:01:32Z</time>
    </trkpt>
    <trkpt lat="48.439943" lon="2.691293">
      <ele>86.4</ele>
      <time>2014-03-30T09:01:34Z</time>
    </trkpt>
    <trkpt lat="48.439983" lon="2.691436">
      <ele>86.6</ele>
      <time>2014-03-30T09:01:36Z</time>
    </trkpt>
    <trkpt lat="48.440026" lon="2.691571">
      <ele>86.6</ele>
      <time>2014-03-30T09:01:38Z</time>
    </trkpt>
    <trkpt lat="48.440071" lon="2.6917">
      <ele>86.9</ele>
      <time>2014-03-30T09:01:40Z</time>
    </trkpt>
    <trkpt lat="48.44012" lon="2.691831">
      <ele>87.9</ele>
      <time>2014-03-30T09:01:42Z</time>
    </trkpt>
    <trkpt lat="48.440159" lon="2.69201">
      <ele>89.4</ele>
      <time>2014-03-30T09:01:45Z</time>
    </trkpt>
    <trkpt lat="48.440198" lon="2.692135">
      <ele>90.2</ele>
      <time>2014-03-30T09:01:47Z</time>
    </trkpt>
    <trkpt lat="48.440251" lon="2.692257">
      <ele>90.8</ele>
      <time>2014-03-30T09:01:49Z</time>
    </trkpt>
    <trkpt lat="48.44029" lon="2.692387">
      <ele>91.5</ele>
      <time>2014-03-30T09:01:51Z</time>
    </trkpt>
    <trkpt lat="48.440351" lon="2.692558">
      <ele>92.0</ele>
      <time>2014-03-30T09:01:54Z</time>
    </trkpt>
    <trkpt lat="48.440388" lon="2.69269">
      <ele>92.1</ele>
      <time>2014-03-30T09:01:56Z</time>
    </trkpt>
    <trkpt lat="48.440424" lon="2.692817">
      <ele>92.3</ele>
      <time>2014-03-30T09:01:58Z</time>
    </trkpt>
    <trkpt lat="48.440463" lon="2.692952">
      <ele>92.4</ele>
      <time>2014-03-30T09:02:00Z</time>
    </trkpt>
    <trkpt lat="48.440509" lon="2.693109">
      <ele>92.7</ele>
      <time>2014-03-30T09:02:02Z</time>
    </trkpt>
    <trkpt lat="48.440545" lon="2.693257">
      <ele>93.1</ele>
      <time>2014-03-30T09:02:04Z</time>
    </trkpt>
    <trkpt lat="48.440588" lon="2.693386">
      <ele>93.0</ele>
      <time>2014-03-30T09:02:06Z</time>
    </trkpt>
    <trkpt lat="48.44063" lon="2.693527">
      <ele>92.5</ele>
      <time>2014-03-30T09:02:08Z</time>
    </trkpt>
    <trkpt lat="48.440715" lon="2.693788">
      <ele>92.0</ele>
      <time>2014-03-30T09:02:12Z</time>
    </trkpt>
    <trkpt lat="48.440758" lon="2.69392">
      <ele>91.9</ele>
      <time>2014-03-30T09:02:14Z</time>
    </trkpt>
    <trkpt lat="48.44082" lon="2.694105">
      <ele>91.9</ele>
      <time>2014-03-30T09:02:17Z</time>
    </trkpt>
    <trkpt lat="48.440856" lon="2.694236">
      <ele>91.9</ele>
      <time>2014-03-30T09:02:19Z</time>
    </trkpt>
    <trkpt lat="48.440881" lon="2.69437">
      <ele>91.8</ele>
      <time>2014-03-30T09:02:21Z</time>
    </trkpt>
    <trkpt lat="48.440844" lon="2.694543">
      <ele>91.6</ele>
      <time>2014-03-30T09:02:24Z</time>
    </trkpt>
    <trkpt lat="48.440816" lon="2.694683">
      <ele>91.4</ele>
      <time>2014-03-30T09:02:27Z</time>
    </trkpt>
    <trkpt lat="48.440774" lon="2.694834">
      <ele>91.3</ele>
      <time>2014-03-30T09:02:30Z</time>
    </trkpt>
    <trkpt lat="48.440765" lon="2.694999">
      <ele>91.1</ele>
      <time>2014-03-30T09:02:32Z</time>
    </trkpt>
    <trkpt lat="48.440744" lon="2.695161">
      <ele>90.6</ele>
      <time>2014-03-30T09:02:35Z</time>
    </trkpt>
    <trkpt lat="48.440717" lon="2.695337">
      <ele>90.1</ele>
      <time>2014-03-30T09:02:38Z</time>
    </trkpt>
    <trkpt lat="48.440702" lon="2.695533">
      <ele>89.5</ele>
      <time>2014-03-30T09:02:41Z</time>
    </trkpt>
    <trkpt lat="48.440681" lon="2.695668">
      <ele>89.2</ele>
      <time>2014-03-30T09:02:43Z</time>
    </trkpt>
    <trkpt lat="48.440649" lon="2.695842">
      <ele>88.9</ele>
      <time>2014-03-30T09:02:46Z</time>
    </trkpt>
    <trkpt lat="48.440655" lon="2.695982">
      <ele>89.1</ele>
      <time>2014-03-30T09:02:48Z</time>
    </trkpt>
    <trkpt lat="48.440615" lon="2.696154">
      <ele>89.4</ele>
      <time>2014-03-30T09:02:51Z</time>
    </trkpt>
    <trkpt lat="48.4406" lon="2.696293">
      <ele>89.6</ele>
      <time>2014-03-30T09:02:53Z</time>
    </trkpt>
    <trkpt lat="48.440577" lon="2.696468">
      <ele>89.8</ele>
      <time>2014-03-30T09:02:56Z</time>
    </trkpt>
    <trkpt lat="48.440545" lon="2.696643">
      <ele>90.0</ele>
      <time>2014-03-30T09:02:59Z</time>
    </trkpt>
    <trkpt lat="48.440539" lon="2.696826">
      <ele>90.4</ele>
      <time>2014-03-30T09:03:02Z</time>
    </trkpt>
    <trkpt lat="48.440533" lon="2.696997">
      <ele>90.8</ele>
      <time>2014-03-30T09:03:05Z</time>
    </trkpt>
    <trkpt lat="48.440487" lon="2.697115">
      <ele>91.2</ele>
      <time>2014-03-30T09:03:08Z</time>
    </trkpt>
    <trkpt lat="48.440461" lon="2.697276">
      <ele>91.7</ele>
      <time>2014-03-30T09:03:11Z</time>
    </trkpt>
    <trkpt lat="48.440409" lon="2.697637">
      <ele>93.7</ele>
      <time>2014-03-30T09:03:16Z</time>
    </trkpt>
    <trkpt lat="48.440394" lon="2.697788">
      <ele>95.0</ele>
      <time>2014-03-30T09:03:18Z</time>
    </trkpt>
    <trkpt lat="48.440376" lon="2.697961">
      <ele>96.6</ele>
      <time>2014-03-30T09:03:21Z</time>
    </trkpt>
    <trkpt lat="48.440347" lon="2.698097">
      <ele>98.0</ele>
      <time>2014-03-30T09:03:24Z</time>
    </trkpt>
    <trkpt lat="48.440324" lon="2.698248">
      <ele>99.5</ele>
      <time>2014-03-30T09:03:27Z</time>
    </trkpt>
    <trkpt lat="48.440324" lon="2.698393">
      <ele>100.6</ele>
      <time>2014-03-30T09:03:30Z</time>
    </trkpt>
    <trkpt lat="48.440307" lon="2.698537">
      <ele>101.7</ele>
      <time>2014-03-30T09:03:33Z</time>
    </trkpt>
    <trkpt lat="48.440291" lon="2.698703">
      <ele>102.8</ele>
      <time>2014-03-30T09:03:37Z</time>
    </trkpt>
    <trkpt lat="48.44024" lon="2.698846">
      <ele>104.0</ele>
      <time>2014-03-30T09:03:40Z</time>
    </trkpt>
    <trkpt lat="48.440201" lon="2.698996">
      <ele>105.1</ele>
      <time>2014-03-30T09:03:43Z</time>
    </trkpt>
    <trkpt lat="48.44017" lon="2.699164">
      <ele>106.2</ele>
      <time>2014-03-30T09:03:46Z</time>
    </trkpt>
    <trkpt lat="48.440166" lon="2.699329">
      <ele>106.3</ele>
      <time>2014-03-30T09:03:49Z</time>
    </trkpt>
    <trkpt lat="48.440149" lon="2.699483">
      <ele>106.5</ele>
      <time>2014-03-30T09:03:52Z</time>
    </trkpt>
    <trkpt lat="48.440108" lon="2.699617">
      <ele>106.7</ele>
      <time>2014-03-30T09:03:54Z</time>
    </trkpt>
    <trkpt lat="48.44008" lon="2.699784">
      <ele>106.8</ele>
      <time>2014-03-30T09:03:57Z</time>
    </trkpt>
    <trkpt lat="48.440068" lon="2.699961">
      <ele>106.9</ele>
      <time>2014-03-30T09:04:00Z</time>
    </trkpt>
    <trkpt lat="48.440055" lon="2.700122">
      <ele>107.2</ele>
      <time>2014-03-30T09:04:03Z</time>
    </trkpt>
    <trkpt lat="48.440058" lon="2.700267">
      <ele>107.6</ele>
      <time>2014-03-30T09:04:06Z</time>
    </trkpt>
    <trkpt lat="48.440059" lon="2.700404">
      <ele>108.0</ele>
      <time>2014-03-30T09:04:09Z</time>
    </trkpt>
    <trkpt lat="48.440011" lon="2.700566">
      <ele>108.4</ele>
      <time>2014-03-30T09:04:12Z</time>
    </trkpt>
    <trkpt lat="48.439971" lon="2.700884">
      <ele>109.4</ele>
      <time>2014-03-30T09:04:18Z</time>
    </trkpt>
    <trkpt lat="48.439942" lon="2.701038">
      <ele>110.0</ele>
      <time>2014-03-30T09:04:21Z</time>
    </trkpt>
    <trkpt lat="48.439933" lon="2.701186">
      <ele>110.4</ele>
      <time>2014-03-30T09:04:24Z</time>
    </trkpt>
    <trkpt lat="48.439927" lon="2.701349">
      <ele>110.7</ele>
      <time>2014-03-30T09:04:27Z</time>
    </trkpt>
    <trkpt lat="48.439915" lon="2.701491">
      <ele>111.2</ele>
      <time>2014-03-30T09:04:30Z</time>
    </trkpt>
    <trkpt lat="48.439878" lon="2.701668">
      <ele>112.2</ele>
      <time>2014-03-30T09:04:34Z</time>
    </trkpt>
    <trkpt lat="48.439831" lon="2.701815">
      <ele>113.0</ele>
      <time>2014-03-30T09:04:38Z</time>
    </trkpt>
    <trkpt lat="48.439823" lon="2.70198">
      <ele>113.2</ele>
      <time>2014-03-30T09:04:42Z</time>
    </trkpt>
    <trkpt lat="48.439804" lon="2.702113">
      <ele>113.4</ele>
      <time>2014-03-30T09:04:46Z</time>
    </trkpt>
    <trkpt lat="48.439773" lon="2.702258">
      <ele>113.8</ele>
      <time>2014-03-30T09:04:50Z</time>
    </trkpt>
    <trkpt lat="48.439775" lon="2.702397">
      <ele>113.7</ele>
      <time>2014-03-30T09:04:54Z</time>
    </trkpt>
    <trkpt lat="48.439758" lon="2.70257">
      <ele>113.9</ele>
      <time>2014-03-30T09:04:58Z</time>
    </trkpt>
    <trkpt lat="48.43973" lon="2.70271">
      <ele>114.0</ele>
      <time>2014-03-30T09:05:01Z</time>
    </trkpt>
    <trkpt lat="48.43968" lon="2.702833">
      <ele>114.3</ele>
      <time>2014-03-30T09:05:05Z</time>
    </trkpt>
    <trkpt lat="48.439629" lon="2.702968">
      <ele>114.3</ele>
      <time>2014-03-30T09:05:09Z</time>
    </trkpt>
    <trkpt lat="48.439546" lon="2.703078">
      <ele>114.4</ele>
      <time>2014-03-30T09:05:13Z</time>
    </trkpt>
    <trkpt lat="48.439384" lon="2.703229">
      <ele>114.3</ele>
      <time>2014-03-30T09:05:19Z</time>
    </trkpt>
    <trkpt lat="48.43929" lon="2.703295">
      <ele>114.1</ele>
      <time>2014-03-30T09:05:23Z</time>
    </trkpt>
    <trkpt lat="48.439219" lon="2.703423">
      <ele>113.5</ele>
      <time>2014-03-30T09:05:27Z</time>
    </trkpt>
    <trkpt lat="48.439185" lon="2.703588">
      <ele>112.5</ele>
      <time>2014-03-30T09:05:31Z</time>
    </trkpt>
    <trkpt lat="48.439176" lon="2.703725">
      <ele>111.7</ele>
      <time>2014-03-30T09:05:35Z</time>
    </trkpt>
    <trkpt lat="48.439158" lon="2.703859">
      <ele>111.0</ele>
      <time>2014-03-30T09:05:39Z</time>
    </trkpt>
    <trkpt lat="48.439144" lon="2.70401">
      <ele>110.2</ele>
      <time>2014-03-30T09:05:42Z</time>
    </trkpt>
    <trkpt lat="48.439158" lon="2.704193">
      <ele>109.1</ele>
      <time>2014-03-30T09:05:46Z</time>
    </trkpt>
    <trkpt lat="48.439177" lon="2.704334">
      <ele>109.3</ele>
      <time>2014-03-30T09:05:49Z</time>
    </trkpt>
    <trkpt lat="48.439223" lon="2.7045">
      <ele>110.0</ele>
      <time>2014-03-30T09:05:52Z</time>
    </trkpt>
    <trkpt lat="48.439268" lon="2.704651">
      <ele>110.7</ele>
      <time>2014-03-30T09:05:55Z</time>
    </trkpt>
    <trkpt lat="48.439302" lon="2.70478">
      <ele>111.3</ele>
      <time>2014-03-30T09:05:58Z</time>
    </trkpt>
    <trkpt lat="48.439292" lon="2.704937">
      <ele>111.4</ele>
      <time>2014-03-30T09:06:02Z</time>
    </trkpt>
    <trkpt lat="48.439236" lon="2.705151">
      <ele>111.1</ele>
      <time>2014-03-30T09:06:06Z</time>
    </trkpt>
    <trkpt lat="48.439172" lon="2.705294">
      <ele>110.8</ele>
      <time>2014-03-30T09:06:11Z</time>
    </trkpt>
    <trkpt lat="48.439156" lon="2.705452">
      <ele>111.3</ele>
      <time>2014-03-30T09:06:14Z</time>
    </trkpt>
    <trkpt lat="48.439073" lon="2.705724">
      <ele>113.1</ele>
      <time>2014-03-30T09:06:20Z</time>
    </trkpt>
    <trkpt lat="48.43905" lon="2.70586">
      <ele>113.7</ele>
      <time>2014-03-30T09:06:23Z</time>
    </trkpt>
    <trkpt lat="48.439045" lon="2.706039">
      <ele>113.9</ele>
      <time>2014-03-30T09:06:27Z</time>
    </trkpt>
    <trkpt lat="48.439034" lon="2.70621">
      <ele>114.1</ele>
      <time>2014-03-30T09:06:31Z</time>
    </trkpt>
    <trkpt lat="48.439016" lon="2.706388">
      <ele>114.4</ele>
      <time>2014-03-30T09:06:35Z</time>
    </trkpt>
    <trkpt lat="48.439005" lon="2.706523">
      <ele>114.5</ele>
      <time>2014-03-30T09:06:38Z</time>
    </trkpt>
    <trkpt lat="48.438993" lon="2.706666">
      <ele>114.7</ele>
      <time>2014-03-30T09:06:41Z</time>
    </trkpt>
    <trkpt lat="48.438974" lon="2.70681">
      <ele>115.6</ele>
      <time>2014-03-30T09:06:44Z</time>
    </trkpt>
    <trkpt lat="48.438923" lon="2.706938">
      <ele>116.6</ele>
      <time>2014-03-30T09:06:47Z</time>
    </trkpt>
    <trkpt lat="48.438865" lon="2.707064">
      <ele>117.6</ele>
      <time>2014-03-30T09:06:51Z</time>
    </trkpt>
    <trkpt lat="48.438827" lon="2.707199">
      <ele>118.4</ele>
      <time>2014-03-30T09:06:55Z</time>
    </trkpt>
    <trkpt lat="48.43879" lon="2.707355">
      <ele>119.3</ele>
      <time>2014-03-30T09:06:59Z</time>
    </trkpt>
    <trkpt lat="48.438768" lon="2.707533">
      <ele>120.0</ele>
      <time>2014-03-30T09:07:03Z</time>
    </trkpt>
    <trkpt lat="48.438764" lon="2.707682">
      <ele>120.4</ele>
      <time>2014-03-30T09:07:07Z</time>
    </trkpt>
    <trkpt lat="48.43873" lon="2.707856">
      <ele>121.0</ele>
      <time>2014-03-30T09:07:11Z</time>
    </trkpt>
    <trkpt lat="48.43871" lon="2.70801">
      <ele>121.4</ele>
      <time>2014-03-30T09:07:15Z</time>
    </trkpt>
    <trkpt lat="48.438619" lon="2.708341">
      <ele>122.6</ele>
      <time>2014-03-30T09:07:23Z</time>
    </trkpt>
    <trkpt lat="48.438584" lon="2.708504">
      <ele>122.2</ele>
      <time>2014-03-30T09:07:26Z</time>
    </trkpt>
    <trkpt lat="48.43854" lon="2.708671">
      <ele>121.8</ele>
      <time>2014-03-30T09:07:29Z</time>
    </trkpt>
    <trkpt lat="48.438506" lon="2.708817">
      <ele>121.3</ele>
      <time>2014-03-30T09:07:32Z</time>
    </trkpt>
    <trkpt lat="48.438477" lon="2.709002">
      <ele>120.7</ele>
      <time>2014-03-30T09:07:35Z</time>
    </trkpt>
    <trkpt lat="48.438452" lon="2.709166">
      <ele>120.0</ele>
      <time>2014-03-30T09:07:38Z</time>
    </trkpt>
    <trkpt lat="48.438423" lon="2.709336">
      <ele>119.5</ele>
      <time>2014-03-30T09:07:41Z</time>
    </trkpt>
    <trkpt lat="48.438401" lon="2.709522">
      <ele>118.8</ele>
      <time>2014-03-30T09:07:44Z</time>
    </trkpt>
    <trkpt lat="48.438344" lon="2.709682">
      <ele>118.2</ele>
      <time>2014-03-30T09:07:47Z</time>
    </trkpt>
    <trkpt lat="48.438288" lon="2.709925">
      <ele>117.5</ele>
      <time>2014-03-30T09:07:50Z</time>
    </trkpt>
    <trkpt lat="48.438257" lon="2.710075">
      <ele>116.8</ele>
      <time>2014-03-30T09:07:52Z</time>
    </trkpt>
    <trkpt lat="48.438229" lon="2.710246">
      <ele>115.6</ele>
      <time>2014-03-30T09:07:54Z</time>
    </trkpt>
    <trkpt lat="48.438216" lon="2.710405">
      <ele>114.4</ele>
      <time>2014-03-30T09:07:56Z</time>
    </trkpt>
    <trkpt lat="48.438193" lon="2.710606">
      <ele>112.8</ele>
      <time>2014-03-30T09:07:58Z</time>
    </trkpt>
    <trkpt lat="48.438178" lon="2.710771">
      <ele>111.5</ele>
      <time>2014-03-30T09:08:00Z</time>
    </trkpt>
    <trkpt lat="48.43813" lon="2.710981">
      <ele>109.8</ele>
      <time>2014-03-30T09:08:02Z</time>
    </trkpt>
    <trkpt lat="48.438104" lon="2.711117">
      <ele>108.8</ele>
      <time>2014-03-30T09:08:03Z</time>
    </trkpt>
    <trkpt lat="48.438062" lon="2.71125">
      <ele>107.8</ele>
      <time>2014-03-30T09:08:04Z</time>
    </trkpt>
    <trkpt lat="48.43802" lon="2.711508">
      <ele>105.9</ele>
      <time>2014-03-30T09:08:06Z</time>
    </trkpt>
    <trkpt lat="48.437965" lon="2.711723">
      <ele>104.7</ele>
      <time>2014-03-30T09:08:08Z</time>
    </trkpt>
    <trkpt lat="48.437937" lon="2.711952">
      <ele>104.3</ele>
      <time>2014-03-30T09:08:10Z</time>
    </trkpt>
    <trkpt lat="48.437914" lon="2.712141">
      <ele>103.9</ele>
      <time>2014-03-30T09:08:12Z</time>
    </trkpt>
    <trkpt lat="48.437882" lon="2.712381">
      <ele>103.4</ele>
      <time>2014-03-30T09:08:14Z</time>
    </trkpt>
    <trkpt lat="48.437851" lon="2.712562">
      <ele>103.1</ele>
      <time>2014-03-30T09:08:16Z</time>
    </trkpt>
    <trkpt lat="48.437827" lon="2.712948">
      <ele>103.1</ele>
      <time>2014-03-30T09:08:20Z</time>
    </trkpt>
    <trkpt lat="48.437798" lon="2.71312">
      <ele>103.1</ele>
      <time>2014-03-30T09:08:22Z</time>
    </trkpt>
    <trkpt lat="48.437789" lon="2.713265">
      <ele>103.0</ele>
      <time>2014-03-30T09:08:24Z</time>
    </trkpt>
    <trkpt lat="48.437767" lon="2.7134">
      <ele>102.8</ele>
      <time>2014-03-30T09:08:26Z</time>
    </trkpt>
    <trkpt lat="48.437732" lon="2.713583">
      <ele>102.2</ele>
      <time>2014-03-30T09:08:29Z</time>
    </trkpt>
    <trkpt lat="48.437725" lon="2.713729">
      <ele>101.8</ele>
      <time>2014-03-30T09:08:32Z</time>
    </trkpt>
    <trkpt lat="48.437721" lon="2.713889">
      <ele>101.3</ele>
      <time>2014-03-30T09:08:35Z</time>
    </trkpt>
    <trkpt lat="48.437694" lon="2.714072">
      <ele>100.8</ele>
      <time>2014-03-30T09:08:38Z</time>
    </trkpt>
    <trkpt lat="48.437675" lon="2.714213">
      <ele>100.4</ele>
      <time>2014-03-30T09:08:40Z</time>
    </trkpt>
    <trkpt lat="48.437652" lon="2.714408">
      <ele>99.5</ele>
      <time>2014-03-30T09:08:43Z</time>
    </trkpt>
    <trkpt lat="48.437634" lon="2.714593">
      <ele>98.6</ele>
      <time>2014-03-30T09:08:46Z</time>
    </trkpt>
    <trkpt lat="48.437619" lon="2.714786">
      <ele>97.7</ele>
      <time>2014-03-30T09:08:49Z</time>
    </trkpt>
    <trkpt lat="48.437614" lon="2.714956">
      <ele>96.9</ele>
      <time>2014-03-30T09:08:52Z</time>
    </trkpt>
    <trkpt lat="48.437577" lon="2.715094">
      <ele>97.1</ele>
      <time>2014-03-30T09:08:56Z</time>
    </trkpt>
    <trkpt lat="48.437548" lon="2.715246">
      <ele>97.5</ele>
      <time>2014-03-30T09:09:00Z</time>
    </trkpt>
    <trkpt lat="48.437557" lon="2.715426">
      <ele>97.9</ele>
      <time>2014-03-30T09:09:03Z</time>
    </trkpt>
    <trkpt lat="48.437535" lon="2.715603">
      <ele>98.4</ele>
      <time>2014-03-30T09:09:06Z</time>
    </trkpt>
    <trkpt lat="48.437499" lon="2.715763">
      <ele>98.8</ele>
      <time>2014-03-30T09:09:09Z</time>
    </trkpt>
    <trkpt lat="48.437485" lon="2.7159">
      <ele>99.1</ele>
      <time>2014-03-30T09:09:11Z</time>
    </trkpt>
    <trkpt lat="48.437441" lon="2.716088">
      <ele>99.3</ele>
      <time>2014-03-30T09:09:14Z</time>
    </trkpt>
    <trkpt lat="48.437428" lon="2.716271">
      <ele>99.3</ele>
      <time>2014-03-30T09:09:17Z</time>
    </trkpt>
    <trkpt lat="48.437404" lon="2.716644">
      <ele>99.5</ele>
      <time>2014-03-30T09:09:23Z</time>
    </trkpt>
    <trkpt lat="48.437352" lon="2.716848">
      <ele>99.5</ele>
      <time>2014-03-30T09:09:26Z</time>
    </trkpt>
    <trkpt lat="48.437321" lon="2.717027">
      <ele>99.4</ele>
      <time>2014-03-30T09:09:29Z</time>
    </trkpt>
    <trkpt lat="48.437312" lon="2.717229">
      <ele>99.2</ele>
      <time>2014-03-30T09:09:32Z</time>
    </trkpt>
    <trkpt lat="48.437284" lon="2.717413">
      <ele>99.1</ele>
      <time>2014-03-30T09:09:35Z</time>
    </trkpt>
    <trkpt lat="48.437262" lon="2.717552">
      <ele>99.2</ele>
      <time>2014-03-30T09:09:37Z</time>
    </trkpt>
    <trkpt lat="48.43724" lon="2.717733">
      <ele>99.4</ele>
      <time>2014-03-30T09:09:40Z</time>
    </trkpt>
    <trkpt lat="48.437229" lon="2.717881">
      <ele>99.6</ele>
      <time>2014-03-30T09:09:42Z</time>
    </trkpt>
    <trkpt lat="48.43721" lon="2.718063">
      <ele>99.8</ele>
      <time>2014-03-30T09:09:45Z</time>
    </trkpt>
    <trkpt lat="48.437187" lon="2.718229">
      <ele>100.0</ele>
      <time>2014-03-30T09:09:48Z</time>
    </trkpt>
    <trkpt lat="48.437176" lon="2.718384">
      <ele>100.1</ele>
      <time>2014-03-30T09:09:51Z</time>
    </trkpt>
    <trkpt lat="48.437172" lon="2.718541">
      <ele>100.1</ele>
      <time>2014-03-30T09:09:54Z</time>
    </trkpt>
    <trkpt lat="48.437161" lon="2.718681">
      <ele>100.1</ele>
      <time>2014-03-30T09:09:57Z</time>
    </trkpt>
    <trkpt lat="48.437072" lon="2.718699">
      <ele>100.3</ele>
      <time>2014-03-30T09:10:00Z</time>
    </trkpt>
    <trkpt lat="48.436956" lon="2.718727">
      <ele>100.7</ele>
      <time>2014-03-30T09:10:03Z</time>
    </trkpt>
    <trkpt lat="48.436851" lon="2.718759">
      <ele>100.9</ele>
      <time>2014-03-30T09:10:07Z</time>
    </trkpt>
    <trkpt lat="48.436765" lon="2.718871">
      <ele>101.1</ele>
      <time>2014-03-30T09:10:12Z</time>
    </trkpt>
    <trkpt lat="48.43668" lon="2.718969">
      <ele>101.2</ele>
      <time>2014-03-30T09:10:15Z</time>
    </trkpt>
    <trkpt lat="48.436588" lon="2.719052">
      <ele>101.4</ele>
      <time>2014-03-30T09:10:18Z</time>
    </trkpt>
    <trkpt lat="48.436439" lon="2.719288">
      <ele>101.7</ele>
      <time>2014-03-30T09:10:24Z</time>
    </trkpt>
    <trkpt lat="48.43639" lon="2.719431">
      <ele>101.8</ele>
      <time>2014-03-30T09:10:27Z</time>
    </trkpt>
    <trkpt lat="48.436359" lon="2.719562">
      <ele>101.8</ele>
      <time>2014-03-30T09:10:31Z</time>
    </trkpt>
    <trkpt lat="48.436339" lon="2.719694">
      <ele>101.8</ele>
      <time>2014-03-30T09:10:34Z</time>
    </trkpt>
    <trkpt lat="48.436245" lon="2.719758">
      <ele>102.2</ele>
      <time>2014-03-30T09:10:38Z</time>
    </trkpt>
    <trkpt lat="48.436207" lon="2.719888">
      <ele>102.3</ele>
      <time>2014-03-30T09:10:42Z</time>
    </trkpt>
    <trkpt lat="48.436154" lon="2.720009">
      <ele>102.5</ele>
      <time>2014-03-30T09:10:45Z</time>
    </trkpt>
    <trkpt lat="48.436108" lon="2.720139">
      <ele>102.7</ele>
      <time>2014-03-30T09:10:48Z</time>
    </trkpt>
    <trkpt lat="48.436057" lon="2.72028">
      <ele>102.9</ele>
      <time>2014-03-30T09:10:51Z</time>
    </trkpt>
    <trkpt lat="48.436019" lon="2.720405">
      <ele>103.1</ele>
      <time>2014-03-30T09:10:54Z</time>
    </trkpt>
    <trkpt lat="48.435993" lon="2.720551">
      <ele>103.2</ele>
      <time>2014-03-30T09:10:57Z</time>
    </trkpt>
    <trkpt lat="48.43593" lon="2.720662">
      <ele>103.5</ele>
      <time>2014-03-30T09:11:00Z</time>
    </trkpt>
    <trkpt lat="48.435846" lon="2.720781">
      <ele>103.9</ele>
      <time>2014-03-30T09:11:04Z</time>
    </trkpt>
    <trkpt lat="48.435883" lon="2.720907">
      <ele>103.8</ele>
      <time>2014-03-30T09:11:08Z</time>
    </trkpt>
    <trkpt lat="48.435903" lon="2.721042">
      <ele>103.7</ele>
      <time>2014-03-30T09:11:12Z</time>
    </trkpt>
    <trkpt lat="48.435881" lon="2.721194">
      <ele>103.8</ele>
      <time>2014-03-30T09:11:18Z</time>
    </trkpt>
    <trkpt lat="48.435875" lon="2.721485">
      <ele>103.9</ele>
      <time>2014-03-30T09:11:26Z</time>
    </trkpt>
    <trkpt lat="48.435898" lon="2.721648">
      <ele>103.9</ele>
      <time>2014-03-30T09:11:30Z</time>
    </trkpt>
    <trkpt lat="48.43587" lon="2.721789">
      <ele>103.8</ele>
      <time>2014-03-30T09:11:34Z</time>
    </trkpt>
    <trkpt lat="48.43576" lon="2.721841">
      <ele>104.6</ele>
      <time>2014-03-30T09:11:39Z</time>
    </trkpt>
    <trkpt lat="48.435656" lon="2.721892">
      <ele>105.6</ele>
      <time>2014-03-30T09:11:44Z</time>
    </trkpt>
    <trkpt lat="48.435563" lon="2.72197">
      <ele>106.4</ele>
      <time>2014-03-30T09:11:50Z</time>
    </trkpt>
    <trkpt lat="48.435469" lon="2.721999">
      <ele>107.4</ele>
      <time>2014-03-30T09:11:55Z</time>
    </trkpt>
    <trkpt lat="48.435359" lon="2.722058">
      <ele>108.4</ele>
      <time>2014-03-30T09:12:01Z</time>
    </trkpt>
    <trkpt lat="48.435276" lon="2.722145">
      <ele>109.1</ele>
      <time>2014-03-30T09:12:06Z</time>
    </trkpt>
    <trkpt lat="48.435195" lon="2.722255">
      <ele>109.6</ele>
      <time>2014-03-30T09:12:10Z</time>
    </trkpt>
    <trkpt lat="48.435123" lon="2.722383">
      <ele>110.1</ele>
      <time>2014-03-30T09:12:15Z</time>
    </trkpt>
    <trkpt lat="48.435094" lon="2.722537">
      <ele>110.1</ele>
      <time>2014-03-30T09:12:20Z</time>
    </trkpt>
    <trkpt lat="48.435039" lon="2.722832">
      <ele>110.6</ele>
      <time>2014-03-30T09:12:31Z</time>
    </trkpt>
    <trkpt lat="48.435001" lon="2.722964">
      <ele>111.0</ele>
      <time>2014-03-30T09:12:36Z</time>
    </trkpt>
    <trkpt lat="48.43499" lon="2.723099">
      <ele>111.2</ele>
      <time>2014-03-30T09:12:42Z</time>
    </trkpt>
    <trkpt lat="48.434954" lon="2.723244">
      <ele>111.9</ele>
      <time>2014-03-30T09:12:46Z</time>
    </trkpt>
    <trkpt lat="48.434904" lon="2.723387">
      <ele>112.9</ele>
      <time>2014-03-30T09:12:50Z</time>
    </trkpt>
    <trkpt lat="48.434909" lon="2.723525">
      <ele>113.0</ele>
      <time>2014-03-30T09:13:06Z</time>
    </trkpt>
    <trkpt lat="48.434909" lon="2.723676">
      <ele>113.2</ele>
      <time>2014-03-30T09:13:58Z</time>
    </trkpt>
    <trkpt lat="48.434846" lon="2.723947">
      <ele>114.8</ele>
      <time>2014-03-30T09:14:17Z</time>
    </trkpt>
    <trkpt lat="48.434841" lon="2.724095">
      <ele>115.1</ele>
      <time>2014-03-30T09:14:25Z</time>
    </trkpt>
    <trkpt lat="48.434818" lon="2.724235">
      <ele>116.0</ele>
      <time>2014-03-30T09:14:32Z</time>
    </trkpt>
    <trkpt lat="48.434798" lon="2.724386">
      <ele>117.0</ele>
      <time>2014-03-30T09:14:38Z</time>
    </trkpt>
    <trkpt lat="48.434767" lon="2.72453">
      <ele>118.1</ele>
      <time>2014-03-30T09:14:46Z</time>
    </trkpt>
    <trkpt lat="48.43472" lon="2.72466">
      <ele>119.5</ele>
      <time>2014-03-30T09:14:54Z</time>
    </trkpt>
    <trkpt lat="48.434662" lon="2.72477">
      <ele>120.9</ele>
      <time>2014-03-30T09:15:01Z</time>
    </trkpt>
    <trkpt lat="48.434511" lon="2.724929">
      <ele>124.0</ele>
      <time>2014-03-30T09:15:21Z</time>
    </trkpt>
    <trkpt lat="48.434425" lon="2.724992">
      <ele>125.6</ele>
      <time>2014-03-30T09:15:31Z</time>
    </trkpt>
    <trkpt lat="48.434384" lon="2.725117">
      <ele>126.3</ele>
      <time>2014-03-30T09:15:40Z</time>
    </trkpt>
    <trkpt lat="48.43433" lon="2.725228">
      <ele>127.0</ele>
      <time>2014-03-30T09:15:54Z</time>
    </trkpt>
    <trkpt lat="48.434271" lon="2.72534">
      <ele>127.7</ele>
      <time>2014-03-30T09:16:23Z</time>
    </trkpt>
    <trkpt lat="48.43425" lon="2.725636">
      <ele>127.5</ele>
      <time>2014-03-30T09:16:35Z</time>
    </trkpt>
    <trkpt lat="48.434271" lon="2.725787">
      <ele>126.9</ele>
      <time>2014-03-30T09:16:39Z</time>
    </trkpt>
    <trkpt lat="48.434332" lon="2.725911">
      <ele>126.0</ele>
      <time>2014-03-30T09:16:43Z</time>
    </trkpt>
    <trkpt lat="48.434419" lon="2.726043">
      <ele>124.8</ele>
      <time>2014-03-30T09:16:49Z</time>
    </trkpt>
    <trkpt lat="48.434495" lon="2.726128">
      <ele>123.7</ele>
      <time>2014-03-30T09:16:53Z</time>
    </trkpt>
    <trkpt lat="48.43459" lon="2.726241">
      <ele>122.4</ele>
      <time>2014-03-30T09:16:56Z</time>
    </trkpt>
    <trkpt lat="48.434665" lon="2.726362">
      <ele>121.3</ele>
      <time>2014-03-30T09:16:59Z</time>
    </trkpt>
    <trkpt lat="48.434724" lon="2.72649">
      <ele>120.4</ele>
      <time>2014-03-30T09:17:02Z</time>
    </trkpt>
    <trkpt lat="48.434797" lon="2.726578">
      <ele>119.4</ele>
      <time>2014-03-30T09:17:05Z</time>
    </trkpt>
    <trkpt lat="48.434894" lon="2.726583">
      <ele>118.3</ele>
      <time>2014-03-30T09:17:08Z</time>
    </trkpt>
    <trkpt lat="48.434979" lon="2.726704">
      <ele>117.1</ele>
      <time>2014-03-30T09:17:13Z</time>
    </trkpt>
    <trkpt lat="48.435054" lon="2.726782">
      <ele>116.3</ele>
      <time>2014-03-30T09:17:16Z</time>
    </trkpt>
    <trkpt lat="48.435149" lon="2.726823">
      <ele>115.5</ele>
      <time>2014-03-30T09:17:20Z</time>
    </trkpt>
    <trkpt lat="48.435241" lon="2.726903">
      <ele>114.6</ele>
      <time>2014-03-30T09:17:25Z</time>
    </trkpt>
    <trkpt lat="48.435377" lon="2.727127">
      <ele>112.9</ele>
      <time>2014-03-30T09:17:36Z</time>
    </trkpt>
    <trkpt lat="48.435329" lon="2.727259">
      <ele>112.9</ele>
      <time>2014-03-30T09:17:41Z</time>
    </trkpt>
    <trkpt lat="48.435251" lon="2.72736">
      <ele>113.3</ele>
      <time>2014-03-30T09:17:44Z</time>
    </trkpt>
    <trkpt lat="48.435194" lon="2.727466">
      <ele>113.5</ele>
      <time>2014-03-30T09:17:51Z</time>
    </trkpt>
    <trkpt lat="48.435155" lon="2.7276">
      <ele>113.2</ele>
      <time>2014-03-30T09:17:58Z</time>
    </trkpt>
    <trkpt lat="48.435244" lon="2.727719">
      <ele>111.8</ele>
      <time>2014-03-30T09:18:03Z</time>
    </trkpt>
    <trkpt lat="48.435337" lon="2.72783">
      <ele>110.4</ele>
      <time>2014-03-30T09:18:07Z</time>
    </trkpt>
    <trkpt lat="48.435395" lon="2.727957">
      <ele>109.2</ele>
      <time>2014-03-30T09:18:10Z</time>
    </trkpt>
    <trkpt lat="48.435481" lon="2.728053">
      <ele>107.9</ele>
      <time>2014-03-30T09:18:23Z</time>
    </trkpt>
    <trkpt lat="48.435552" lon="2.72816">
      <ele>106.7</ele>
      <time>2014-03-30T09:18:32Z</time>
    </trkpt>
    <trkpt lat="48.435732" lon="2.72821">
      <ele>104.7</ele>
      <time>2014-03-30T09:18:48Z</time>
    </trkpt>
    <trkpt lat="48.435752" lon="2.728376">
      <ele>103.7</ele>
      <time>2014-03-30T09:18:53Z</time>
    </trkpt>
    <trkpt lat="48.435731" lon="2.72851">
      <ele>103.7</ele>
      <time>2014-03-30T09:18:56Z</time>
    </trkpt>
    <trkpt lat="48.435715" lon="2.728649">
      <ele>103.7</ele>
      <time>2014-03-30T09:19:00Z</time>
    </trkpt>
    <trkpt lat="48.435701" lon="2.72879">
      <ele>103.6</ele>
      <time>2014-03-30T09:19:07Z</time>
    </trkpt>
    <trkpt lat="48.43569" lon="2.728938">
      <ele>103.5</ele>
      <time>2014-03-30T09:19:13Z</time>
    </trkpt>
    <trkpt lat="48.435696" lon="2.729076">
      <ele>103.3</ele>
      <time>2014-03-30T09:19:50Z</time>
    </trkpt>
    <trkpt lat="48.435795" lon="2.729335">
      <ele>101.9</ele>
      <time>2014-03-30T09:19:59Z</time>
    </trkpt>
    <trkpt lat="48.435883" lon="2.729425">
      <ele>101.4</ele>
      <time>2014-03-30T09:20:02Z</time>
    </trkpt>
    <trkpt lat="48.435965" lon="2.729517">
      <ele>101.2</ele>
      <time>2014-03-30T09:20:05Z</time>
    </trkpt>
    <trkpt lat="48.436058" lon="2.729618">
      <ele>100.9</ele>
      <time>2014-03-30T09:20:08Z</time>
    </trkpt>
    <trkpt lat="48.436128" lon="2.729722">
      <ele>100.4</ele>
      <time>2014-03-30T09:20:11Z</time>
    </trkpt>
    <trkpt lat="48.436186" lon="2.729828">
      <ele>99.9</ele>
      <time>2014-03-30T09:20:14Z</time>
    </trkpt>
    <trkpt lat="48.436269" lon="2.729882">
      <ele>99.5</ele>
      <time>2014-03-30T09:20:17Z</time>
    </trkpt>
    <trkpt lat="48.436352" lon="2.729976">
      <ele>98.9</ele>
      <time>2014-03-30T09:20:22Z</time>
    </trkpt>
    <trkpt lat="48.436447" lon="2.730075">
      <ele>98.5</ele>
      <time>2014-03-30T09:20:27Z</time>
    </trkpt>
    <trkpt lat="48.436532" lon="2.730179">
      <ele>98.3</ele>
      <time>2014-03-30T09:20:32Z</time>
    </trkpt>
    <trkpt lat="48.436616" lon="2.73028">
      <ele>98.1</ele>
      <time>2014-03-30T09:20:37Z</time>
    </trkpt>
    <trkpt lat="48.436706" lon="2.730359">
      <ele>97.7</ele>
      <time>2014-03-30T09:20:41Z</time>
    </trkpt>
    <trkpt lat="48.436785" lon="2.730443">
      <ele>97.0</ele>
      <time>2014-03-30T09:20:44Z</time>
    </trkpt>
    <trkpt lat="48.436891" lon="2.730573">
      <ele>96.2</ele>
      <time>2014-03-30T09:20:47Z</time>
    </trkpt>
    <trkpt lat="48.436973" lon="2.730676">
      <ele>95.7</ele>
      <time>2014-03-30T09:20:49Z</time>
    </trkpt>
    <trkpt lat="48.437056" lon="2.730761">
      <ele>95.1</ele>
      <time>2014-03-30T09:20:51Z</time>
    </trkpt>
    <trkpt lat="48.437254" lon="2.73096">
      <ele>94.3</ele>
      <time>2014-03-30T09:20:56Z</time>
    </trkpt>
    <trkpt lat="48.43735" lon="2.731094">
      <ele>94.4</ele>
      <time>2014-03-30T09:20:59Z</time>
    </trkpt>
    <trkpt lat="48.437437" lon="2.731204">
      <ele>94.5</ele>
      <time>2014-03-30T09:21:02Z</time>
    </trkpt>
    <trkpt lat="48.437517" lon="2.73128">
      <ele>94.7</ele>
      <time>2014-03-30T09:21:05Z</time>
    </trkpt>
    <trkpt lat="48.437599" lon="2.731386">
      <ele>95.2</ele>
      <time>2014-03-30T09:21:09Z</time>
    </trkpt>
    <trkpt lat="48.437686" lon="2.731483">
      <ele>95.6</ele>
      <time>2014-03-30T09:21:47Z</time>
    </trkpt>
    <trkpt lat="48.437777" lon="2.731611">
      <ele>96.1</ele>
      <time>2014-03-30T09:21:52Z</time>
    </trkpt>
    <trkpt lat="48.437955" lon="2.731833">
      <ele>96.0</ele>
      <time>2014-03-30T09:22:00Z</time>
    </trkpt>
    <trkpt lat="48.438043" lon="2.731914">
      <ele>95.8</ele>
      <time>2014-03-30T09:22:03Z</time>
    </trkpt>
    <trkpt lat="48.43814" lon="2.732034">
      <ele>95.6</ele>
      <time>2014-03-30T09:22:06Z</time>
    </trkpt>
    <trkpt lat="48.438232" lon="2.732134">
      <ele>95.3</ele>
      <time>2014-03-30T09:22:09Z</time>
    </trkpt>
    <trkpt lat="48.43832" lon="2.73223">
      <ele>95.0</ele>
      <time>2014-03-30T09:22:12Z</time>
    </trkpt>
    <trkpt lat="48.43844" lon="2.732299">
      <ele>95.2</ele>
      <time>2014-03-30T09:22:15Z</time>
    </trkpt>
    <trkpt lat="48.438559" lon="2.732269">
      <ele>95.5</ele>
      <time>2014-03-30T09:22:18Z</time>
    </trkpt>
    <trkpt lat="48.438651" lon="2.732302">
      <ele>95.7</ele>
      <time>2014-03-30T09:22:21Z</time>
    </trkpt>
    <trkpt lat="48.43875" lon="2.732252">
      <ele>95.9</ele>
      <time>2014-03-30T09:22:24Z</time>
    </trkpt>
    <trkpt lat="48.438849" lon="2.732227">
      <ele>96.0</ele>
      <time>2014-03-30T09:22:27Z</time>
    </trkpt>
    <trkpt lat="48.438933" lon="2.732174">
      <ele>96.2</ele>
      <time>2014-03-30T09:22:29Z</time>
    </trkpt>
    <trkpt lat="48.439054" lon="2.732124">
      <ele>96.3</ele>
      <time>2014-03-30T09:22:32Z</time>
    </trkpt>
    <trkpt lat="48.439146" lon="2.732085">
      <ele>96.5</ele>
      <time>2014-03-30T09:22:35Z</time>
    </trkpt>
    <trkpt lat="48.439263" lon="2.732058">
      <ele>96.6</ele>
      <time>2014-03-30T09:22:38Z</time>
    </trkpt>
    <trkpt lat="48.439375" lon="2.73202">
      <ele>96.8</ele>
      <time>2014-03-30T09:22:41Z</time>
    </trkpt>
    <trkpt lat="48.439496" lon="2.732014">
      <ele>97.0</ele>
      <time>2014-03-30T09:22:44Z</time>
    </trkpt>
    <trkpt lat="48.439619" lon="2.731975">
      <ele>97.3</ele>
      <time>2014-03-30T09:22:47Z</time>
    </trkpt>
    <trkpt lat="48.439718" lon="2.731951">
      <ele>97.4</ele>
      <time>2014-03-30T09:22:50Z</time>
    </trkpt>
    <trkpt lat="48.439821" lon="2.731918">
      <ele>97.6</ele>
      <time>2014-03-30T09:22:53Z</time>
    </trkpt>
    <trkpt lat="48.44003" lon="2.731878">
      <ele>98.0</ele>
      <time>2014-03-30T09:23:00Z</time>
    </trkpt>
    <trkpt lat="48.440153" lon="2.731829">
      <ele>98.1</ele>
      <time>2014-03-30T09:23:03Z</time>
    </trkpt>
    <trkpt lat="48.440263" lon="2.73179">
      <ele>98.2</ele>
      <time>2014-03-30T09:23:06Z</time>
    </trkpt>
    <trkpt lat="48.440359" lon="2.731789">
      <ele>98.2</ele>
      <time>2014-03-30T09:23:09Z</time>
    </trkpt>
    <trkpt lat="48.44046" lon="2.731805">
      <ele>98.3</ele>
      <time>2014-03-30T09:23:12Z</time>
    </trkpt>
    <trkpt lat="48.440526" lon="2.731917">
      <ele>98.1</ele>
      <time>2014-03-30T09:23:15Z</time>
    </trkpt>
    <trkpt lat="48.440563" lon="2.732043">
      <ele>97.8</ele>
      <time>2014-03-30T09:23:17Z</time>
    </trkpt>
    <trkpt lat="48.440568" lon="2.73219">
      <ele>97.4</ele>
      <time>2014-03-30T09:23:20Z</time>
    </trkpt>
    <trkpt lat="48.440554" lon="2.732357">
      <ele>97.0</ele>
      <time>2014-03-30T09:23:23Z</time>
    </trkpt>
    <trkpt lat="48.440525" lon="2.732534">
      <ele>96.6</ele>
      <time>2014-03-30T09:23:26Z</time>
    </trkpt>
    <trkpt lat="48.440546" lon="2.73279">
      <ele>95.8</ele>
      <time>2014-03-30T09:23:30Z</time>
    </trkpt>
    <trkpt lat="48.440613" lon="2.732935">
      <ele>95.2</ele>
      <time>2014-03-30T09:23:33Z</time>
    </trkpt>
    <trkpt lat="48.440644" lon="2.733139">
      <ele>94.6</ele>
      <time>2014-03-30T09:23:36Z</time>
    </trkpt>
    <trkpt lat="48.440675" lon="2.733321">
      <ele>94.0</ele>
      <time>2014-03-30T09:23:39Z</time>
    </trkpt>
    <trkpt lat="48.440679" lon="2.733599">
      <ele>93.6</ele>
      <time>2014-03-30T09:23:43Z</time>
    </trkpt>
    <trkpt lat="48.440747" lon="2.733736">
      <ele>93.4</ele>
      <time>2014-03-30T09:23:45Z</time>
    </trkpt>
    <trkpt lat="48.440819" lon="2.73383">
      <ele>93.4</ele>
      <time>2014-03-30T09:23:47Z</time>
    </trkpt>
    <trkpt lat="48.440927" lon="2.733952">
      <ele>93.4</ele>
      <time>2014-03-30T09:23:50Z</time>
    </trkpt>
    <trkpt lat="48.440996" lon="2.734058">
      <ele>93.4</ele>
      <time>2014-03-30T09:23:52Z</time>
    </trkpt>
    <trkpt lat="48.441076" lon="2.734149">
      <ele>93.3</ele>
      <time>2014-03-30T09:23:54Z</time>
    </trkpt>
    <trkpt lat="48.441297" lon="2.734295">
      <ele>93.3</ele>
      <time>2014-03-30T09:23:59Z</time>
    </trkpt>
    <trkpt lat="48.44139" lon="2.734396">
      <ele>93.2</ele>
      <time>2014-03-30T09:24:02Z</time>
    </trkpt>
    <trkpt lat="48.441439" lon="2.73455">
      <ele>92.9</ele>
      <time>2014-03-30T09:24:05Z</time>
    </trkpt>
    <trkpt lat="48.441385" lon="2.734733">
      <ele>92.5</ele>
      <time>2014-03-30T09:24:08Z</time>
    </trkpt>
    <trkpt lat="48.441347" lon="2.734923">
      <ele>92.1</ele>
      <time>2014-03-30T09:24:11Z</time>
    </trkpt>
    <trkpt lat="48.441265" lon="2.735011">
      <ele>92.0</ele>
      <time>2014-03-30T09:24:13Z</time>
    </trkpt>
    <trkpt lat="48.441175" lon="2.735073">
      <ele>91.8</ele>
      <time>2014-03-30T09:24:16Z</time>
    </trkpt>
    <trkpt lat="48.441106" lon="2.735162">
      <ele>91.5</ele>
      <time>2014-03-30T09:24:19Z</time>
    </trkpt>
    <trkpt lat="48.441192" lon="2.73524">
      <ele>91.3</ele>
      <time>2014-03-30T09:24:21Z</time>
    </trkpt>
    <trkpt lat="48.441279" lon="2.735385">
      <ele>90.9</ele>
      <time>2014-03-30T09:24:24Z</time>
    </trkpt>
    <trkpt lat="48.441341" lon="2.735615">
      <ele>90.2</ele>
      <time>2014-03-30T09:24:26Z</time>
    </trkpt>
    <trkpt lat="48.441409" lon="2.735708">
      <ele>90.0</ele>
      <time>2014-03-30T09:24:28Z</time>
    </trkpt>
    <trkpt lat="48.441475" lon="2.735815">
      <ele>89.8</ele>
      <time>2014-03-30T09:24:30Z</time>
    </trkpt>
    <trkpt lat="48.441544" lon="2.735906">
      <ele>90.0</ele>
      <time>2014-03-30T09:24:32Z</time>
    </trkpt>
    <trkpt lat="48.441629" lon="2.736038">
      <ele>90.4</ele>
      <time>2014-03-30T09:24:35Z</time>
    </trkpt>
    <trkpt lat="48.441664" lon="2.736177">
      <ele>90.8</ele>
      <time>2014-03-30T09:24:38Z</time>
    </trkpt>
    <trkpt lat="48.441648" lon="2.73636">
      <ele>91.2</ele>
      <time>2014-03-30T09:24:42Z</time>
    </trkpt>
    <trkpt lat="48.441627" lon="2.736516">
      <ele>91.6</ele>
      <time>2014-03-30T09:24:46Z</time>
    </trkpt>
    <trkpt lat="48.44167" lon="2.736648">
      <ele>92.0</ele>
      <time>2014-03-30T09:24:49Z</time>
    </trkpt>
    <trkpt lat="48.441593" lon="2.736769">
      <ele>92.3</ele>
      <time>2014-03-30T09:24:52Z</time>
    </trkpt>
    <trkpt lat="48.441506" lon="2.7369">
      <ele>92.8</ele>
      <time>2014-03-30T09:24:55Z</time>
    </trkpt>
    <trkpt lat="48.441294" lon="2.737081">
      <ele>93.5</ele>
      <time>2014-03-30T09:25:01Z</time>
    </trkpt>
    <trkpt lat="48.441191" lon="2.737172">
      <ele>93.9</ele>
      <time>2014-03-30T09:25:04Z</time>
    </trkpt>
    <trkpt lat="48.441109" lon="2.737264">
      <ele>94.4</ele>
      <time>2014-03-30T09:25:06Z</time>
    </trkpt>
    <trkpt lat="48.441035" lon="2.737352">
      <ele>95.0</ele>
      <time>2014-03-30T09:25:08Z</time>
    </trkpt>
    <trkpt lat="48.440966" lon="2.737513">
      <ele>95.8</ele>
      <time>2014-03-30T09:25:10Z</time>
    </trkpt>
    <trkpt lat="48.440898" lon="2.737634">
      <ele>95.9</ele>
      <time>2014-03-30T09:25:12Z</time>
    </trkpt>
    <trkpt lat="48.440896" lon="2.73779">
      <ele>95.9</ele>
      <time>2014-03-30T09:25:15Z</time>
    </trkpt>
    <trkpt lat="48.440907" lon="2.737945">
      <ele>95.9</ele>
      <time>2014-03-30T09:25:18Z</time>
    </trkpt>
    <trkpt lat="48.44092" lon="2.738099">
      <ele>95.9</ele>
      <time>2014-03-30T09:25:21Z</time>
    </trkpt>
    <trkpt lat="48.440967" lon="2.738239">
      <ele>95.8</ele>
      <time>2014-03-30T09:25:24Z</time>
    </trkpt>
    <trkpt lat="48.441052" lon="2.738374">
      <ele>95.8</ele>
      <time>2014-03-30T09:25:27Z</time>
    </trkpt>
    <trkpt lat="48.441137" lon="2.738489">
      <ele>95.8</ele>
      <time>2014-03-30T09:25:30Z</time>
    </trkpt>
    <trkpt lat="48.44118" lon="2.73862">
      <ele>95.9</ele>
      <time>2014-03-30T09:25:32Z</time>
    </trkpt>
    <trkpt lat="48.441222" lon="2.738763">
      <ele>96.0</ele>
      <time>2014-03-30T09:25:35Z</time>
    </trkpt>
    <trkpt lat="48.441256" lon="2.738911">
      <ele>96.2</ele>
      <time>2014-03-30T09:25:38Z</time>
    </trkpt>
    <trkpt lat="48.441368" lon="2.738947">
      <ele>96.1</ele>
      <time>2014-03-30T09:25:41Z</time>
    </trkpt>
    <trkpt lat="48.441488" lon="2.738935">
      <ele>95.9</ele>
      <time>2014-03-30T09:25:45Z</time>
    </trkpt>
    <trkpt lat="48.441591" lon="2.73894">
      <ele>95.8</ele>
      <time>2014-03-30T09:25:49Z</time>
    </trkpt>
    <trkpt lat="48.441692" lon="2.739001">
      <ele>95.9</ele>
      <time>2014-03-30T09:25:52Z</time>
    </trkpt>
    <trkpt lat="48.441782" lon="2.739044">
      <ele>96.1</ele>
      <time>2014-03-30T09:25:55Z</time>
    </trkpt>
    <trkpt lat="48.441915" lon="2.739044">
      <ele>96.4</ele>
      <time>2014-03-30T09:25:58Z</time>
    </trkpt>
    <trkpt lat="48.442138" lon="2.739037">
      <ele>96.9</ele>
      <time>2014-03-30T09:26:05Z</time>
    </trkpt>
    <trkpt lat="48.442242" lon="2.739074">
      <ele>97.2</ele>
      <time>2014-03-30T09:26:08Z</time>
    </trkpt>
    <trkpt lat="48.442342" lon="2.739119">
      <ele>97.5</ele>
      <time>2014-03-30T09:26:11Z</time>
    </trkpt>
    <trkpt lat="48.442459" lon="2.739164">
      <ele>97.9</ele>
      <time>2014-03-30T09:26:15Z</time>
    </trkpt>
    <trkpt lat="48.442547" lon="2.739199">
      <ele>98.0</ele>
      <time>2014-03-30T09:26:18Z</time>
    </trkpt>
    <trkpt lat="48.442654" lon="2.739153">
      <ele>97.8</ele>
      <time>2014-03-30T09:26:22Z</time>
    </trkpt>
    <trkpt lat="48.442744" lon="2.739178">
      <ele>97.7</ele>
      <time>2014-03-30T09:26:25Z</time>
    </trkpt>
    <trkpt lat="48.442838" lon="2.739293">
      <ele>97.7</ele>
      <time>2014-03-30T09:26:28Z</time>
    </trkpt>
    <trkpt lat="48.442933" lon="2.739336">
      <ele>97.6</ele>
      <time>2014-03-30T09:26:31Z</time>
    </trkpt>
    <trkpt lat="48.443041" lon="2.739324">
      <ele>97.4</ele>
      <time>2014-03-30T09:26:34Z</time>
    </trkpt>
    <trkpt lat="48.44314" lon="2.739343">
      <ele>97.2</ele>
      <time>2014-03-30T09:26:37Z</time>
    </trkpt>
    <trkpt lat="48.443265" lon="2.739363">
      <ele>96.9</ele>
      <time>2014-03-30T09:26:39Z</time>
    </trkpt>
    <trkpt lat="48.443373" lon="2.739381">
      <ele>96.8</ele>
      <time>2014-03-30T09:26:42Z</time>
    </trkpt>
    <trkpt lat="48.443486" lon="2.739423">
      <ele>96.9</ele>
      <time>2014-03-30T09:26:45Z</time>
    </trkpt>
    <trkpt lat="48.443617" lon="2.739475">
      <ele>97.0</ele>
      <time>2014-03-30T09:26:47Z</time>
    </trkpt>
    <trkpt lat="48.443704" lon="2.739518">
      <ele>97.0</ele>
      <time>2014-03-30T09:26:49Z</time>
    </trkpt>
    <trkpt lat="48.443768" lon="2.73963">
      <ele>97.0</ele>
      <time>2014-03-30T09:26:51Z</time>
    </trkpt>
    <trkpt lat="48.443847" lon="2.739738">
      <ele>96.9</ele>
      <time>2014-03-30T09:26:53Z</time>
    </trkpt>
    <trkpt lat="48.44392" lon="2.739849">
      <ele>96.9</ele>
      <time>2014-03-30T09:26:56Z</time>
    </trkpt>
    <trkpt lat="48.44398" lon="2.739985">
      <ele>96.8</ele>
      <time>2014-03-30T09:26:59Z</time>
    </trkpt>
    <trkpt lat="48.44409" lon="2.740292">
      <ele>96.6</ele>
      <time>2014-03-30T09:27:04Z</time>
    </trkpt>
    <trkpt lat="48.444144" lon="2.740444">
      <ele>96.5</ele>
      <time>2014-03-30T09:27:07Z</time>
    </trkpt>
    <trkpt lat="48.444194" lon="2.740586">
      <ele>96.3</ele>
      <time>2014-03-30T09:27:10Z</time>
    </trkpt>
    <trkpt lat="48.444168" lon="2.740724">
      <ele>96.1</ele>
      <time>2014-03-30T09:27:13Z</time>
    </trkpt>
    <trkpt lat="48.444137" lon="2.740891">
      <ele>96.1</ele>
      <time>2014-03-30T09:27:17Z</time>
    </trkpt>
    <trkpt lat="48.444157" lon="2.741052">
      <ele>96.3</ele>
      <time>2014-03-30T09:27:19Z</time>
    </trkpt>
    <trkpt lat="48.444216" lon="2.741192">
      <ele>96.5</ele>
      <time>2014-03-30T09:27:21Z</time>
    </trkpt>
    <trkpt lat="48.444289" lon="2.741332">
      <ele>96.7</ele>
      <time>2014-03-30T09:27:24Z</time>
    </trkpt>
    <trkpt lat="48.444346" lon="2.74148">
      <ele>96.9</ele>
      <time>2014-03-30T09:27:27Z</time>
    </trkpt>
    <trkpt lat="48.444361" lon="2.741651">
      <ele>97.2</ele>
      <time>2014-03-30T09:27:30Z</time>
    </trkpt>
    <trkpt lat="48.444372" lon="2.741818">
      <ele>97.2</ele>
      <time>2014-03-30T09:27:33Z</time>
    </trkpt>
    <trkpt lat="48.444423" lon="2.741972">
      <ele>97.2</ele>
      <time>2014-03-30T09:27:37Z</time>
    </trkpt>
    <trkpt lat="48.444456" lon="2.74212">
      <ele>97.2</ele>
      <time>2014-03-30T09:27:41Z</time>
    </trkpt>
    <trkpt lat="48.444452" lon="2.742263">
      <ele>97.1</ele>
      <time>2014-03-30T09:27:44Z</time>
    </trkpt>
    <trkpt lat="48.444456" lon="2.742402">
      <ele>97.0</ele>
      <time>2014-03-30T09:27:47Z</time>
    </trkpt>
    <trkpt lat="48.444515" lon="2.742584">
      <ele>97.1</ele>
      <time>2014-03-30T09:27:50Z</time>
    </trkpt>
    <trkpt lat="48.444575" lon="2.742703">
      <ele>97.2</ele>
      <time>2014-03-30T09:27:53Z</time>
    </trkpt>
    <trkpt lat="48.444657" lon="2.742841">
      <ele>97.4</ele>
      <time>2014-03-30T09:27:57Z</time>
    </trkpt>
    <trkpt lat="48.444702" lon="2.743017">
      <ele>97.6</ele>
      <time>2014-03-30T09:28:01Z</time>
    </trkpt>
    <trkpt lat="48.4449" lon="2.743042">
      <ele>97.7</ele>
      <time>2014-03-30T09:28:07Z</time>
    </trkpt>
    <trkpt lat="48.445002" lon="2.743086">
      <ele>97.7</ele>
      <time>2014-03-30T09:28:11Z</time>
    </trkpt>
    <trkpt lat="48.445093" lon="2.743102">
      <ele>97.7</ele>
      <time>2014-03-30T09:28:14Z</time>
    </trkpt>
    <trkpt lat="48.445222" lon="2.743081">
      <ele>97.7</ele>
      <time>2014-03-30T09:28:17Z</time>
    </trkpt>
    <trkpt lat="48.445319" lon="2.743061">
      <ele>97.7</ele>
      <time>2014-03-30T09:28:20Z</time>
    </trkpt>
    <trkpt lat="48.445415" lon="2.743083">
      <ele>97.7</ele>
      <time>2014-03-30T09:28:22Z</time>
    </trkpt>
    <trkpt lat="48.445479" lon="2.743229">
      <ele>97.9</ele>
      <time>2014-03-30T09:28:25Z</time>
    </trkpt>
    <trkpt lat="48.445517" lon="2.74341">
      <ele>98.1</ele>
      <time>2014-03-30T09:28:28Z</time>
    </trkpt>
    <trkpt lat="48.44561" lon="2.743542">
      <ele>98.4</ele>
      <time>2014-03-30T09:28:31Z</time>
    </trkpt>
    <trkpt lat="48.445702" lon="2.743665">
      <ele>98.7</ele>
      <time>2014-03-30T09:28:34Z</time>
    </trkpt>
    <trkpt lat="48.445783" lon="2.743788">
      <ele>99.1</ele>
      <time>2014-03-30T09:28:36Z</time>
    </trkpt>
    <trkpt lat="48.445856" lon="2.743933">
      <ele>99.5</ele>
      <time>2014-03-30T09:28:39Z</time>
    </trkpt>
    <trkpt lat="48.445953" lon="2.744008">
      <ele>99.7</ele>
      <time>2014-03-30T09:28:42Z</time>
    </trkpt>
    <trkpt lat="48.446045" lon="2.744055">
      <ele>99.9</ele>
      <time>2014-03-30T09:28:45Z</time>
    </trkpt>
    <trkpt lat="48.446134" lon="2.744077">
      <ele>99.9</ele>
      <time>2014-03-30T09:28:49Z</time>
    </trkpt>
    <trkpt lat="48.446229" lon="2.744023">
      <ele>100.0</ele>
      <time>2014-03-30T09:28:55Z</time>
    </trkpt>
    <trkpt lat="48.446341" lon="2.744015">
      <ele>100.1</ele>
      <time>2014-03-30T09:29:00Z</time>
    </trkpt>
    <trkpt lat="48.44644" lon="2.743976">
      <ele>100.2</ele>
      <time>2014-03-30T09:29:04Z</time>
    </trkpt>
    <trkpt lat="48.446621" lon="2.743932">
      <ele>100.5</ele>
      <time>2014-03-30T09:29:13Z</time>
    </trkpt>
    <trkpt lat="48.44673" lon="2.743849">
      <ele>100.8</ele>
      <time>2014-03-30T09:29:16Z</time>
    </trkpt>
    <trkpt lat="48.446823" lon="2.743773">
      <ele>100.9</ele>
      <time>2014-03-30T09:29:18Z</time>
    </trkpt>
    <trkpt lat="48.446973" lon="2.743663">
      <ele>101.2</ele>
      <time>2014-03-30T09:29:21Z</time>
    </trkpt>
    <trkpt lat="48.44707" lon="2.743577">
      <ele>101.4</ele>
      <time>2014-03-30T09:29:23Z</time>
    </trkpt>
    <trkpt lat="48.447171" lon="2.743504">
      <ele>101.6</ele>
      <time>2014-03-30T09:29:27Z</time>
    </trkpt>
    <trkpt lat="48.447271" lon="2.743437">
      <ele>101.8</ele>
      <time>2014-03-30T09:29:30Z</time>
    </trkpt>
    <trkpt lat="48.44739" lon="2.74336">
      <ele>101.9</ele>
      <time>2014-03-30T09:29:33Z</time>
    </trkpt>
    <trkpt lat="48.447495" lon="2.743303">
      <ele>102.0</ele>
      <time>2014-03-30T09:29:36Z</time>
    </trkpt>
    <trkpt lat="48.447594" lon="2.743262">
      <ele>101.9</ele>
      <time>2014-03-30T09:29:40Z</time>
    </trkpt>
    <trkpt lat="48.447708" lon="2.743203">
      <ele>101.8</ele>
      <time>2014-03-30T09:29:44Z</time>
    </trkpt>
    <trkpt lat="48.447807" lon="2.74313">
      <ele>101.8</ele>
      <time>2014-03-30T09:29:47Z</time>
    </trkpt>
    <trkpt lat="48.44783" lon="2.742992">
      <ele>101.9</ele>
      <time>2014-03-30T09:29:54Z</time>
    </trkpt>
    <trkpt lat="48.447793" lon="2.742845">
      <ele>102.1</ele>
      <time>2014-03-30T09:29:58Z</time>
    </trkpt>
    <trkpt lat="48.447696" lon="2.742704">
      <ele>102.1</ele>
      <time>2014-03-30T09:30:03Z</time>
    </trkpt>
    <trkpt lat="48.4476" lon="2.742605">
      <ele>102.1</ele>
      <time>2014-03-30T09:30:06Z</time>
    </trkpt>
    <trkpt lat="48.447443" lon="2.742375">
      <ele>101.7</ele>
      <time>2014-03-30T09:30:13Z</time>
    </trkpt>
    <trkpt lat="48.447368" lon="2.742257">
      <ele>101.3</ele>
      <time>2014-03-30T09:30:17Z</time>
    </trkpt>
    <trkpt lat="48.447283" lon="2.742128">
      <ele>100.8</ele>
      <time>2014-03-30T09:30:20Z</time>
    </trkpt>
    <trkpt lat="48.447211" lon="2.741969">
      <ele>100.2</ele>
      <time>2014-03-30T09:30:23Z</time>
    </trkpt>
    <trkpt lat="48.447142" lon="2.741856">
      <ele>99.7</ele>
      <time>2014-03-30T09:30:26Z</time>
    </trkpt>
    <trkpt lat="48.447079" lon="2.74172">
      <ele>99.1</ele>
      <time>2014-03-30T09:30:31Z</time>
    </trkpt>
    <trkpt lat="48.446974" lon="2.741674">
      <ele>98.5</ele>
      <time>2014-03-30T09:30:35Z</time>
    </trkpt>
    <trkpt lat="48.446861" lon="2.741609">
      <ele>98.0</ele>
      <time>2014-03-30T09:30:38Z</time>
    </trkpt>
    <trkpt lat="48.446756" lon="2.741591">
      <ele>97.6</ele>
      <time>2014-03-30T09:30:41Z</time>
    </trkpt>
    <trkpt lat="48.446672" lon="2.741536">
      <ele>97.3</ele>
      <time>2014-03-30T09:30:44Z</time>
    </trkpt>
    <trkpt lat="48.446584" lon="2.741466">
      <ele>97.4</ele>
      <time>2014-03-30T09:30:48Z</time>
    </trkpt>
    <trkpt lat="48.446472" lon="2.741357">
      <ele>97.5</ele>
      <time>2014-03-30T09:30:52Z</time>
    </trkpt>
    <trkpt lat="48.446401" lon="2.741257">
      <ele>97.7</ele>
      <time>2014-03-30T09:30:55Z</time>
    </trkpt>
    <trkpt lat="48.446351" lon="2.741139">
      <ele>97.9</ele>
      <time>2014-03-30T09:31:00Z</time>
    </trkpt>
    <trkpt lat="48.446274" lon="2.741065">
      <ele>98.0</ele>
      <time>2014-03-30T09:31:03Z</time>
    </trkpt>
    <trkpt lat="48.446167" lon="2.74098">
      <ele>98.0</ele>
      <time>2014-03-30T09:31:06Z</time>
    </trkpt>
    <trkpt lat="48.446077" lon="2.740877">
      <ele>98.2</ele>
      <time>2014-03-30T09:31:09Z</time>
    </trkpt>
    <trkpt lat="48.445894" lon="2.740665">
      <ele>98.2</ele>
      <time>2014-03-30T09:31:15Z</time>
    </trkpt>
    <trkpt lat="48.445823" lon="2.740577">
      <ele>98.3</ele>
      <time>2014-03-30T09:31:18Z</time>
    </trkpt>
    <trkpt lat="48.445738" lon="2.740471">
      <ele>98.2</ele>
      <time>2014-03-30T09:31:21Z</time>
    </trkpt>
    <trkpt lat="48.44563" lon="2.740376">
      <ele>98.1</ele>
      <time>2014-03-30T09:31:24Z</time>
    </trkpt>
    <trkpt lat="48.445552" lon="2.740283">
      <ele>98.0</ele>
      <time>2014-03-30T09:31:27Z</time>
    </trkpt>
    <trkpt lat="48.44546" lon="2.740179">
      <ele>97.9</ele>
      <time>2014-03-30T09:31:30Z</time>
    </trkpt>
    <trkpt lat="48.445342" lon="2.740032">
      <ele>97.8</ele>
      <time>2014-03-30T09:31:33Z</time>
    </trkpt>
    <trkpt lat="48.445263" lon="2.739948">
      <ele>97.6</ele>
      <time>2014-03-30T09:31:35Z</time>
    </trkpt>
    <trkpt lat="48.445165" lon="2.739861">
      <ele>97.4</ele>
      <time>2014-03-30T09:31:38Z</time>
    </trkpt>
    <trkpt lat="48.44506" lon="2.739779">
      <ele>97.1</ele>
      <time>2014-03-30T09:31:41Z</time>
    </trkpt>
    <trkpt lat="48.444959" lon="2.739675">
      <ele>97.0</ele>
      <time>2014-03-30T09:31:44Z</time>
    </trkpt>
    <trkpt lat="48.444886" lon="2.739584">
      <ele>97.1</ele>
      <time>2014-03-30T09:31:47Z</time>
    </trkpt>
    <trkpt lat="48.4448" lon="2.739488">
      <ele>97.1</ele>
      <time>2014-03-30T09:31:50Z</time>
    </trkpt>
    <trkpt lat="48.444704" lon="2.739371">
      <ele>97.3</ele>
      <time>2014-03-30T09:31:53Z</time>
    </trkpt>
    <trkpt lat="48.444636" lon="2.739245">
      <ele>97.4</ele>
      <time>2014-03-30T09:31:56Z</time>
    </trkpt>
    <trkpt lat="48.444565" lon="2.739145">
      <ele>97.5</ele>
      <time>2014-03-30T09:31:59Z</time>
    </trkpt>
    <trkpt lat="48.444544" lon="2.738986">
      <ele>97.5</ele>
      <time>2014-03-30T09:32:03Z</time>
    </trkpt>
    <trkpt lat="48.444578" lon="2.738861">
      <ele>97.5</ele>
      <time>2014-03-30T09:32:07Z</time>
    </trkpt>
    <trkpt lat="48.444634" lon="2.738741">
      <ele>97.4</ele>
      <time>2014-03-30T09:32:09Z</time>
    </trkpt>
    <trkpt lat="48.444692" lon="2.738638">
      <ele>97.4</ele>
      <time>2014-03-30T09:32:12Z</time>
    </trkpt>
    <trkpt lat="48.444852" lon="2.738388">
      <ele>97.2</ele>
      <time>2014-03-30T09:32:19Z</time>
    </trkpt>
    <trkpt lat="48.444777" lon="2.738483">
      <ele>97.3</ele>
      <time>2014-03-30T09:32:44Z</time>
    </trkpt>
    <trkpt lat="48.444714" lon="2.738587">
      <ele>97.3</ele>
      <time>2014-03-30T09:32:51Z</time>
    </trkpt>
    <trkpt lat="48.444664" lon="2.738703">
      <ele>97.4</ele>
      <time>2014-03-30T09:32:55Z</time>
    </trkpt>
    <trkpt lat="48.444627" lon="2.73883">
      <ele>97.4</ele>
      <time>2014-03-30T09:32:59Z</time>
    </trkpt>
    <trkpt lat="48.444528" lon="2.738915">
      <ele>97.6</ele>
      <time>2014-03-30T09:33:03Z</time>
    </trkpt>
    <trkpt lat="48.444419" lon="2.738914">
      <ele>97.7</ele>
      <time>2014-03-30T09:33:06Z</time>
    </trkpt>
    <trkpt lat="48.444324" lon="2.738834">
      <ele>97.8</ele>
      <time>2014-03-30T09:33:10Z</time>
    </trkpt>
    <trkpt lat="48.444222" lon="2.738782">
      <ele>97.9</ele>
      <time>2014-03-30T09:33:13Z</time>
    </trkpt>
    <trkpt lat="48.444224" lon="2.73881">
      <ele>97.9</ele>
      <time>2014-03-30T09:33:31Z</time>
    </trkpt>
    <trkpt lat="48.444289" lon="2.73893">
      <ele>97.9</ele>
      <time>2014-03-30T09:33:36Z</time>
    </trkpt>
    <trkpt lat="48.444384" lon="2.739022">
      <ele>97.7</ele>
      <time>2014-03-30T09:33:42Z</time>
    </trkpt>
    <trkpt lat="48.444482" lon="2.738993">
      <ele>97.6</ele>
      <time>2014-03-30T09:33:47Z</time>
    </trkpt>
    <trkpt lat="48.444542" lon="2.738883">
      <ele>97.5</ele>
      <time>2014-03-30T09:33:50Z</time>
    </trkpt>
    <trkpt lat="48.444594" lon="2.738765">
      <ele>97.5</ele>
      <time>2014-03-30T09:33:55Z</time>
    </trkpt>
    <trkpt lat="48.444635" lon="2.738633">
      <ele>97.4</ele>
      <time>2014-03-30T09:34:00Z</time>
    </trkpt>
    <trkpt lat="48.444663" lon="2.73849">
      <ele>97.4</ele>
      <time>2014-03-30T09:34:07Z</time>
    </trkpt>
    <trkpt lat="48.444724" lon="2.73839">
      <ele>97.3</ele>
      <time>2014-03-30T09:34:12Z</time>
    </trkpt>
    <trkpt lat="48.444706" lon="2.738199">
      <ele>97.4</ele>
      <time>2014-03-30T09:34:15Z</time>
    </trkpt>
    <trkpt lat="48.444793" lon="2.737863">
      <ele>97.5</ele>
      <time>2014-03-30T09:34:22Z</time>
    </trkpt>
    <trkpt lat="48.444841" lon="2.737703">
      <ele>97.7</ele>
      <time>2014-03-30T09:34:26Z</time>
    </trkpt>
    <trkpt lat="48.444841" lon="2.737554">
      <ele>97.8</ele>
      <time>2014-03-30T09:34:30Z</time>
    </trkpt>
    <trkpt lat="48.444854" lon="2.737406">
      <ele>97.8</ele>
      <time>2014-03-30T09:34:35Z</time>
    </trkpt>
    <trkpt lat="48.444884" lon="2.737259">
      <ele>97.8</ele>
      <time>2014-03-30T09:34:40Z</time>
    </trkpt>
    <trkpt lat="48.444911" lon="2.7371">
      <ele>97.8</ele>
      <time>2014-03-30T09:34:44Z</time>
    </trkpt>
    <trkpt lat="48.444918" lon="2.736935">
      <ele>97.8</ele>
      <time>2014-03-30T09:34:48Z</time>
    </trkpt>
    <trkpt lat="48.444947" lon="2.736803">
      <ele>97.9</ele>
      <time>2014-03-30T09:34:52Z</time>
    </trkpt>
    <trkpt lat="48.444987" lon="2.736669">
      <ele>98.0</ele>
      <time>2014-03-30T09:34:55Z</time>
    </trkpt>
    <trkpt lat="48.445044" lon="2.736536">
      <ele>98.1</ele>
      <time>2014-03-30T09:34:58Z</time>
    </trkpt>
    <trkpt lat="48.445096" lon="2.73641">
      <ele>98.2</ele>
      <time>2014-03-30T09:35:02Z</time>
    </trkpt>
    <trkpt lat="48.445084" lon="2.736271">
      <ele>98.2</ele>
      <time>2014-03-30T09:36:52Z</time>
    </trkpt>
    <trkpt lat="48.445154" lon="2.735994">
      <ele>98.4</ele>
      <time>2014-03-30T09:37:01Z</time>
    </trkpt>
    <trkpt lat="48.445171" lon="2.735835">
      <ele>98.4</ele>
      <time>2014-03-30T09:37:05Z</time>
    </trkpt>
    <trkpt lat="48.445198" lon="2.735679">
      <ele>98.7</ele>
      <time>2014-03-30T09:37:09Z</time>
    </trkpt>
    <trkpt lat="48.445204" lon="2.735506">
      <ele>98.9</ele>
      <time>2014-03-30T09:37:13Z</time>
    </trkpt>
    <trkpt lat="48.445234" lon="2.735371">
      <ele>99.1</ele>
      <time>2014-03-30T09:37:17Z</time>
    </trkpt>
    <trkpt lat="48.445293" lon="2.735219">
      <ele>99.4</ele>
      <time>2014-03-30T09:37:21Z</time>
    </trkpt>
    <trkpt lat="48.445328" lon="2.735057">
      <ele>99.7</ele>
      <time>2014-03-30T09:37:25Z</time>
    </trkpt>
    <trkpt lat="48.445347" lon="2.734922">
      <ele>99.8</ele>
      <time>2014-03-30T09:37:28Z</time>
    </trkpt>
    <trkpt lat="48.445371" lon="2.734769">
      <ele>99.9</ele>
      <time>2014-03-30T09:37:31Z</time>
    </trkpt>
    <trkpt lat="48.445419" lon="2.734632">
      <ele>100.0</ele>
      <time>2014-03-30T09:37:35Z</time>
    </trkpt>
    <trkpt lat="48.445514" lon="2.73463">
      <ele>100.2</ele>
      <time>2014-03-30T09:37:47Z</time>
    </trkpt>
    <trkpt lat="48.445604" lon="2.734653">
      <ele>100.4</ele>
      <time>2014-03-30T09:38:03Z</time>
    </trkpt>
    <trkpt lat="48.445796" lon="2.734592">
      <ele>100.9</ele>
      <time>2014-03-30T09:38:13Z</time>
    </trkpt>
    <trkpt lat="48.445903" lon="2.734583">
      <ele>100.9</ele>
      <time>2014-03-30T09:38:17Z</time>
    </trkpt>
    <trkpt lat="48.44599" lon="2.734655">
      <ele>100.8</ele>
      <time>2014-03-30T09:38:20Z</time>
    </trkpt>
    <trkpt lat="48.446073" lon="2.734733">
      <ele>100.7</ele>
      <time>2014-03-30T09:38:23Z</time>
    </trkpt>
    <trkpt lat="48.446147" lon="2.734827">
      <ele>100.6</ele>
      <time>2014-03-30T09:38:26Z</time>
    </trkpt>
    <trkpt lat="48.446233" lon="2.734939">
      <ele>100.5</ele>
      <time>2014-03-30T09:38:30Z</time>
    </trkpt>
    <trkpt lat="48.446333" lon="2.734918">
      <ele>100.4</ele>
      <time>2014-03-30T09:38:33Z</time>
    </trkpt>
    <trkpt lat="48.446406" lon="2.734813">
      <ele>100.3</ele>
      <time>2014-03-30T09:38:36Z</time>
    </trkpt>
    <trkpt lat="48.446499" lon="2.734698">
      <ele>100.2</ele>
      <time>2014-03-30T09:38:40Z</time>
    </trkpt>
    <trkpt lat="48.446571" lon="2.734615">
      <ele>100.1</ele>
      <time>2014-03-30T09:38:43Z</time>
    </trkpt>
    <trkpt lat="48.446631" lon="2.734483">
      <ele>100.0</ele>
      <time>2014-03-30T09:38:46Z</time>
    </trkpt>
    <trkpt lat="48.446715" lon="2.734329">
      <ele>99.9</ele>
      <time>2014-03-30T09:38:49Z</time>
    </trkpt>
    <trkpt lat="48.44678" lon="2.734213">
      <ele>99.9</ele>
      <time>2014-03-30T09:38:52Z</time>
    </trkpt>
    <trkpt lat="48.446918" lon="2.734174">
      <ele>99.7</ele>
      <time>2014-03-30T09:38:57Z</time>
    </trkpt>
    <trkpt lat="48.447019" lon="2.734134">
      <ele>99.6</ele>
      <time>2014-03-30T09:39:01Z</time>
    </trkpt>
    <trkpt lat="48.44712" lon="2.734036">
      <ele>99.5</ele>
      <time>2014-03-30T09:39:04Z</time>
    </trkpt>
    <trkpt lat="48.447257" lon="2.733796">
      <ele>99.3</ele>
      <time>2014-03-30T09:39:39Z</time>
    </trkpt>
    <trkpt lat="48.447305" lon="2.733664">
      <ele>99.2</ele>
      <time>2014-03-30T09:39:42Z</time>
    </trkpt>
    <trkpt lat="48.447323" lon="2.733464">
      <ele>99.2</ele>
      <time>2014-03-30T09:39:45Z</time>
    </trkpt>
    <trkpt lat="48.447368" lon="2.733324">
      <ele>99.2</ele>
      <time>2014-03-30T09:39:48Z</time>
    </trkpt>
    <trkpt lat="48.447442" lon="2.733242">
      <ele>99.2</ele>
      <time>2014-03-30T09:39:50Z</time>
    </trkpt>
    <trkpt lat="48.447531" lon="2.733124">
      <ele>99.3</ele>
      <time>2014-03-30T09:39:53Z</time>
    </trkpt>
    <trkpt lat="48.447615" lon="2.733026">
      <ele>99.4</ele>
      <time>2014-03-30T09:39:56Z</time>
    </trkpt>
    <trkpt lat="48.447688" lon="2.732903">
      <ele>99.5</ele>
      <time>2014-03-30T09:39:59Z</time>
    </trkpt>
    <trkpt lat="48.447832" lon="2.73275">
      <ele>99.7</ele>
      <time>2014-03-30T09:40:03Z</time>
    </trkpt>
    <trkpt lat="48.447891" lon="2.732641">
      <ele>99.8</ele>
      <time>2014-03-30T09:40:06Z</time>
    </trkpt>
    <trkpt lat="48.447962" lon="2.732351">
      <ele>100.2</ele>
      <time>2014-03-30T09:40:15Z</time>
    </trkpt>
    <trkpt lat="48.448035" lon="2.732243">
      <ele>100.3</ele>
      <time>2014-03-30T09:40:18Z</time>
    </trkpt>
    <trkpt lat="48.448094" lon="2.732108">
      <ele>100.5</ele>
      <time>2014-03-30T09:40:22Z</time>
    </trkpt>
    <trkpt lat="48.448147" lon="2.731962">
      <ele>100.6</ele>
      <time>2014-03-30T09:40:27Z</time>
    </trkpt>
    <trkpt lat="48.448183" lon="2.73182">
      <ele>100.8</ele>
      <time>2014-03-30T09:40:30Z</time>
    </trkpt>
    <trkpt lat="48.448213" lon="2.731672">
      <ele>101.0</ele>
      <time>2014-03-30T09:40:33Z</time>
    </trkpt>
    <trkpt lat="48.448167" lon="2.731546">
      <ele>101.1</ele>
      <time>2014-03-30T09:40:44Z</time>
    </trkpt>
    <trkpt lat="48.448201" lon="2.731766">
      <ele>100.9</ele>
      <time>2014-03-30T09:41:04Z</time>
    </trkpt>
    <trkpt lat="48.448262" lon="2.731898">
      <ele>100.7</ele>
      <time>2014-03-30T09:41:10Z</time>
    </trkpt>
    <trkpt lat="48.44841" lon="2.731923">
      <ele>100.6</ele>
      <time>2014-03-30T09:41:21Z</time>
    </trkpt>
    <trkpt lat="48.448479" lon="2.731824">
      <ele>100.5</ele>
      <time>2014-03-30T09:41:26Z</time>
    </trkpt>
    <trkpt lat="48.448529" lon="2.731708">
      <ele>100.5</ele>
      <time>2014-03-30T09:41:31Z</time>
    </trkpt>
    <trkpt lat="48.448596" lon="2.731599">
      <ele>100.4</ele>
      <time>2014-03-30T09:41:35Z</time>
    </trkpt>
    <trkpt lat="48.448652" lon="2.731489">
      <ele>100.4</ele>
      <time>2014-03-30T09:41:38Z</time>
    </trkpt>
    <trkpt lat="48.448708" lon="2.731377">
      <ele>100.3</ele>
      <time>2014-03-30T09:41:41Z</time>
    </trkpt>
    <trkpt lat="48.448782" lon="2.731248">
      <ele>100.2</ele>
      <time>2014-03-30T09:41:45Z</time>
    </trkpt>
    <trkpt lat="48.448835" lon="2.731138">
      <ele>100.0</ele>
      <time>2014-03-30T09:41:48Z</time>
    </trkpt>
    <trkpt lat="48.448901" lon="2.731002">
      <ele>99.9</ele>
      <time>2014-03-30T09:41:51Z</time>
    </trkpt>
    <trkpt lat="48.449017" lon="2.730796">
      <ele>99.5</ele>
      <time>2014-03-30T09:41:55Z</time>
    </trkpt>
    <trkpt lat="48.449081" lon="2.730689">
      <ele>99.3</ele>
      <time>2014-03-30T09:41:57Z</time>
    </trkpt>
    <trkpt lat="48.44914" lon="2.730566">
      <ele>99.1</ele>
      <time>2014-03-30T09:42:00Z</time>
    </trkpt>
    <trkpt lat="48.449058" lon="2.730489">
      <ele>99.3</ele>
      <time>2014-03-30T09:42:04Z</time>
    </trkpt>
    <trkpt lat="48.44898" lon="2.730399">
      <ele>99.4</ele>
      <time>2014-03-30T09:42:07Z</time>
    </trkpt>
    <trkpt lat="48.448893" lon="2.730288">
      <ele>99.6</ele>
      <time>2014-03-30T09:42:10Z</time>
    </trkpt>
    <trkpt lat="48.448711" lon="2.730209">
      <ele>99.8</ele>
      <time>2014-03-30T09:42:15Z</time>
    </trkpt>
    <trkpt lat="48.448594" lon="2.730176">
      <ele>100.0</ele>
      <time>2014-03-30T09:42:18Z</time>
    </trkpt>
    <trkpt lat="48.448484" lon="2.730173">
      <ele>100.2</ele>
      <time>2014-03-30T09:42:21Z</time>
    </trkpt>
    <trkpt lat="48.448367" lon="2.730185">
      <ele>100.4</ele>
      <time>2014-03-30T09:42:24Z</time>
    </trkpt>
    <trkpt lat="48.448246" lon="2.730216">
      <ele>100.0</ele>
      <time>2014-03-30T09:42:27Z</time>
    </trkpt>
    <trkpt lat="48.448117" lon="2.730226">
      <ele>99.4</ele>
      <time>2014-03-30T09:42:30Z</time>
    </trkpt>
    <trkpt lat="48.447999" lon="2.73027">
      <ele>98.9</ele>
      <time>2014-03-30T09:42:33Z</time>
    </trkpt>
    <trkpt lat="48.447906" lon="2.730233">
      <ele>98.3</ele>
      <time>2014-03-30T09:42:36Z</time>
    </trkpt>
    <trkpt lat="48.447873" lon="2.730084">
      <ele>97.6</ele>
      <time>2014-03-30T09:42:39Z</time>
    </trkpt>
    <trkpt lat="48.447843" lon="2.729932">
      <ele>96.8</ele>
      <time>2014-03-30T09:42:42Z</time>
    </trkpt>
    <trkpt lat="48.44783" lon="2.729767">
      <ele>96.0</ele>
      <time>2014-03-30T09:42:45Z</time>
    </trkpt>
    <trkpt lat="48.447893" lon="2.729658">
      <ele>95.8</ele>
      <time>2014-03-30T09:42:48Z</time>
    </trkpt>
    <trkpt lat="48.447987" lon="2.729564">
      <ele>95.7</ele>
      <time>2014-03-30T09:42:51Z</time>
    </trkpt>
    <trkpt lat="48.448054" lon="2.72947">
      <ele>95.4</ele>
      <time>2014-03-30T09:42:54Z</time>
    </trkpt>
    <trkpt lat="48.44812" lon="2.729366">
      <ele>94.9</ele>
      <time>2014-03-30T09:42:56Z</time>
    </trkpt>
    <trkpt lat="48.448217" lon="2.729244">
      <ele>94.4</ele>
      <time>2014-03-30T09:42:59Z</time>
    </trkpt>
    <trkpt lat="48.44836" lon="2.729086">
      <ele>93.8</ele>
      <time>2014-03-30T09:43:03Z</time>
    </trkpt>
    <trkpt lat="48.448479" lon="2.728916">
      <ele>93.7</ele>
      <time>2014-03-30T09:43:07Z</time>
    </trkpt>
    <trkpt lat="48.448587" lon="2.728816">
      <ele>93.8</ele>
      <time>2014-03-30T09:43:10Z</time>
    </trkpt>
    <trkpt lat="48.448683" lon="2.72867">
      <ele>93.6</ele>
      <time>2014-03-30T09:43:13Z</time>
    </trkpt>
    <trkpt lat="48.448784" lon="2.728362">
      <ele>92.7</ele>
      <time>2014-03-30T09:43:19Z</time>
    </trkpt>
    <trkpt lat="48.448725" lon="2.728256">
      <ele>92.6</ele>
      <time>2014-03-30T09:43:22Z</time>
    </trkpt>
    <trkpt lat="48.448602" lon="2.728154">
      <ele>92.6</ele>
      <time>2014-03-30T09:43:26Z</time>
    </trkpt>
    <trkpt lat="48.448659" lon="2.728025">
      <ele>93.1</ele>
      <time>2014-03-30T09:43:30Z</time>
    </trkpt>
    <trkpt lat="48.448735" lon="2.72791">
      <ele>93.5</ele>
      <time>2014-03-30T09:43:33Z</time>
    </trkpt>
    <trkpt lat="48.448818" lon="2.727812">
      <ele>93.8</ele>
      <time>2014-03-30T09:43:36Z</time>
    </trkpt>
    <trkpt lat="48.448886" lon="2.727683">
      <ele>94.0</ele>
      <time>2014-03-30T09:43:40Z</time>
    </trkpt>
    <trkpt lat="48.448842" lon="2.727523">
      <ele>94.3</ele>
      <time>2014-03-30T09:43:45Z</time>
    </trkpt>
    <trkpt lat="48.448795" lon="2.727377">
      <ele>95.1</ele>
      <time>2014-03-30T09:43:48Z</time>
    </trkpt>
    <trkpt lat="48.448762" lon="2.727204">
      <ele>95.9</ele>
      <time>2014-03-30T09:43:51Z</time>
    </trkpt>
    <trkpt lat="48.448726" lon="2.727064">
      <ele>96.6</ele>
      <time>2014-03-30T09:43:54Z</time>
    </trkpt>
    <trkpt lat="48.448706" lon="2.726831">
      <ele>97.7</ele>
      <time>2014-03-30T09:43:58Z</time>
    </trkpt>
    <trkpt lat="48.448691" lon="2.726656">
      <ele>98.5</ele>
      <time>2014-03-30T09:44:01Z</time>
    </trkpt>
    <trkpt lat="48.448664" lon="2.726443">
      <ele>98.9</ele>
      <time>2014-03-30T09:44:05Z</time>
    </trkpt>
    <trkpt lat="48.448679" lon="2.726304">
      <ele>99.3</ele>
      <time>2014-03-30T09:44:08Z</time>
    </trkpt>
    <trkpt lat="48.448692" lon="2.726159">
      <ele>99.6</ele>
      <time>2014-03-30T09:44:11Z</time>
    </trkpt>
    <trkpt lat="48.448724" lon="2.726018">
      <ele>100.0</ele>
      <time>2014-03-30T09:44:14Z</time>
    </trkpt>
    <trkpt lat="48.448786" lon="2.725638">
      <ele>100.5</ele>
      <time>2014-03-30T09:44:20Z</time>
    </trkpt>
    <trkpt lat="48.448817" lon="2.725483">
      <ele>100.5</ele>
      <time>2014-03-30T09:44:23Z</time>
    </trkpt>
    <trkpt lat="48.448809" lon="2.725335">
      <ele>100.5</ele>
      <time>2014-03-30T09:44:26Z</time>
    </trkpt>
    <trkpt lat="48.448753" lon="2.725111">
      <ele>100.5</ele>
      <time>2014-03-30T09:44:30Z</time>
    </trkpt>
    <trkpt lat="48.448691" lon="2.72497">
      <ele>100.5</ele>
      <time>2014-03-30T09:44:33Z</time>
    </trkpt>
    <trkpt lat="48.44864" lon="2.724798">
      <ele>100.4</ele>
      <time>2014-03-30T09:44:36Z</time>
    </trkpt>
    <trkpt lat="48.44861" lon="2.724622">
      <ele>100.2</ele>
      <time>2014-03-30T09:44:39Z</time>
    </trkpt>
    <trkpt lat="48.448597" lon="2.724446">
      <ele>100.0</ele>
      <time>2014-03-30T09:44:42Z</time>
    </trkpt>
    <trkpt lat="48.448605" lon="2.724245">
      <ele>99.8</ele>
      <time>2014-03-30T09:44:45Z</time>
    </trkpt>
    <trkpt lat="48.448614" lon="2.724075">
      <ele>99.5</ele>
      <time>2014-03-30T09:44:48Z</time>
    </trkpt>
    <trkpt lat="48.448571" lon="2.723905">
      <ele>99.3</ele>
      <time>2014-03-30T09:44:51Z</time>
    </trkpt>
    <trkpt lat="48.448516" lon="2.723736">
      <ele>99.0</ele>
      <time>2014-03-30T09:44:54Z</time>
    </trkpt>
    <trkpt lat="48.448449" lon="2.723583">
      <ele>98.7</ele>
      <time>2014-03-30T09:44:57Z</time>
    </trkpt>
    <trkpt lat="48.448385" lon="2.723399">
      <ele>98.2</ele>
      <time>2014-03-30T09:45:00Z</time>
    </trkpt>
    <trkpt lat="48.448346" lon="2.723224">
      <ele>98.0</ele>
      <time>2014-03-30T09:45:03Z</time>
    </trkpt>
    <trkpt lat="48.448287" lon="2.723061">
      <ele>98.0</ele>
      <time>2014-03-30T09:45:06Z</time>
    </trkpt>
    <trkpt lat="48.448218" lon="2.722911">
      <ele>98.0</ele>
      <time>2014-03-30T09:45:09Z</time>
    </trkpt>
    <trkpt lat="48.448149" lon="2.722724">
      <ele>98.0</ele>
      <time>2014-03-30T09:45:12Z</time>
    </trkpt>
    <trkpt lat="48.448107" lon="2.722597">
      <ele>98.0</ele>
      <time>2014-03-30T09:45:14Z</time>
    </trkpt>
    <trkpt lat="48.448046" lon="2.722195">
      <ele>98.6</ele>
      <time>2014-03-30T09:45:20Z</time>
    </trkpt>
    <trkpt lat="48.448031" lon="2.722022">
      <ele>98.9</ele>
      <time>2014-03-30T09:45:23Z</time>
    </trkpt>
    <trkpt lat="48.448002" lon="2.721893">
      <ele>99.2</ele>
      <time>2014-03-30T09:45:25Z</time>
    </trkpt>
    <trkpt lat="48.4479" lon="2.721849">
      <ele>99.2</ele>
      <time>2014-03-30T09:45:28Z</time>
    </trkpt>
    <trkpt lat="48.447786" lon="2.721787">
      <ele>99.1</ele>
      <time>2014-03-30T09:45:31Z</time>
    </trkpt>
    <trkpt lat="48.447673" lon="2.721697">
      <ele>99.2</ele>
      <time>2014-03-30T09:45:34Z</time>
    </trkpt>
    <trkpt lat="48.447569" lon="2.721626">
      <ele>99.1</ele>
      <time>2014-03-30T09:45:37Z</time>
    </trkpt>
    <trkpt lat="48.447463" lon="2.72153">
      <ele>99.1</ele>
      <time>2014-03-30T09:45:40Z</time>
    </trkpt>
    <trkpt lat="48.447342" lon="2.721519">
      <ele>99.0</ele>
      <time>2014-03-30T09:45:42Z</time>
    </trkpt>
    <trkpt lat="48.447221" lon="2.721377">
      <ele>99.1</ele>
      <time>2014-03-30T09:45:46Z</time>
    </trkpt>
    <trkpt lat="48.447127" lon="2.721251">
      <ele>99.3</ele>
      <time>2014-03-30T09:45:50Z</time>
    </trkpt>
    <trkpt lat="48.447078" lon="2.721104">
      <ele>99.5</ele>
      <time>2014-03-30T09:45:53Z</time>
    </trkpt>
    <trkpt lat="48.44704" lon="2.72094">
      <ele>99.8</ele>
      <time>2014-03-30T09:45:56Z</time>
    </trkpt>
    <trkpt lat="48.447083" lon="2.720726">
      <ele>100.1</ele>
      <time>2014-03-30T09:46:02Z</time>
    </trkpt>
    <trkpt lat="48.447068" lon="2.720556">
      <ele>100.2</ele>
      <time>2014-03-30T09:46:05Z</time>
    </trkpt>
    <trkpt lat="48.447122" lon="2.720339">
      <ele>100.3</ele>
      <time>2014-03-30T09:46:09Z</time>
    </trkpt>
    <trkpt lat="48.447146" lon="2.720206">
      <ele>100.4</ele>
      <time>2014-03-30T09:46:11Z</time>
    </trkpt>
    <trkpt lat="48.447128" lon="2.719977">
      <ele>100.6</ele>
      <time>2014-03-30T09:46:16Z</time>
    </trkpt>
    <trkpt lat="48.447132" lon="2.719607">
      <ele>100.8</ele>
      <time>2014-03-30T09:46:22Z</time>
    </trkpt>
    <trkpt lat="48.447087" lon="2.71947">
      <ele>100.8</ele>
      <time>2014-03-30T09:46:24Z</time>
    </trkpt>
    <trkpt lat="48.447044" lon="2.719346">
      <ele>100.9</ele>
      <time>2014-03-30T09:46:26Z</time>
    </trkpt>
    <trkpt lat="48.446978" lon="2.719234">
      <ele>100.9</ele>
      <time>2014-03-30T09:46:28Z</time>
    </trkpt>
    <trkpt lat="48.446981" lon="2.719034">
      <ele>101.0</ele>
      <time>2014-03-30T09:46:31Z</time>
    </trkpt>
    <trkpt lat="48.447006" lon="2.71888">
      <ele>101.1</ele>
      <time>2014-03-30T09:46:34Z</time>
    </trkpt>
    <trkpt lat="48.447122" lon="2.718891">
      <ele>101.0</ele>
      <time>2014-03-30T09:46:38Z</time>
    </trkpt>
    <trkpt lat="48.447194" lon="2.71905">
      <ele>101.0</ele>
      <time>2014-03-30T09:46:41Z</time>
    </trkpt>
    <trkpt lat="48.447307" lon="2.719144">
      <ele>101.0</ele>
      <time>2014-03-30T09:46:44Z</time>
    </trkpt>
    <trkpt lat="48.447387" lon="2.719226">
      <ele>101.0</ele>
      <time>2014-03-30T09:46:48Z</time>
    </trkpt>
    <trkpt lat="48.447493" lon="2.719272">
      <ele>101.0</ele>
      <time>2014-03-30T09:46:54Z</time>
    </trkpt>
    <trkpt lat="48.44759" lon="2.71929">
      <ele>100.7</ele>
      <time>2014-03-30T09:46:58Z</time>
    </trkpt>
    <trkpt lat="48.44768" lon="2.719262">
      <ele>100.3</ele>
      <time>2014-03-30T09:47:00Z</time>
    </trkpt>
    <trkpt lat="48.447789" lon="2.719145">
      <ele>100.0</ele>
      <time>2014-03-30T09:47:03Z</time>
    </trkpt>
    <trkpt lat="48.447825" lon="2.719">
      <ele>99.8</ele>
      <time>2014-03-30T09:47:05Z</time>
    </trkpt>
    <trkpt lat="48.447844" lon="2.718857">
      <ele>99.7</ele>
      <time>2014-03-30T09:47:08Z</time>
    </trkpt>
    <trkpt lat="48.447872" lon="2.718713">
      <ele>99.6</ele>
      <time>2014-03-30T09:47:11Z</time>
    </trkpt>
    <trkpt lat="48.447862" lon="2.718542">
      <ele>99.6</ele>
      <time>2014-03-30T09:47:14Z</time>
    </trkpt>
    <trkpt lat="48.447811" lon="2.718411">
      <ele>99.7</ele>
      <time>2014-03-30T09:47:17Z</time>
    </trkpt>
    <trkpt lat="48.447679" lon="2.718221">
      <ele>99.7</ele>
      <time>2014-03-30T09:47:24Z</time>
    </trkpt>
    <trkpt lat="48.447595" lon="2.718164">
      <ele>99.7</ele>
      <time>2014-03-30T09:47:27Z</time>
    </trkpt>
    <trkpt lat="48.447545" lon="2.718002">
      <ele>99.5</ele>
      <time>2014-03-30T09:47:31Z</time>
    </trkpt>
    <trkpt lat="48.447558" lon="2.71782">
      <ele>99.3</ele>
      <time>2014-03-30T09:47:34Z</time>
    </trkpt>
    <trkpt lat="48.447563" lon="2.717672">
      <ele>99.1</ele>
      <time>2014-03-30T09:47:37Z</time>
    </trkpt>
    <trkpt lat="48.447578" lon="2.717523">
      <ele>98.9</ele>
      <time>2014-03-30T09:47:41Z</time>
    </trkpt>
    <trkpt lat="48.447607" lon="2.717361">
      <ele>98.7</ele>
      <time>2014-03-30T09:47:46Z</time>
    </trkpt>
    <trkpt lat="48.447579" lon="2.717201">
      <ele>98.6</ele>
      <time>2014-03-30T09:47:50Z</time>
    </trkpt>
    <trkpt lat="48.447561" lon="2.717046">
      <ele>98.4</ele>
      <time>2014-03-30T09:47:53Z</time>
    </trkpt>
    <trkpt lat="48.447546" lon="2.716907">
      <ele>98.3</ele>
      <time>2014-03-30T09:47:55Z</time>
    </trkpt>
    <trkpt lat="48.447552" lon="2.716734">
      <ele>98.1</ele>
      <time>2014-03-30T09:47:58Z</time>
    </trkpt>
    <trkpt lat="48.447594" lon="2.71653">
      <ele>98.0</ele>
      <time>2014-03-30T09:48:02Z</time>
    </trkpt>
    <trkpt lat="48.44767" lon="2.716432">
      <ele>98.1</ele>
      <time>2014-03-30T09:48:05Z</time>
    </trkpt>
    <trkpt lat="48.447752" lon="2.71629">
      <ele>98.1</ele>
      <time>2014-03-30T09:48:09Z</time>
    </trkpt>
    <trkpt lat="48.447829" lon="2.716152">
      <ele>98.2</ele>
      <time>2014-03-30T09:48:12Z</time>
    </trkpt>
    <trkpt lat="48.447895" lon="2.716024">
      <ele>98.4</ele>
      <time>2014-03-30T09:48:16Z</time>
    </trkpt>
    <trkpt lat="48.447972" lon="2.715828">
      <ele>98.6</ele>
      <time>2014-03-30T09:48:19Z</time>
    </trkpt>
    <trkpt lat="48.448079" lon="2.715421">
      <ele>98.8</ele>
      <time>2014-03-30T09:48:25Z</time>
    </trkpt>
    <trkpt lat="48.448118" lon="2.715253">
      <ele>98.9</ele>
      <time>2014-03-30T09:48:28Z</time>
    </trkpt>
    <trkpt lat="48.448156" lon="2.715067">
      <ele>99.0</ele>
      <time>2014-03-30T09:48:31Z</time>
    </trkpt>
    <trkpt lat="48.44821" lon="2.714901">
      <ele>99.0</ele>
      <time>2014-03-30T09:48:34Z</time>
    </trkpt>
    <trkpt lat="48.448251" lon="2.714726">
      <ele>98.9</ele>
      <time>2014-03-30T09:48:37Z</time>
    </trkpt>
    <trkpt lat="48.448284" lon="2.71454">
      <ele>98.9</ele>
      <time>2014-03-30T09:48:40Z</time>
    </trkpt>
    <trkpt lat="48.448326" lon="2.714394">
      <ele>99.0</ele>
      <time>2014-03-30T09:48:43Z</time>
    </trkpt>
    <trkpt lat="48.448361" lon="2.714208">
      <ele>99.0</ele>
      <time>2014-03-30T09:48:46Z</time>
    </trkpt>
    <trkpt lat="48.448401" lon="2.714028">
      <ele>98.6</ele>
      <time>2014-03-30T09:48:50Z</time>
    </trkpt>
    <trkpt lat="48.448452" lon="2.713845">
      <ele>98.1</ele>
      <time>2014-03-30T09:48:52Z</time>
    </trkpt>
    <trkpt lat="48.448507" lon="2.713649">
      <ele>97.7</ele>
      <time>2014-03-30T09:48:55Z</time>
    </trkpt>
    <trkpt lat="48.448573" lon="2.713457">
      <ele>97.3</ele>
      <time>2014-03-30T09:48:58Z</time>
    </trkpt>
    <trkpt lat="48.448571" lon="2.713242">
      <ele>96.9</ele>
      <time>2014-03-30T09:49:01Z</time>
    </trkpt>
    <trkpt lat="48.448607" lon="2.713082">
      <ele>96.8</ele>
      <time>2014-03-30T09:49:04Z</time>
    </trkpt>
    <trkpt lat="48.448674" lon="2.712948">
      <ele>96.7</ele>
      <time>2014-03-30T09:49:07Z</time>
    </trkpt>
    <trkpt lat="48.448698" lon="2.712764">
      <ele>96.6</ele>
      <time>2014-03-30T09:49:10Z</time>
    </trkpt>
    <trkpt lat="48.448728" lon="2.712584">
      <ele>96.5</ele>
      <time>2014-03-30T09:49:13Z</time>
    </trkpt>
    <trkpt lat="48.44867" lon="2.712466">
      <ele>96.2</ele>
      <time>2014-03-30T09:49:21Z</time>
    </trkpt>
    <trkpt lat="48.448494" lon="2.712266">
      <ele>95.0</ele>
      <time>2014-03-30T09:49:27Z</time>
    </trkpt>
    <trkpt lat="48.448392" lon="2.712181">
      <ele>94.5</ele>
      <time>2014-03-30T09:49:30Z</time>
    </trkpt>
    <trkpt lat="48.448297" lon="2.712181">
      <ele>94.6</ele>
      <time>2014-03-30T09:49:33Z</time>
    </trkpt>
    <trkpt lat="48.448181" lon="2.712242">
      <ele>95.1</ele>
      <time>2014-03-30T09:49:36Z</time>
    </trkpt>
    <trkpt lat="48.448078" lon="2.712295">
      <ele>95.5</ele>
      <time>2014-03-30T09:49:39Z</time>
    </trkpt>
    <trkpt lat="48.447971" lon="2.712365">
      <ele>96.0</ele>
      <time>2014-03-30T09:49:42Z</time>
    </trkpt>
    <trkpt lat="48.44787" lon="2.712412">
      <ele>96.3</ele>
      <time>2014-03-30T09:49:45Z</time>
    </trkpt>
    <trkpt lat="48.447757" lon="2.71244">
      <ele>96.6</ele>
      <time>2014-03-30T09:49:48Z</time>
    </trkpt>
    <trkpt lat="48.447662" lon="2.712451">
      <ele>96.7</ele>
      <time>2014-03-30T09:49:51Z</time>
    </trkpt>
    <trkpt lat="48.447541" lon="2.712506">
      <ele>97.0</ele>
      <time>2014-03-30T09:49:54Z</time>
    </trkpt>
    <trkpt lat="48.447421" lon="2.712545">
      <ele>97.2</ele>
      <time>2014-03-30T09:49:57Z</time>
    </trkpt>
    <trkpt lat="48.447306" lon="2.712492">
      <ele>97.5</ele>
      <time>2014-03-30T09:50:00Z</time>
    </trkpt>
    <trkpt lat="48.44721" lon="2.712428">
      <ele>97.6</ele>
      <time>2014-03-30T09:50:03Z</time>
    </trkpt>
    <trkpt lat="48.447104" lon="2.712373">
      <ele>97.9</ele>
      <time>2014-03-30T09:50:06Z</time>
    </trkpt>
    <trkpt lat="48.447016" lon="2.712283">
      <ele>98.1</ele>
      <time>2014-03-30T09:50:10Z</time>
    </trkpt>
    <trkpt lat="48.446929" lon="2.712244">
      <ele>98.3</ele>
      <time>2014-03-30T09:50:12Z</time>
    </trkpt>
    <trkpt lat="48.446816" lon="2.712251">
      <ele>98.6</ele>
      <time>2014-03-30T09:50:15Z</time>
    </trkpt>
    <trkpt lat="48.446718" lon="2.712259">
      <ele>98.9</ele>
      <time>2014-03-30T09:50:18Z</time>
    </trkpt>
    <trkpt lat="48.446626" lon="2.712208">
      <ele>98.8</ele>
      <time>2014-03-30T09:50:22Z</time>
    </trkpt>
    <trkpt lat="48.446399" lon="2.712185">
      <ele>97.5</ele>
      <time>2014-03-30T09:50:28Z</time>
    </trkpt>
    <trkpt lat="48.446306" lon="2.712165">
      <ele>97.0</ele>
      <time>2014-03-30T09:50:30Z</time>
    </trkpt>
    <trkpt lat="48.446227" lon="2.712097">
      <ele>96.6</ele>
      <time>2014-03-30T09:50:33Z</time>
    </trkpt>
    <trkpt lat="48.446146" lon="2.711988">
      <ele>96.3</ele>
      <time>2014-03-30T09:50:36Z</time>
    </trkpt>
    <trkpt lat="48.446125" lon="2.711852">
      <ele>96.3</ele>
      <time>2014-03-30T09:50:39Z</time>
    </trkpt>
    <trkpt lat="48.446147" lon="2.711713">
      <ele>96.5</ele>
      <time>2014-03-30T09:50:42Z</time>
    </trkpt>
    <trkpt lat="48.446209" lon="2.711608">
      <ele>96.7</ele>
      <time>2014-03-30T09:50:46Z</time>
    </trkpt>
    <trkpt lat="48.446313" lon="2.711546">
      <ele>97.2</ele>
      <time>2014-03-30T09:50:49Z</time>
    </trkpt>
    <trkpt lat="48.446382" lon="2.7114">
      <ele>97.3</ele>
      <time>2014-03-30T09:50:53Z</time>
    </trkpt>
    <trkpt lat="48.44643" lon="2.711239">
      <ele>97.4</ele>
      <time>2014-03-30T09:50:56Z</time>
    </trkpt>
    <trkpt lat="48.446461" lon="2.711072">
      <ele>97.3</ele>
      <time>2014-03-30T09:50:58Z</time>
    </trkpt>
    <trkpt lat="48.446471" lon="2.7109">
      <ele>97.1</ele>
      <time>2014-03-30T09:51:00Z</time>
    </trkpt>
    <trkpt lat="48.446434" lon="2.710713">
      <ele>96.3</ele>
      <time>2014-03-30T09:51:02Z</time>
    </trkpt>
    <trkpt lat="48.446424" lon="2.710533">
      <ele>95.5</ele>
      <time>2014-03-30T09:51:05Z</time>
    </trkpt>
    <trkpt lat="48.446412" lon="2.71037">
      <ele>94.7</ele>
      <time>2014-03-30T09:51:09Z</time>
    </trkpt>
    <trkpt lat="48.446426" lon="2.710228">
      <ele>94.1</ele>
      <time>2014-03-30T09:51:12Z</time>
    </trkpt>
    <trkpt lat="48.446463" lon="2.710074">
      <ele>93.6</ele>
      <time>2014-03-30T09:51:15Z</time>
    </trkpt>
    <trkpt lat="48.446501" lon="2.709893">
      <ele>93.2</ele>
      <time>2014-03-30T09:51:18Z</time>
    </trkpt>
    <trkpt lat="48.446571" lon="2.709728">
      <ele>93.1</ele>
      <time>2014-03-30T09:51:21Z</time>
    </trkpt>
    <trkpt lat="48.44664" lon="2.709577">
      <ele>92.9</ele>
      <time>2014-03-30T09:51:24Z</time>
    </trkpt>
    <trkpt lat="48.44668" lon="2.709261">
      <ele>92.2</ele>
      <time>2014-03-30T09:51:29Z</time>
    </trkpt>
    <trkpt lat="48.446711" lon="2.70913">
      <ele>91.7</ele>
      <time>2014-03-30T09:51:31Z</time>
    </trkpt>
    <trkpt lat="48.446744" lon="2.70894">
      <ele>91.1</ele>
      <time>2014-03-30T09:51:34Z</time>
    </trkpt>
    <trkpt lat="48.446761" lon="2.708799">
      <ele>90.8</ele>
      <time>2014-03-30T09:51:36Z</time>
    </trkpt>
    <trkpt lat="48.446743" lon="2.708607">
      <ele>90.4</ele>
      <time>2014-03-30T09:51:39Z</time>
    </trkpt>
    <trkpt lat="48.446715" lon="2.708472">
      <ele>90.2</ele>
      <time>2014-03-30T09:51:41Z</time>
    </trkpt>
    <trkpt lat="48.446662" lon="2.7083">
      <ele>89.8</ele>
      <time>2014-03-30T09:51:44Z</time>
    </trkpt>
    <trkpt lat="48.44662" lon="2.708178">
      <ele>89.3</ele>
      <time>2014-03-30T09:51:46Z</time>
    </trkpt>
    <trkpt lat="48.446577" lon="2.708059">
      <ele>88.8</ele>
      <time>2014-03-30T09:51:48Z</time>
    </trkpt>
    <trkpt lat="48.446506" lon="2.707934">
      <ele>88.5</ele>
      <time>2014-03-30T09:51:51Z</time>
    </trkpt>
    <trkpt lat="48.446516" lon="2.707795">
      <ele>87.9</ele>
      <time>2014-03-30T09:51:54Z</time>
    </trkpt>
    <trkpt lat="48.446473" lon="2.707579">
      <ele>87.2</ele>
      <time>2014-03-30T09:51:59Z</time>
    </trkpt>
    <trkpt lat="48.446461" lon="2.707402">
      <ele>86.9</ele>
      <time>2014-03-30T09:52:02Z</time>
    </trkpt>
    <trkpt lat="48.446375" lon="2.707455">
      <ele>87.4</ele>
      <time>2014-03-30T09:52:05Z</time>
    </trkpt>
    <trkpt lat="48.446327" lon="2.707332">
      <ele>87.5</ele>
      <time>2014-03-30T09:52:09Z</time>
    </trkpt>
    <trkpt lat="48.446341" lon="2.707141">
      <ele>87.3</ele>
      <time>2014-03-30T09:52:13Z</time>
    </trkpt>
    <trkpt lat="48.446325" lon="2.706987">
      <ele>87.3</ele>
      <time>2014-03-30T09:52:16Z</time>
    </trkpt>
    <trkpt lat="48.446223" lon="2.706962">
      <ele>87.8</ele>
      <time>2014-03-30T09:52:20Z</time>
    </trkpt>
    <trkpt lat="48.44614" lon="2.706902">
      <ele>88.3</ele>
      <time>2014-03-30T09:52:23Z</time>
    </trkpt>
    <trkpt lat="48.446029" lon="2.706823">
      <ele>88.9</ele>
      <time>2014-03-30T09:52:27Z</time>
    </trkpt>
    <trkpt lat="48.445788" lon="2.706731">
      <ele>90.0</ele>
      <time>2014-03-30T09:52:32Z</time>
    </trkpt>
    <trkpt lat="48.445696" lon="2.706732">
      <ele>90.0</ele>
      <time>2014-03-30T09:52:35Z</time>
    </trkpt>
    <trkpt lat="48.445591" lon="2.706679">
      <ele>90.0</ele>
      <time>2014-03-30T09:52:38Z</time>
    </trkpt>
    <trkpt lat="48.445502" lon="2.706647">
      <ele>90.0</ele>
      <time>2014-03-30T09:52:40Z</time>
    </trkpt>
    <trkpt lat="48.445383" lon="2.706592">
      <ele>90.0</ele>
      <time>2014-03-30T09:52:43Z</time>
    </trkpt>
    <trkpt lat="48.44531" lon="2.706478">
      <ele>90.0</ele>
      <time>2014-03-30T09:52:46Z</time>
    </trkpt>
    <trkpt lat="48.44521" lon="2.706507">
      <ele>90.0</ele>
      <time>2014-03-30T09:52:48Z</time>
    </trkpt>
    <trkpt lat="48.445095" lon="2.706495">
      <ele>89.9</ele>
      <time>2014-03-30T09:52:51Z</time>
    </trkpt>
    <trkpt lat="48.444998" lon="2.706462">
      <ele>89.8</ele>
      <time>2014-03-30T09:52:54Z</time>
    </trkpt>
    <trkpt lat="48.444903" lon="2.706438">
      <ele>89.6</ele>
      <time>2014-03-30T09:52:57Z</time>
    </trkpt>
    <trkpt lat="48.444858" lon="2.706307">
      <ele>89.5</ele>
      <time>2014-03-30T09:53:01Z</time>
    </trkpt>
    <trkpt lat="48.444792" lon="2.706172">
      <ele>89.3</ele>
      <time>2014-03-30T09:53:04Z</time>
    </trkpt>
    <trkpt lat="48.444768" lon="2.706037">
      <ele>89.2</ele>
      <time>2014-03-30T09:53:07Z</time>
    </trkpt>
    <trkpt lat="48.444745" lon="2.70585">
      <ele>89.0</ele>
      <time>2014-03-30T09:53:10Z</time>
    </trkpt>
    <trkpt lat="48.444697" lon="2.70571">
      <ele>89.2</ele>
      <time>2014-03-30T09:53:13Z</time>
    </trkpt>
    <trkpt lat="48.444642" lon="2.70558">
      <ele>89.4</ele>
      <time>2014-03-30T09:53:16Z</time>
    </trkpt>
    <trkpt lat="48.444564" lon="2.70547">
      <ele>89.7</ele>
      <time>2014-03-30T09:53:19Z</time>
    </trkpt>
    <trkpt lat="48.44449" lon="2.705352">
      <ele>89.9</ele>
      <time>2014-03-30T09:53:22Z</time>
    </trkpt>
    <trkpt lat="48.444432" lon="2.705225">
      <ele>90.2</ele>
      <time>2014-03-30T09:53:25Z</time>
    </trkpt>
    <trkpt lat="48.444335" lon="2.705131">
      <ele>90.5</ele>
      <time>2014-03-30T09:53:28Z</time>
    </trkpt>
    <trkpt lat="48.444154" lon="2.70492">
      <ele>91.1</ele>
      <time>2014-03-30T09:53:34Z</time>
    </trkpt>
    <trkpt lat="48.44409" lon="2.704793">
      <ele>91.4</ele>
      <time>2014-03-30T09:53:37Z</time>
    </trkpt>
    <trkpt lat="48.444009" lon="2.7047">
      <ele>91.6</ele>
      <time>2014-03-30T09:53:40Z</time>
    </trkpt>
    <trkpt lat="48.443896" lon="2.704593">
      <ele>92.0</ele>
      <time>2014-03-30T09:53:43Z</time>
    </trkpt>
    <trkpt lat="48.44381" lon="2.704528">
      <ele>92.2</ele>
      <time>2014-03-30T09:53:45Z</time>
    </trkpt>
    <trkpt lat="48.443731" lon="2.70444">
      <ele>92.5</ele>
      <time>2014-03-30T09:53:48Z</time>
    </trkpt>
    <trkpt lat="48.443659" lon="2.704311">
      <ele>92.9</ele>
      <time>2014-03-30T09:53:51Z</time>
    </trkpt>
    <trkpt lat="48.443609" lon="2.704147">
      <ele>93.4</ele>
      <time>2014-03-30T09:53:54Z</time>
    </trkpt>
    <trkpt lat="48.443528" lon="2.703996">
      <ele>93.9</ele>
      <time>2014-03-30T09:53:57Z</time>
    </trkpt>
    <trkpt lat="48.443487" lon="2.703857">
      <ele>94.4</ele>
      <time>2014-03-30T09:53:59Z</time>
    </trkpt>
    <trkpt lat="48.443453" lon="2.703674">
      <ele>94.9</ele>
      <time>2014-03-30T09:54:02Z</time>
    </trkpt>
    <trkpt lat="48.44342" lon="2.703512">
      <ele>95.4</ele>
      <time>2014-03-30T09:54:05Z</time>
    </trkpt>
    <trkpt lat="48.443367" lon="2.703354">
      <ele>95.9</ele>
      <time>2014-03-30T09:54:08Z</time>
    </trkpt>
    <trkpt lat="48.443327" lon="2.703216">
      <ele>95.8</ele>
      <time>2014-03-30T09:54:10Z</time>
    </trkpt>
    <trkpt lat="48.443273" lon="2.703073">
      <ele>95.6</ele>
      <time>2014-03-30T09:54:13Z</time>
    </trkpt>
    <trkpt lat="48.443172" lon="2.702966">
      <ele>95.3</ele>
      <time>2014-03-30T09:54:16Z</time>
    </trkpt>
    <trkpt lat="48.443107" lon="2.702837">
      <ele>95.0</ele>
      <time>2014-03-30T09:54:20Z</time>
    </trkpt>
    <trkpt lat="48.443047" lon="2.702694">
      <ele>94.8</ele>
      <time>2014-03-30T09:54:24Z</time>
    </trkpt>
    <trkpt lat="48.442994" lon="2.702583">
      <ele>94.7</ele>
      <time>2014-03-30T09:54:29Z</time>
    </trkpt>
    <trkpt lat="48.443116" lon="2.702816">
      <ele>95.0</ele>
      <time>2014-03-30T09:54:59Z</time>
    </trkpt>
    <trkpt lat="48.443213" lon="2.702803">
      <ele>95.2</ele>
      <time>2014-03-30T09:55:06Z</time>
    </trkpt>
    <trkpt lat="48.443287" lon="2.702667">
      <ele>95.1</ele>
      <time>2014-03-30T09:55:11Z</time>
    </trkpt>
    <trkpt lat="48.443342" lon="2.702501">
      <ele>95.0</ele>
      <time>2014-03-30T09:55:15Z</time>
    </trkpt>
    <trkpt lat="48.443376" lon="2.70237">
      <ele>94.8</ele>
      <time>2014-03-30T09:55:18Z</time>
    </trkpt>
    <trkpt lat="48.443427" lon="2.702252">
      <ele>94.7</ele>
      <time>2014-03-30T09:55:21Z</time>
    </trkpt>
    <trkpt lat="48.443488" lon="2.702145">
      <ele>94.4</ele>
      <time>2014-03-30T09:55:25Z</time>
    </trkpt>
    <trkpt lat="48.443547" lon="2.702014">
      <ele>94.2</ele>
      <time>2014-03-30T09:55:27Z</time>
    </trkpt>
    <trkpt lat="48.443564" lon="2.701858">
      <ele>94.2</ele>
      <time>2014-03-30T09:55:30Z</time>
    </trkpt>
    <trkpt lat="48.443604" lon="2.701503">
      <ele>94.0</ele>
      <time>2014-03-30T09:55:36Z</time>
    </trkpt>
    <trkpt lat="48.443648" lon="2.70138">
      <ele>93.9</ele>
      <time>2014-03-30T09:55:39Z</time>
    </trkpt>
    <trkpt lat="48.443683" lon="2.70123">
      <ele>93.7</ele>
      <time>2014-03-30T09:55:42Z</time>
    </trkpt>
    <trkpt lat="48.443718" lon="2.701091">
      <ele>93.6</ele>
      <time>2014-03-30T09:55:44Z</time>
    </trkpt>
    <trkpt lat="48.443722" lon="2.700946">
      <ele>93.6</ele>
      <time>2014-03-30T09:55:46Z</time>
    </trkpt>
    <trkpt lat="48.443715" lon="2.700787">
      <ele>93.6</ele>
      <time>2014-03-30T09:55:49Z</time>
    </trkpt>
    <trkpt lat="48.443692" lon="2.700647">
      <ele>93.7</ele>
      <time>2014-03-30T09:55:52Z</time>
    </trkpt>
    <trkpt lat="48.443658" lon="2.700494">
      <ele>93.8</ele>
      <time>2014-03-30T09:55:55Z</time>
    </trkpt>
    <trkpt lat="48.443669" lon="2.700337">
      <ele>93.8</ele>
      <time>2014-03-30T09:55:58Z</time>
    </trkpt>
    <trkpt lat="48.443657" lon="2.700166">
      <ele>93.8</ele>
      <time>2014-03-30T09:56:00Z</time>
    </trkpt>
    <trkpt lat="48.443648" lon="2.699988">
      <ele>93.9</ele>
      <time>2014-03-30T09:56:03Z</time>
    </trkpt>
    <trkpt lat="48.443637" lon="2.699845">
      <ele>94.0</ele>
      <time>2014-03-30T09:56:05Z</time>
    </trkpt>
    <trkpt lat="48.443619" lon="2.699709">
      <ele>94.2</ele>
      <time>2014-03-30T09:56:07Z</time>
    </trkpt>
    <trkpt lat="48.443543" lon="2.69962">
      <ele>94.6</ele>
      <time>2014-03-30T09:56:09Z</time>
    </trkpt>
    <trkpt lat="48.443478" lon="2.699518">
      <ele>95.0</ele>
      <time>2014-03-30T09:56:11Z</time>
    </trkpt>
    <trkpt lat="48.443426" lon="2.699355">
      <ele>95.4</ele>
      <time>2014-03-30T09:56:14Z</time>
    </trkpt>
    <trkpt lat="48.44339" lon="2.699168">
      <ele>95.7</ele>
      <time>2014-03-30T09:56:17Z</time>
    </trkpt>
    <trkpt lat="48.44334" lon="2.698998">
      <ele>96.2</ele>
      <time>2014-03-30T09:56:20Z</time>
    </trkpt>
    <trkpt lat="48.443235" lon="2.698908">
      <ele>96.7</ele>
      <time>2014-03-30T09:56:23Z</time>
    </trkpt>
    <trkpt lat="48.443139" lon="2.698793">
      <ele>97.1</ele>
      <time>2014-03-30T09:56:26Z</time>
    </trkpt>
    <trkpt lat="48.443074" lon="2.698634">
      <ele>97.3</ele>
      <time>2014-03-30T09:56:29Z</time>
    </trkpt>
    <trkpt lat="48.443012" lon="2.698471">
      <ele>97.4</ele>
      <time>2014-03-30T09:56:32Z</time>
    </trkpt>
    <trkpt lat="48.443081" lon="2.698109">
      <ele>98.0</ele>
      <time>2014-03-30T09:56:38Z</time>
    </trkpt>
    <trkpt lat="48.443024" lon="2.697988">
      <ele>98.5</ele>
      <time>2014-03-30T09:56:43Z</time>
    </trkpt>
    <trkpt lat="48.442938" lon="2.697899">
      <ele>98.8</ele>
      <time>2014-03-30T09:57:05Z</time>
    </trkpt>
    <trkpt lat="48.442847" lon="2.697895">
      <ele>98.9</ele>
      <time>2014-03-30T09:57:12Z</time>
    </trkpt>
    <trkpt lat="48.442935" lon="2.697853">
      <ele>98.9</ele>
      <time>2014-03-30T09:57:54Z</time>
    </trkpt>
    <trkpt lat="48.443151" lon="2.697886">
      <ele>98.7</ele>
      <time>2014-03-30T09:58:01Z</time>
    </trkpt>
    <trkpt lat="48.443245" lon="2.697904">
      <ele>98.6</ele>
      <time>2014-03-30T09:58:03Z</time>
    </trkpt>
    <trkpt lat="48.443338" lon="2.697914">
      <ele>98.5</ele>
      <time>2014-03-30T09:58:05Z</time>
    </trkpt>
    <trkpt lat="48.44344" lon="2.697914">
      <ele>98.0</ele>
      <time>2014-03-30T09:58:07Z</time>
    </trkpt>
    <trkpt lat="48.44354" lon="2.697917">
      <ele>97.5</ele>
      <time>2014-03-30T09:58:09Z</time>
    </trkpt>
    <trkpt lat="48.443634" lon="2.697935">
      <ele>97.0</ele>
      <time>2014-03-30T09:58:11Z</time>
    </trkpt>
    <trkpt lat="48.443756" lon="2.697946">
      <ele>96.4</ele>
      <time>2014-03-30T09:58:13Z</time>
    </trkpt>
    <trkpt lat="48.443859" lon="2.697948">
      <ele>96.0</ele>
      <time>2014-03-30T09:58:15Z</time>
    </trkpt>
    <trkpt lat="48.443963" lon="2.697942">
      <ele>95.5</ele>
      <time>2014-03-30T09:58:17Z</time>
    </trkpt>
    <trkpt lat="48.444061" lon="2.697939">
      <ele>95.0</ele>
      <time>2014-03-30T09:58:19Z</time>
    </trkpt>
    <trkpt lat="48.444162" lon="2.697941">
      <ele>94.6</ele>
      <time>2014-03-30T09:58:21Z</time>
    </trkpt>
    <trkpt lat="48.444256" lon="2.697935">
      <ele>94.6</ele>
      <time>2014-03-30T09:58:23Z</time>
    </trkpt>
    <trkpt lat="48.444346" lon="2.697933">
      <ele>94.7</ele>
      <time>2014-03-30T09:58:25Z</time>
    </trkpt>
    <trkpt lat="48.444466" lon="2.697951">
      <ele>94.9</ele>
      <time>2014-03-30T09:58:28Z</time>
    </trkpt>
    <trkpt lat="48.444562" lon="2.697866">
      <ele>95.0</ele>
      <time>2014-03-30T09:58:31Z</time>
    </trkpt>
    <trkpt lat="48.444602" lon="2.697739">
      <ele>95.0</ele>
      <time>2014-03-30T09:58:33Z</time>
    </trkpt>
    <trkpt lat="48.444599" lon="2.697572">
      <ele>95.0</ele>
      <time>2014-03-30T09:58:36Z</time>
    </trkpt>
    <trkpt lat="48.444568" lon="2.697408">
      <ele>95.1</ele>
      <time>2014-03-30T09:58:39Z</time>
    </trkpt>
    <trkpt lat="48.444542" lon="2.697275">
      <ele>95.2</ele>
      <time>2014-03-30T09:58:41Z</time>
    </trkpt>
    <trkpt lat="48.444502" lon="2.697127">
      <ele>95.3</ele>
      <time>2014-03-30T09:58:43Z</time>
    </trkpt>
    <trkpt lat="48.444459" lon="2.696981">
      <ele>95.3</ele>
      <time>2014-03-30T09:58:45Z</time>
    </trkpt>
    <trkpt lat="48.44442" lon="2.696853">
      <ele>95.4</ele>
      <time>2014-03-30T09:58:47Z</time>
    </trkpt>
    <trkpt lat="48.444375" lon="2.696689">
      <ele>95.5</ele>
      <time>2014-03-30T09:58:50Z</time>
    </trkpt>
    <trkpt lat="48.444335" lon="2.696502">
      <ele>95.5</ele>
      <time>2014-03-30T09:58:53Z</time>
    </trkpt>
    <trkpt lat="48.444283" lon="2.696323">
      <ele>95.4</ele>
      <time>2014-03-30T09:58:56Z</time>
    </trkpt>
    <trkpt lat="48.444221" lon="2.696043">
      <ele>95.2</ele>
      <time>2014-03-30T09:59:00Z</time>
    </trkpt>
    <trkpt lat="48.444175" lon="2.695898">
      <ele>95.0</ele>
      <time>2014-03-30T09:59:02Z</time>
    </trkpt>
    <trkpt lat="48.44413" lon="2.695741">
      <ele>95.1</ele>
      <time>2014-03-30T09:59:04Z</time>
    </trkpt>
    <trkpt lat="48.444083" lon="2.695607">
      <ele>95.3</ele>
      <time>2014-03-30T09:59:06Z</time>
    </trkpt>
    <trkpt lat="48.444041" lon="2.695463">
      <ele>95.5</ele>
      <time>2014-03-30T09:59:08Z</time>
    </trkpt>
    <trkpt lat="48.444001" lon="2.695327">
      <ele>95.6</ele>
      <time>2014-03-30T09:59:10Z</time>
    </trkpt>
    <trkpt lat="48.443961" lon="2.695185">
      <ele>95.7</ele>
      <time>2014-03-30T09:59:12Z</time>
    </trkpt>
    <trkpt lat="48.443919" lon="2.695063">
      <ele>95.7</ele>
      <time>2014-03-30T09:59:14Z</time>
    </trkpt>
    <trkpt lat="48.443867" lon="2.694884">
      <ele>95.9</ele>
      <time>2014-03-30T09:59:17Z</time>
    </trkpt>
    <trkpt lat="48.443835" lon="2.694752">
      <ele>96.2</ele>
      <time>2014-03-30T09:59:19Z</time>
    </trkpt>
    <trkpt lat="48.443803" lon="2.694567">
      <ele>96.6</ele>
      <time>2014-03-30T09:59:22Z</time>
    </trkpt>
    <trkpt lat="48.443766" lon="2.694389">
      <ele>96.9</ele>
      <time>2014-03-30T09:59:26Z</time>
    </trkpt>
    <trkpt lat="48.443731" lon="2.694235">
      <ele>97.2</ele>
      <time>2014-03-30T09:59:29Z</time>
    </trkpt>
    <trkpt lat="48.44368" lon="2.694082">
      <ele>97.0</ele>
      <time>2014-03-30T09:59:32Z</time>
    </trkpt>
    <trkpt lat="48.443637" lon="2.693927">
      <ele>96.5</ele>
      <time>2014-03-30T09:59:35Z</time>
    </trkpt>
    <trkpt lat="48.443626" lon="2.693778">
      <ele>96.3</ele>
      <time>2014-03-30T09:59:38Z</time>
    </trkpt>
    <trkpt lat="48.443688" lon="2.693642">
      <ele>96.5</ele>
      <time>2014-03-30T09:59:43Z</time>
    </trkpt>
    <trkpt lat="48.443806" lon="2.693613">
      <ele>97.2</ele>
      <time>2014-03-30T09:59:47Z</time>
    </trkpt>
    <trkpt lat="48.443916" lon="2.693589">
      <ele>97.8</ele>
      <time>2014-03-30T09:59:50Z</time>
    </trkpt>
    <trkpt lat="48.444024" lon="2.693551">
      <ele>98.4</ele>
      <time>2014-03-30T09:59:53Z</time>
    </trkpt>
    <trkpt lat="48.444116" lon="2.693498">
      <ele>98.9</ele>
      <time>2014-03-30T09:59:55Z</time>
    </trkpt>
    <trkpt lat="48.444237" lon="2.693467">
      <ele>99.1</ele>
      <time>2014-03-30T09:59:58Z</time>
    </trkpt>
    <trkpt lat="48.44446" lon="2.693384">
      <ele>98.7</ele>
      <time>2014-03-30T10:00:04Z</time>
    </trkpt>
    <trkpt lat="48.44456" lon="2.693362">
      <ele>98.6</ele>
      <time>2014-03-30T10:00:07Z</time>
    </trkpt>
    <trkpt lat="48.444686" lon="2.693321">
      <ele>98.3</ele>
      <time>2014-03-30T10:00:10Z</time>
    </trkpt>
    <trkpt lat="48.444779" lon="2.693289">
      <ele>98.2</ele>
      <time>2014-03-30T10:00:12Z</time>
    </trkpt>
    <trkpt lat="48.444878" lon="2.69325">
      <ele>97.9</ele>
      <time>2014-03-30T10:00:14Z</time>
    </trkpt>
    <trkpt lat="48.445" lon="2.693206">
      <ele>97.7</ele>
      <time>2014-03-30T10:00:17Z</time>
    </trkpt>
    <trkpt lat="48.445094" lon="2.693203">
      <ele>97.5</ele>
      <time>2014-03-30T10:00:20Z</time>
    </trkpt>
    <trkpt lat="48.44521" lon="2.693151">
      <ele>97.2</ele>
      <time>2014-03-30T10:00:23Z</time>
    </trkpt>
    <trkpt lat="48.445327" lon="2.69311">
      <ele>96.9</ele>
      <time>2014-03-30T10:00:26Z</time>
    </trkpt>
    <trkpt lat="48.445451" lon="2.693086">
      <ele>96.6</ele>
      <time>2014-03-30T10:00:29Z</time>
    </trkpt>
    <trkpt lat="48.445552" lon="2.693046">
      <ele>96.4</ele>
      <time>2014-03-30T10:00:31Z</time>
    </trkpt>
    <trkpt lat="48.445654" lon="2.693008">
      <ele>96.3</ele>
      <time>2014-03-30T10:00:33Z</time>
    </trkpt>
    <trkpt lat="48.445744" lon="2.692988">
      <ele>96.1</ele>
      <time>2014-03-30T10:00:35Z</time>
    </trkpt>
    <trkpt lat="48.445831" lon="2.692955">
      <ele>96.0</ele>
      <time>2014-03-30T10:00:37Z</time>
    </trkpt>
    <trkpt lat="48.445956" lon="2.692908">
      <ele>96.4</ele>
      <time>2014-03-30T10:00:40Z</time>
    </trkpt>
    <trkpt lat="48.446072" lon="2.692897">
      <ele>96.7</ele>
      <time>2014-03-30T10:00:43Z</time>
    </trkpt>
    <trkpt lat="48.446163" lon="2.692878">
      <ele>97.0</ele>
      <time>2014-03-30T10:00:45Z</time>
    </trkpt>
    <trkpt lat="48.446293" lon="2.692848">
      <ele>97.3</ele>
      <time>2014-03-30T10:00:48Z</time>
    </trkpt>
    <trkpt lat="48.446419" lon="2.692806">
      <ele>97.7</ele>
      <time>2014-03-30T10:00:51Z</time>
    </trkpt>
    <trkpt lat="48.446535" lon="2.692763">
      <ele>97.9</ele>
      <time>2014-03-30T10:00:54Z</time>
    </trkpt>
    <trkpt lat="48.446653" lon="2.692712">
      <ele>98.2</ele>
      <time>2014-03-30T10:00:57Z</time>
    </trkpt>
    <trkpt lat="48.446759" lon="2.69268">
      <ele>97.9</ele>
      <time>2014-03-30T10:01:00Z</time>
    </trkpt>
    <trkpt lat="48.446985" lon="2.692615">
      <ele>97.3</ele>
      <time>2014-03-30T10:01:05Z</time>
    </trkpt>
    <trkpt lat="48.44709" lon="2.692567">
      <ele>97.0</ele>
      <time>2014-03-30T10:01:08Z</time>
    </trkpt>
    <trkpt lat="48.447188" lon="2.692514">
      <ele>96.7</ele>
      <time>2014-03-30T10:01:12Z</time>
    </trkpt>
    <trkpt lat="48.447303" lon="2.692489">
      <ele>96.5</ele>
      <time>2014-03-30T10:01:15Z</time>
    </trkpt>
    <trkpt lat="48.447406" lon="2.692452">
      <ele>96.1</ele>
      <time>2014-03-30T10:01:17Z</time>
    </trkpt>
    <trkpt lat="48.447511" lon="2.692423">
      <ele>95.7</ele>
      <time>2014-03-30T10:01:19Z</time>
    </trkpt>
    <trkpt lat="48.447637" lon="2.69238">
      <ele>94.7</ele>
      <time>2014-03-30T10:01:22Z</time>
    </trkpt>
    <trkpt lat="48.447762" lon="2.692336">
      <ele>93.7</ele>
      <time>2014-03-30T10:01:25Z</time>
    </trkpt>
    <trkpt lat="48.447874" lon="2.692296">
      <ele>92.9</ele>
      <time>2014-03-30T10:01:28Z</time>
    </trkpt>
    <trkpt lat="48.44792" lon="2.692439">
      <ele>92.5</ele>
      <time>2014-03-30T10:01:33Z</time>
    </trkpt>
    <trkpt lat="48.447904" lon="2.692579">
      <ele>92.5</ele>
      <time>2014-03-30T10:01:36Z</time>
    </trkpt>
    <trkpt lat="48.447878" lon="2.692711">
      <ele>92.6</ele>
      <time>2014-03-30T10:01:39Z</time>
    </trkpt>
    <trkpt lat="48.44786" lon="2.692867">
      <ele>92.5</ele>
      <time>2014-03-30T10:01:42Z</time>
    </trkpt>
    <trkpt lat="48.447841" lon="2.693005">
      <ele>92.5</ele>
      <time>2014-03-30T10:01:45Z</time>
    </trkpt>
    <trkpt lat="48.447818" lon="2.693155">
      <ele>92.5</ele>
      <time>2014-03-30T10:01:48Z</time>
    </trkpt>
    <trkpt lat="48.4478" lon="2.69332">
      <ele>92.5</ele>
      <time>2014-03-30T10:01:51Z</time>
    </trkpt>
    <trkpt lat="48.447783" lon="2.693477">
      <ele>92.6</ele>
      <time>2014-03-30T10:01:54Z</time>
    </trkpt>
    <trkpt lat="48.44777" lon="2.693634">
      <ele>92.6</ele>
      <time>2014-03-30T10:01:57Z</time>
    </trkpt>
    <trkpt lat="48.447826" lon="2.693769">
      <ele>92.1</ele>
      <time>2014-03-30T10:02:00Z</time>
    </trkpt>
    <trkpt lat="48.44792" lon="2.693724">
      <ele>91.5</ele>
      <time>2014-03-30T10:02:02Z</time>
    </trkpt>
    <trkpt lat="48.448111" lon="2.693625">
      <ele>90.0</ele>
      <time>2014-03-30T10:02:06Z</time>
    </trkpt>
    <trkpt lat="48.448202" lon="2.693624">
      <ele>89.3</ele>
      <time>2014-03-30T10:02:08Z</time>
    </trkpt>
    <trkpt lat="48.448284" lon="2.693566">
      <ele>88.7</ele>
      <time>2014-03-30T10:02:10Z</time>
    </trkpt>
    <trkpt lat="48.448404" lon="2.693546">
      <ele>88.0</ele>
      <time>2014-03-30T10:02:13Z</time>
    </trkpt>
    <trkpt lat="48.448502" lon="2.693529">
      <ele>87.6</ele>
      <time>2014-03-30T10:02:16Z</time>
    </trkpt>
    <trkpt lat="48.44861" lon="2.693469">
      <ele>87.2</ele>
      <time>2014-03-30T10:02:19Z</time>
    </trkpt>
    <trkpt lat="48.4487" lon="2.693446">
      <ele>86.8</ele>
      <time>2014-03-30T10:02:21Z</time>
    </trkpt>
    <trkpt lat="48.448821" lon="2.693477">
      <ele>86.4</ele>
      <time>2014-03-30T10:02:24Z</time>
    </trkpt>
    <trkpt lat="48.448929" lon="2.69344">
      <ele>86.0</ele>
      <time>2014-03-30T10:02:27Z</time>
    </trkpt>
    <trkpt lat="48.44905" lon="2.693377">
      <ele>85.5</ele>
      <time>2014-03-30T10:02:30Z</time>
    </trkpt>
    <trkpt lat="48.449148" lon="2.693271">
      <ele>85.4</ele>
      <time>2014-03-30T10:02:33Z</time>
    </trkpt>
    <trkpt lat="48.449243" lon="2.693186">
      <ele>85.8</ele>
      <time>2014-03-30T10:02:36Z</time>
    </trkpt>
    <trkpt lat="48.449333" lon="2.693098">
      <ele>86.4</ele>
      <time>2014-03-30T10:02:40Z</time>
    </trkpt>
    <trkpt lat="48.449396" lon="2.692968">
      <ele>87.2</ele>
      <time>2014-03-30T10:02:43Z</time>
    </trkpt>
    <trkpt lat="48.449473" lon="2.692839">
      <ele>88.2</ele>
      <time>2014-03-30T10:02:46Z</time>
    </trkpt>
    <trkpt lat="48.449551" lon="2.692766">
      <ele>89.0</ele>
      <time>2014-03-30T10:02:49Z</time>
    </trkpt>
    <trkpt lat="48.449599" lon="2.692597">
      <ele>90.4</ele>
      <time>2014-03-30T10:02:52Z</time>
    </trkpt>
    <trkpt lat="48.449677" lon="2.692475">
      <ele>91.6</ele>
      <time>2014-03-30T10:02:55Z</time>
    </trkpt>
    <trkpt lat="48.449764" lon="2.692331">
      <ele>92.6</ele>
      <time>2014-03-30T10:02:58Z</time>
    </trkpt>
    <trkpt lat="48.449832" lon="2.692167">
      <ele>93.7</ele>
      <time>2014-03-30T10:03:01Z</time>
    </trkpt>
    <trkpt lat="48.44992" lon="2.69206">
      <ele>94.7</ele>
      <time>2014-03-30T10:03:04Z</time>
    </trkpt>
    <trkpt lat="48.45011" lon="2.691966">
      <ele>96.1</ele>
      <time>2014-03-30T10:03:10Z</time>
    </trkpt>
    <trkpt lat="48.450218" lon="2.691873">
      <ele>97.0</ele>
      <time>2014-03-30T10:03:13Z</time>
    </trkpt>
    <trkpt lat="48.450312" lon="2.69182">
      <ele>97.6</ele>
      <time>2014-03-30T10:03:16Z</time>
    </trkpt>
    <trkpt lat="48.450413" lon="2.691769">
      <ele>98.2</ele>
      <time>2014-03-30T10:03:20Z</time>
    </trkpt>
    <trkpt lat="48.450521" lon="2.691748">
      <ele>98.7</ele>
      <time>2014-03-30T10:03:23Z</time>
    </trkpt>
    <trkpt lat="48.450616" lon="2.69169">
      <ele>99.2</ele>
      <time>2014-03-30T10:03:25Z</time>
    </trkpt>
    <trkpt lat="48.450702" lon="2.691608">
      <ele>99.6</ele>
      <time>2014-03-30T10:03:27Z</time>
    </trkpt>
    <trkpt lat="48.450824" lon="2.691604">
      <ele>100.0</ele>
      <time>2014-03-30T10:03:30Z</time>
    </trkpt>
    <trkpt lat="48.450925" lon="2.691556">
      <ele>100.1</ele>
      <time>2014-03-30T10:03:33Z</time>
    </trkpt>
    <trkpt lat="48.451031" lon="2.691426">
      <ele>100.3</ele>
      <time>2014-03-30T10:03:36Z</time>
    </trkpt>
    <trkpt lat="48.451105" lon="2.691283">
      <ele>100.5</ele>
      <time>2014-03-30T10:03:39Z</time>
    </trkpt>
    <trkpt lat="48.451114" lon="2.691114">
      <ele>100.7</ele>
      <time>2014-03-30T10:03:43Z</time>
    </trkpt>
    <trkpt lat="48.451127" lon="2.690968">
      <ele>100.8</ele>
      <time>2014-03-30T10:03:46Z</time>
    </trkpt>
    <trkpt lat="48.451127" lon="2.690826">
      <ele>101.0</ele>
      <time>2014-03-30T10:03:49Z</time>
    </trkpt>
    <trkpt lat="48.451146" lon="2.690669">
      <ele>101.1</ele>
      <time>2014-03-30T10:03:52Z</time>
    </trkpt>
    <trkpt lat="48.45122" lon="2.69059">
      <ele>101.3</ele>
      <time>2014-03-30T10:03:56Z</time>
    </trkpt>
    <trkpt lat="48.451297" lon="2.690481">
      <ele>101.5</ele>
      <time>2014-03-30T10:03:59Z</time>
    </trkpt>
    <trkpt lat="48.45135" lon="2.690309">
      <ele>101.8</ele>
      <time>2014-03-30T10:04:03Z</time>
    </trkpt>
    <trkpt lat="48.4514" lon="2.690196">
      <ele>102.0</ele>
      <time>2014-03-30T10:04:07Z</time>
    </trkpt>
    <trkpt lat="48.451562" lon="2.689983">
      <ele>102.9</ele>
      <time>2014-03-30T10:04:18Z</time>
    </trkpt>
    <trkpt lat="48.451626" lon="2.689875">
      <ele>103.8</ele>
      <time>2014-03-30T10:04:24Z</time>
    </trkpt>
    <trkpt lat="48.451709" lon="2.689785">
      <ele>104.6</ele>
      <time>2014-03-30T10:04:29Z</time>
    </trkpt>
    <trkpt lat="48.451774" lon="2.689686">
      <ele>105.3</ele>
      <time>2014-03-30T10:04:35Z</time>
    </trkpt>
    <trkpt lat="48.451826" lon="2.689574">
      <ele>106.1</ele>
      <time>2014-03-30T10:04:45Z</time>
    </trkpt>
    <trkpt lat="48.451876" lon="2.689458">
      <ele>106.8</ele>
      <time>2014-03-30T10:04:50Z</time>
    </trkpt>
    <trkpt lat="48.451921" lon="2.689334">
      <ele>107.6</ele>
      <time>2014-03-30T10:04:56Z</time>
    </trkpt>
    <trkpt lat="48.451985" lon="2.689235">
      <ele>108.2</ele>
      <time>2014-03-30T10:05:05Z</time>
    </trkpt>
    <trkpt lat="48.452111" lon="2.689188">
      <ele>108.3</ele>
      <time>2014-03-30T10:05:15Z</time>
    </trkpt>
    <trkpt lat="48.452308" lon="2.68922">
      <ele>107.9</ele>
      <time>2014-03-30T10:05:19Z</time>
    </trkpt>
    <trkpt lat="48.452394" lon="2.68927">
      <ele>107.6</ele>
      <time>2014-03-30T10:05:21Z</time>
    </trkpt>
    <trkpt lat="48.452495" lon="2.689354">
      <ele>107.1</ele>
      <time>2014-03-30T10:05:23Z</time>
    </trkpt>
    <trkpt lat="48.452589" lon="2.689408">
      <ele>106.1</ele>
      <time>2014-03-30T10:05:25Z</time>
    </trkpt>
    <trkpt lat="48.4527" lon="2.689505">
      <ele>104.8</ele>
      <time>2014-03-30T10:05:27Z</time>
    </trkpt>
    <trkpt lat="48.452804" lon="2.689612">
      <ele>103.7</ele>
      <time>2014-03-30T10:05:29Z</time>
    </trkpt>
    <trkpt lat="48.45289" lon="2.689699">
      <ele>102.9</ele>
      <time>2014-03-30T10:05:32Z</time>
    </trkpt>
    <trkpt lat="48.452983" lon="2.689802">
      <ele>102.1</ele>
      <time>2014-03-30T10:05:37Z</time>
    </trkpt>
    <trkpt lat="48.453064" lon="2.68991">
      <ele>101.4</ele>
      <time>2014-03-30T10:05:41Z</time>
    </trkpt>
    <trkpt lat="48.453142" lon="2.690007">
      <ele>100.9</ele>
      <time>2014-03-30T10:05:44Z</time>
    </trkpt>
    <trkpt lat="48.453243" lon="2.69014">
      <ele>100.5</ele>
      <time>2014-03-30T10:05:47Z</time>
    </trkpt>
    <trkpt lat="48.453371" lon="2.690154">
      <ele>100.2</ele>
      <time>2014-03-30T10:05:49Z</time>
    </trkpt>
    <trkpt lat="48.453465" lon="2.690175">
      <ele>100.4</ele>
      <time>2014-03-30T10:05:51Z</time>
    </trkpt>
    <trkpt lat="48.453556" lon="2.690244">
      <ele>100.6</ele>
      <time>2014-03-30T10:05:55Z</time>
    </trkpt>
    <trkpt lat="48.45364" lon="2.690332">
      <ele>100.9</ele>
      <time>2014-03-30T10:06:02Z</time>
    </trkpt>
    <trkpt lat="48.453726" lon="2.690373">
      <ele>101.1</ele>
      <time>2014-03-30T10:06:06Z</time>
    </trkpt>
    <trkpt lat="48.45382" lon="2.690413">
      <ele>101.4</ele>
      <time>2014-03-30T10:06:12Z</time>
    </trkpt>
    <trkpt lat="48.45392" lon="2.69048">
      <ele>101.7</ele>
      <time>2014-03-30T10:06:15Z</time>
    </trkpt>
    <trkpt lat="48.454009" lon="2.690552">
      <ele>102.0</ele>
      <time>2014-03-30T10:06:17Z</time>
    </trkpt>
    <trkpt lat="48.454207" lon="2.690698">
      <ele>102.6</ele>
      <time>2014-03-30T10:06:21Z</time>
    </trkpt>
    <trkpt lat="48.45433" lon="2.690764">
      <ele>102.5</ele>
      <time>2014-03-30T10:06:23Z</time>
    </trkpt>
    <trkpt lat="48.454447" lon="2.690829">
      <ele>102.3</ele>
      <time>2014-03-30T10:06:25Z</time>
    </trkpt>
    <trkpt lat="48.454555" lon="2.690828">
      <ele>102.1</ele>
      <time>2014-03-30T10:06:27Z</time>
    </trkpt>
    <trkpt lat="48.454679" lon="2.690872">
      <ele>101.7</ele>
      <time>2014-03-30T10:06:30Z</time>
    </trkpt>
    <trkpt lat="48.454777" lon="2.690922">
      <ele>101.4</ele>
      <time>2014-03-30T10:06:32Z</time>
    </trkpt>
    <trkpt lat="48.454906" lon="2.690957">
      <ele>101.0</ele>
      <time>2014-03-30T10:06:35Z</time>
    </trkpt>
    <trkpt lat="48.455001" lon="2.691021">
      <ele>100.5</ele>
      <time>2014-03-30T10:06:37Z</time>
    </trkpt>
    <trkpt lat="48.455113" lon="2.691091">
      <ele>100.0</ele>
      <time>2014-03-30T10:06:40Z</time>
    </trkpt>
    <trkpt lat="48.455229" lon="2.691108">
      <ele>99.5</ele>
      <time>2014-03-30T10:06:43Z</time>
    </trkpt>
    <trkpt lat="48.455319" lon="2.691156">
      <ele>99.1</ele>
      <time>2014-03-30T10:06:45Z</time>
    </trkpt>
    <trkpt lat="48.455435" lon="2.691163">
      <ele>98.6</ele>
      <time>2014-03-30T10:06:48Z</time>
    </trkpt>
    <trkpt lat="48.455541" lon="2.691135">
      <ele>98.3</ele>
      <time>2014-03-30T10:06:51Z</time>
    </trkpt>
    <trkpt lat="48.455619" lon="2.691014">
      <ele>98.3</ele>
      <time>2014-03-30T10:06:54Z</time>
    </trkpt>
    <trkpt lat="48.455688" lon="2.690846">
      <ele>98.5</ele>
      <time>2014-03-30T10:06:57Z</time>
    </trkpt>
    <trkpt lat="48.455739" lon="2.690678">
      <ele>98.5</ele>
      <time>2014-03-30T10:07:02Z</time>
    </trkpt>
    <trkpt lat="48.455792" lon="2.690537">
      <ele>98.5</ele>
      <time>2014-03-30T10:07:06Z</time>
    </trkpt>
    <trkpt lat="48.455849" lon="2.690389">
      <ele>98.6</ele>
      <time>2014-03-30T10:07:08Z</time>
    </trkpt>
    <trkpt lat="48.455909" lon="2.690285">
      <ele>98.7</ele>
      <time>2014-03-30T10:07:10Z</time>
    </trkpt>
    <trkpt lat="48.456009" lon="2.690194">
      <ele>98.9</ele>
      <time>2014-03-30T10:07:13Z</time>
    </trkpt>
    <trkpt lat="48.456131" lon="2.6901">
      <ele>99.0</ele>
      <time>2014-03-30T10:07:16Z</time>
    </trkpt>
    <trkpt lat="48.456209" lon="2.690026">
      <ele>99.0</ele>
      <time>2014-03-30T10:07:19Z</time>
    </trkpt>
    <trkpt lat="48.456404" lon="2.689902">
      <ele>99.0</ele>
      <time>2014-03-30T10:07:24Z</time>
    </trkpt>
    <trkpt lat="48.456486" lon="2.689817">
      <ele>99.0</ele>
      <time>2014-03-30T10:07:27Z</time>
    </trkpt>
    <trkpt lat="48.45659" lon="2.68984">
      <ele>99.0</ele>
      <time>2014-03-30T10:07:30Z</time>
    </trkpt>
    <trkpt lat="48.456678" lon="2.689747">
      <ele>99.0</ele>
      <time>2014-03-30T10:07:33Z</time>
    </trkpt>
    <trkpt lat="48.456783" lon="2.689717">
      <ele>98.8</ele>
      <time>2014-03-30T10:07:36Z</time>
    </trkpt>
    <trkpt lat="48.456869" lon="2.68976">
      <ele>98.7</ele>
      <time>2014-03-30T10:07:39Z</time>
    </trkpt>
    <trkpt lat="48.456959" lon="2.689805">
      <ele>98.6</ele>
      <time>2014-03-30T10:07:43Z</time>
    </trkpt>
    <trkpt lat="48.457065" lon="2.689825">
      <ele>98.4</ele>
      <time>2014-03-30T10:07:48Z</time>
    </trkpt>
    <trkpt lat="48.457175" lon="2.689853">
      <ele>98.3</ele>
      <time>2014-03-30T10:07:54Z</time>
    </trkpt>
    <trkpt lat="48.457268" lon="2.689906">
      <ele>98.2</ele>
      <time>2014-03-30T10:07:59Z</time>
    </trkpt>
    <trkpt lat="48.457355" lon="2.689985">
      <ele>98.2</ele>
      <time>2014-03-30T10:08:04Z</time>
    </trkpt>
    <trkpt lat="48.457437" lon="2.690041">
      <ele>98.2</ele>
      <time>2014-03-30T10:08:08Z</time>
    </trkpt>
    <trkpt lat="48.457528" lon="2.690038">
      <ele>98.0</ele>
      <time>2014-03-30T10:08:15Z</time>
    </trkpt>
    <trkpt lat="48.457579" lon="2.689909">
      <ele>97.6</ele>
      <time>2014-03-30T10:08:21Z</time>
    </trkpt>
    <trkpt lat="48.45773" lon="2.689755">
      <ele>96.9</ele>
      <time>2014-03-30T10:08:32Z</time>
    </trkpt>
    <trkpt lat="48.457793" lon="2.68963">
      <ele>96.8</ele>
      <time>2014-03-30T10:08:37Z</time>
    </trkpt>
    <trkpt lat="48.45789" lon="2.68958">
      <ele>96.6</ele>
      <time>2014-03-30T10:08:42Z</time>
    </trkpt>
    <trkpt lat="48.457942" lon="2.689461">
      <ele>96.6</ele>
      <time>2014-03-30T10:08:47Z</time>
    </trkpt>
    <trkpt lat="48.45802" lon="2.689322">
      <ele>96.7</ele>
      <time>2014-03-30T10:08:51Z</time>
    </trkpt>
    <trkpt lat="48.458097" lon="2.689212">
      <ele>96.9</ele>
      <time>2014-03-30T10:08:55Z</time>
    </trkpt>
    <trkpt lat="48.458195" lon="2.689256">
      <ele>96.7</ele>
      <time>2014-03-30T10:09:01Z</time>
    </trkpt>
    <trkpt lat="48.458332" lon="2.689194">
      <ele>96.9</ele>
      <time>2014-03-30T10:09:06Z</time>
    </trkpt>
    <trkpt lat="48.458431" lon="2.689148">
      <ele>96.1</ele>
      <time>2014-03-30T10:09:10Z</time>
    </trkpt>
    <trkpt lat="48.458548" lon="2.68911">
      <ele>94.9</ele>
      <time>2014-03-30T10:09:14Z</time>
    </trkpt>
    <trkpt lat="48.458648" lon="2.689143">
      <ele>94.3</ele>
      <time>2014-03-30T10:09:16Z</time>
    </trkpt>
    <trkpt lat="48.458748" lon="2.689162">
      <ele>93.5</ele>
      <time>2014-03-30T10:09:18Z</time>
    </trkpt>
    <trkpt lat="48.458874" lon="2.689135">
      <ele>92.4</ele>
      <time>2014-03-30T10:09:20Z</time>
    </trkpt>
    <trkpt lat="48.459" lon="2.68915">
      <ele>91.4</ele>
      <time>2014-03-30T10:09:23Z</time>
    </trkpt>
    <trkpt lat="48.459248" lon="2.689141">
      <ele>90.3</ele>
      <time>2014-03-30T10:09:29Z</time>
    </trkpt>
    <trkpt lat="48.459364" lon="2.689155">
      <ele>90.7</ele>
      <time>2014-03-30T10:09:32Z</time>
    </trkpt>
    <trkpt lat="48.459462" lon="2.689147">
      <ele>91.1</ele>
      <time>2014-03-30T10:09:35Z</time>
    </trkpt>
    <trkpt lat="48.459559" lon="2.689166">
      <ele>91.4</ele>
      <time>2014-03-30T10:09:38Z</time>
    </trkpt>
    <trkpt lat="48.459677" lon="2.689171">
      <ele>91.8</ele>
      <time>2014-03-30T10:09:42Z</time>
    </trkpt>
    <trkpt lat="48.459771" lon="2.68914">
      <ele>92.2</ele>
      <time>2014-03-30T10:09:45Z</time>
    </trkpt>
    <trkpt lat="48.459842" lon="2.689049">
      <ele>92.5</ele>
      <time>2014-03-30T10:09:48Z</time>
    </trkpt>
    <trkpt lat="48.459876" lon="2.688916">
      <ele>92.8</ele>
      <time>2014-03-30T10:09:51Z</time>
    </trkpt>
    <trkpt lat="48.459901" lon="2.688743">
      <ele>93.1</ele>
      <time>2014-03-30T10:09:54Z</time>
    </trkpt>
    <trkpt lat="48.459927" lon="2.688561">
      <ele>93.4</ele>
      <time>2014-03-30T10:09:57Z</time>
    </trkpt>
    <trkpt lat="48.459955" lon="2.688389">
      <ele>93.7</ele>
      <time>2014-03-30T10:10:00Z</time>
    </trkpt>
    <trkpt lat="48.459978" lon="2.688256">
      <ele>93.8</ele>
      <time>2014-03-30T10:10:02Z</time>
    </trkpt>
    <trkpt lat="48.459997" lon="2.688119">
      <ele>93.7</ele>
      <time>2014-03-30T10:10:04Z</time>
    </trkpt>
    <trkpt lat="48.460017" lon="2.687973">
      <ele>93.6</ele>
      <time>2014-03-30T10:10:06Z</time>
    </trkpt>
    <trkpt lat="48.460036" lon="2.687823">
      <ele>93.4</ele>
      <time>2014-03-30T10:10:08Z</time>
    </trkpt>
    <trkpt lat="48.460069" lon="2.687622">
      <ele>93.2</ele>
      <time>2014-03-30T10:10:11Z</time>
    </trkpt>
    <trkpt lat="48.460092" lon="2.68745">
      <ele>93.0</ele>
      <time>2014-03-30T10:10:13Z</time>
    </trkpt>
    <trkpt lat="48.460108" lon="2.687306">
      <ele>92.7</ele>
      <time>2014-03-30T10:10:15Z</time>
    </trkpt>
    <trkpt lat="48.460119" lon="2.687164">
      <ele>92.3</ele>
      <time>2014-03-30T10:10:17Z</time>
    </trkpt>
    <trkpt lat="48.460136" lon="2.687016">
      <ele>92.0</ele>
      <time>2014-03-30T10:10:19Z</time>
    </trkpt>
    <trkpt lat="48.460163" lon="2.68688">
      <ele>91.7</ele>
      <time>2014-03-30T10:10:21Z</time>
    </trkpt>
    <trkpt lat="48.460194" lon="2.68669">
      <ele>91.3</ele>
      <time>2014-03-30T10:10:24Z</time>
    </trkpt>
    <trkpt lat="48.460215" lon="2.686369">
      <ele>90.9</ele>
      <time>2014-03-30T10:10:28Z</time>
    </trkpt>
    <trkpt lat="48.460257" lon="2.686173">
      <ele>90.7</ele>
      <time>2014-03-30T10:10:31Z</time>
    </trkpt>
    <trkpt lat="48.460289" lon="2.686038">
      <ele>90.6</ele>
      <time>2014-03-30T10:10:33Z</time>
    </trkpt>
    <trkpt lat="48.460329" lon="2.685889">
      <ele>90.5</ele>
      <time>2014-03-30T10:10:35Z</time>
    </trkpt>
    <trkpt lat="48.460344" lon="2.685751">
      <ele>90.4</ele>
      <time>2014-03-30T10:10:37Z</time>
    </trkpt>
    <trkpt lat="48.460367" lon="2.685607">
      <ele>90.4</ele>
      <time>2014-03-30T10:10:39Z</time>
    </trkpt>
    <trkpt lat="48.460385" lon="2.685462">
      <ele>90.5</ele>
      <time>2014-03-30T10:10:41Z</time>
    </trkpt>
    <trkpt lat="48.460396" lon="2.685279">
      <ele>90.5</ele>
      <time>2014-03-30T10:10:43Z</time>
    </trkpt>
    <trkpt lat="48.460423" lon="2.685136">
      <ele>90.5</ele>
      <time>2014-03-30T10:10:45Z</time>
    </trkpt>
    <trkpt lat="48.460443" lon="2.684987">
      <ele>90.5</ele>
      <time>2014-03-30T10:10:47Z</time>
    </trkpt>
    <trkpt lat="48.460465" lon="2.684839">
      <ele>90.8</ele>
      <time>2014-03-30T10:10:49Z</time>
    </trkpt>
    <trkpt lat="48.460493" lon="2.684698">
      <ele>91.0</ele>
      <time>2014-03-30T10:10:51Z</time>
    </trkpt>
    <trkpt lat="48.460519" lon="2.684503">
      <ele>91.2</ele>
      <time>2014-03-30T10:10:54Z</time>
    </trkpt>
    <trkpt lat="48.460543" lon="2.684324">
      <ele>91.5</ele>
      <time>2014-03-30T10:10:57Z</time>
    </trkpt>
    <trkpt lat="48.460567" lon="2.684129">
      <ele>91.6</ele>
      <time>2014-03-30T10:11:00Z</time>
    </trkpt>
    <trkpt lat="48.460592" lon="2.683956">
      <ele>91.5</ele>
      <time>2014-03-30T10:11:03Z</time>
    </trkpt>
    <trkpt lat="48.460617" lon="2.683785">
      <ele>91.4</ele>
      <time>2014-03-30T10:11:06Z</time>
    </trkpt>
    <trkpt lat="48.460633" lon="2.683639">
      <ele>91.3</ele>
      <time>2014-03-30T10:11:09Z</time>
    </trkpt>
    <trkpt lat="48.460642" lon="2.683472">
      <ele>91.1</ele>
      <time>2014-03-30T10:11:12Z</time>
    </trkpt>
    <trkpt lat="48.460674" lon="2.683294">
      <ele>91.0</ele>
      <time>2014-03-30T10:11:15Z</time>
    </trkpt>
    <trkpt lat="48.460704" lon="2.683124">
      <ele>91.2</ele>
      <time>2014-03-30T10:11:18Z</time>
    </trkpt>
    <trkpt lat="48.460666" lon="2.682977">
      <ele>91.4</ele>
      <time>2014-03-30T10:11:21Z</time>
    </trkpt>
    <trkpt lat="48.460567" lon="2.682976">
      <ele>91.7</ele>
      <time>2014-03-30T10:11:25Z</time>
    </trkpt>
    <trkpt lat="48.460495" lon="2.682681">
      <ele>92.6</ele>
      <time>2014-03-30T10:11:31Z</time>
    </trkpt>
    <trkpt lat="48.460426" lon="2.68252">
      <ele>93.4</ele>
      <time>2014-03-30T10:11:34Z</time>
    </trkpt>
    <trkpt lat="48.460385" lon="2.682394">
      <ele>93.8</ele>
      <time>2014-03-30T10:11:36Z</time>
    </trkpt>
    <trkpt lat="48.460333" lon="2.682165">
      <ele>94.6</ele>
      <time>2014-03-30T10:11:39Z</time>
    </trkpt>
    <trkpt lat="48.460288" lon="2.682036">
      <ele>95.2</ele>
      <time>2014-03-30T10:11:41Z</time>
    </trkpt>
    <trkpt lat="48.460264" lon="2.681883">
      <ele>95.7</ele>
      <time>2014-03-30T10:11:43Z</time>
    </trkpt>
    <trkpt lat="48.460235" lon="2.681718">
      <ele>96.3</ele>
      <time>2014-03-30T10:11:45Z</time>
    </trkpt>
    <trkpt lat="48.460214" lon="2.681571">
      <ele>96.9</ele>
      <time>2014-03-30T10:11:47Z</time>
    </trkpt>
    <trkpt lat="48.460164" lon="2.681371">
      <ele>97.9</ele>
      <time>2014-03-30T10:11:50Z</time>
    </trkpt>
    <trkpt lat="48.46015" lon="2.681221">
      <ele>98.4</ele>
      <time>2014-03-30T10:11:52Z</time>
    </trkpt>
    <trkpt lat="48.460129" lon="2.681045">
      <ele>99.0</ele>
      <time>2014-03-30T10:11:54Z</time>
    </trkpt>
    <trkpt lat="48.460092" lon="2.680886">
      <ele>99.8</ele>
      <time>2014-03-30T10:11:56Z</time>
    </trkpt>
    <trkpt lat="48.460065" lon="2.680731">
      <ele>99.7</ele>
      <time>2014-03-30T10:11:58Z</time>
    </trkpt>
    <trkpt lat="48.460016" lon="2.680548">
      <ele>99.5</ele>
      <time>2014-03-30T10:12:01Z</time>
    </trkpt>
    <trkpt lat="48.459995" lon="2.6804">
      <ele>99.0</ele>
      <time>2014-03-30T10:12:03Z</time>
    </trkpt>
    <trkpt lat="48.459963" lon="2.680262">
      <ele>98.5</ele>
      <time>2014-03-30T10:12:05Z</time>
    </trkpt>
    <trkpt lat="48.459951" lon="2.680106">
      <ele>97.9</ele>
      <time>2014-03-30T10:12:07Z</time>
    </trkpt>
    <trkpt lat="48.459914" lon="2.679933">
      <ele>97.7</ele>
      <time>2014-03-30T10:12:10Z</time>
    </trkpt>
    <trkpt lat="48.459873" lon="2.679748">
      <ele>97.8</ele>
      <time>2014-03-30T10:12:13Z</time>
    </trkpt>
    <trkpt lat="48.459854" lon="2.679575">
      <ele>97.8</ele>
      <time>2014-03-30T10:12:15Z</time>
    </trkpt>
    <trkpt lat="48.459817" lon="2.679421">
      <ele>97.8</ele>
      <time>2014-03-30T10:12:17Z</time>
    </trkpt>
    <trkpt lat="48.459775" lon="2.679271">
      <ele>97.7</ele>
      <time>2014-03-30T10:12:19Z</time>
    </trkpt>
    <trkpt lat="48.459759" lon="2.679117">
      <ele>97.5</ele>
      <time>2014-03-30T10:12:21Z</time>
    </trkpt>
    <trkpt lat="48.459738" lon="2.678984">
      <ele>97.3</ele>
      <time>2014-03-30T10:12:23Z</time>
    </trkpt>
    <trkpt lat="48.459709" lon="2.678771">
      <ele>97.1</ele>
      <time>2014-03-30T10:12:26Z</time>
    </trkpt>
    <trkpt lat="48.459648" lon="2.678458">
      <ele>96.6</ele>
      <time>2014-03-30T10:12:30Z</time>
    </trkpt>
    <trkpt lat="48.459626" lon="2.67831">
      <ele>96.5</ele>
      <time>2014-03-30T10:12:32Z</time>
    </trkpt>
    <trkpt lat="48.459593" lon="2.67818">
      <ele>96.9</ele>
      <time>2014-03-30T10:12:34Z</time>
    </trkpt>
    <trkpt lat="48.459557" lon="2.677987">
      <ele>97.6</ele>
      <time>2014-03-30T10:12:37Z</time>
    </trkpt>
    <trkpt lat="48.459522" lon="2.677824">
      <ele>98.2</ele>
      <time>2014-03-30T10:12:40Z</time>
    </trkpt>
    <trkpt lat="48.459476" lon="2.677653">
      <ele>99.0</ele>
      <time>2014-03-30T10:12:43Z</time>
    </trkpt>
    <trkpt lat="48.459465" lon="2.677446">
      <ele>99.6</ele>
      <time>2014-03-30T10:12:46Z</time>
    </trkpt>
    <trkpt lat="48.459442" lon="2.677273">
      <ele>99.9</ele>
      <time>2014-03-30T10:12:48Z</time>
    </trkpt>
    <trkpt lat="48.459405" lon="2.677113">
      <ele>100.2</ele>
      <time>2014-03-30T10:12:50Z</time>
    </trkpt>
    <trkpt lat="48.459364" lon="2.676914">
      <ele>100.6</ele>
      <time>2014-03-30T10:12:53Z</time>
    </trkpt>
    <trkpt lat="48.459328" lon="2.676782">
      <ele>100.9</ele>
      <time>2014-03-30T10:12:55Z</time>
    </trkpt>
    <trkpt lat="48.459273" lon="2.676577">
      <ele>101.3</ele>
      <time>2014-03-30T10:12:58Z</time>
    </trkpt>
    <trkpt lat="48.459258" lon="2.676432">
      <ele>101.2</ele>
      <time>2014-03-30T10:13:00Z</time>
    </trkpt>
    <trkpt lat="48.459232" lon="2.676288">
      <ele>101.2</ele>
      <time>2014-03-30T10:13:02Z</time>
    </trkpt>
    <trkpt lat="48.459219" lon="2.676137">
      <ele>101.1</ele>
      <time>2014-03-30T10:13:04Z</time>
    </trkpt>
    <trkpt lat="48.459192" lon="2.676007">
      <ele>101.1</ele>
      <time>2014-03-30T10:13:06Z</time>
    </trkpt>
    <trkpt lat="48.459155" lon="2.67582">
      <ele>101.0</ele>
      <time>2014-03-30T10:13:09Z</time>
    </trkpt>
    <trkpt lat="48.459125" lon="2.675685">
      <ele>101.1</ele>
      <time>2014-03-30T10:13:11Z</time>
    </trkpt>
    <trkpt lat="48.459091" lon="2.675557">
      <ele>101.2</ele>
      <time>2014-03-30T10:13:13Z</time>
    </trkpt>
    <trkpt lat="48.459046" lon="2.67535">
      <ele>101.3</ele>
      <time>2014-03-30T10:13:16Z</time>
    </trkpt>
    <trkpt lat="48.459035" lon="2.675209">
      <ele>101.3</ele>
      <time>2014-03-30T10:13:18Z</time>
    </trkpt>
    <trkpt lat="48.459022" lon="2.675014">
      <ele>101.3</ele>
      <time>2014-03-30T10:13:21Z</time>
    </trkpt>
    <trkpt lat="48.45899" lon="2.674832">
      <ele>101.2</ele>
      <time>2014-03-30T10:13:24Z</time>
    </trkpt>
    <trkpt lat="48.458942" lon="2.674662">
      <ele>101.1</ele>
      <time>2014-03-30T10:13:27Z</time>
    </trkpt>
    <trkpt lat="48.458887" lon="2.674355">
      <ele>100.9</ele>
      <time>2014-03-30T10:13:31Z</time>
    </trkpt>
    <trkpt lat="48.458865" lon="2.674221">
      <ele>100.8</ele>
      <time>2014-03-30T10:13:33Z</time>
    </trkpt>
    <trkpt lat="48.458806" lon="2.674094">
      <ele>101.0</ele>
      <time>2014-03-30T10:13:35Z</time>
    </trkpt>
    <trkpt lat="48.458789" lon="2.673958">
      <ele>101.2</ele>
      <time>2014-03-30T10:13:37Z</time>
    </trkpt>
    <trkpt lat="48.458756" lon="2.673771">
      <ele>101.5</ele>
      <time>2014-03-30T10:13:40Z</time>
    </trkpt>
    <trkpt lat="48.458743" lon="2.673634">
      <ele>101.7</ele>
      <time>2014-03-30T10:13:42Z</time>
    </trkpt>
    <trkpt lat="48.458719" lon="2.673502">
      <ele>101.9</ele>
      <time>2014-03-30T10:13:44Z</time>
    </trkpt>
    <trkpt lat="48.458705" lon="2.673344">
      <ele>102.1</ele>
      <time>2014-03-30T10:13:47Z</time>
    </trkpt>
    <trkpt lat="48.458657" lon="2.673178">
      <ele>102.5</ele>
      <time>2014-03-30T10:13:50Z</time>
    </trkpt>
    <trkpt lat="48.458628" lon="2.673026">
      <ele>102.8</ele>
      <time>2014-03-30T10:13:52Z</time>
    </trkpt>
    <trkpt lat="48.45859" lon="2.672901">
      <ele>103.1</ele>
      <time>2014-03-30T10:13:54Z</time>
    </trkpt>
    <trkpt lat="48.458533" lon="2.672745">
      <ele>103.4</ele>
      <time>2014-03-30T10:13:57Z</time>
    </trkpt>
    <trkpt lat="48.458482" lon="2.67262">
      <ele>103.7</ele>
      <time>2014-03-30T10:13:59Z</time>
    </trkpt>
    <trkpt lat="48.458416" lon="2.672464">
      <ele>104.0</ele>
      <time>2014-03-30T10:14:02Z</time>
    </trkpt>
    <trkpt lat="48.458337" lon="2.672323">
      <ele>104.4</ele>
      <time>2014-03-30T10:14:05Z</time>
    </trkpt>
    <trkpt lat="48.458259" lon="2.672171">
      <ele>104.8</ele>
      <time>2014-03-30T10:14:08Z</time>
    </trkpt>
    <trkpt lat="48.458196" lon="2.672012">
      <ele>105.1</ele>
      <time>2014-03-30T10:14:11Z</time>
    </trkpt>
    <trkpt lat="48.458128" lon="2.671916">
      <ele>105.3</ele>
      <time>2014-03-30T10:14:13Z</time>
    </trkpt>
    <trkpt lat="48.458065" lon="2.671774">
      <ele>105.5</ele>
      <time>2014-03-30T10:14:16Z</time>
    </trkpt>
    <trkpt lat="48.458008" lon="2.671664">
      <ele>105.6</ele>
      <time>2014-03-30T10:14:19Z</time>
    </trkpt>
    <trkpt lat="48.457933" lon="2.671535">
      <ele>105.7</ele>
      <time>2014-03-30T10:14:21Z</time>
    </trkpt>
    <trkpt lat="48.457874" lon="2.671392">
      <ele>105.8</ele>
      <time>2014-03-30T10:14:24Z</time>
    </trkpt>
    <trkpt lat="48.457826" lon="2.671265">
      <ele>105.9</ele>
      <time>2014-03-30T10:14:27Z</time>
    </trkpt>
    <trkpt lat="48.45777" lon="2.671112">
      <ele>106.0</ele>
      <time>2014-03-30T10:14:30Z</time>
    </trkpt>
    <trkpt lat="48.45764" lon="2.670846">
      <ele>106.2</ele>
      <time>2014-03-30T10:14:36Z</time>
    </trkpt>
    <trkpt lat="48.457575" lon="2.670692">
      <ele>106.2</ele>
      <time>2014-03-30T10:14:39Z</time>
    </trkpt>
    <trkpt lat="48.457518" lon="2.670578">
      <ele>106.3</ele>
      <time>2014-03-30T10:14:42Z</time>
    </trkpt>
    <trkpt lat="48.457437" lon="2.670412">
      <ele>106.5</ele>
      <time>2014-03-30T10:14:45Z</time>
    </trkpt>
    <trkpt lat="48.457387" lon="2.670287">
      <ele>106.7</ele>
      <time>2014-03-30T10:14:47Z</time>
    </trkpt>
    <trkpt lat="48.457339" lon="2.670148">
      <ele>106.8</ele>
      <time>2014-03-30T10:14:51Z</time>
    </trkpt>
    <trkpt lat="48.457378" lon="2.67">
      <ele>107.0</ele>
      <time>2014-03-30T10:14:58Z</time>
    </trkpt>
    <trkpt lat="48.457318" lon="2.669898">
      <ele>107.6</ele>
      <time>2014-03-30T10:15:02Z</time>
    </trkpt>
    <trkpt lat="48.457325" lon="2.669746">
      <ele>108.5</ele>
      <time>2014-03-30T10:15:07Z</time>
    </trkpt>
    <trkpt lat="48.457406" lon="2.66961">
      <ele>109.3</ele>
      <time>2014-03-30T10:15:10Z</time>
    </trkpt>
    <trkpt lat="48.457456" lon="2.669477">
      <ele>110.1</ele>
      <time>2014-03-30T10:15:13Z</time>
    </trkpt>
    <trkpt lat="48.457506" lon="2.669321">
      <ele>111.1</ele>
      <time>2014-03-30T10:15:16Z</time>
    </trkpt>
    <trkpt lat="48.457549" lon="2.669176">
      <ele>111.8</ele>
      <time>2014-03-30T10:15:19Z</time>
    </trkpt>
    <trkpt lat="48.457605" lon="2.669015">
      <ele>112.3</ele>
      <time>2014-03-30T10:15:22Z</time>
    </trkpt>
    <trkpt lat="48.457665" lon="2.668838">
      <ele>112.7</ele>
      <time>2014-03-30T10:15:25Z</time>
    </trkpt>
    <trkpt lat="48.457711" lon="2.668658">
      <ele>113.2</ele>
      <time>2014-03-30T10:15:29Z</time>
    </trkpt>
    <trkpt lat="48.457769" lon="2.668488">
      <ele>113.5</ele>
      <time>2014-03-30T10:15:32Z</time>
    </trkpt>
    <trkpt lat="48.457873" lon="2.668151">
      <ele>114.1</ele>
      <time>2014-03-30T10:15:38Z</time>
    </trkpt>
    <trkpt lat="48.457927" lon="2.667988">
      <ele>114.4</ele>
      <time>2014-03-30T10:15:41Z</time>
    </trkpt>
    <trkpt lat="48.457996" lon="2.667836">
      <ele>114.2</ele>
      <time>2014-03-30T10:15:45Z</time>
    </trkpt>
    <trkpt lat="48.458041" lon="2.667675">
      <ele>114.3</ele>
      <time>2014-03-30T10:15:48Z</time>
    </trkpt>
    <trkpt lat="48.458076" lon="2.667547">
      <ele>114.3</ele>
      <time>2014-03-30T10:15:51Z</time>
    </trkpt>
    <trkpt lat="48.458111" lon="2.667411">
      <ele>114.0</ele>
      <time>2014-03-30T10:15:54Z</time>
    </trkpt>
    <trkpt lat="48.458166" lon="2.667269">
      <ele>113.4</ele>
      <time>2014-03-30T10:15:57Z</time>
    </trkpt>
    <trkpt lat="48.458214" lon="2.667114">
      <ele>112.8</ele>
      <time>2014-03-30T10:15:59Z</time>
    </trkpt>
    <trkpt lat="48.458266" lon="2.666988">
      <ele>112.1</ele>
      <time>2014-03-30T10:16:01Z</time>
    </trkpt>
    <trkpt lat="48.458313" lon="2.666857">
      <ele>111.3</ele>
      <time>2014-03-30T10:16:03Z</time>
    </trkpt>
    <trkpt lat="48.458369" lon="2.666713">
      <ele>110.8</ele>
      <time>2014-03-30T10:16:05Z</time>
    </trkpt>
    <trkpt lat="48.45841" lon="2.666569">
      <ele>110.7</ele>
      <time>2014-03-30T10:16:07Z</time>
    </trkpt>
    <trkpt lat="48.45845" lon="2.666438">
      <ele>110.6</ele>
      <time>2014-03-30T10:16:09Z</time>
    </trkpt>
    <trkpt lat="48.458496" lon="2.666319">
      <ele>110.5</ele>
      <time>2014-03-30T10:16:11Z</time>
    </trkpt>
    <trkpt lat="48.458535" lon="2.666171">
      <ele>110.3</ele>
      <time>2014-03-30T10:16:13Z</time>
    </trkpt>
    <trkpt lat="48.458568" lon="2.666029">
      <ele>110.2</ele>
      <time>2014-03-30T10:16:15Z</time>
    </trkpt>
    <trkpt lat="48.458612" lon="2.665872">
      <ele>110.0</ele>
      <time>2014-03-30T10:16:17Z</time>
    </trkpt>
    <trkpt lat="48.458664" lon="2.66574">
      <ele>109.3</ele>
      <time>2014-03-30T10:16:19Z</time>
    </trkpt>
    <trkpt lat="48.458721" lon="2.665593">
      <ele>108.5</ele>
      <time>2014-03-30T10:16:21Z</time>
    </trkpt>
    <trkpt lat="48.45877" lon="2.665434">
      <ele>107.7</ele>
      <time>2014-03-30T10:16:23Z</time>
    </trkpt>
    <trkpt lat="48.458822" lon="2.665273">
      <ele>106.9</ele>
      <time>2014-03-30T10:16:25Z</time>
    </trkpt>
    <trkpt lat="48.458879" lon="2.665099">
      <ele>106.0</ele>
      <time>2014-03-30T10:16:27Z</time>
    </trkpt>
    <trkpt lat="48.458944" lon="2.664918">
      <ele>105.2</ele>
      <time>2014-03-30T10:16:29Z</time>
    </trkpt>
    <trkpt lat="48.45901" lon="2.664749">
      <ele>104.6</ele>
      <time>2014-03-30T10:16:31Z</time>
    </trkpt>
    <trkpt lat="48.459038" lon="2.664587">
      <ele>104.3</ele>
      <time>2014-03-30T10:16:33Z</time>
    </trkpt>
    <trkpt lat="48.459173" lon="2.664192">
      <ele>103.0</ele>
      <time>2014-03-30T10:16:37Z</time>
    </trkpt>
    <trkpt lat="48.459218" lon="2.664073">
      <ele>102.8</ele>
      <time>2014-03-30T10:16:39Z</time>
    </trkpt>
    <trkpt lat="48.459277" lon="2.66391">
      <ele>102.5</ele>
      <time>2014-03-30T10:16:41Z</time>
    </trkpt>
    <trkpt lat="48.459337" lon="2.663736">
      <ele>102.3</ele>
      <time>2014-03-30T10:16:43Z</time>
    </trkpt>
    <trkpt lat="48.4594" lon="2.663516">
      <ele>102.1</ele>
      <time>2014-03-30T10:16:45Z</time>
    </trkpt>
    <trkpt lat="48.459446" lon="2.663343">
      <ele>102.0</ele>
      <time>2014-03-30T10:16:47Z</time>
    </trkpt>
    <trkpt lat="48.459496" lon="2.663175">
      <ele>101.8</ele>
      <time>2014-03-30T10:16:49Z</time>
    </trkpt>
    <trkpt lat="48.459546" lon="2.663018">
      <ele>101.8</ele>
      <time>2014-03-30T10:16:51Z</time>
    </trkpt>
    <trkpt lat="48.459593" lon="2.662861">
      <ele>101.7</ele>
      <time>2014-03-30T10:16:53Z</time>
    </trkpt>
    <trkpt lat="48.459634" lon="2.662704">
      <ele>101.8</ele>
      <time>2014-03-30T10:16:55Z</time>
    </trkpt>
    <trkpt lat="48.459671" lon="2.662542">
      <ele>101.8</ele>
      <time>2014-03-30T10:16:57Z</time>
    </trkpt>
    <trkpt lat="48.459673" lon="2.662382">
      <ele>101.8</ele>
      <time>2014-03-30T10:16:59Z</time>
    </trkpt>
    <trkpt lat="48.459675" lon="2.662209">
      <ele>101.8</ele>
      <time>2014-03-30T10:17:01Z</time>
    </trkpt>
    <trkpt lat="48.45969" lon="2.662064">
      <ele>101.8</ele>
      <time>2014-03-30T10:17:03Z</time>
    </trkpt>
    <trkpt lat="48.459693" lon="2.66192">
      <ele>101.7</ele>
      <time>2014-03-30T10:17:05Z</time>
    </trkpt>
    <trkpt lat="48.459719" lon="2.661771">
      <ele>101.7</ele>
      <time>2014-03-30T10:17:07Z</time>
    </trkpt>
    <trkpt lat="48.459742" lon="2.661629">
      <ele>101.7</ele>
      <time>2014-03-30T10:17:09Z</time>
    </trkpt>
    <trkpt lat="48.45977" lon="2.661453">
      <ele>101.8</ele>
      <time>2014-03-30T10:17:12Z</time>
    </trkpt>
    <trkpt lat="48.459863" lon="2.661381">
      <ele>102.0</ele>
      <time>2014-03-30T10:17:16Z</time>
    </trkpt>
    <trkpt lat="48.459955" lon="2.661431">
      <ele>102.2</ele>
      <time>2014-03-30T10:17:20Z</time>
    </trkpt>
    <trkpt lat="48.460049" lon="2.661411">
      <ele>102.6</ele>
      <time>2014-03-30T10:17:25Z</time>
    </trkpt>
    <trkpt lat="48.460155" lon="2.661358">
      <ele>103.3</ele>
      <time>2014-03-30T10:17:31Z</time>
    </trkpt>
    <trkpt lat="48.460271" lon="2.661323">
      <ele>104.0</ele>
      <time>2014-03-30T10:17:35Z</time>
    </trkpt>
    <trkpt lat="48.460445" lon="2.6612">
      <ele>104.9</ele>
      <time>2014-03-30T10:17:42Z</time>
    </trkpt>
    <trkpt lat="48.460517" lon="2.661091">
      <ele>105.1</ele>
      <time>2014-03-30T10:17:44Z</time>
    </trkpt>
    <trkpt lat="48.460585" lon="2.66098">
      <ele>105.3</ele>
      <time>2014-03-30T10:17:47Z</time>
    </trkpt>
    <trkpt lat="48.460666" lon="2.660854">
      <ele>105.4</ele>
      <time>2014-03-30T10:17:50Z</time>
    </trkpt>
    <trkpt lat="48.460743" lon="2.660738">
      <ele>105.8</ele>
      <time>2014-03-30T10:17:56Z</time>
    </trkpt>
    <trkpt lat="48.46081" lon="2.660629">
      <ele>106.2</ele>
      <time>2014-03-30T10:18:00Z</time>
    </trkpt>
    <trkpt lat="48.460896" lon="2.660549">
      <ele>105.9</ele>
      <time>2014-03-30T10:18:03Z</time>
    </trkpt>
    <trkpt lat="48.461008" lon="2.660497">
      <ele>105.3</ele>
      <time>2014-03-30T10:18:08Z</time>
    </trkpt>
    <trkpt lat="48.461109" lon="2.660459">
      <ele>104.6</ele>
      <time>2014-03-30T10:18:12Z</time>
    </trkpt>
    <trkpt lat="48.461212" lon="2.660451">
      <ele>104.0</ele>
      <time>2014-03-30T10:18:14Z</time>
    </trkpt>
    <trkpt lat="48.461315" lon="2.660501">
      <ele>103.3</ele>
      <time>2014-03-30T10:18:17Z</time>
    </trkpt>
    <trkpt lat="48.46145" lon="2.660516">
      <ele>102.4</ele>
      <time>2014-03-30T10:18:20Z</time>
    </trkpt>
    <trkpt lat="48.461552" lon="2.660529">
      <ele>101.7</ele>
      <time>2014-03-30T10:18:23Z</time>
    </trkpt>
    <trkpt lat="48.461642" lon="2.660503">
      <ele>101.2</ele>
      <time>2014-03-30T10:18:25Z</time>
    </trkpt>
    <trkpt lat="48.461791" lon="2.660457">
      <ele>100.8</ele>
      <time>2014-03-30T10:18:27Z</time>
    </trkpt>
    <trkpt lat="48.4619" lon="2.660416">
      <ele>100.6</ele>
      <time>2014-03-30T10:18:29Z</time>
    </trkpt>
    <trkpt lat="48.461994" lon="2.660384">
      <ele>100.4</ele>
      <time>2014-03-30T10:18:31Z</time>
    </trkpt>
    <trkpt lat="48.462089" lon="2.660381">
      <ele>100.3</ele>
      <time>2014-03-30T10:18:33Z</time>
    </trkpt>
    <trkpt lat="48.462189" lon="2.660311">
      <ele>100.1</ele>
      <time>2014-03-30T10:18:35Z</time>
    </trkpt>
    <trkpt lat="48.462406" lon="2.660186">
      <ele>99.9</ele>
      <time>2014-03-30T10:18:40Z</time>
    </trkpt>
    <trkpt lat="48.462494" lon="2.660126">
      <ele>99.9</ele>
      <time>2014-03-30T10:18:42Z</time>
    </trkpt>
    <trkpt lat="48.462603" lon="2.660054">
      <ele>100.2</ele>
      <time>2014-03-30T10:18:45Z</time>
    </trkpt>
    <trkpt lat="48.462683" lon="2.65998">
      <ele>100.4</ele>
      <time>2014-03-30T10:18:47Z</time>
    </trkpt>
    <trkpt lat="48.462806" lon="2.659892">
      <ele>100.7</ele>
      <time>2014-03-30T10:18:50Z</time>
    </trkpt>
    <trkpt lat="48.462896" lon="2.659847">
      <ele>100.9</ele>
      <time>2014-03-30T10:18:52Z</time>
    </trkpt>
    <trkpt lat="48.462985" lon="2.659783">
      <ele>101.1</ele>
      <time>2014-03-30T10:18:54Z</time>
    </trkpt>
    <trkpt lat="48.463079" lon="2.659711">
      <ele>101.3</ele>
      <time>2014-03-30T10:18:56Z</time>
    </trkpt>
    <trkpt lat="48.463201" lon="2.6596">
      <ele>101.6</ele>
      <time>2014-03-30T10:18:58Z</time>
    </trkpt>
    <trkpt lat="48.463285" lon="2.659511">
      <ele>101.8</ele>
      <time>2014-03-30T10:19:00Z</time>
    </trkpt>
    <trkpt lat="48.46337" lon="2.659433">
      <ele>101.9</ele>
      <time>2014-03-30T10:19:02Z</time>
    </trkpt>
    <trkpt lat="48.463468" lon="2.659356">
      <ele>101.8</ele>
      <time>2014-03-30T10:19:04Z</time>
    </trkpt>
    <trkpt lat="48.463552" lon="2.659275">
      <ele>101.7</ele>
      <time>2014-03-30T10:19:06Z</time>
    </trkpt>
    <trkpt lat="48.463653" lon="2.659198">
      <ele>101.6</ele>
      <time>2014-03-30T10:19:08Z</time>
    </trkpt>
    <trkpt lat="48.463745" lon="2.659158">
      <ele>101.5</ele>
      <time>2014-03-30T10:19:10Z</time>
    </trkpt>
    <trkpt lat="48.463857" lon="2.659062">
      <ele>101.3</ele>
      <time>2014-03-30T10:19:12Z</time>
    </trkpt>
    <trkpt lat="48.463968" lon="2.658945">
      <ele>101.2</ele>
      <time>2014-03-30T10:19:14Z</time>
    </trkpt>
    <trkpt lat="48.464066" lon="2.658833">
      <ele>101.1</ele>
      <time>2014-03-30T10:19:17Z</time>
    </trkpt>
    <trkpt lat="48.464152" lon="2.658778">
      <ele>101.0</ele>
      <time>2014-03-30T10:19:19Z</time>
    </trkpt>
    <trkpt lat="48.464265" lon="2.658734">
      <ele>100.8</ele>
      <time>2014-03-30T10:19:23Z</time>
    </trkpt>
    <trkpt lat="48.464343" lon="2.658646">
      <ele>100.7</ele>
      <time>2014-03-30T10:19:25Z</time>
    </trkpt>
    <trkpt lat="48.464458" lon="2.658573">
      <ele>100.5</ele>
      <time>2014-03-30T10:19:27Z</time>
    </trkpt>
    <trkpt lat="48.464592" lon="2.658496">
      <ele>100.4</ele>
      <time>2014-03-30T10:19:29Z</time>
    </trkpt>
    <trkpt lat="48.464688" lon="2.658472">
      <ele>100.3</ele>
      <time>2014-03-30T10:19:31Z</time>
    </trkpt>
    <trkpt lat="48.464798" lon="2.658505">
      <ele>100.1</ele>
      <time>2014-03-30T10:19:33Z</time>
    </trkpt>
    <trkpt lat="48.464933" lon="2.658502">
      <ele>99.9</ele>
      <time>2014-03-30T10:19:36Z</time>
    </trkpt>
    <trkpt lat="48.465148" lon="2.658447">
      <ele>99.5</ele>
      <time>2014-03-30T10:19:40Z</time>
    </trkpt>
    <trkpt lat="48.465261" lon="2.658441">
      <ele>99.3</ele>
      <time>2014-03-30T10:19:42Z</time>
    </trkpt>
    <trkpt lat="48.46537" lon="2.658406">
      <ele>99.1</ele>
      <time>2014-03-30T10:19:44Z</time>
    </trkpt>
    <trkpt lat="48.465497" lon="2.658416">
      <ele>98.8</ele>
      <time>2014-03-30T10:19:47Z</time>
    </trkpt>
    <trkpt lat="48.465626" lon="2.658499">
      <ele>98.4</ele>
      <time>2014-03-30T10:19:50Z</time>
    </trkpt>
    <trkpt lat="48.465724" lon="2.658507">
      <ele>98.2</ele>
      <time>2014-03-30T10:19:52Z</time>
    </trkpt>
    <trkpt lat="48.465811" lon="2.658457">
      <ele>98.0</ele>
      <time>2014-03-30T10:19:54Z</time>
    </trkpt>
    <trkpt lat="48.465948" lon="2.658418">
      <ele>98.0</ele>
      <time>2014-03-30T10:19:57Z</time>
    </trkpt>
    <trkpt lat="48.466067" lon="2.65838">
      <ele>98.0</ele>
      <time>2014-03-30T10:19:59Z</time>
    </trkpt>
    <trkpt lat="48.466178" lon="2.658327">
      <ele>98.0</ele>
      <time>2014-03-30T10:20:01Z</time>
    </trkpt>
    <trkpt lat="48.466322" lon="2.658314">
      <ele>98.0</ele>
      <time>2014-03-30T10:20:03Z</time>
    </trkpt>
    <trkpt lat="48.466424" lon="2.658342">
      <ele>98.0</ele>
      <time>2014-03-30T10:20:05Z</time>
    </trkpt>
    <trkpt lat="48.466565" lon="2.658394">
      <ele>97.9</ele>
      <time>2014-03-30T10:20:08Z</time>
    </trkpt>
    <trkpt lat="48.466678" lon="2.658447">
      <ele>97.8</ele>
      <time>2014-03-30T10:20:11Z</time>
    </trkpt>
    <trkpt lat="48.466768" lon="2.658467">
      <ele>97.6</ele>
      <time>2014-03-30T10:20:13Z</time>
    </trkpt>
    <trkpt lat="48.466911" lon="2.658467">
      <ele>97.3</ele>
      <time>2014-03-30T10:20:16Z</time>
    </trkpt>
    <trkpt lat="48.467009" lon="2.65845">
      <ele>97.1</ele>
      <time>2014-03-30T10:20:18Z</time>
    </trkpt>
    <trkpt lat="48.467134" lon="2.658464">
      <ele>96.8</ele>
      <time>2014-03-30T10:20:20Z</time>
    </trkpt>
    <trkpt lat="48.467228" lon="2.658482">
      <ele>96.6</ele>
      <time>2014-03-30T10:20:22Z</time>
    </trkpt>
    <trkpt lat="48.467318" lon="2.658489">
      <ele>96.4</ele>
      <time>2014-03-30T10:20:24Z</time>
    </trkpt>
    <trkpt lat="48.467416" lon="2.658505">
      <ele>96.2</ele>
      <time>2014-03-30T10:20:26Z</time>
    </trkpt>
    <trkpt lat="48.467535" lon="2.658503">
      <ele>95.9</ele>
      <time>2014-03-30T10:20:28Z</time>
    </trkpt>
    <trkpt lat="48.467629" lon="2.658507">
      <ele>95.7</ele>
      <time>2014-03-30T10:20:30Z</time>
    </trkpt>
    <trkpt lat="48.467749" lon="2.658526">
      <ele>95.5</ele>
      <time>2014-03-30T10:20:32Z</time>
    </trkpt>
    <trkpt lat="48.467849" lon="2.658535">
      <ele>95.3</ele>
      <time>2014-03-30T10:20:34Z</time>
    </trkpt>
    <trkpt lat="48.467958" lon="2.658531">
      <ele>95.0</ele>
      <time>2014-03-30T10:20:36Z</time>
    </trkpt>
    <trkpt lat="48.468177" lon="2.658605">
      <ele>94.6</ele>
      <time>2014-03-30T10:20:41Z</time>
    </trkpt>
    <trkpt lat="48.468289" lon="2.658613">
      <ele>94.4</ele>
      <time>2014-03-30T10:20:43Z</time>
    </trkpt>
    <trkpt lat="48.468385" lon="2.658632">
      <ele>94.3</ele>
      <time>2014-03-30T10:20:45Z</time>
    </trkpt>
    <trkpt lat="48.468513" lon="2.658642">
      <ele>94.2</ele>
      <time>2014-03-30T10:20:48Z</time>
    </trkpt>
    <trkpt lat="48.468637" lon="2.658643">
      <ele>94.0</ele>
      <time>2014-03-30T10:20:51Z</time>
    </trkpt>
    <trkpt lat="48.468752" lon="2.658662">
      <ele>93.9</ele>
      <time>2014-03-30T10:20:54Z</time>
    </trkpt>
    <trkpt lat="48.468845" lon="2.658666">
      <ele>93.8</ele>
      <time>2014-03-30T10:20:56Z</time>
    </trkpt>
    <trkpt lat="48.468981" lon="2.658674">
      <ele>93.6</ele>
      <time>2014-03-30T10:20:59Z</time>
    </trkpt>
    <trkpt lat="48.469086" lon="2.658688">
      <ele>93.5</ele>
      <time>2014-03-30T10:21:01Z</time>
    </trkpt>
    <trkpt lat="48.469205" lon="2.658694">
      <ele>93.3</ele>
      <time>2014-03-30T10:21:03Z</time>
    </trkpt>
    <trkpt lat="48.469312" lon="2.6587">
      <ele>92.9</ele>
      <time>2014-03-30T10:21:05Z</time>
    </trkpt>
    <trkpt lat="48.46942" lon="2.658714">
      <ele>92.5</ele>
      <time>2014-03-30T10:21:07Z</time>
    </trkpt>
    <trkpt lat="48.469525" lon="2.658721">
      <ele>92.1</ele>
      <time>2014-03-30T10:21:09Z</time>
    </trkpt>
    <trkpt lat="48.469626" lon="2.658726">
      <ele>91.8</ele>
      <time>2014-03-30T10:21:11Z</time>
    </trkpt>
    <trkpt lat="48.469769" lon="2.658741">
      <ele>91.3</ele>
      <time>2014-03-30T10:21:14Z</time>
    </trkpt>
    <trkpt lat="48.469861" lon="2.658751">
      <ele>91.0</ele>
      <time>2014-03-30T10:21:16Z</time>
    </trkpt>
    <trkpt lat="48.469992" lon="2.658756">
      <ele>90.6</ele>
      <time>2014-03-30T10:21:19Z</time>
    </trkpt>
    <trkpt lat="48.470125" lon="2.658769">
      <ele>90.1</ele>
      <time>2014-03-30T10:21:22Z</time>
    </trkpt>
    <trkpt lat="48.47022" lon="2.658768">
      <ele>89.8</ele>
      <time>2014-03-30T10:21:24Z</time>
    </trkpt>
    <trkpt lat="48.470345" lon="2.658794">
      <ele>89.5</ele>
      <time>2014-03-30T10:21:27Z</time>
    </trkpt>
    <trkpt lat="48.470446" lon="2.658801">
      <ele>89.2</ele>
      <time>2014-03-30T10:21:29Z</time>
    </trkpt>
    <trkpt lat="48.470575" lon="2.658826">
      <ele>89.0</ele>
      <time>2014-03-30T10:21:32Z</time>
    </trkpt>
    <trkpt lat="48.470701" lon="2.658834">
      <ele>88.6</ele>
      <time>2014-03-30T10:21:35Z</time>
    </trkpt>
    <trkpt lat="48.470792" lon="2.658839">
      <ele>88.4</ele>
      <time>2014-03-30T10:21:37Z</time>
    </trkpt>
    <trkpt lat="48.471013" lon="2.658869">
      <ele>87.2</ele>
      <time>2014-03-30T10:21:42Z</time>
    </trkpt>
    <trkpt lat="48.471136" lon="2.658837">
      <ele>86.2</ele>
      <time>2014-03-30T10:21:45Z</time>
    </trkpt>
    <trkpt lat="48.471241" lon="2.658745">
      <ele>85.0</ele>
      <time>2014-03-30T10:21:48Z</time>
    </trkpt>
    <trkpt lat="48.471344" lon="2.658656">
      <ele>84.1</ele>
      <time>2014-03-30T10:21:51Z</time>
    </trkpt>
    <trkpt lat="48.471446" lon="2.658573">
      <ele>83.3</ele>
      <time>2014-03-30T10:21:54Z</time>
    </trkpt>
    <trkpt lat="48.471581" lon="2.65849">
      <ele>82.5</ele>
      <time>2014-03-30T10:21:57Z</time>
    </trkpt>
    <trkpt lat="48.471661" lon="2.658418">
      <ele>82.1</ele>
      <time>2014-03-30T10:21:59Z</time>
    </trkpt>
    <trkpt lat="48.471746" lon="2.658331">
      <ele>82.2</ele>
      <time>2014-03-30T10:22:01Z</time>
    </trkpt>
    <trkpt lat="48.471829" lon="2.658256">
      <ele>82.4</ele>
      <time>2014-03-30T10:22:03Z</time>
    </trkpt>
    <trkpt lat="48.471908" lon="2.65817">
      <ele>82.5</ele>
      <time>2014-03-30T10:22:05Z</time>
    </trkpt>
    <trkpt lat="48.471994" lon="2.658088">
      <ele>82.7</ele>
      <time>2014-03-30T10:22:07Z</time>
    </trkpt>
    <trkpt lat="48.472094" lon="2.657996">
      <ele>82.8</ele>
      <time>2014-03-30T10:22:10Z</time>
    </trkpt>
    <trkpt lat="48.472188" lon="2.657916">
      <ele>82.9</ele>
      <time>2014-03-30T10:22:12Z</time>
    </trkpt>
    <trkpt lat="48.472285" lon="2.657836">
      <ele>83.0</ele>
      <time>2014-03-30T10:22:15Z</time>
    </trkpt>
    <trkpt lat="48.472365" lon="2.657766">
      <ele>83.1</ele>
      <time>2014-03-30T10:22:17Z</time>
    </trkpt>
    <trkpt lat="48.472476" lon="2.657676">
      <ele>83.2</ele>
      <time>2014-03-30T10:22:20Z</time>
    </trkpt>
    <trkpt lat="48.47256" lon="2.657606">
      <ele>83.3</ele>
      <time>2014-03-30T10:22:22Z</time>
    </trkpt>
    <trkpt lat="48.47267" lon="2.657518">
      <ele>83.4</ele>
      <time>2014-03-30T10:22:25Z</time>
    </trkpt>
    <trkpt lat="48.472787" lon="2.657443">
      <ele>83.6</ele>
      <time>2014-03-30T10:22:28Z</time>
    </trkpt>
    <trkpt lat="48.472898" lon="2.65734">
      <ele>83.8</ele>
      <time>2014-03-30T10:22:31Z</time>
    </trkpt>
    <trkpt lat="48.47299" lon="2.657292">
      <ele>83.9</ele>
      <time>2014-03-30T10:22:33Z</time>
    </trkpt>
    <trkpt lat="48.473084" lon="2.657204">
      <ele>84.0</ele>
      <time>2014-03-30T10:22:36Z</time>
    </trkpt>
    <trkpt lat="48.473182" lon="2.657108">
      <ele>84.2</ele>
      <time>2014-03-30T10:22:39Z</time>
    </trkpt>
    <trkpt lat="48.473363" lon="2.656952">
      <ele>84.5</ele>
      <time>2014-03-30T10:22:45Z</time>
    </trkpt>
    <trkpt lat="48.473443" lon="2.656869">
      <ele>84.8</ele>
      <time>2014-03-30T10:22:47Z</time>
    </trkpt>
    <trkpt lat="48.473532" lon="2.656796">
      <ele>85.2</ele>
      <time>2014-03-30T10:22:49Z</time>
    </trkpt>
    <trkpt lat="48.473652" lon="2.656723">
      <ele>85.9</ele>
      <time>2014-03-30T10:22:52Z</time>
    </trkpt>
    <trkpt lat="48.473762" lon="2.656644">
      <ele>86.6</ele>
      <time>2014-03-30T10:22:55Z</time>
    </trkpt>
    <trkpt lat="48.473872" lon="2.656581">
      <ele>87.3</ele>
      <time>2014-03-30T10:22:58Z</time>
    </trkpt>
    <trkpt lat="48.473984" lon="2.6565">
      <ele>88.0</ele>
      <time>2014-03-30T10:23:02Z</time>
    </trkpt>
    <trkpt lat="48.474082" lon="2.656413">
      <ele>88.7</ele>
      <time>2014-03-30T10:23:05Z</time>
    </trkpt>
    <trkpt lat="48.474188" lon="2.656306">
      <ele>89.5</ele>
      <time>2014-03-30T10:23:08Z</time>
    </trkpt>
    <trkpt lat="48.474297" lon="2.656234">
      <ele>89.8</ele>
      <time>2014-03-30T10:23:11Z</time>
    </trkpt>
    <trkpt lat="48.474419" lon="2.656135">
      <ele>90.1</ele>
      <time>2014-03-30T10:23:14Z</time>
    </trkpt>
    <trkpt lat="48.474523" lon="2.656036">
      <ele>90.3</ele>
      <time>2014-03-30T10:23:17Z</time>
    </trkpt>
    <trkpt lat="48.474615" lon="2.655964">
      <ele>90.5</ele>
      <time>2014-03-30T10:23:19Z</time>
    </trkpt>
    <trkpt lat="48.474694" lon="2.655885">
      <ele>90.6</ele>
      <time>2014-03-30T10:23:21Z</time>
    </trkpt>
    <trkpt lat="48.474771" lon="2.655809">
      <ele>90.7</ele>
      <time>2014-03-30T10:23:23Z</time>
    </trkpt>
    <trkpt lat="48.474881" lon="2.655709">
      <ele>90.5</ele>
      <time>2014-03-30T10:23:26Z</time>
    </trkpt>
    <trkpt lat="48.474973" lon="2.655606">
      <ele>90.4</ele>
      <time>2014-03-30T10:23:29Z</time>
    </trkpt>
    <trkpt lat="48.47506" lon="2.655537">
      <ele>90.4</ele>
      <time>2014-03-30T10:23:31Z</time>
    </trkpt>
    <trkpt lat="48.475148" lon="2.655474">
      <ele>90.4</ele>
      <time>2014-03-30T10:23:33Z</time>
    </trkpt>
    <trkpt lat="48.475234" lon="2.6554">
      <ele>90.4</ele>
      <time>2014-03-30T10:23:35Z</time>
    </trkpt>
    <trkpt lat="48.475337" lon="2.655285">
      <ele>90.4</ele>
      <time>2014-03-30T10:23:38Z</time>
    </trkpt>
    <trkpt lat="48.475441" lon="2.655195">
      <ele>90.4</ele>
      <time>2014-03-30T10:23:41Z</time>
    </trkpt>
    <trkpt lat="48.475644" lon="2.655014">
      <ele>90.6</ele>
      <time>2014-03-30T10:23:46Z</time>
    </trkpt>
    <trkpt lat="48.475744" lon="2.654919">
      <ele>90.6</ele>
      <time>2014-03-30T10:23:48Z</time>
    </trkpt>
    <trkpt lat="48.475851" lon="2.654807">
      <ele>90.6</ele>
      <time>2014-03-30T10:23:51Z</time>
    </trkpt>
    <trkpt lat="48.475967" lon="2.654718">
      <ele>90.5</ele>
      <time>2014-03-30T10:23:54Z</time>
    </trkpt>
    <trkpt lat="48.476072" lon="2.654621">
      <ele>90.5</ele>
      <time>2014-03-30T10:23:56Z</time>
    </trkpt>
    <trkpt lat="48.47618" lon="2.654534">
      <ele>90.5</ele>
      <time>2014-03-30T10:23:58Z</time>
    </trkpt>
    <trkpt lat="48.476265" lon="2.654481">
      <ele>90.6</ele>
      <time>2014-03-30T10:24:00Z</time>
    </trkpt>
    <trkpt lat="48.476357" lon="2.654381">
      <ele>90.6</ele>
      <time>2014-03-30T10:24:02Z</time>
    </trkpt>
    <trkpt lat="48.476434" lon="2.654309">
      <ele>90.7</ele>
      <time>2014-03-30T10:24:04Z</time>
    </trkpt>
    <trkpt lat="48.47652" lon="2.654239">
      <ele>90.8</ele>
      <time>2014-03-30T10:24:06Z</time>
    </trkpt>
    <trkpt lat="48.476604" lon="2.654177">
      <ele>90.9</ele>
      <time>2014-03-30T10:24:08Z</time>
    </trkpt>
    <trkpt lat="48.476688" lon="2.654098">
      <ele>90.9</ele>
      <time>2014-03-30T10:24:10Z</time>
    </trkpt>
    <trkpt lat="48.476771" lon="2.654037">
      <ele>90.9</ele>
      <time>2014-03-30T10:24:12Z</time>
    </trkpt>
    <trkpt lat="48.476855" lon="2.65396">
      <ele>90.9</ele>
      <time>2014-03-30T10:24:14Z</time>
    </trkpt>
    <trkpt lat="48.476983" lon="2.653856">
      <ele>91.1</ele>
      <time>2014-03-30T10:24:17Z</time>
    </trkpt>
    <trkpt lat="48.477062" lon="2.653789">
      <ele>91.2</ele>
      <time>2014-03-30T10:24:19Z</time>
    </trkpt>
    <trkpt lat="48.47716" lon="2.653732">
      <ele>91.5</ele>
      <time>2014-03-30T10:24:21Z</time>
    </trkpt>
    <trkpt lat="48.477237" lon="2.653662">
      <ele>91.7</ele>
      <time>2014-03-30T10:24:23Z</time>
    </trkpt>
    <trkpt lat="48.47731" lon="2.653562">
      <ele>92.0</ele>
      <time>2014-03-30T10:24:25Z</time>
    </trkpt>
    <trkpt lat="48.477403" lon="2.653475">
      <ele>92.4</ele>
      <time>2014-03-30T10:24:27Z</time>
    </trkpt>
    <trkpt lat="48.477513" lon="2.653381">
      <ele>93.0</ele>
      <time>2014-03-30T10:24:29Z</time>
    </trkpt>
    <trkpt lat="48.477637" lon="2.653289">
      <ele>93.1</ele>
      <time>2014-03-30T10:24:32Z</time>
    </trkpt>
    <trkpt lat="48.477725" lon="2.653193">
      <ele>93.0</ele>
      <time>2014-03-30T10:24:34Z</time>
    </trkpt>
    <trkpt lat="48.477808" lon="2.653122">
      <ele>92.9</ele>
      <time>2014-03-30T10:24:36Z</time>
    </trkpt>
    <trkpt lat="48.477911" lon="2.653025">
      <ele>92.8</ele>
      <time>2014-03-30T10:24:39Z</time>
    </trkpt>
    <trkpt lat="48.477994" lon="2.652946">
      <ele>92.6</ele>
      <time>2014-03-30T10:24:41Z</time>
    </trkpt>
    <trkpt lat="48.478092" lon="2.652862">
      <ele>92.3</ele>
      <time>2014-03-30T10:24:43Z</time>
    </trkpt>
    <trkpt lat="48.478283" lon="2.652691">
      <ele>91.7</ele>
      <time>2014-03-30T10:24:48Z</time>
    </trkpt>
    <trkpt lat="48.47836" lon="2.652613">
      <ele>91.4</ele>
      <time>2014-03-30T10:24:50Z</time>
    </trkpt>
    <trkpt lat="48.478452" lon="2.652526">
      <ele>90.9</ele>
      <time>2014-03-30T10:24:53Z</time>
    </trkpt>
    <trkpt lat="48.478551" lon="2.652488">
      <ele>90.7</ele>
      <time>2014-03-30T10:24:56Z</time>
    </trkpt>
    <trkpt lat="48.478635" lon="2.652419">
      <ele>90.5</ele>
      <time>2014-03-30T10:25:00Z</time>
    </trkpt>
    <trkpt lat="48.478721" lon="2.652348">
      <ele>90.4</ele>
      <time>2014-03-30T10:25:02Z</time>
    </trkpt>
    <trkpt lat="48.478818" lon="2.652271">
      <ele>90.3</ele>
      <time>2014-03-30T10:25:05Z</time>
    </trkpt>
    <trkpt lat="48.478927" lon="2.652203">
      <ele>90.3</ele>
      <time>2014-03-30T10:25:08Z</time>
    </trkpt>
    <trkpt lat="48.479029" lon="2.652124">
      <ele>90.4</ele>
      <time>2014-03-30T10:25:11Z</time>
    </trkpt>
    <trkpt lat="48.479123" lon="2.652037">
      <ele>90.5</ele>
      <time>2014-03-30T10:25:14Z</time>
    </trkpt>
    <trkpt lat="48.479205" lon="2.651957">
      <ele>90.8</ele>
      <time>2014-03-30T10:25:19Z</time>
    </trkpt>
    <trkpt lat="48.479316" lon="2.651911">
      <ele>91.1</ele>
      <time>2014-03-30T10:25:22Z</time>
    </trkpt>
    <trkpt lat="48.479399" lon="2.651832">
      <ele>91.5</ele>
      <time>2014-03-30T10:25:24Z</time>
    </trkpt>
    <trkpt lat="48.479484" lon="2.65176">
      <ele>91.9</ele>
      <time>2014-03-30T10:25:26Z</time>
    </trkpt>
    <trkpt lat="48.479586" lon="2.651649">
      <ele>92.5</ele>
      <time>2014-03-30T10:25:28Z</time>
    </trkpt>
    <trkpt lat="48.479687" lon="2.651563">
      <ele>92.9</ele>
      <time>2014-03-30T10:25:31Z</time>
    </trkpt>
    <trkpt lat="48.479782" lon="2.651477">
      <ele>93.2</ele>
      <time>2014-03-30T10:25:34Z</time>
    </trkpt>
    <trkpt lat="48.479871" lon="2.651404">
      <ele>93.5</ele>
      <time>2014-03-30T10:25:37Z</time>
    </trkpt>
    <trkpt lat="48.479956" lon="2.651305">
      <ele>93.8</ele>
      <time>2014-03-30T10:25:40Z</time>
    </trkpt>
    <trkpt lat="48.480045" lon="2.651228">
      <ele>94.1</ele>
      <time>2014-03-30T10:25:43Z</time>
    </trkpt>
    <trkpt lat="48.480239" lon="2.651039">
      <ele>94.6</ele>
      <time>2014-03-30T10:25:49Z</time>
    </trkpt>
    <trkpt lat="48.480325" lon="2.650978">
      <ele>94.8</ele>
      <time>2014-03-30T10:25:53Z</time>
    </trkpt>
    <trkpt lat="48.480427" lon="2.650882">
      <ele>95.0</ele>
      <time>2014-03-30T10:25:57Z</time>
    </trkpt>
    <trkpt lat="48.480529" lon="2.650795">
      <ele>95.2</ele>
      <time>2014-03-30T10:26:01Z</time>
    </trkpt>
    <trkpt lat="48.480598" lon="2.650708">
      <ele>95.3</ele>
      <time>2014-03-30T10:26:04Z</time>
    </trkpt>
    <trkpt lat="48.480704" lon="2.650634">
      <ele>95.5</ele>
      <time>2014-03-30T10:26:08Z</time>
    </trkpt>
    <trkpt lat="48.480805" lon="2.650573">
      <ele>95.6</ele>
      <time>2014-03-30T10:26:11Z</time>
    </trkpt>
    <trkpt lat="48.480892" lon="2.650516">
      <ele>96.0</ele>
      <time>2014-03-30T10:26:15Z</time>
    </trkpt>
    <trkpt lat="48.480974" lon="2.650449">
      <ele>96.4</ele>
      <time>2014-03-30T10:26:19Z</time>
    </trkpt>
    <trkpt lat="48.481057" lon="2.650395">
      <ele>96.8</ele>
      <time>2014-03-30T10:26:22Z</time>
    </trkpt>
    <trkpt lat="48.481139" lon="2.650316">
      <ele>97.2</ele>
      <time>2014-03-30T10:26:25Z</time>
    </trkpt>
    <trkpt lat="48.481221" lon="2.650238">
      <ele>97.6</ele>
      <time>2014-03-30T10:26:31Z</time>
    </trkpt>
    <trkpt lat="48.481317" lon="2.650171">
      <ele>98.1</ele>
      <time>2014-03-30T10:26:35Z</time>
    </trkpt>
    <trkpt lat="48.481397" lon="2.650098">
      <ele>98.5</ele>
      <time>2014-03-30T10:26:39Z</time>
    </trkpt>
    <trkpt lat="48.481483" lon="2.650028">
      <ele>98.9</ele>
      <time>2014-03-30T10:26:44Z</time>
    </trkpt>
    <trkpt lat="48.481662" lon="2.649914">
      <ele>100.2</ele>
      <time>2014-03-30T10:26:53Z</time>
    </trkpt>
    <trkpt lat="48.481756" lon="2.649843">
      <ele>100.9</ele>
      <time>2014-03-30T10:26:57Z</time>
    </trkpt>
    <trkpt lat="48.481844" lon="2.649754">
      <ele>101.5</ele>
      <time>2014-03-30T10:27:01Z</time>
    </trkpt>
    <trkpt lat="48.48195" lon="2.649679">
      <ele>102.2</ele>
      <time>2014-03-30T10:27:06Z</time>
    </trkpt>
    <trkpt lat="48.482036" lon="2.649598">
      <ele>102.8</ele>
      <time>2014-03-30T10:27:09Z</time>
    </trkpt>
    <trkpt lat="48.482135" lon="2.649504">
      <ele>103.3</ele>
      <time>2014-03-30T10:27:13Z</time>
    </trkpt>
    <trkpt lat="48.482225" lon="2.649451">
      <ele>103.8</ele>
      <time>2014-03-30T10:27:18Z</time>
    </trkpt>
    <trkpt lat="48.482328" lon="2.649378">
      <ele>104.3</ele>
      <time>2014-03-30T10:27:22Z</time>
    </trkpt>
    <trkpt lat="48.48242" lon="2.649285">
      <ele>104.7</ele>
      <time>2014-03-30T10:27:26Z</time>
    </trkpt>
    <trkpt lat="48.482513" lon="2.64921">
      <ele>104.9</ele>
      <time>2014-03-30T10:27:30Z</time>
    </trkpt>
    <trkpt lat="48.482594" lon="2.649148">
      <ele>104.6</ele>
      <time>2014-03-30T10:27:33Z</time>
    </trkpt>
    <trkpt lat="48.482671" lon="2.649074">
      <ele>104.3</ele>
      <time>2014-03-30T10:27:35Z</time>
    </trkpt>
    <trkpt lat="48.482751" lon="2.64901">
      <ele>103.9</ele>
      <time>2014-03-30T10:27:37Z</time>
    </trkpt>
    <trkpt lat="48.482837" lon="2.648952">
      <ele>103.5</ele>
      <time>2014-03-30T10:27:40Z</time>
    </trkpt>
    <trkpt lat="48.482913" lon="2.648842">
      <ele>103.2</ele>
      <time>2014-03-30T10:27:42Z</time>
    </trkpt>
    <trkpt lat="48.483022" lon="2.648747">
      <ele>102.7</ele>
      <time>2014-03-30T10:27:46Z</time>
    </trkpt>
    <trkpt lat="48.483193" lon="2.648576">
      <ele>101.8</ele>
      <time>2014-03-30T10:27:51Z</time>
    </trkpt>
    <trkpt lat="48.483311" lon="2.648486">
      <ele>101.1</ele>
      <time>2014-03-30T10:27:54Z</time>
    </trkpt>
    <trkpt lat="48.483405" lon="2.648412">
      <ele>100.7</ele>
      <time>2014-03-30T10:27:57Z</time>
    </trkpt>
    <trkpt lat="48.483508" lon="2.648333">
      <ele>100.2</ele>
      <time>2014-03-30T10:28:00Z</time>
    </trkpt>
    <trkpt lat="48.4836" lon="2.648251">
      <ele>99.7</ele>
      <time>2014-03-30T10:28:03Z</time>
    </trkpt>
    <trkpt lat="48.483681" lon="2.648188">
      <ele>99.2</ele>
      <time>2014-03-30T10:28:05Z</time>
    </trkpt>
    <trkpt lat="48.483785" lon="2.648118">
      <ele>98.7</ele>
      <time>2014-03-30T10:28:08Z</time>
    </trkpt>
    <trkpt lat="48.483877" lon="2.648035">
      <ele>98.3</ele>
      <time>2014-03-30T10:28:11Z</time>
    </trkpt>
    <trkpt lat="48.483981" lon="2.647955">
      <ele>97.8</ele>
      <time>2014-03-30T10:28:14Z</time>
    </trkpt>
    <trkpt lat="48.484069" lon="2.647884">
      <ele>97.4</ele>
      <time>2014-03-30T10:28:17Z</time>
    </trkpt>
    <trkpt lat="48.484142" lon="2.647804">
      <ele>97.1</ele>
      <time>2014-03-30T10:28:19Z</time>
    </trkpt>
    <trkpt lat="48.484238" lon="2.647711">
      <ele>97.0</ele>
      <time>2014-03-30T10:28:22Z</time>
    </trkpt>
    <trkpt lat="48.484332" lon="2.647619">
      <ele>97.0</ele>
      <time>2014-03-30T10:28:25Z</time>
    </trkpt>
    <trkpt lat="48.484432" lon="2.64754">
      <ele>97.0</ele>
      <time>2014-03-30T10:28:27Z</time>
    </trkpt>
    <trkpt lat="48.484526" lon="2.647463">
      <ele>97.1</ele>
      <time>2014-03-30T10:28:29Z</time>
    </trkpt>
    <trkpt lat="48.484612" lon="2.64739">
      <ele>97.2</ele>
      <time>2014-03-30T10:28:31Z</time>
    </trkpt>
    <trkpt lat="48.484703" lon="2.647314">
      <ele>97.4</ele>
      <time>2014-03-30T10:28:33Z</time>
    </trkpt>
    <trkpt lat="48.484804" lon="2.64724">
      <ele>97.6</ele>
      <time>2014-03-30T10:28:35Z</time>
    </trkpt>
    <trkpt lat="48.4849" lon="2.647157">
      <ele>97.8</ele>
      <time>2014-03-30T10:28:37Z</time>
    </trkpt>
    <trkpt lat="48.484993" lon="2.647087">
      <ele>98.0</ele>
      <time>2014-03-30T10:28:39Z</time>
    </trkpt>
    <trkpt lat="48.485073" lon="2.647011">
      <ele>97.9</ele>
      <time>2014-03-30T10:28:41Z</time>
    </trkpt>
    <trkpt lat="48.485203" lon="2.646915">
      <ele>97.7</ele>
      <time>2014-03-30T10:28:44Z</time>
    </trkpt>
    <trkpt lat="48.485302" lon="2.646822">
      <ele>97.6</ele>
      <time>2014-03-30T10:28:46Z</time>
    </trkpt>
    <trkpt lat="48.485405" lon="2.646726">
      <ele>97.4</ele>
      <time>2014-03-30T10:28:48Z</time>
    </trkpt>
    <trkpt lat="48.48561" lon="2.646553">
      <ele>96.8</ele>
      <time>2014-03-30T10:28:52Z</time>
    </trkpt>
    <trkpt lat="48.485718" lon="2.646472">
      <ele>96.4</ele>
      <time>2014-03-30T10:28:54Z</time>
    </trkpt>
    <trkpt lat="48.485818" lon="2.646391">
      <ele>96.1</ele>
      <time>2014-03-30T10:28:56Z</time>
    </trkpt>
    <trkpt lat="48.485924" lon="2.646294">
      <ele>95.6</ele>
      <time>2014-03-30T10:28:58Z</time>
    </trkpt>
    <trkpt lat="48.486031" lon="2.646176">
      <ele>95.0</ele>
      <time>2014-03-30T10:29:00Z</time>
    </trkpt>
    <trkpt lat="48.486149" lon="2.646051">
      <ele>94.3</ele>
      <time>2014-03-30T10:29:02Z</time>
    </trkpt>
    <trkpt lat="48.486265" lon="2.645949">
      <ele>93.6</ele>
      <time>2014-03-30T10:29:04Z</time>
    </trkpt>
    <trkpt lat="48.486371" lon="2.645871">
      <ele>92.8</ele>
      <time>2014-03-30T10:29:06Z</time>
    </trkpt>
    <trkpt lat="48.486457" lon="2.645775">
      <ele>92.4</ele>
      <time>2014-03-30T10:29:08Z</time>
    </trkpt>
    <trkpt lat="48.486552" lon="2.645671">
      <ele>92.0</ele>
      <time>2014-03-30T10:29:10Z</time>
    </trkpt>
    <trkpt lat="48.486634" lon="2.645595">
      <ele>91.7</ele>
      <time>2014-03-30T10:29:12Z</time>
    </trkpt>
    <trkpt lat="48.486726" lon="2.645516">
      <ele>92.0</ele>
      <time>2014-03-30T10:29:14Z</time>
    </trkpt>
    <trkpt lat="48.486841" lon="2.64541">
      <ele>92.6</ele>
      <time>2014-03-30T10:29:17Z</time>
    </trkpt>
    <trkpt lat="48.486924" lon="2.645349">
      <ele>93.0</ele>
      <time>2014-03-30T10:29:19Z</time>
    </trkpt>
    <trkpt lat="48.487016" lon="2.645292">
      <ele>93.4</ele>
      <time>2014-03-30T10:29:21Z</time>
    </trkpt>
    <trkpt lat="48.487107" lon="2.645228">
      <ele>93.8</ele>
      <time>2014-03-30T10:29:23Z</time>
    </trkpt>
    <trkpt lat="48.487188" lon="2.645153">
      <ele>94.1</ele>
      <time>2014-03-30T10:29:25Z</time>
    </trkpt>
    <trkpt lat="48.487288" lon="2.645071">
      <ele>94.4</ele>
      <time>2014-03-30T10:29:27Z</time>
    </trkpt>
    <trkpt lat="48.487379" lon="2.645">
      <ele>94.7</ele>
      <time>2014-03-30T10:29:29Z</time>
    </trkpt>
    <trkpt lat="48.487464" lon="2.644926">
      <ele>94.9</ele>
      <time>2014-03-30T10:29:31Z</time>
    </trkpt>
    <trkpt lat="48.487559" lon="2.644786">
      <ele>95.0</ele>
      <time>2014-03-30T10:29:34Z</time>
    </trkpt>
    <trkpt lat="48.487654" lon="2.644718">
      <ele>95.1</ele>
      <time>2014-03-30T10:29:37Z</time>
    </trkpt>
    <trkpt lat="48.487744" lon="2.644652">
      <ele>95.2</ele>
      <time>2014-03-30T10:29:40Z</time>
    </trkpt>
    <trkpt lat="48.48785" lon="2.644567">
      <ele>95.4</ele>
      <time>2014-03-30T10:29:43Z</time>
    </trkpt>
    <trkpt lat="48.48795" lon="2.644487">
      <ele>95.7</ele>
      <time>2014-03-30T10:29:46Z</time>
    </trkpt>
    <trkpt lat="48.488037" lon="2.644413">
      <ele>95.9</ele>
      <time>2014-03-30T10:29:49Z</time>
    </trkpt>
    <trkpt lat="48.488225" lon="2.644235">
      <ele>96.6</ele>
      <time>2014-03-30T10:29:55Z</time>
    </trkpt>
    <trkpt lat="48.48833" lon="2.644155">
      <ele>97.0</ele>
      <time>2014-03-30T10:29:58Z</time>
    </trkpt>
    <trkpt lat="48.488419" lon="2.644089">
      <ele>97.1</ele>
      <time>2014-03-30T10:30:00Z</time>
    </trkpt>
    <trkpt lat="48.488527" lon="2.644008">
      <ele>97.2</ele>
      <time>2014-03-30T10:30:03Z</time>
    </trkpt>
    <trkpt lat="48.488615" lon="2.643946">
      <ele>97.3</ele>
      <time>2014-03-30T10:30:06Z</time>
    </trkpt>
    <trkpt lat="48.48872" lon="2.6439">
      <ele>97.3</ele>
      <time>2014-03-30T10:30:10Z</time>
    </trkpt>
    <trkpt lat="48.48882" lon="2.643854">
      <ele>97.4</ele>
      <time>2014-03-30T10:30:13Z</time>
    </trkpt>
    <trkpt lat="48.488927" lon="2.643793">
      <ele>97.4</ele>
      <time>2014-03-30T10:30:16Z</time>
    </trkpt>
    <trkpt lat="48.489023" lon="2.643758">
      <ele>97.5</ele>
      <time>2014-03-30T10:30:18Z</time>
    </trkpt>
    <trkpt lat="48.489148" lon="2.643702">
      <ele>97.6</ele>
      <time>2014-03-30T10:30:21Z</time>
    </trkpt>
    <trkpt lat="48.489274" lon="2.643658">
      <ele>98.1</ele>
      <time>2014-03-30T10:30:24Z</time>
    </trkpt>
    <trkpt lat="48.489379" lon="2.643593">
      <ele>98.7</ele>
      <time>2014-03-30T10:30:27Z</time>
    </trkpt>
    <trkpt lat="48.48948" lon="2.643567">
      <ele>99.2</ele>
      <time>2014-03-30T10:30:30Z</time>
    </trkpt>
    <trkpt lat="48.489585" lon="2.643509">
      <ele>99.8</ele>
      <time>2014-03-30T10:30:32Z</time>
    </trkpt>
    <trkpt lat="48.489695" lon="2.643412">
      <ele>100.4</ele>
      <time>2014-03-30T10:30:35Z</time>
    </trkpt>
    <trkpt lat="48.489779" lon="2.64334">
      <ele>100.9</ele>
      <time>2014-03-30T10:30:37Z</time>
    </trkpt>
    <trkpt lat="48.489858" lon="2.64325">
      <ele>101.2</ele>
      <time>2014-03-30T10:30:39Z</time>
    </trkpt>
    <trkpt lat="48.489946" lon="2.643133">
      <ele>101.5</ele>
      <time>2014-03-30T10:30:42Z</time>
    </trkpt>
    <trkpt lat="48.490016" lon="2.643041">
      <ele>101.7</ele>
      <time>2014-03-30T10:30:44Z</time>
    </trkpt>
    <trkpt lat="48.490104" lon="2.642905">
      <ele>101.6</ele>
      <time>2014-03-30T10:30:47Z</time>
    </trkpt>
    <trkpt lat="48.490198" lon="2.642801">
      <ele>101.5</ele>
      <time>2014-03-30T10:30:50Z</time>
    </trkpt>
    <trkpt lat="48.490394" lon="2.642581">
      <ele>101.5</ele>
      <time>2014-03-30T10:30:55Z</time>
    </trkpt>
    <trkpt lat="48.490476" lon="2.642505">
      <ele>101.6</ele>
      <time>2014-03-30T10:30:57Z</time>
    </trkpt>
    <trkpt lat="48.490569" lon="2.642385">
      <ele>101.5</ele>
      <time>2014-03-30T10:31:00Z</time>
    </trkpt>
    <trkpt lat="48.490641" lon="2.642291">
      <ele>101.5</ele>
      <time>2014-03-30T10:31:02Z</time>
    </trkpt>
    <trkpt lat="48.490722" lon="2.642207">
      <ele>101.5</ele>
      <time>2014-03-30T10:31:04Z</time>
    </trkpt>
    <trkpt lat="48.490813" lon="2.642106">
      <ele>101.5</ele>
      <time>2014-03-30T10:31:07Z</time>
    </trkpt>
    <trkpt lat="48.490899" lon="2.642008">
      <ele>101.4</ele>
      <time>2014-03-30T10:31:09Z</time>
    </trkpt>
    <trkpt lat="48.490991" lon="2.641884">
      <ele>101.2</ele>
      <time>2014-03-30T10:31:12Z</time>
    </trkpt>
    <trkpt lat="48.491084" lon="2.641759">
      <ele>101.1</ele>
      <time>2014-03-30T10:31:15Z</time>
    </trkpt>
    <trkpt lat="48.491144" lon="2.641656">
      <ele>101.0</ele>
      <time>2014-03-30T10:31:17Z</time>
    </trkpt>
    <trkpt lat="48.491235" lon="2.64154">
      <ele>101.1</ele>
      <time>2014-03-30T10:31:21Z</time>
    </trkpt>
    <trkpt lat="48.491327" lon="2.641442">
      <ele>101.2</ele>
      <time>2014-03-30T10:31:24Z</time>
    </trkpt>
    <trkpt lat="48.491397" lon="2.641335">
      <ele>101.3</ele>
      <time>2014-03-30T10:31:26Z</time>
    </trkpt>
    <trkpt lat="48.491491" lon="2.641238">
      <ele>101.4</ele>
      <time>2014-03-30T10:31:28Z</time>
    </trkpt>
    <trkpt lat="48.49156" lon="2.641135">
      <ele>101.6</ele>
      <time>2014-03-30T10:31:30Z</time>
    </trkpt>
    <trkpt lat="48.49165" lon="2.641005">
      <ele>101.8</ele>
      <time>2014-03-30T10:31:33Z</time>
    </trkpt>
    <trkpt lat="48.491713" lon="2.640898">
      <ele>101.9</ele>
      <time>2014-03-30T10:31:36Z</time>
    </trkpt>
    <trkpt lat="48.491783" lon="2.640801">
      <ele>101.9</ele>
      <time>2014-03-30T10:31:38Z</time>
    </trkpt>
    <trkpt lat="48.491871" lon="2.640704">
      <ele>101.7</ele>
      <time>2014-03-30T10:31:41Z</time>
    </trkpt>
    <trkpt lat="48.491981" lon="2.640596">
      <ele>101.5</ele>
      <time>2014-03-30T10:31:44Z</time>
    </trkpt>
    <trkpt lat="48.492058" lon="2.640506">
      <ele>101.3</ele>
      <time>2014-03-30T10:31:46Z</time>
    </trkpt>
    <trkpt lat="48.492137" lon="2.640399">
      <ele>101.1</ele>
      <time>2014-03-30T10:31:48Z</time>
    </trkpt>
    <trkpt lat="48.492204" lon="2.6403">
      <ele>100.9</ele>
      <time>2014-03-30T10:31:50Z</time>
    </trkpt>
    <trkpt lat="48.492299" lon="2.640194">
      <ele>100.7</ele>
      <time>2014-03-30T10:31:53Z</time>
    </trkpt>
    <trkpt lat="48.492485" lon="2.639994">
      <ele>100.0</ele>
      <time>2014-03-30T10:31:58Z</time>
    </trkpt>
    <trkpt lat="48.492581" lon="2.639898">
      <ele>99.8</ele>
      <time>2014-03-30T10:32:00Z</time>
    </trkpt>
    <trkpt lat="48.492681" lon="2.639789">
      <ele>99.6</ele>
      <time>2014-03-30T10:32:03Z</time>
    </trkpt>
    <trkpt lat="48.49275" lon="2.639702">
      <ele>99.5</ele>
      <time>2014-03-30T10:32:05Z</time>
    </trkpt>
    <trkpt lat="48.492839" lon="2.639595">
      <ele>99.3</ele>
      <time>2014-03-30T10:32:08Z</time>
    </trkpt>
    <trkpt lat="48.492942" lon="2.639504">
      <ele>99.0</ele>
      <time>2014-03-30T10:32:11Z</time>
    </trkpt>
    <trkpt lat="48.493039" lon="2.639449">
      <ele>98.7</ele>
      <time>2014-03-30T10:32:13Z</time>
    </trkpt>
    <trkpt lat="48.493157" lon="2.639334">
      <ele>98.4</ele>
      <time>2014-03-30T10:32:16Z</time>
    </trkpt>
    <trkpt lat="48.493216" lon="2.63921">
      <ele>98.4</ele>
      <time>2014-03-30T10:32:18Z</time>
    </trkpt>
    <trkpt lat="48.493271" lon="2.639099">
      <ele>98.2</ele>
      <time>2014-03-30T10:32:20Z</time>
    </trkpt>
    <trkpt lat="48.493349" lon="2.638966">
      <ele>97.9</ele>
      <time>2014-03-30T10:32:23Z</time>
    </trkpt>
    <trkpt lat="48.493412" lon="2.638869">
      <ele>97.8</ele>
      <time>2014-03-30T10:32:25Z</time>
    </trkpt>
    <trkpt lat="48.493515" lon="2.638769">
      <ele>97.5</ele>
      <time>2014-03-30T10:32:28Z</time>
    </trkpt>
    <trkpt lat="48.493612" lon="2.638638">
      <ele>97.2</ele>
      <time>2014-03-30T10:32:31Z</time>
    </trkpt>
    <trkpt lat="48.493679" lon="2.638539">
      <ele>97.1</ele>
      <time>2014-03-30T10:32:33Z</time>
    </trkpt>
    <trkpt lat="48.49375" lon="2.638438">
      <ele>96.9</ele>
      <time>2014-03-30T10:32:35Z</time>
    </trkpt>
    <trkpt lat="48.493825" lon="2.638342">
      <ele>96.8</ele>
      <time>2014-03-30T10:32:37Z</time>
    </trkpt>
    <trkpt lat="48.493898" lon="2.638249">
      <ele>96.4</ele>
      <time>2014-03-30T10:32:39Z</time>
    </trkpt>
    <trkpt lat="48.493974" lon="2.638151">
      <ele>95.9</ele>
      <time>2014-03-30T10:32:41Z</time>
    </trkpt>
    <trkpt lat="48.494046" lon="2.638061">
      <ele>95.5</ele>
      <time>2014-03-30T10:32:43Z</time>
    </trkpt>
    <trkpt lat="48.494121" lon="2.637971">
      <ele>95.2</ele>
      <time>2014-03-30T10:32:45Z</time>
    </trkpt>
    <trkpt lat="48.494196" lon="2.637884">
      <ele>94.9</ele>
      <time>2014-03-30T10:32:47Z</time>
    </trkpt>
    <trkpt lat="48.494267" lon="2.637789">
      <ele>94.5</ele>
      <time>2014-03-30T10:32:49Z</time>
    </trkpt>
    <trkpt lat="48.494343" lon="2.637697">
      <ele>94.2</ele>
      <time>2014-03-30T10:32:51Z</time>
    </trkpt>
    <trkpt lat="48.494416" lon="2.637598">
      <ele>93.9</ele>
      <time>2014-03-30T10:32:53Z</time>
    </trkpt>
    <trkpt lat="48.494498" lon="2.637494">
      <ele>93.6</ele>
      <time>2014-03-30T10:32:55Z</time>
    </trkpt>
    <trkpt lat="48.494663" lon="2.637288">
      <ele>93.6</ele>
      <time>2014-03-30T10:32:59Z</time>
    </trkpt>
    <trkpt lat="48.494748" lon="2.637183">
      <ele>93.6</ele>
      <time>2014-03-30T10:33:01Z</time>
    </trkpt>
    <trkpt lat="48.494833" lon="2.63708">
      <ele>93.6</ele>
      <time>2014-03-30T10:33:03Z</time>
    </trkpt>
    <trkpt lat="48.494915" lon="2.636975">
      <ele>93.7</ele>
      <time>2014-03-30T10:33:05Z</time>
    </trkpt>
    <trkpt lat="48.495005" lon="2.636862">
      <ele>93.8</ele>
      <time>2014-03-30T10:33:07Z</time>
    </trkpt>
    <trkpt lat="48.495096" lon="2.636753">
      <ele>93.8</ele>
      <time>2014-03-30T10:33:09Z</time>
    </trkpt>
    <trkpt lat="48.495169" lon="2.63665">
      <ele>93.8</ele>
      <time>2014-03-30T10:33:11Z</time>
    </trkpt>
    <trkpt lat="48.495245" lon="2.636545">
      <ele>93.4</ele>
      <time>2014-03-30T10:33:13Z</time>
    </trkpt>
    <trkpt lat="48.49533" lon="2.636441">
      <ele>93.1</ele>
      <time>2014-03-30T10:33:15Z</time>
    </trkpt>
    <trkpt lat="48.495423" lon="2.636335">
      <ele>92.7</ele>
      <time>2014-03-30T10:33:17Z</time>
    </trkpt>
    <trkpt lat="48.495508" lon="2.636225">
      <ele>92.3</ele>
      <time>2014-03-30T10:33:19Z</time>
    </trkpt>
    <trkpt lat="48.495593" lon="2.636119">
      <ele>92.0</ele>
      <time>2014-03-30T10:33:21Z</time>
    </trkpt>
    <trkpt lat="48.495671" lon="2.63603">
      <ele>91.7</ele>
      <time>2014-03-30T10:33:23Z</time>
    </trkpt>
    <trkpt lat="48.495746" lon="2.635939">
      <ele>91.4</ele>
      <time>2014-03-30T10:33:25Z</time>
    </trkpt>
    <trkpt lat="48.495819" lon="2.63585">
      <ele>91.1</ele>
      <time>2014-03-30T10:33:27Z</time>
    </trkpt>
    <trkpt lat="48.49589" lon="2.635762">
      <ele>91.3</ele>
      <time>2014-03-30T10:33:29Z</time>
    </trkpt>
    <trkpt lat="48.495962" lon="2.635671">
      <ele>91.6</ele>
      <time>2014-03-30T10:33:31Z</time>
    </trkpt>
    <trkpt lat="48.496054" lon="2.635558">
      <ele>91.9</ele>
      <time>2014-03-30T10:33:34Z</time>
    </trkpt>
    <trkpt lat="48.496144" lon="2.635416">
      <ele>92.1</ele>
      <time>2014-03-30T10:33:38Z</time>
    </trkpt>
    <trkpt lat="48.496223" lon="2.635344">
      <ele>92.3</ele>
      <time>2014-03-30T10:33:40Z</time>
    </trkpt>
    <trkpt lat="48.496327" lon="2.635235">
      <ele>92.5</ele>
      <time>2014-03-30T10:33:42Z</time>
    </trkpt>
    <trkpt lat="48.496433" lon="2.635087">
      <ele>92.6</ele>
      <time>2014-03-30T10:33:44Z</time>
    </trkpt>
    <trkpt lat="48.496513" lon="2.634986">
      <ele>92.6</ele>
      <time>2014-03-30T10:33:46Z</time>
    </trkpt>
    <trkpt lat="48.496586" lon="2.634885">
      <ele>92.7</ele>
      <time>2014-03-30T10:33:48Z</time>
    </trkpt>
    <trkpt lat="48.496664" lon="2.634817">
      <ele>92.8</ele>
      <time>2014-03-30T10:33:51Z</time>
    </trkpt>
    <trkpt lat="48.496732" lon="2.634913">
      <ele>93.3</ele>
      <time>2014-03-30T10:34:02Z</time>
    </trkpt>
  </trkseg>
</trk>
</gpx>
